<?xml version="1.0" encoding="UTF-8" standalone="no" ?>
<gpx xmlns="http://www.topografix.com/GPX/1/1" xmlns:xsi="http://www.w3.org/2001/XMLSchema-instance" xsi:schemaLocation="http://www.topografix.com/GPX/1/1 http://www.topografix.com/GPX/1/1/gpx.xsd" version="1.1" creator="VisuGPX - https://www.visugpx.com">
  <metadata>
    <name>Rando Eyzinoise 2023</name>
  </metadata>
  <trk>
    <name><![CDATA[Rando Eyzinoise 2023 | Vélo | Strava]]></name>
    <trkseg>
      <trkpt lat="45.47213" lon="4.99666">
        <ele>276.8</ele>
        <time>2023-06-11T06:21:00.000Z</time>
      </trkpt>
      <trkpt lat="45.47217" lon="4.99658">
        <ele>276.7</ele>
        <time>2023-06-11T06:21:01.000Z</time>
      </trkpt>
      <trkpt lat="45.47215" lon="4.99668">
        <ele>276.5</ele>
        <time>2023-06-11T06:21:02.000Z</time>
      </trkpt>
      <trkpt lat="45.47213" lon="4.99677">
        <ele>276.2</ele>
        <time>2023-06-11T06:21:03.000Z</time>
      </trkpt>
      <trkpt lat="45.47211" lon="4.99686">
        <ele>276</ele>
        <time>2023-06-11T06:21:05.000Z</time>
      </trkpt>
      <trkpt lat="45.4721" lon="4.99688">
        <ele>276</ele>
        <time>2023-06-11T06:21:06.000Z</time>
      </trkpt>
      <trkpt lat="45.4722" lon="4.99687">
        <ele>275.6</ele>
        <time>2023-06-11T06:21:27.000Z</time>
      </trkpt>
      <trkpt lat="45.47226" lon="4.99688">
        <ele>275.4</ele>
        <time>2023-06-11T06:21:29.000Z</time>
      </trkpt>
      <trkpt lat="45.4724" lon="4.99691">
        <ele>274.9</ele>
        <time>2023-06-11T06:21:33.000Z</time>
      </trkpt>
      <trkpt lat="45.47246" lon="4.99693">
        <ele>274.7</ele>
        <time>2023-06-11T06:21:34.000Z</time>
      </trkpt>
      <trkpt lat="45.47251" lon="4.99694">
        <ele>274.5</ele>
        <time>2023-06-11T06:21:35.000Z</time>
      </trkpt>
      <trkpt lat="45.47257" lon="4.99695">
        <ele>274.3</ele>
        <time>2023-06-11T06:21:36.000Z</time>
      </trkpt>
      <trkpt lat="45.4727" lon="4.99696">
        <ele>274</ele>
        <time>2023-06-11T06:21:38.000Z</time>
      </trkpt>
      <trkpt lat="45.47293" lon="4.99702">
        <ele>272.9</ele>
        <time>2023-06-11T06:21:42.000Z</time>
      </trkpt>
      <trkpt lat="45.47299" lon="4.99705">
        <ele>272.6</ele>
        <time>2023-06-11T06:21:43.000Z</time>
      </trkpt>
      <trkpt lat="45.47317" lon="4.9972">
        <ele>271.6</ele>
        <time>2023-06-11T06:21:46.000Z</time>
      </trkpt>
      <trkpt lat="45.47323" lon="4.99725">
        <ele>271.3</ele>
        <time>2023-06-11T06:21:47.000Z</time>
      </trkpt>
      <trkpt lat="45.47329" lon="4.99728">
        <ele>271</ele>
        <time>2023-06-11T06:21:48.000Z</time>
      </trkpt>
      <trkpt lat="45.47336" lon="4.99731">
        <ele>270.7</ele>
        <time>2023-06-11T06:21:49.000Z</time>
      </trkpt>
      <trkpt lat="45.4735" lon="4.99737">
        <ele>270.2</ele>
        <time>2023-06-11T06:21:51.000Z</time>
      </trkpt>
      <trkpt lat="45.47364" lon="4.9974">
        <ele>269.9</ele>
        <time>2023-06-11T06:21:53.000Z</time>
      </trkpt>
      <trkpt lat="45.47376" lon="4.99745">
        <ele>269.8</ele>
        <time>2023-06-11T06:21:55.000Z</time>
      </trkpt>
      <trkpt lat="45.47387" lon="4.99748">
        <ele>269.8</ele>
        <time>2023-06-11T06:21:57.000Z</time>
      </trkpt>
      <trkpt lat="45.47392" lon="4.9975">
        <ele>269.7</ele>
        <time>2023-06-11T06:21:58.000Z</time>
      </trkpt>
      <trkpt lat="45.47395" lon="4.99751">
        <ele>269.6</ele>
        <time>2023-06-11T06:21:59.000Z</time>
      </trkpt>
      <trkpt lat="45.474" lon="4.9975">
        <ele>269.6</ele>
        <time>2023-06-11T06:22:01.000Z</time>
      </trkpt>
      <trkpt lat="45.47403" lon="4.99749">
        <ele>269.6</ele>
        <time>2023-06-11T06:22:02.000Z</time>
      </trkpt>
      <trkpt lat="45.47409" lon="4.99738">
        <ele>269.6</ele>
        <time>2023-06-11T06:22:05.000Z</time>
      </trkpt>
      <trkpt lat="45.47413" lon="4.99723">
        <ele>269.5</ele>
        <time>2023-06-11T06:22:08.000Z</time>
      </trkpt>
      <trkpt lat="45.47417" lon="4.99711">
        <ele>269.7</ele>
        <time>2023-06-11T06:22:10.000Z</time>
      </trkpt>
      <trkpt lat="45.47423" lon="4.99695">
        <ele>270</ele>
        <time>2023-06-11T06:22:13.000Z</time>
      </trkpt>
      <trkpt lat="45.47429" lon="4.99677">
        <ele>270.3</ele>
        <time>2023-06-11T06:22:16.000Z</time>
      </trkpt>
      <trkpt lat="45.47438" lon="4.99652">
        <ele>270.4</ele>
        <time>2023-06-11T06:22:20.000Z</time>
      </trkpt>
      <trkpt lat="45.47443" lon="4.99634">
        <ele>270.6</ele>
        <time>2023-06-11T06:22:23.000Z</time>
      </trkpt>
      <trkpt lat="45.47446" lon="4.99615">
        <ele>270.7</ele>
        <time>2023-06-11T06:22:26.000Z</time>
      </trkpt>
      <trkpt lat="45.47449" lon="4.99597">
        <ele>270.9</ele>
        <time>2023-06-11T06:22:29.000Z</time>
      </trkpt>
      <trkpt lat="45.47451" lon="4.99592">
        <ele>271</ele>
        <time>2023-06-11T06:22:30.000Z</time>
      </trkpt>
      <trkpt lat="45.47456" lon="4.99582">
        <ele>271.1</ele>
        <time>2023-06-11T06:22:32.000Z</time>
      </trkpt>
      <trkpt lat="45.47458" lon="4.99577">
        <ele>271.2</ele>
        <time>2023-06-11T06:22:33.000Z</time>
      </trkpt>
      <trkpt lat="45.47464" lon="4.99559">
        <ele>271.5</ele>
        <time>2023-06-11T06:22:36.000Z</time>
      </trkpt>
      <trkpt lat="45.47465" lon="4.99552">
        <ele>271.6</ele>
        <time>2023-06-11T06:22:37.000Z</time>
      </trkpt>
      <trkpt lat="45.47467" lon="4.9954">
        <ele>271.7</ele>
        <time>2023-06-11T06:22:39.000Z</time>
      </trkpt>
      <trkpt lat="45.47469" lon="4.99536">
        <ele>271.9</ele>
        <time>2023-06-11T06:22:40.000Z</time>
      </trkpt>
      <trkpt lat="45.47475" lon="4.99527">
        <ele>272.1</ele>
        <time>2023-06-11T06:22:42.000Z</time>
      </trkpt>
      <trkpt lat="45.4748" lon="4.99517">
        <ele>272.3</ele>
        <time>2023-06-11T06:22:44.000Z</time>
      </trkpt>
      <trkpt lat="45.47484" lon="4.99512">
        <ele>272.4</ele>
        <time>2023-06-11T06:22:45.000Z</time>
      </trkpt>
      <trkpt lat="45.47491" lon="4.99505">
        <ele>272.6</ele>
        <time>2023-06-11T06:22:47.000Z</time>
      </trkpt>
      <trkpt lat="45.47496" lon="4.99503">
        <ele>272.7</ele>
        <time>2023-06-11T06:22:48.000Z</time>
      </trkpt>
      <trkpt lat="45.475" lon="4.995">
        <ele>272.8</ele>
        <time>2023-06-11T06:22:49.000Z</time>
      </trkpt>
      <trkpt lat="45.47505" lon="4.99491">
        <ele>272.9</ele>
        <time>2023-06-11T06:22:51.000Z</time>
      </trkpt>
      <trkpt lat="45.47512" lon="4.99472">
        <ele>273.1</ele>
        <time>2023-06-11T06:22:55.000Z</time>
      </trkpt>
      <trkpt lat="45.47515" lon="4.99467">
        <ele>273.1</ele>
        <time>2023-06-11T06:22:56.000Z</time>
      </trkpt>
      <trkpt lat="45.47528" lon="4.9945">
        <ele>273.4</ele>
        <time>2023-06-11T06:23:00.000Z</time>
      </trkpt>
      <trkpt lat="45.47531" lon="4.99446">
        <ele>273.5</ele>
        <time>2023-06-11T06:23:01.000Z</time>
      </trkpt>
      <trkpt lat="45.47534" lon="4.99442">
        <ele>273.6</ele>
        <time>2023-06-11T06:23:02.000Z</time>
      </trkpt>
      <trkpt lat="45.47548" lon="4.99426">
        <ele>273.9</ele>
        <time>2023-06-11T06:23:06.000Z</time>
      </trkpt>
      <trkpt lat="45.47551" lon="4.99423">
        <ele>274</ele>
        <time>2023-06-11T06:23:07.000Z</time>
      </trkpt>
      <trkpt lat="45.47554" lon="4.99419">
        <ele>274.1</ele>
        <time>2023-06-11T06:23:08.000Z</time>
      </trkpt>
      <trkpt lat="45.4756" lon="4.99406">
        <ele>274.4</ele>
        <time>2023-06-11T06:23:11.000Z</time>
      </trkpt>
      <trkpt lat="45.47573" lon="4.99387">
        <ele>274.9</ele>
        <time>2023-06-11T06:23:15.000Z</time>
      </trkpt>
      <trkpt lat="45.47576" lon="4.99382">
        <ele>275</ele>
        <time>2023-06-11T06:23:16.000Z</time>
      </trkpt>
      <trkpt lat="45.47586" lon="4.99361">
        <ele>275.5</ele>
        <time>2023-06-11T06:23:20.000Z</time>
      </trkpt>
      <trkpt lat="45.47587" lon="4.99355">
        <ele>275.6</ele>
        <time>2023-06-11T06:23:21.000Z</time>
      </trkpt>
      <trkpt lat="45.47589" lon="4.99349">
        <ele>275.7</ele>
        <time>2023-06-11T06:23:22.000Z</time>
      </trkpt>
      <trkpt lat="45.47593" lon="4.99339">
        <ele>275.8</ele>
        <time>2023-06-11T06:23:24.000Z</time>
      </trkpt>
      <trkpt lat="45.47594" lon="4.99333">
        <ele>275.9</ele>
        <time>2023-06-11T06:23:25.000Z</time>
      </trkpt>
      <trkpt lat="45.47595" lon="4.99327">
        <ele>276</ele>
        <time>2023-06-11T06:23:26.000Z</time>
      </trkpt>
      <trkpt lat="45.47599" lon="4.99315">
        <ele>276.2</ele>
        <time>2023-06-11T06:23:28.000Z</time>
      </trkpt>
      <trkpt lat="45.47607" lon="4.993">
        <ele>276.4</ele>
        <time>2023-06-11T06:23:31.000Z</time>
      </trkpt>
      <trkpt lat="45.47613" lon="4.99292">
        <ele>276.6</ele>
        <time>2023-06-11T06:23:33.000Z</time>
      </trkpt>
      <trkpt lat="45.47628" lon="4.99278">
        <ele>277</ele>
        <time>2023-06-11T06:23:37.000Z</time>
      </trkpt>
      <trkpt lat="45.47639" lon="4.9927">
        <ele>277.3</ele>
        <time>2023-06-11T06:23:40.000Z</time>
      </trkpt>
      <trkpt lat="45.47644" lon="4.99267">
        <ele>277.4</ele>
        <time>2023-06-11T06:23:41.000Z</time>
      </trkpt>
      <trkpt lat="45.47647" lon="4.99264">
        <ele>277.6</ele>
        <time>2023-06-11T06:23:42.000Z</time>
      </trkpt>
      <trkpt lat="45.47655" lon="4.99258">
        <ele>277.8</ele>
        <time>2023-06-11T06:23:44.000Z</time>
      </trkpt>
      <trkpt lat="45.47659" lon="4.99255">
        <ele>277.9</ele>
        <time>2023-06-11T06:23:45.000Z</time>
      </trkpt>
      <trkpt lat="45.47671" lon="4.99246">
        <ele>278.2</ele>
        <time>2023-06-11T06:23:48.000Z</time>
      </trkpt>
      <trkpt lat="45.47677" lon="4.99241">
        <ele>278.3</ele>
        <time>2023-06-11T06:23:50.000Z</time>
      </trkpt>
      <trkpt lat="45.47685" lon="4.99235">
        <ele>278.5</ele>
        <time>2023-06-11T06:23:52.000Z</time>
      </trkpt>
      <trkpt lat="45.47693" lon="4.99229">
        <ele>278.7</ele>
        <time>2023-06-11T06:23:54.000Z</time>
      </trkpt>
      <trkpt lat="45.47697" lon="4.99226">
        <ele>278.8</ele>
        <time>2023-06-11T06:23:55.000Z</time>
      </trkpt>
      <trkpt lat="45.47724" lon="4.99208">
        <ele>279.3</ele>
        <time>2023-06-11T06:24:01.000Z</time>
      </trkpt>
      <trkpt lat="45.47727" lon="4.99204">
        <ele>279.4</ele>
        <time>2023-06-11T06:24:02.000Z</time>
      </trkpt>
      <trkpt lat="45.4773" lon="4.99199">
        <ele>279.5</ele>
        <time>2023-06-11T06:24:03.000Z</time>
      </trkpt>
      <trkpt lat="45.47735" lon="4.99189">
        <ele>279.7</ele>
        <time>2023-06-11T06:24:05.000Z</time>
      </trkpt>
      <trkpt lat="45.47737" lon="4.99185">
        <ele>279.8</ele>
        <time>2023-06-11T06:24:06.000Z</time>
      </trkpt>
      <trkpt lat="45.4774" lon="4.9918">
        <ele>279.9</ele>
        <time>2023-06-11T06:24:07.000Z</time>
      </trkpt>
      <trkpt lat="45.47749" lon="4.99163">
        <ele>280.3</ele>
        <time>2023-06-11T06:24:10.000Z</time>
      </trkpt>
      <trkpt lat="45.47754" lon="4.99153">
        <ele>280.6</ele>
        <time>2023-06-11T06:24:12.000Z</time>
      </trkpt>
      <trkpt lat="45.47757" lon="4.99149">
        <ele>280.7</ele>
        <time>2023-06-11T06:24:13.000Z</time>
      </trkpt>
      <trkpt lat="45.4776" lon="4.99144">
        <ele>280.8</ele>
        <time>2023-06-11T06:24:14.000Z</time>
      </trkpt>
      <trkpt lat="45.47762" lon="4.9914">
        <ele>280.9</ele>
        <time>2023-06-11T06:24:15.000Z</time>
      </trkpt>
      <trkpt lat="45.47781" lon="4.99114">
        <ele>281.6</ele>
        <time>2023-06-11T06:24:21.000Z</time>
      </trkpt>
      <trkpt lat="45.47785" lon="4.99109">
        <ele>281.7</ele>
        <time>2023-06-11T06:24:22.000Z</time>
      </trkpt>
      <trkpt lat="45.47789" lon="4.99105">
        <ele>281.9</ele>
        <time>2023-06-11T06:24:23.000Z</time>
      </trkpt>
      <trkpt lat="45.47801" lon="4.99095">
        <ele>282.2</ele>
        <time>2023-06-11T06:24:26.000Z</time>
      </trkpt>
      <trkpt lat="45.4781" lon="4.99087">
        <ele>282.5</ele>
        <time>2023-06-11T06:24:28.000Z</time>
      </trkpt>
      <trkpt lat="45.4782" lon="4.99077">
        <ele>282.8</ele>
        <time>2023-06-11T06:24:31.000Z</time>
      </trkpt>
      <trkpt lat="45.47823" lon="4.99073">
        <ele>282.8</ele>
        <time>2023-06-11T06:24:32.000Z</time>
      </trkpt>
      <trkpt lat="45.47834" lon="4.99058">
        <ele>283.2</ele>
        <time>2023-06-11T06:24:36.000Z</time>
      </trkpt>
      <trkpt lat="45.47838" lon="4.99054">
        <ele>283.3</ele>
        <time>2023-06-11T06:24:37.000Z</time>
      </trkpt>
      <trkpt lat="45.47851" lon="4.99046">
        <ele>283.7</ele>
        <time>2023-06-11T06:24:40.000Z</time>
      </trkpt>
      <trkpt lat="45.4788" lon="4.99026">
        <ele>284.5</ele>
        <time>2023-06-11T06:24:48.000Z</time>
      </trkpt>
      <trkpt lat="45.47887" lon="4.99021">
        <ele>284.7</ele>
        <time>2023-06-11T06:24:50.000Z</time>
      </trkpt>
      <trkpt lat="45.47895" lon="4.99015">
        <ele>284.9</ele>
        <time>2023-06-11T06:24:52.000Z</time>
      </trkpt>
      <trkpt lat="45.47899" lon="4.99012">
        <ele>285</ele>
        <time>2023-06-11T06:24:53.000Z</time>
      </trkpt>
      <trkpt lat="45.47922" lon="4.98994">
        <ele>285.5</ele>
        <time>2023-06-11T06:24:59.000Z</time>
      </trkpt>
      <trkpt lat="45.47926" lon="4.9899">
        <ele>285.6</ele>
        <time>2023-06-11T06:25:00.000Z</time>
      </trkpt>
      <trkpt lat="45.47934" lon="4.98982">
        <ele>285.8</ele>
        <time>2023-06-11T06:25:03.000Z</time>
      </trkpt>
      <trkpt lat="45.47951" lon="4.98965">
        <ele>286.1</ele>
        <time>2023-06-11T06:25:09.000Z</time>
      </trkpt>
      <trkpt lat="45.47953" lon="4.98961">
        <ele>286.2</ele>
        <time>2023-06-11T06:25:10.000Z</time>
      </trkpt>
      <trkpt lat="45.47959" lon="4.98948">
        <ele>286.3</ele>
        <time>2023-06-11T06:25:13.000Z</time>
      </trkpt>
      <trkpt lat="45.47962" lon="4.98933">
        <ele>286.4</ele>
        <time>2023-06-11T06:25:16.000Z</time>
      </trkpt>
      <trkpt lat="45.47962" lon="4.98905">
        <ele>286.6</ele>
        <time>2023-06-11T06:25:21.000Z</time>
      </trkpt>
      <trkpt lat="45.47959" lon="4.98903">
        <ele>287.5</ele>
        <time>2023-06-11T06:25:22.000Z</time>
      </trkpt>
      <trkpt lat="45.47956" lon="4.98903">
        <ele>288</ele>
        <time>2023-06-11T06:25:23.000Z</time>
      </trkpt>
      <trkpt lat="45.47941" lon="4.98908">
        <ele>289.5</ele>
        <time>2023-06-11T06:25:28.000Z</time>
      </trkpt>
      <trkpt lat="45.47933" lon="4.98911">
        <ele>290.4</ele>
        <time>2023-06-11T06:25:31.000Z</time>
      </trkpt>
      <trkpt lat="45.4792" lon="4.98916">
        <ele>292</ele>
        <time>2023-06-11T06:25:36.000Z</time>
      </trkpt>
      <trkpt lat="45.47912" lon="4.98919">
        <ele>293.2</ele>
        <time>2023-06-11T06:25:40.000Z</time>
      </trkpt>
      <trkpt lat="45.47907" lon="4.98921">
        <ele>293.7</ele>
        <time>2023-06-11T06:25:42.000Z</time>
      </trkpt>
      <trkpt lat="45.47904" lon="4.98922">
        <ele>294.3</ele>
        <time>2023-06-11T06:25:44.000Z</time>
      </trkpt>
      <trkpt lat="45.47896" lon="4.98927">
        <ele>295.5</ele>
        <time>2023-06-11T06:25:48.000Z</time>
      </trkpt>
      <trkpt lat="45.47894" lon="4.98927">
        <ele>295.8</ele>
        <time>2023-06-11T06:25:49.000Z</time>
      </trkpt>
      <trkpt lat="45.47885" lon="4.98931">
        <ele>297.1</ele>
        <time>2023-06-11T06:25:54.000Z</time>
      </trkpt>
      <trkpt lat="45.47883" lon="4.98932">
        <ele>297.3</ele>
        <time>2023-06-11T06:25:55.000Z</time>
      </trkpt>
      <trkpt lat="45.47878" lon="4.98933">
        <ele>298.1</ele>
        <time>2023-06-11T06:25:58.000Z</time>
      </trkpt>
      <trkpt lat="45.47872" lon="4.98935">
        <ele>299</ele>
        <time>2023-06-11T06:26:02.000Z</time>
      </trkpt>
      <trkpt lat="45.4787" lon="4.98935">
        <ele>299.3</ele>
        <time>2023-06-11T06:26:03.000Z</time>
      </trkpt>
      <trkpt lat="45.47868" lon="4.98936">
        <ele>299.5</ele>
        <time>2023-06-11T06:26:04.000Z</time>
      </trkpt>
      <trkpt lat="45.47865" lon="4.98937">
        <ele>300.1</ele>
        <time>2023-06-11T06:26:06.000Z</time>
      </trkpt>
      <trkpt lat="45.47858" lon="4.9894">
        <ele>301.1</ele>
        <time>2023-06-11T06:26:10.000Z</time>
      </trkpt>
      <trkpt lat="45.4785" lon="4.98943">
        <ele>302.3</ele>
        <time>2023-06-11T06:26:14.000Z</time>
      </trkpt>
      <trkpt lat="45.47847" lon="4.98944">
        <ele>302.8</ele>
        <time>2023-06-11T06:26:16.000Z</time>
      </trkpt>
      <trkpt lat="45.47842" lon="4.98945">
        <ele>303.4</ele>
        <time>2023-06-11T06:26:19.000Z</time>
      </trkpt>
      <trkpt lat="45.47835" lon="4.98947">
        <ele>304.4</ele>
        <time>2023-06-11T06:26:23.000Z</time>
      </trkpt>
      <trkpt lat="45.47834" lon="4.98947">
        <ele>304.7</ele>
        <time>2023-06-11T06:26:24.000Z</time>
      </trkpt>
      <trkpt lat="45.47826" lon="4.98947">
        <ele>305.7</ele>
        <time>2023-06-11T06:26:28.000Z</time>
      </trkpt>
      <trkpt lat="45.4782" lon="4.98945">
        <ele>306.7</ele>
        <time>2023-06-11T06:26:32.000Z</time>
      </trkpt>
      <trkpt lat="45.47816" lon="4.98943">
        <ele>307.2</ele>
        <time>2023-06-11T06:26:35.000Z</time>
      </trkpt>
      <trkpt lat="45.47813" lon="4.98942">
        <ele>307.6</ele>
        <time>2023-06-11T06:26:37.000Z</time>
      </trkpt>
      <trkpt lat="45.47806" lon="4.98938">
        <ele>308.6</ele>
        <time>2023-06-11T06:26:41.000Z</time>
      </trkpt>
      <trkpt lat="45.47804" lon="4.98937">
        <ele>309</ele>
        <time>2023-06-11T06:26:42.000Z</time>
      </trkpt>
      <trkpt lat="45.47791" lon="4.98933">
        <ele>310.7</ele>
        <time>2023-06-11T06:26:48.000Z</time>
      </trkpt>
      <trkpt lat="45.47782" lon="4.98934">
        <ele>311.8</ele>
        <time>2023-06-11T06:26:53.000Z</time>
      </trkpt>
      <trkpt lat="45.47782" lon="4.98934">
        <ele>311.8</ele>
        <time>2023-06-11T06:26:55.000Z</time>
      </trkpt>
      <trkpt lat="45.47779" lon="4.98937">
        <ele>312.2</ele>
        <time>2023-06-11T06:26:58.000Z</time>
      </trkpt>
      <trkpt lat="45.47776" lon="4.98941">
        <ele>312.6</ele>
        <time>2023-06-11T06:27:00.000Z</time>
      </trkpt>
      <trkpt lat="45.47767" lon="4.98951">
        <ele>313.3</ele>
        <time>2023-06-11T06:27:05.000Z</time>
      </trkpt>
      <trkpt lat="45.47764" lon="4.98956">
        <ele>313.4</ele>
        <time>2023-06-11T06:27:07.000Z</time>
      </trkpt>
      <trkpt lat="45.47762" lon="4.9896">
        <ele>313.6</ele>
        <time>2023-06-11T06:27:09.000Z</time>
      </trkpt>
      <trkpt lat="45.47753" lon="4.98974">
        <ele>313.9</ele>
        <time>2023-06-11T06:27:14.000Z</time>
      </trkpt>
      <trkpt lat="45.4774" lon="4.98992">
        <ele>314.3</ele>
        <time>2023-06-11T06:27:20.000Z</time>
      </trkpt>
      <trkpt lat="45.47725" lon="4.99013">
        <ele>315.2</ele>
        <time>2023-06-11T06:27:26.000Z</time>
      </trkpt>
      <trkpt lat="45.47717" lon="4.99029">
        <ele>316.2</ele>
        <time>2023-06-11T06:27:31.000Z</time>
      </trkpt>
      <trkpt lat="45.47711" lon="4.99039">
        <ele>317.2</ele>
        <time>2023-06-11T06:27:35.000Z</time>
      </trkpt>
      <trkpt lat="45.47709" lon="4.99042">
        <ele>317.6</ele>
        <time>2023-06-11T06:27:37.000Z</time>
      </trkpt>
      <trkpt lat="45.47703" lon="4.99046">
        <ele>318.3</ele>
        <time>2023-06-11T06:27:40.000Z</time>
      </trkpt>
      <trkpt lat="45.477" lon="4.99047">
        <ele>318.6</ele>
        <time>2023-06-11T06:27:42.000Z</time>
      </trkpt>
      <trkpt lat="45.4769" lon="4.99046">
        <ele>319.7</ele>
        <time>2023-06-11T06:27:47.000Z</time>
      </trkpt>
      <trkpt lat="45.47678" lon="4.99039">
        <ele>320.8</ele>
        <time>2023-06-11T06:27:52.000Z</time>
      </trkpt>
      <trkpt lat="45.47675" lon="4.99036">
        <ele>321</ele>
        <time>2023-06-11T06:27:54.000Z</time>
      </trkpt>
      <trkpt lat="45.4767" lon="4.99032">
        <ele>321.2</ele>
        <time>2023-06-11T06:27:56.000Z</time>
      </trkpt>
      <trkpt lat="45.47659" lon="4.99024">
        <ele>321.3</ele>
        <time>2023-06-11T06:28:01.000Z</time>
      </trkpt>
      <trkpt lat="45.47656" lon="4.99022">
        <ele>321.3</ele>
        <time>2023-06-11T06:28:02.000Z</time>
      </trkpt>
      <trkpt lat="45.47644" lon="4.99013">
        <ele>320.8</ele>
        <time>2023-06-11T06:28:06.000Z</time>
      </trkpt>
      <trkpt lat="45.4764" lon="4.9901">
        <ele>320.6</ele>
        <time>2023-06-11T06:28:07.000Z</time>
      </trkpt>
      <trkpt lat="45.4761" lon="4.98995">
        <ele>319.4</ele>
        <time>2023-06-11T06:28:13.000Z</time>
      </trkpt>
      <trkpt lat="45.47582" lon="4.9899">
        <ele>318.8</ele>
        <time>2023-06-11T06:28:18.000Z</time>
      </trkpt>
      <trkpt lat="45.47576" lon="4.9899">
        <ele>318.8</ele>
        <time>2023-06-11T06:28:19.000Z</time>
      </trkpt>
      <trkpt lat="45.47571" lon="4.98991">
        <ele>318.7</ele>
        <time>2023-06-11T06:28:20.000Z</time>
      </trkpt>
      <trkpt lat="45.47548" lon="4.98995">
        <ele>318.6</ele>
        <time>2023-06-11T06:28:24.000Z</time>
      </trkpt>
      <trkpt lat="45.47514" lon="4.98999">
        <ele>318.6</ele>
        <time>2023-06-11T06:28:30.000Z</time>
      </trkpt>
      <trkpt lat="45.47469" lon="4.98999">
        <ele>320.3</ele>
        <time>2023-06-11T06:28:39.000Z</time>
      </trkpt>
      <trkpt lat="45.47444" lon="4.98998">
        <ele>322.2</ele>
        <time>2023-06-11T06:28:46.000Z</time>
      </trkpt>
      <trkpt lat="45.47438" lon="4.98999">
        <ele>322.7</ele>
        <time>2023-06-11T06:28:48.000Z</time>
      </trkpt>
      <trkpt lat="45.47429" lon="4.99">
        <ele>323.5</ele>
        <time>2023-06-11T06:28:51.000Z</time>
      </trkpt>
      <trkpt lat="45.47424" lon="4.99">
        <ele>324</ele>
        <time>2023-06-11T06:28:53.000Z</time>
      </trkpt>
      <trkpt lat="45.47414" lon="4.99003">
        <ele>325</ele>
        <time>2023-06-11T06:28:57.000Z</time>
      </trkpt>
      <trkpt lat="45.47405" lon="4.99006">
        <ele>325.7</ele>
        <time>2023-06-11T06:29:01.000Z</time>
      </trkpt>
      <trkpt lat="45.47399" lon="4.99008">
        <ele>326.2</ele>
        <time>2023-06-11T06:29:03.000Z</time>
      </trkpt>
      <trkpt lat="45.47391" lon="4.9901">
        <ele>326.8</ele>
        <time>2023-06-11T06:29:06.000Z</time>
      </trkpt>
      <trkpt lat="45.4738" lon="4.99016">
        <ele>327.7</ele>
        <time>2023-06-11T06:29:10.000Z</time>
      </trkpt>
      <trkpt lat="45.47369" lon="4.99024">
        <ele>328.7</ele>
        <time>2023-06-11T06:29:15.000Z</time>
      </trkpt>
      <trkpt lat="45.47361" lon="4.99029">
        <ele>329.3</ele>
        <time>2023-06-11T06:29:18.000Z</time>
      </trkpt>
      <trkpt lat="45.47353" lon="4.99033">
        <ele>329.8</ele>
        <time>2023-06-11T06:29:21.000Z</time>
      </trkpt>
      <trkpt lat="45.47341" lon="4.99035">
        <ele>330.5</ele>
        <time>2023-06-11T06:29:25.000Z</time>
      </trkpt>
      <trkpt lat="45.47334" lon="4.99035">
        <ele>330.8</ele>
        <time>2023-06-11T06:29:27.000Z</time>
      </trkpt>
      <trkpt lat="45.47316" lon="4.9903">
        <ele>331.9</ele>
        <time>2023-06-11T06:29:33.000Z</time>
      </trkpt>
      <trkpt lat="45.47311" lon="4.99028">
        <ele>332.3</ele>
        <time>2023-06-11T06:29:35.000Z</time>
      </trkpt>
      <trkpt lat="45.47286" lon="4.99017">
        <ele>334.4</ele>
        <time>2023-06-11T06:29:44.000Z</time>
      </trkpt>
      <trkpt lat="45.47269" lon="4.99011">
        <ele>336.3</ele>
        <time>2023-06-11T06:29:51.000Z</time>
      </trkpt>
      <trkpt lat="45.47267" lon="4.9901">
        <ele>336.6</ele>
        <time>2023-06-11T06:29:52.000Z</time>
      </trkpt>
      <trkpt lat="45.47265" lon="4.99009">
        <ele>336.8</ele>
        <time>2023-06-11T06:29:53.000Z</time>
      </trkpt>
      <trkpt lat="45.47257" lon="4.99005">
        <ele>337.8</ele>
        <time>2023-06-11T06:29:57.000Z</time>
      </trkpt>
      <trkpt lat="45.47253" lon="4.99003">
        <ele>338.2</ele>
        <time>2023-06-11T06:29:59.000Z</time>
      </trkpt>
      <trkpt lat="45.47249" lon="4.99001">
        <ele>338.6</ele>
        <time>2023-06-11T06:30:01.000Z</time>
      </trkpt>
      <trkpt lat="45.4724" lon="4.98995">
        <ele>339.6</ele>
        <time>2023-06-11T06:30:06.000Z</time>
      </trkpt>
      <trkpt lat="45.47237" lon="4.98993">
        <ele>340</ele>
        <time>2023-06-11T06:30:08.000Z</time>
      </trkpt>
      <trkpt lat="45.47233" lon="4.98992">
        <ele>340.3</ele>
        <time>2023-06-11T06:30:10.000Z</time>
      </trkpt>
      <trkpt lat="45.47226" lon="4.98989">
        <ele>341</ele>
        <time>2023-06-11T06:30:14.000Z</time>
      </trkpt>
      <trkpt lat="45.47215" lon="4.98988">
        <ele>342</ele>
        <time>2023-06-11T06:30:19.000Z</time>
      </trkpt>
      <trkpt lat="45.47205" lon="4.98986">
        <ele>343</ele>
        <time>2023-06-11T06:30:24.000Z</time>
      </trkpt>
      <trkpt lat="45.47199" lon="4.98986">
        <ele>343.4</ele>
        <time>2023-06-11T06:30:27.000Z</time>
      </trkpt>
      <trkpt lat="45.47193" lon="4.98986">
        <ele>343.9</ele>
        <time>2023-06-11T06:30:30.000Z</time>
      </trkpt>
      <trkpt lat="45.47182" lon="4.98985">
        <ele>344.6</ele>
        <time>2023-06-11T06:30:35.000Z</time>
      </trkpt>
      <trkpt lat="45.47173" lon="4.98985">
        <ele>345.1</ele>
        <time>2023-06-11T06:30:39.000Z</time>
      </trkpt>
      <trkpt lat="45.47171" lon="4.98985">
        <ele>345.2</ele>
        <time>2023-06-11T06:30:40.000Z</time>
      </trkpt>
      <trkpt lat="45.47159" lon="4.98986">
        <ele>345.8</ele>
        <time>2023-06-11T06:30:45.000Z</time>
      </trkpt>
      <trkpt lat="45.47146" lon="4.98987">
        <ele>346.5</ele>
        <time>2023-06-11T06:30:50.000Z</time>
      </trkpt>
      <trkpt lat="45.47143" lon="4.98988">
        <ele>346.6</ele>
        <time>2023-06-11T06:30:51.000Z</time>
      </trkpt>
      <trkpt lat="45.47124" lon="4.9899">
        <ele>347.4</ele>
        <time>2023-06-11T06:30:58.000Z</time>
      </trkpt>
      <trkpt lat="45.47119" lon="4.9899">
        <ele>347.5</ele>
        <time>2023-06-11T06:31:00.000Z</time>
      </trkpt>
      <trkpt lat="45.47106" lon="4.98992">
        <ele>347.7</ele>
        <time>2023-06-11T06:31:04.000Z</time>
      </trkpt>
      <trkpt lat="45.47093" lon="4.98995">
        <ele>347.7</ele>
        <time>2023-06-11T06:31:08.000Z</time>
      </trkpt>
      <trkpt lat="45.47074" lon="4.99">
        <ele>347.6</ele>
        <time>2023-06-11T06:31:13.000Z</time>
      </trkpt>
      <trkpt lat="45.4707" lon="4.99001">
        <ele>347.6</ele>
        <time>2023-06-11T06:31:14.000Z</time>
      </trkpt>
      <trkpt lat="45.47052" lon="4.99004">
        <ele>347.4</ele>
        <time>2023-06-11T06:31:18.000Z</time>
      </trkpt>
      <trkpt lat="45.47011" lon="4.99004">
        <ele>347.4</ele>
        <time>2023-06-11T06:31:27.000Z</time>
      </trkpt>
      <trkpt lat="45.46973" lon="4.98988">
        <ele>347.9</ele>
        <time>2023-06-11T06:31:35.000Z</time>
      </trkpt>
      <trkpt lat="45.46942" lon="4.98983">
        <ele>347.6</ele>
        <time>2023-06-11T06:31:41.000Z</time>
      </trkpt>
      <trkpt lat="45.46908" lon="4.98991">
        <ele>347.7</ele>
        <time>2023-06-11T06:31:47.000Z</time>
      </trkpt>
      <trkpt lat="45.46902" lon="4.98993">
        <ele>347.8</ele>
        <time>2023-06-11T06:31:48.000Z</time>
      </trkpt>
      <trkpt lat="45.46875" lon="4.98993">
        <ele>348.2</ele>
        <time>2023-06-11T06:31:53.000Z</time>
      </trkpt>
      <trkpt lat="45.46829" lon="4.98986">
        <ele>348.9</ele>
        <time>2023-06-11T06:32:02.000Z</time>
      </trkpt>
      <trkpt lat="45.4679" lon="4.98973">
        <ele>350.5</ele>
        <time>2023-06-11T06:32:11.000Z</time>
      </trkpt>
      <trkpt lat="45.46768" lon="4.98956">
        <ele>351.9</ele>
        <time>2023-06-11T06:32:17.000Z</time>
      </trkpt>
      <trkpt lat="45.46762" lon="4.98951">
        <ele>352.3</ele>
        <time>2023-06-11T06:32:19.000Z</time>
      </trkpt>
      <trkpt lat="45.46754" lon="4.98944">
        <ele>352.9</ele>
        <time>2023-06-11T06:32:22.000Z</time>
      </trkpt>
      <trkpt lat="45.46748" lon="4.98943">
        <ele>353.3</ele>
        <time>2023-06-11T06:32:24.000Z</time>
      </trkpt>
      <trkpt lat="45.46736" lon="4.98942">
        <ele>354</ele>
        <time>2023-06-11T06:32:27.000Z</time>
      </trkpt>
      <trkpt lat="45.46722" lon="4.98942">
        <ele>354.9</ele>
        <time>2023-06-11T06:32:31.000Z</time>
      </trkpt>
      <trkpt lat="45.46719" lon="4.98942">
        <ele>355.1</ele>
        <time>2023-06-11T06:32:32.000Z</time>
      </trkpt>
      <trkpt lat="45.46702" lon="4.98938">
        <ele>356.4</ele>
        <time>2023-06-11T06:32:37.000Z</time>
      </trkpt>
      <trkpt lat="45.467" lon="4.98935">
        <ele>356.6</ele>
        <time>2023-06-11T06:32:38.000Z</time>
      </trkpt>
      <trkpt lat="45.46693" lon="4.98922">
        <ele>357.4</ele>
        <time>2023-06-11T06:32:42.000Z</time>
      </trkpt>
      <trkpt lat="45.46691" lon="4.98914">
        <ele>357.8</ele>
        <time>2023-06-11T06:32:44.000Z</time>
      </trkpt>
      <trkpt lat="45.46688" lon="4.98902">
        <ele>358.3</ele>
        <time>2023-06-11T06:32:47.000Z</time>
      </trkpt>
      <trkpt lat="45.46683" lon="4.98884">
        <ele>359.2</ele>
        <time>2023-06-11T06:32:53.000Z</time>
      </trkpt>
      <trkpt lat="45.46677" lon="4.9887">
        <ele>359.9</ele>
        <time>2023-06-11T06:32:58.000Z</time>
      </trkpt>
      <trkpt lat="45.46674" lon="4.98864">
        <ele>360.2</ele>
        <time>2023-06-11T06:33:00.000Z</time>
      </trkpt>
      <trkpt lat="45.46669" lon="4.98857">
        <ele>360.6</ele>
        <time>2023-06-11T06:33:03.000Z</time>
      </trkpt>
      <trkpt lat="45.46659" lon="4.98843">
        <ele>361.2</ele>
        <time>2023-06-11T06:33:08.000Z</time>
      </trkpt>
      <trkpt lat="45.46649" lon="4.98819">
        <ele>361.2</ele>
        <time>2023-06-11T06:33:15.000Z</time>
      </trkpt>
      <trkpt lat="45.46647" lon="4.98812">
        <ele>361.2</ele>
        <time>2023-06-11T06:33:17.000Z</time>
      </trkpt>
      <trkpt lat="45.46638" lon="4.98791">
        <ele>361.3</ele>
        <time>2023-06-11T06:33:23.000Z</time>
      </trkpt>
      <trkpt lat="45.46632" lon="4.98782">
        <ele>361.4</ele>
        <time>2023-06-11T06:33:26.000Z</time>
      </trkpt>
      <trkpt lat="45.46624" lon="4.98774">
        <ele>362.1</ele>
        <time>2023-06-11T06:33:30.000Z</time>
      </trkpt>
      <trkpt lat="45.4662" lon="4.98774">
        <ele>362.8</ele>
        <time>2023-06-11T06:33:32.000Z</time>
      </trkpt>
      <trkpt lat="45.46613" lon="4.9878">
        <ele>364.2</ele>
        <time>2023-06-11T06:33:37.000Z</time>
      </trkpt>
      <trkpt lat="45.46611" lon="4.98781">
        <ele>364.5</ele>
        <time>2023-06-11T06:33:38.000Z</time>
      </trkpt>
      <trkpt lat="45.46608" lon="4.98786">
        <ele>365.1</ele>
        <time>2023-06-11T06:33:41.000Z</time>
      </trkpt>
      <trkpt lat="45.46605" lon="4.9879">
        <ele>365.6</ele>
        <time>2023-06-11T06:33:44.000Z</time>
      </trkpt>
      <trkpt lat="45.46605" lon="4.98792">
        <ele>365.7</ele>
        <time>2023-06-11T06:33:45.000Z</time>
      </trkpt>
      <trkpt lat="45.46601" lon="4.98799">
        <ele>366.2</ele>
        <time>2023-06-11T06:33:49.000Z</time>
      </trkpt>
      <trkpt lat="45.46598" lon="4.98805">
        <ele>366.6</ele>
        <time>2023-06-11T06:33:52.000Z</time>
      </trkpt>
      <trkpt lat="45.46597" lon="4.98807">
        <ele>366.9</ele>
        <time>2023-06-11T06:33:53.000Z</time>
      </trkpt>
      <trkpt lat="45.46593" lon="4.98816">
        <ele>367.9</ele>
        <time>2023-06-11T06:33:57.000Z</time>
      </trkpt>
      <trkpt lat="45.46587" lon="4.98825">
        <ele>369</ele>
        <time>2023-06-11T06:34:01.000Z</time>
      </trkpt>
      <trkpt lat="45.46585" lon="4.98828">
        <ele>369.3</ele>
        <time>2023-06-11T06:34:02.000Z</time>
      </trkpt>
      <trkpt lat="45.4657" lon="4.98845">
        <ele>371.3</ele>
        <time>2023-06-11T06:34:10.000Z</time>
      </trkpt>
      <trkpt lat="45.46567" lon="4.98849">
        <ele>371.8</ele>
        <time>2023-06-11T06:34:12.000Z</time>
      </trkpt>
      <trkpt lat="45.46549" lon="4.9887">
        <ele>374</ele>
        <time>2023-06-11T06:34:21.000Z</time>
      </trkpt>
      <trkpt lat="45.46547" lon="4.98872">
        <ele>374.2</ele>
        <time>2023-06-11T06:34:22.000Z</time>
      </trkpt>
      <trkpt lat="45.46533" lon="4.98886">
        <ele>376.8</ele>
        <time>2023-06-11T06:34:29.000Z</time>
      </trkpt>
      <trkpt lat="45.46519" lon="4.98878">
        <ele>378.9</ele>
        <time>2023-06-11T06:34:36.000Z</time>
      </trkpt>
      <trkpt lat="45.46512" lon="4.98871">
        <ele>380</ele>
        <time>2023-06-11T06:34:41.000Z</time>
      </trkpt>
      <trkpt lat="45.46511" lon="4.9887">
        <ele>380.2</ele>
        <time>2023-06-11T06:34:42.000Z</time>
      </trkpt>
      <trkpt lat="45.46506" lon="4.98861">
        <ele>381.3</ele>
        <time>2023-06-11T06:34:47.000Z</time>
      </trkpt>
      <trkpt lat="45.46504" lon="4.98858">
        <ele>381.8</ele>
        <time>2023-06-11T06:34:49.000Z</time>
      </trkpt>
      <trkpt lat="45.46502" lon="4.9885">
        <ele>382.7</ele>
        <time>2023-06-11T06:34:53.000Z</time>
      </trkpt>
      <trkpt lat="45.46498" lon="4.98841">
        <ele>383.7</ele>
        <time>2023-06-11T06:34:58.000Z</time>
      </trkpt>
      <trkpt lat="45.46494" lon="4.98834">
        <ele>384.8</ele>
        <time>2023-06-11T06:35:03.000Z</time>
      </trkpt>
      <trkpt lat="45.46492" lon="4.9883">
        <ele>385.2</ele>
        <time>2023-06-11T06:35:05.000Z</time>
      </trkpt>
      <trkpt lat="45.4649" lon="4.98824">
        <ele>385.9</ele>
        <time>2023-06-11T06:35:08.000Z</time>
      </trkpt>
      <trkpt lat="45.46486" lon="4.98816">
        <ele>386.9</ele>
        <time>2023-06-11T06:35:13.000Z</time>
      </trkpt>
      <trkpt lat="45.46483" lon="4.9881">
        <ele>387.7</ele>
        <time>2023-06-11T06:35:16.000Z</time>
      </trkpt>
      <trkpt lat="45.46482" lon="4.98807">
        <ele>388.1</ele>
        <time>2023-06-11T06:35:18.000Z</time>
      </trkpt>
      <trkpt lat="45.46479" lon="4.98801">
        <ele>389</ele>
        <time>2023-06-11T06:35:22.000Z</time>
      </trkpt>
      <trkpt lat="45.46477" lon="4.98798">
        <ele>389.4</ele>
        <time>2023-06-11T06:35:24.000Z</time>
      </trkpt>
      <trkpt lat="45.46475" lon="4.98796">
        <ele>389.9</ele>
        <time>2023-06-11T06:35:26.000Z</time>
      </trkpt>
      <trkpt lat="45.46471" lon="4.9879">
        <ele>390.8</ele>
        <time>2023-06-11T06:35:30.000Z</time>
      </trkpt>
      <trkpt lat="45.46468" lon="4.98785">
        <ele>391.5</ele>
        <time>2023-06-11T06:35:33.000Z</time>
      </trkpt>
      <trkpt lat="45.46465" lon="4.98781">
        <ele>392.2</ele>
        <time>2023-06-11T06:35:36.000Z</time>
      </trkpt>
      <trkpt lat="45.46464" lon="4.9878">
        <ele>392.4</ele>
        <time>2023-06-11T06:35:37.000Z</time>
      </trkpt>
      <trkpt lat="45.46461" lon="4.98775">
        <ele>393.1</ele>
        <time>2023-06-11T06:35:40.000Z</time>
      </trkpt>
      <trkpt lat="45.4646" lon="4.98774">
        <ele>393.3</ele>
        <time>2023-06-11T06:35:41.000Z</time>
      </trkpt>
      <trkpt lat="45.46455" lon="4.98773">
        <ele>394.2</ele>
        <time>2023-06-11T06:35:45.000Z</time>
      </trkpt>
      <trkpt lat="45.46454" lon="4.98773">
        <ele>394.5</ele>
        <time>2023-06-11T06:35:46.000Z</time>
      </trkpt>
      <trkpt lat="45.46451" lon="4.98774">
        <ele>395</ele>
        <time>2023-06-11T06:35:49.000Z</time>
      </trkpt>
      <trkpt lat="45.4645" lon="4.98775">
        <ele>395.1</ele>
        <time>2023-06-11T06:35:50.000Z</time>
      </trkpt>
      <trkpt lat="45.46449" lon="4.98776">
        <ele>395.5</ele>
        <time>2023-06-11T06:35:52.000Z</time>
      </trkpt>
      <trkpt lat="45.46448" lon="4.98777">
        <ele>395.7</ele>
        <time>2023-06-11T06:35:53.000Z</time>
      </trkpt>
      <trkpt lat="45.46445" lon="4.98779">
        <ele>396.3</ele>
        <time>2023-06-11T06:35:56.000Z</time>
      </trkpt>
      <trkpt lat="45.46442" lon="4.98782">
        <ele>396.8</ele>
        <time>2023-06-11T06:36:00.000Z</time>
      </trkpt>
      <trkpt lat="45.46436" lon="4.98785">
        <ele>398.1</ele>
        <time>2023-06-11T06:36:04.000Z</time>
      </trkpt>
      <trkpt lat="45.46434" lon="4.98786">
        <ele>398.4</ele>
        <time>2023-06-11T06:36:05.000Z</time>
      </trkpt>
      <trkpt lat="45.46433" lon="4.98787">
        <ele>398.8</ele>
        <time>2023-06-11T06:36:06.000Z</time>
      </trkpt>
      <trkpt lat="45.46429" lon="4.98789">
        <ele>399.6</ele>
        <time>2023-06-11T06:36:09.000Z</time>
      </trkpt>
      <trkpt lat="45.46427" lon="4.9879">
        <ele>399.9</ele>
        <time>2023-06-11T06:36:10.000Z</time>
      </trkpt>
      <trkpt lat="45.46424" lon="4.98792">
        <ele>400.7</ele>
        <time>2023-06-11T06:36:13.000Z</time>
      </trkpt>
      <trkpt lat="45.46418" lon="4.98794">
        <ele>401.9</ele>
        <time>2023-06-11T06:36:16.000Z</time>
      </trkpt>
      <trkpt lat="45.46415" lon="4.98795">
        <ele>402.4</ele>
        <time>2023-06-11T06:36:18.000Z</time>
      </trkpt>
      <trkpt lat="45.46409" lon="4.98799">
        <ele>403.8</ele>
        <time>2023-06-11T06:36:23.000Z</time>
      </trkpt>
      <trkpt lat="45.46402" lon="4.98803">
        <ele>405</ele>
        <time>2023-06-11T06:36:28.000Z</time>
      </trkpt>
      <trkpt lat="45.464" lon="4.98803">
        <ele>405.4</ele>
        <time>2023-06-11T06:36:30.000Z</time>
      </trkpt>
      <trkpt lat="45.46396" lon="4.98804">
        <ele>406.1</ele>
        <time>2023-06-11T06:36:34.000Z</time>
      </trkpt>
      <trkpt lat="45.46391" lon="4.98805">
        <ele>406.9</ele>
        <time>2023-06-11T06:36:38.000Z</time>
      </trkpt>
      <trkpt lat="45.46389" lon="4.98805">
        <ele>407.1</ele>
        <time>2023-06-11T06:36:39.000Z</time>
      </trkpt>
      <trkpt lat="45.46385" lon="4.98805">
        <ele>407.8</ele>
        <time>2023-06-11T06:36:42.000Z</time>
      </trkpt>
      <trkpt lat="45.46384" lon="4.98805">
        <ele>407.9</ele>
        <time>2023-06-11T06:36:43.000Z</time>
      </trkpt>
      <trkpt lat="45.4638" lon="4.98805">
        <ele>408.5</ele>
        <time>2023-06-11T06:36:46.000Z</time>
      </trkpt>
      <trkpt lat="45.46378" lon="4.98804">
        <ele>408.8</ele>
        <time>2023-06-11T06:36:48.000Z</time>
      </trkpt>
      <trkpt lat="45.46372" lon="4.98803">
        <ele>409.8</ele>
        <time>2023-06-11T06:36:53.000Z</time>
      </trkpt>
      <trkpt lat="45.4637" lon="4.98803">
        <ele>410</ele>
        <time>2023-06-11T06:36:54.000Z</time>
      </trkpt>
      <trkpt lat="45.46368" lon="4.98803">
        <ele>410.3</ele>
        <time>2023-06-11T06:36:56.000Z</time>
      </trkpt>
      <trkpt lat="45.46363" lon="4.98802">
        <ele>411</ele>
        <time>2023-06-11T06:37:00.000Z</time>
      </trkpt>
      <trkpt lat="45.46361" lon="4.98802">
        <ele>411.2</ele>
        <time>2023-06-11T06:37:01.000Z</time>
      </trkpt>
      <trkpt lat="45.46355" lon="4.98802">
        <ele>412</ele>
        <time>2023-06-11T06:37:07.000Z</time>
      </trkpt>
      <trkpt lat="45.4635" lon="4.98802">
        <ele>412.4</ele>
        <time>2023-06-11T06:37:10.000Z</time>
      </trkpt>
      <trkpt lat="45.46346" lon="4.98803">
        <ele>412.7</ele>
        <time>2023-06-11T06:37:14.000Z</time>
      </trkpt>
      <trkpt lat="45.46338" lon="4.98804">
        <ele>413.4</ele>
        <time>2023-06-11T06:37:19.000Z</time>
      </trkpt>
      <trkpt lat="45.46334" lon="4.98804">
        <ele>413.7</ele>
        <time>2023-06-11T06:37:21.000Z</time>
      </trkpt>
      <trkpt lat="45.46323" lon="4.98804">
        <ele>414.6</ele>
        <time>2023-06-11T06:37:27.000Z</time>
      </trkpt>
      <trkpt lat="45.46313" lon="4.98803">
        <ele>415.1</ele>
        <time>2023-06-11T06:37:32.000Z</time>
      </trkpt>
      <trkpt lat="45.46305" lon="4.98804">
        <ele>415.6</ele>
        <time>2023-06-11T06:37:36.000Z</time>
      </trkpt>
      <trkpt lat="45.46298" lon="4.98803">
        <ele>415.9</ele>
        <time>2023-06-11T06:37:40.000Z</time>
      </trkpt>
      <trkpt lat="45.46287" lon="4.988">
        <ele>416.4</ele>
        <time>2023-06-11T06:37:45.000Z</time>
      </trkpt>
      <trkpt lat="45.46278" lon="4.98798">
        <ele>416.8</ele>
        <time>2023-06-11T06:37:49.000Z</time>
      </trkpt>
      <trkpt lat="45.46258" lon="4.988">
        <ele>417.6</ele>
        <time>2023-06-11T06:37:56.000Z</time>
      </trkpt>
      <trkpt lat="45.46255" lon="4.988">
        <ele>417.7</ele>
        <time>2023-06-11T06:37:57.000Z</time>
      </trkpt>
      <trkpt lat="45.4624" lon="4.98801">
        <ele>418.2</ele>
        <time>2023-06-11T06:38:02.000Z</time>
      </trkpt>
      <trkpt lat="45.46224" lon="4.98799">
        <ele>418.7</ele>
        <time>2023-06-11T06:38:08.000Z</time>
      </trkpt>
      <trkpt lat="45.46212" lon="4.98798">
        <ele>419.1</ele>
        <time>2023-06-11T06:38:12.000Z</time>
      </trkpt>
      <trkpt lat="45.462" lon="4.98798">
        <ele>419.5</ele>
        <time>2023-06-11T06:38:16.000Z</time>
      </trkpt>
      <trkpt lat="45.46186" lon="4.98796">
        <ele>420</ele>
        <time>2023-06-11T06:38:21.000Z</time>
      </trkpt>
      <trkpt lat="45.46184" lon="4.98797">
        <ele>420.1</ele>
        <time>2023-06-11T06:38:22.000Z</time>
      </trkpt>
      <trkpt lat="45.46165" lon="4.98798">
        <ele>420.6</ele>
        <time>2023-06-11T06:38:28.000Z</time>
      </trkpt>
      <trkpt lat="45.46151" lon="4.98799">
        <ele>420.8</ele>
        <time>2023-06-11T06:38:33.000Z</time>
      </trkpt>
      <trkpt lat="45.46146" lon="4.98799">
        <ele>420.8</ele>
        <time>2023-06-11T06:38:35.000Z</time>
      </trkpt>
      <trkpt lat="45.46129" lon="4.98795">
        <ele>421.1</ele>
        <time>2023-06-11T06:38:40.000Z</time>
      </trkpt>
      <trkpt lat="45.46105" lon="4.98796">
        <ele>421.5</ele>
        <time>2023-06-11T06:38:46.000Z</time>
      </trkpt>
      <trkpt lat="45.46078" lon="4.98793">
        <ele>422.4</ele>
        <time>2023-06-11T06:38:53.000Z</time>
      </trkpt>
      <trkpt lat="45.46071" lon="4.98793">
        <ele>422.7</ele>
        <time>2023-06-11T06:38:55.000Z</time>
      </trkpt>
      <trkpt lat="45.46052" lon="4.98792">
        <ele>423.5</ele>
        <time>2023-06-11T06:39:00.000Z</time>
      </trkpt>
      <trkpt lat="45.46037" lon="4.9879">
        <ele>424.2</ele>
        <time>2023-06-11T06:39:05.000Z</time>
      </trkpt>
      <trkpt lat="45.46035" lon="4.98788">
        <ele>424.3</ele>
        <time>2023-06-11T06:39:06.000Z</time>
      </trkpt>
      <trkpt lat="45.46032" lon="4.98783">
        <ele>424.3</ele>
        <time>2023-06-11T06:39:08.000Z</time>
      </trkpt>
      <trkpt lat="45.46028" lon="4.98769">
        <ele>424.4</ele>
        <time>2023-06-11T06:39:12.000Z</time>
      </trkpt>
      <trkpt lat="45.46028" lon="4.98766">
        <ele>424.5</ele>
        <time>2023-06-11T06:39:13.000Z</time>
      </trkpt>
      <trkpt lat="45.46027" lon="4.98761">
        <ele>424.5</ele>
        <time>2023-06-11T06:39:14.000Z</time>
      </trkpt>
      <trkpt lat="45.46021" lon="4.98748">
        <ele>424.6</ele>
        <time>2023-06-11T06:39:17.000Z</time>
      </trkpt>
      <trkpt lat="45.46018" lon="4.98738">
        <ele>424.7</ele>
        <time>2023-06-11T06:39:20.000Z</time>
      </trkpt>
      <trkpt lat="45.46017" lon="4.98735">
        <ele>424.8</ele>
        <time>2023-06-11T06:39:21.000Z</time>
      </trkpt>
      <trkpt lat="45.46006" lon="4.98711">
        <ele>425.3</ele>
        <time>2023-06-11T06:39:27.000Z</time>
      </trkpt>
      <trkpt lat="45.46004" lon="4.98707">
        <ele>425.4</ele>
        <time>2023-06-11T06:39:29.000Z</time>
      </trkpt>
      <trkpt lat="45.46003" lon="4.98703">
        <ele>425.5</ele>
        <time>2023-06-11T06:39:31.000Z</time>
      </trkpt>
      <trkpt lat="45.46001" lon="4.98699">
        <ele>425.6</ele>
        <time>2023-06-11T06:39:33.000Z</time>
      </trkpt>
      <trkpt lat="45.45998" lon="4.98693">
        <ele>425.8</ele>
        <time>2023-06-11T06:39:36.000Z</time>
      </trkpt>
      <trkpt lat="45.45995" lon="4.98689">
        <ele>426</ele>
        <time>2023-06-11T06:39:39.000Z</time>
      </trkpt>
      <trkpt lat="45.45993" lon="4.98686">
        <ele>426.1</ele>
        <time>2023-06-11T06:39:40.000Z</time>
      </trkpt>
      <trkpt lat="45.45988" lon="4.98681">
        <ele>426.4</ele>
        <time>2023-06-11T06:39:42.000Z</time>
      </trkpt>
      <trkpt lat="45.45975" lon="4.98657">
        <ele>427.4</ele>
        <time>2023-06-11T06:39:48.000Z</time>
      </trkpt>
      <trkpt lat="45.45966" lon="4.9864">
        <ele>428.2</ele>
        <time>2023-06-11T06:39:52.000Z</time>
      </trkpt>
      <trkpt lat="45.45961" lon="4.98632">
        <ele>428.6</ele>
        <time>2023-06-11T06:39:55.000Z</time>
      </trkpt>
      <trkpt lat="45.45944" lon="4.98613">
        <ele>429.8</ele>
        <time>2023-06-11T06:40:03.000Z</time>
      </trkpt>
      <trkpt lat="45.45935" lon="4.98598">
        <ele>430.5</ele>
        <time>2023-06-11T06:40:08.000Z</time>
      </trkpt>
      <trkpt lat="45.45931" lon="4.98591">
        <ele>430.6</ele>
        <time>2023-06-11T06:40:10.000Z</time>
      </trkpt>
      <trkpt lat="45.45923" lon="4.98568">
        <ele>430.9</ele>
        <time>2023-06-11T06:40:15.000Z</time>
      </trkpt>
      <trkpt lat="45.45919" lon="4.98558">
        <ele>430.8</ele>
        <time>2023-06-11T06:40:17.000Z</time>
      </trkpt>
      <trkpt lat="45.45913" lon="4.9854">
        <ele>430.6</ele>
        <time>2023-06-11T06:40:20.000Z</time>
      </trkpt>
      <trkpt lat="45.45907" lon="4.9853">
        <ele>430.5</ele>
        <time>2023-06-11T06:40:22.000Z</time>
      </trkpt>
      <trkpt lat="45.459" lon="4.98523">
        <ele>430.5</ele>
        <time>2023-06-11T06:40:24.000Z</time>
      </trkpt>
      <trkpt lat="45.45887" lon="4.98514">
        <ele>430.5</ele>
        <time>2023-06-11T06:40:27.000Z</time>
      </trkpt>
      <trkpt lat="45.45883" lon="4.9851">
        <ele>430.4</ele>
        <time>2023-06-11T06:40:28.000Z</time>
      </trkpt>
      <trkpt lat="45.45878" lon="4.98501">
        <ele>430.1</ele>
        <time>2023-06-11T06:40:30.000Z</time>
      </trkpt>
      <trkpt lat="45.45875" lon="4.98496">
        <ele>429.9</ele>
        <time>2023-06-11T06:40:31.000Z</time>
      </trkpt>
      <trkpt lat="45.45874" lon="4.98491">
        <ele>429.6</ele>
        <time>2023-06-11T06:40:32.000Z</time>
      </trkpt>
      <trkpt lat="45.45869" lon="4.98473">
        <ele>428.7</ele>
        <time>2023-06-11T06:40:35.000Z</time>
      </trkpt>
      <trkpt lat="45.45873" lon="4.98463">
        <ele>428.4</ele>
        <time>2023-06-11T06:40:37.000Z</time>
      </trkpt>
      <trkpt lat="45.45875" lon="4.9846">
        <ele>428.4</ele>
        <time>2023-06-11T06:40:38.000Z</time>
      </trkpt>
      <trkpt lat="45.45889" lon="4.9844">
        <ele>428.9</ele>
        <time>2023-06-11T06:40:44.000Z</time>
      </trkpt>
      <trkpt lat="45.45899" lon="4.98409">
        <ele>430.2</ele>
        <time>2023-06-11T06:40:51.000Z</time>
      </trkpt>
      <trkpt lat="45.45906" lon="4.98388">
        <ele>431</ele>
        <time>2023-06-11T06:40:56.000Z</time>
      </trkpt>
      <trkpt lat="45.45919" lon="4.98359">
        <ele>431.4</ele>
        <time>2023-06-11T06:41:02.000Z</time>
      </trkpt>
      <trkpt lat="45.45921" lon="4.98353">
        <ele>431.5</ele>
        <time>2023-06-11T06:41:03.000Z</time>
      </trkpt>
      <trkpt lat="45.45938" lon="4.98315">
        <ele>431.7</ele>
        <time>2023-06-11T06:41:10.000Z</time>
      </trkpt>
      <trkpt lat="45.4594" lon="4.98311">
        <ele>431.6</ele>
        <time>2023-06-11T06:41:11.000Z</time>
      </trkpt>
      <trkpt lat="45.45947" lon="4.98302">
        <ele>431.5</ele>
        <time>2023-06-11T06:41:13.000Z</time>
      </trkpt>
      <trkpt lat="45.45953" lon="4.98295">
        <ele>431.2</ele>
        <time>2023-06-11T06:41:15.000Z</time>
      </trkpt>
      <trkpt lat="45.45964" lon="4.98289">
        <ele>430.8</ele>
        <time>2023-06-11T06:41:18.000Z</time>
      </trkpt>
      <trkpt lat="45.45971" lon="4.98285">
        <ele>430.5</ele>
        <time>2023-06-11T06:41:20.000Z</time>
      </trkpt>
      <trkpt lat="45.45977" lon="4.98278">
        <ele>430.3</ele>
        <time>2023-06-11T06:41:22.000Z</time>
      </trkpt>
      <trkpt lat="45.45985" lon="4.98255">
        <ele>430.1</ele>
        <time>2023-06-11T06:41:26.000Z</time>
      </trkpt>
      <trkpt lat="45.45995" lon="4.9824">
        <ele>430.1</ele>
        <time>2023-06-11T06:41:29.000Z</time>
      </trkpt>
      <trkpt lat="45.46003" lon="4.98236">
        <ele>430.1</ele>
        <time>2023-06-11T06:41:31.000Z</time>
      </trkpt>
      <trkpt lat="45.46017" lon="4.98236">
        <ele>430</ele>
        <time>2023-06-11T06:41:34.000Z</time>
      </trkpt>
      <trkpt lat="45.4603" lon="4.98238">
        <ele>429.7</ele>
        <time>2023-06-11T06:41:36.000Z</time>
      </trkpt>
      <trkpt lat="45.46069" lon="4.98241">
        <ele>428</ele>
        <time>2023-06-11T06:41:42.000Z</time>
      </trkpt>
      <trkpt lat="45.46083" lon="4.98242">
        <ele>427.3</ele>
        <time>2023-06-11T06:41:44.000Z</time>
      </trkpt>
      <trkpt lat="45.46099" lon="4.98243">
        <ele>426.5</ele>
        <time>2023-06-11T06:41:46.000Z</time>
      </trkpt>
      <trkpt lat="45.46116" lon="4.98244">
        <ele>425.7</ele>
        <time>2023-06-11T06:41:48.000Z</time>
      </trkpt>
      <trkpt lat="45.46126" lon="4.98247">
        <ele>425.2</ele>
        <time>2023-06-11T06:41:50.000Z</time>
      </trkpt>
      <trkpt lat="45.46128" lon="4.98247">
        <ele>425.1</ele>
        <time>2023-06-11T06:41:51.000Z</time>
      </trkpt>
      <trkpt lat="45.46134" lon="4.98247">
        <ele>424.7</ele>
        <time>2023-06-11T06:41:53.000Z</time>
      </trkpt>
      <trkpt lat="45.46136" lon="4.98243">
        <ele>424.6</ele>
        <time>2023-06-11T06:41:54.000Z</time>
      </trkpt>
      <trkpt lat="45.46137" lon="4.9824">
        <ele>424.5</ele>
        <time>2023-06-11T06:41:55.000Z</time>
      </trkpt>
      <trkpt lat="45.46137" lon="4.98234">
        <ele>424.4</ele>
        <time>2023-06-11T06:41:57.000Z</time>
      </trkpt>
      <trkpt lat="45.46135" lon="4.9823">
        <ele>424.3</ele>
        <time>2023-06-11T06:41:58.000Z</time>
      </trkpt>
      <trkpt lat="45.46131" lon="4.98208">
        <ele>424</ele>
        <time>2023-06-11T06:42:02.000Z</time>
      </trkpt>
      <trkpt lat="45.46129" lon="4.98196">
        <ele>423.8</ele>
        <time>2023-06-11T06:42:04.000Z</time>
      </trkpt>
      <trkpt lat="45.46128" lon="4.98183">
        <ele>423.7</ele>
        <time>2023-06-11T06:42:06.000Z</time>
      </trkpt>
      <trkpt lat="45.46118" lon="4.98162">
        <ele>423.6</ele>
        <time>2023-06-11T06:42:09.000Z</time>
      </trkpt>
      <trkpt lat="45.46114" lon="4.98154">
        <ele>423.6</ele>
        <time>2023-06-11T06:42:10.000Z</time>
      </trkpt>
      <trkpt lat="45.46099" lon="4.98133">
        <ele>424</ele>
        <time>2023-06-11T06:42:14.000Z</time>
      </trkpt>
      <trkpt lat="45.46091" lon="4.98125">
        <ele>424.3</ele>
        <time>2023-06-11T06:42:16.000Z</time>
      </trkpt>
      <trkpt lat="45.46085" lon="4.9812">
        <ele>424.6</ele>
        <time>2023-06-11T06:42:18.000Z</time>
      </trkpt>
      <trkpt lat="45.46079" lon="4.98109">
        <ele>425</ele>
        <time>2023-06-11T06:42:20.000Z</time>
      </trkpt>
      <trkpt lat="45.46074" lon="4.981">
        <ele>425.4</ele>
        <time>2023-06-11T06:42:22.000Z</time>
      </trkpt>
      <trkpt lat="45.46066" lon="4.98091">
        <ele>426</ele>
        <time>2023-06-11T06:42:25.000Z</time>
      </trkpt>
      <trkpt lat="45.46042" lon="4.98086">
        <ele>427.4</ele>
        <time>2023-06-11T06:42:30.000Z</time>
      </trkpt>
      <trkpt lat="45.46024" lon="4.98085">
        <ele>428.5</ele>
        <time>2023-06-11T06:42:35.000Z</time>
      </trkpt>
      <trkpt lat="45.46022" lon="4.98083">
        <ele>428.7</ele>
        <time>2023-06-11T06:42:36.000Z</time>
      </trkpt>
      <trkpt lat="45.46015" lon="4.98072">
        <ele>429</ele>
        <time>2023-06-11T06:42:39.000Z</time>
      </trkpt>
      <trkpt lat="45.46015" lon="4.98069">
        <ele>429</ele>
        <time>2023-06-11T06:42:40.000Z</time>
      </trkpt>
      <trkpt lat="45.46016" lon="4.98064">
        <ele>429.1</ele>
        <time>2023-06-11T06:42:42.000Z</time>
      </trkpt>
      <trkpt lat="45.46015" lon="4.98055">
        <ele>429</ele>
        <time>2023-06-11T06:42:45.000Z</time>
      </trkpt>
      <trkpt lat="45.46016" lon="4.98045">
        <ele>428.9</ele>
        <time>2023-06-11T06:42:47.000Z</time>
      </trkpt>
      <trkpt lat="45.46015" lon="4.98028">
        <ele>428.8</ele>
        <time>2023-06-11T06:42:50.000Z</time>
      </trkpt>
      <trkpt lat="45.46017" lon="4.98023">
        <ele>428.7</ele>
        <time>2023-06-11T06:42:51.000Z</time>
      </trkpt>
      <trkpt lat="45.46026" lon="4.98005">
        <ele>428.6</ele>
        <time>2023-06-11T06:42:55.000Z</time>
      </trkpt>
      <trkpt lat="45.46036" lon="4.97987">
        <ele>428.6</ele>
        <time>2023-06-11T06:42:59.000Z</time>
      </trkpt>
      <trkpt lat="45.46048" lon="4.97962">
        <ele>428.8</ele>
        <time>2023-06-11T06:43:05.000Z</time>
      </trkpt>
      <trkpt lat="45.4606" lon="4.97944">
        <ele>428.9</ele>
        <time>2023-06-11T06:43:11.000Z</time>
      </trkpt>
      <trkpt lat="45.46072" lon="4.97932">
        <ele>428.9</ele>
        <time>2023-06-11T06:43:16.000Z</time>
      </trkpt>
      <trkpt lat="45.46083" lon="4.97917">
        <ele>428.6</ele>
        <time>2023-06-11T06:43:20.000Z</time>
      </trkpt>
      <trkpt lat="45.46106" lon="4.97899">
        <ele>428</ele>
        <time>2023-06-11T06:43:25.000Z</time>
      </trkpt>
      <trkpt lat="45.46116" lon="4.97893">
        <ele>427.8</ele>
        <time>2023-06-11T06:43:27.000Z</time>
      </trkpt>
      <trkpt lat="45.46137" lon="4.9788">
        <ele>426.9</ele>
        <time>2023-06-11T06:43:31.000Z</time>
      </trkpt>
      <trkpt lat="45.46148" lon="4.97879">
        <ele>426.5</ele>
        <time>2023-06-11T06:43:33.000Z</time>
      </trkpt>
      <trkpt lat="45.4616" lon="4.9788">
        <ele>426.1</ele>
        <time>2023-06-11T06:43:35.000Z</time>
      </trkpt>
      <trkpt lat="45.46174" lon="4.97874">
        <ele>425.8</ele>
        <time>2023-06-11T06:43:37.000Z</time>
      </trkpt>
      <trkpt lat="45.46179" lon="4.9787">
        <ele>425.7</ele>
        <time>2023-06-11T06:43:38.000Z</time>
      </trkpt>
      <trkpt lat="45.46184" lon="4.97867">
        <ele>425.7</ele>
        <time>2023-06-11T06:43:39.000Z</time>
      </trkpt>
      <trkpt lat="45.46187" lon="4.97863">
        <ele>425.7</ele>
        <time>2023-06-11T06:43:40.000Z</time>
      </trkpt>
      <trkpt lat="45.46189" lon="4.97857">
        <ele>425.7</ele>
        <time>2023-06-11T06:43:41.000Z</time>
      </trkpt>
      <trkpt lat="45.46191" lon="4.97844">
        <ele>425.8</ele>
        <time>2023-06-11T06:43:43.000Z</time>
      </trkpt>
      <trkpt lat="45.46197" lon="4.97834">
        <ele>426</ele>
        <time>2023-06-11T06:43:45.000Z</time>
      </trkpt>
      <trkpt lat="45.46203" lon="4.97826">
        <ele>426.1</ele>
        <time>2023-06-11T06:43:47.000Z</time>
      </trkpt>
      <trkpt lat="45.46211" lon="4.97819">
        <ele>426.1</ele>
        <time>2023-06-11T06:43:49.000Z</time>
      </trkpt>
      <trkpt lat="45.46216" lon="4.97816">
        <ele>426.1</ele>
        <time>2023-06-11T06:43:50.000Z</time>
      </trkpt>
      <trkpt lat="45.46225" lon="4.97812">
        <ele>426.1</ele>
        <time>2023-06-11T06:43:52.000Z</time>
      </trkpt>
      <trkpt lat="45.4624" lon="4.97809">
        <ele>425.8</ele>
        <time>2023-06-11T06:43:55.000Z</time>
      </trkpt>
      <trkpt lat="45.46245" lon="4.97809">
        <ele>425.6</ele>
        <time>2023-06-11T06:43:56.000Z</time>
      </trkpt>
      <trkpt lat="45.4625" lon="4.97811">
        <ele>425.5</ele>
        <time>2023-06-11T06:43:57.000Z</time>
      </trkpt>
      <trkpt lat="45.46262" lon="4.97815">
        <ele>425</ele>
        <time>2023-06-11T06:43:59.000Z</time>
      </trkpt>
      <trkpt lat="45.46267" lon="4.97814">
        <ele>424.9</ele>
        <time>2023-06-11T06:44:00.000Z</time>
      </trkpt>
      <trkpt lat="45.46273" lon="4.97811">
        <ele>424.7</ele>
        <time>2023-06-11T06:44:01.000Z</time>
      </trkpt>
      <trkpt lat="45.46295" lon="4.97802">
        <ele>424.1</ele>
        <time>2023-06-11T06:44:05.000Z</time>
      </trkpt>
      <trkpt lat="45.46301" lon="4.97798">
        <ele>423.9</ele>
        <time>2023-06-11T06:44:06.000Z</time>
      </trkpt>
      <trkpt lat="45.46313" lon="4.97789">
        <ele>423.5</ele>
        <time>2023-06-11T06:44:09.000Z</time>
      </trkpt>
      <trkpt lat="45.46313" lon="4.97789">
        <ele>423.5</ele>
        <time>2023-06-11T06:44:10.000Z</time>
      </trkpt>
      <trkpt lat="45.4632" lon="4.97775">
        <ele>422.9</ele>
        <time>2023-06-11T06:44:13.000Z</time>
      </trkpt>
      <trkpt lat="45.46329" lon="4.97763">
        <ele>422.1</ele>
        <time>2023-06-11T06:44:15.000Z</time>
      </trkpt>
      <trkpt lat="45.46342" lon="4.97757">
        <ele>421.1</ele>
        <time>2023-06-11T06:44:17.000Z</time>
      </trkpt>
      <trkpt lat="45.46363" lon="4.97753">
        <ele>419.2</ele>
        <time>2023-06-11T06:44:20.000Z</time>
      </trkpt>
      <trkpt lat="45.46379" lon="4.97744">
        <ele>417.4</ele>
        <time>2023-06-11T06:44:22.000Z</time>
      </trkpt>
      <trkpt lat="45.46406" lon="4.97728">
        <ele>414.4</ele>
        <time>2023-06-11T06:44:26.000Z</time>
      </trkpt>
      <trkpt lat="45.4641" lon="4.97719">
        <ele>413.8</ele>
        <time>2023-06-11T06:44:28.000Z</time>
      </trkpt>
      <trkpt lat="45.46404" lon="4.97711">
        <ele>413.5</ele>
        <time>2023-06-11T06:44:30.000Z</time>
      </trkpt>
      <trkpt lat="45.464" lon="4.97708">
        <ele>413.4</ele>
        <time>2023-06-11T06:44:32.000Z</time>
      </trkpt>
      <trkpt lat="45.46388" lon="4.97698">
        <ele>413.7</ele>
        <time>2023-06-11T06:44:34.000Z</time>
      </trkpt>
      <trkpt lat="45.46383" lon="4.9769">
        <ele>414</ele>
        <time>2023-06-11T06:44:36.000Z</time>
      </trkpt>
      <trkpt lat="45.46381" lon="4.97687">
        <ele>414.2</ele>
        <time>2023-06-11T06:44:37.000Z</time>
      </trkpt>
      <trkpt lat="45.46369" lon="4.97675">
        <ele>414.9</ele>
        <time>2023-06-11T06:44:41.000Z</time>
      </trkpt>
      <trkpt lat="45.46369" lon="4.97675">
        <ele>414.9</ele>
        <time>2023-06-11T06:44:42.000Z</time>
      </trkpt>
      <trkpt lat="45.46353" lon="4.9765">
        <ele>416.2</ele>
        <time>2023-06-11T06:44:48.000Z</time>
      </trkpt>
      <trkpt lat="45.46338" lon="4.97634">
        <ele>416.9</ele>
        <time>2023-06-11T06:44:53.000Z</time>
      </trkpt>
      <trkpt lat="45.46334" lon="4.97621">
        <ele>417.2</ele>
        <time>2023-06-11T06:44:56.000Z</time>
      </trkpt>
      <trkpt lat="45.46331" lon="4.97616">
        <ele>417.3</ele>
        <time>2023-06-11T06:44:57.000Z</time>
      </trkpt>
      <trkpt lat="45.46329" lon="4.97612">
        <ele>417.3</ele>
        <time>2023-06-11T06:44:58.000Z</time>
      </trkpt>
      <trkpt lat="45.46323" lon="4.97597">
        <ele>417.4</ele>
        <time>2023-06-11T06:45:01.000Z</time>
      </trkpt>
      <trkpt lat="45.46314" lon="4.97572">
        <ele>417.5</ele>
        <time>2023-06-11T06:45:06.000Z</time>
      </trkpt>
      <trkpt lat="45.46313" lon="4.97541">
        <ele>417.5</ele>
        <time>2023-06-11T06:45:11.000Z</time>
      </trkpt>
      <trkpt lat="45.4631" lon="4.97512">
        <ele>417.5</ele>
        <time>2023-06-11T06:45:17.000Z</time>
      </trkpt>
      <trkpt lat="45.46302" lon="4.97486">
        <ele>417.7</ele>
        <time>2023-06-11T06:45:22.000Z</time>
      </trkpt>
      <trkpt lat="45.46302" lon="4.97451">
        <ele>417.8</ele>
        <time>2023-06-11T06:45:28.000Z</time>
      </trkpt>
      <trkpt lat="45.46302" lon="4.97432">
        <ele>417.8</ele>
        <time>2023-06-11T06:45:31.000Z</time>
      </trkpt>
      <trkpt lat="45.46301" lon="4.97424">
        <ele>417.7</ele>
        <time>2023-06-11T06:45:32.000Z</time>
      </trkpt>
      <trkpt lat="45.46301" lon="4.9741">
        <ele>417.6</ele>
        <time>2023-06-11T06:45:34.000Z</time>
      </trkpt>
      <trkpt lat="45.46296" lon="4.97387">
        <ele>417.5</ele>
        <time>2023-06-11T06:45:37.000Z</time>
      </trkpt>
      <trkpt lat="45.46292" lon="4.97349">
        <ele>417.7</ele>
        <time>2023-06-11T06:45:42.000Z</time>
      </trkpt>
      <trkpt lat="45.46293" lon="4.97334">
        <ele>417.9</ele>
        <time>2023-06-11T06:45:44.000Z</time>
      </trkpt>
      <trkpt lat="45.46298" lon="4.97325">
        <ele>418</ele>
        <time>2023-06-11T06:45:46.000Z</time>
      </trkpt>
      <trkpt lat="45.46305" lon="4.97293">
        <ele>418</ele>
        <time>2023-06-11T06:45:51.000Z</time>
      </trkpt>
      <trkpt lat="45.46309" lon="4.97284">
        <ele>418</ele>
        <time>2023-06-11T06:45:53.000Z</time>
      </trkpt>
      <trkpt lat="45.46313" lon="4.97275">
        <ele>417.9</ele>
        <time>2023-06-11T06:45:55.000Z</time>
      </trkpt>
      <trkpt lat="45.46315" lon="4.97258">
        <ele>418</ele>
        <time>2023-06-11T06:45:58.000Z</time>
      </trkpt>
      <trkpt lat="45.46319" lon="4.97246">
        <ele>418</ele>
        <time>2023-06-11T06:46:00.000Z</time>
      </trkpt>
      <trkpt lat="45.46325" lon="4.97237">
        <ele>418.1</ele>
        <time>2023-06-11T06:46:02.000Z</time>
      </trkpt>
      <trkpt lat="45.4634" lon="4.97212">
        <ele>418.4</ele>
        <time>2023-06-11T06:46:08.000Z</time>
      </trkpt>
      <trkpt lat="45.46343" lon="4.97208">
        <ele>418.5</ele>
        <time>2023-06-11T06:46:09.000Z</time>
      </trkpt>
      <trkpt lat="45.46349" lon="4.97201">
        <ele>418.6</ele>
        <time>2023-06-11T06:46:11.000Z</time>
      </trkpt>
      <trkpt lat="45.46351" lon="4.97194">
        <ele>418.7</ele>
        <time>2023-06-11T06:46:12.000Z</time>
      </trkpt>
      <trkpt lat="45.46354" lon="4.97187">
        <ele>418.7</ele>
        <time>2023-06-11T06:46:13.000Z</time>
      </trkpt>
      <trkpt lat="45.46355" lon="4.9717">
        <ele>418.9</ele>
        <time>2023-06-11T06:46:16.000Z</time>
      </trkpt>
      <trkpt lat="45.4636" lon="4.97158">
        <ele>418.9</ele>
        <time>2023-06-11T06:46:18.000Z</time>
      </trkpt>
      <trkpt lat="45.46368" lon="4.97141">
        <ele>418.8</ele>
        <time>2023-06-11T06:46:21.000Z</time>
      </trkpt>
      <trkpt lat="45.46373" lon="4.97128">
        <ele>418.7</ele>
        <time>2023-06-11T06:46:23.000Z</time>
      </trkpt>
      <trkpt lat="45.46373" lon="4.97117">
        <ele>418.7</ele>
        <time>2023-06-11T06:46:25.000Z</time>
      </trkpt>
      <trkpt lat="45.4636" lon="4.97097">
        <ele>418.4</ele>
        <time>2023-06-11T06:46:29.000Z</time>
      </trkpt>
      <trkpt lat="45.46347" lon="4.97076">
        <ele>418.2</ele>
        <time>2023-06-11T06:46:33.000Z</time>
      </trkpt>
      <trkpt lat="45.46345" lon="4.97069">
        <ele>418.1</ele>
        <time>2023-06-11T06:46:34.000Z</time>
      </trkpt>
      <trkpt lat="45.46341" lon="4.97062">
        <ele>417.9</ele>
        <time>2023-06-11T06:46:35.000Z</time>
      </trkpt>
      <trkpt lat="45.46326" lon="4.97035">
        <ele>417.4</ele>
        <time>2023-06-11T06:46:39.000Z</time>
      </trkpt>
      <trkpt lat="45.46311" lon="4.97004">
        <ele>416.8</ele>
        <time>2023-06-11T06:46:43.000Z</time>
      </trkpt>
      <trkpt lat="45.46311" lon="4.97004">
        <ele>416.8</ele>
        <time>2023-06-11T06:46:44.000Z</time>
      </trkpt>
      <trkpt lat="45.46292" lon="4.96964">
        <ele>415.9</ele>
        <time>2023-06-11T06:46:48.000Z</time>
      </trkpt>
      <trkpt lat="45.46283" lon="4.96948">
        <ele>415.5</ele>
        <time>2023-06-11T06:46:50.000Z</time>
      </trkpt>
      <trkpt lat="45.46266" lon="4.96916">
        <ele>414.9</ele>
        <time>2023-06-11T06:46:54.000Z</time>
      </trkpt>
      <trkpt lat="45.4626" lon="4.96907">
        <ele>415</ele>
        <time>2023-06-11T06:46:56.000Z</time>
      </trkpt>
      <trkpt lat="45.46258" lon="4.96905">
        <ele>415.1</ele>
        <time>2023-06-11T06:46:57.000Z</time>
      </trkpt>
      <trkpt lat="45.46257" lon="4.96905">
        <ele>415.1</ele>
        <time>2023-06-11T06:46:59.000Z</time>
      </trkpt>
      <trkpt lat="45.46243" lon="4.969">
        <ele>415.6</ele>
        <time>2023-06-11T06:47:04.000Z</time>
      </trkpt>
      <trkpt lat="45.4622" lon="4.96888">
        <ele>416.9</ele>
        <time>2023-06-11T06:47:12.000Z</time>
      </trkpt>
      <trkpt lat="45.46202" lon="4.96884">
        <ele>417.9</ele>
        <time>2023-06-11T06:47:18.000Z</time>
      </trkpt>
      <trkpt lat="45.46199" lon="4.96883">
        <ele>418.1</ele>
        <time>2023-06-11T06:47:20.000Z</time>
      </trkpt>
      <trkpt lat="45.46179" lon="4.96876">
        <ele>419.1</ele>
        <time>2023-06-11T06:47:25.000Z</time>
      </trkpt>
      <trkpt lat="45.46169" lon="4.96872">
        <ele>419.6</ele>
        <time>2023-06-11T06:47:28.000Z</time>
      </trkpt>
      <trkpt lat="45.46152" lon="4.96864">
        <ele>420.3</ele>
        <time>2023-06-11T06:47:33.000Z</time>
      </trkpt>
      <trkpt lat="45.46143" lon="4.96858">
        <ele>420.6</ele>
        <time>2023-06-11T06:47:36.000Z</time>
      </trkpt>
      <trkpt lat="45.46134" lon="4.96852">
        <ele>421</ele>
        <time>2023-06-11T06:47:39.000Z</time>
      </trkpt>
      <trkpt lat="45.46118" lon="4.9684">
        <ele>421.3</ele>
        <time>2023-06-11T06:47:45.000Z</time>
      </trkpt>
      <trkpt lat="45.46114" lon="4.96835">
        <ele>421.3</ele>
        <time>2023-06-11T06:47:47.000Z</time>
      </trkpt>
      <trkpt lat="45.46097" lon="4.9682">
        <ele>421.1</ele>
        <time>2023-06-11T06:47:52.000Z</time>
      </trkpt>
      <trkpt lat="45.46093" lon="4.96817">
        <ele>421</ele>
        <time>2023-06-11T06:47:53.000Z</time>
      </trkpt>
      <trkpt lat="45.46069" lon="4.96791">
        <ele>420.5</ele>
        <time>2023-06-11T06:47:59.000Z</time>
      </trkpt>
      <trkpt lat="45.46044" lon="4.96768">
        <ele>419.8</ele>
        <time>2023-06-11T06:48:04.000Z</time>
      </trkpt>
      <trkpt lat="45.46016" lon="4.9674">
        <ele>418.8</ele>
        <time>2023-06-11T06:48:10.000Z</time>
      </trkpt>
      <trkpt lat="45.46012" lon="4.96729">
        <ele>418.7</ele>
        <time>2023-06-11T06:48:13.000Z</time>
      </trkpt>
      <trkpt lat="45.4601" lon="4.96703">
        <ele>419.6</ele>
        <time>2023-06-11T06:48:18.000Z</time>
      </trkpt>
      <trkpt lat="45.46005" lon="4.96668">
        <ele>419.9</ele>
        <time>2023-06-11T06:48:24.000Z</time>
      </trkpt>
      <trkpt lat="45.46002" lon="4.96663">
        <ele>419.9</ele>
        <time>2023-06-11T06:48:25.000Z</time>
      </trkpt>
      <trkpt lat="45.45996" lon="4.96656">
        <ele>419.6</ele>
        <time>2023-06-11T06:48:27.000Z</time>
      </trkpt>
      <trkpt lat="45.45996" lon="4.96651">
        <ele>419.8</ele>
        <time>2023-06-11T06:48:28.000Z</time>
      </trkpt>
      <trkpt lat="45.45998" lon="4.96642">
        <ele>420.3</ele>
        <time>2023-06-11T06:48:32.000Z</time>
      </trkpt>
      <trkpt lat="45.46003" lon="4.96632">
        <ele>420.9</ele>
        <time>2023-06-11T06:48:34.000Z</time>
      </trkpt>
      <trkpt lat="45.46008" lon="4.96627">
        <ele>421.5</ele>
        <time>2023-06-11T06:48:36.000Z</time>
      </trkpt>
      <trkpt lat="45.46019" lon="4.96617">
        <ele>422.4</ele>
        <time>2023-06-11T06:48:41.000Z</time>
      </trkpt>
      <trkpt lat="45.46032" lon="4.96593">
        <ele>424.1</ele>
        <time>2023-06-11T06:48:46.000Z</time>
      </trkpt>
      <trkpt lat="45.46034" lon="4.96588">
        <ele>424.3</ele>
        <time>2023-06-11T06:48:47.000Z</time>
      </trkpt>
      <trkpt lat="45.4605" lon="4.96566">
        <ele>425.1</ele>
        <time>2023-06-11T06:48:53.000Z</time>
      </trkpt>
      <trkpt lat="45.46054" lon="4.96556">
        <ele>425.1</ele>
        <time>2023-06-11T06:48:55.000Z</time>
      </trkpt>
      <trkpt lat="45.4606" lon="4.96543">
        <ele>425</ele>
        <time>2023-06-11T06:48:59.000Z</time>
      </trkpt>
      <trkpt lat="45.46074" lon="4.96504">
        <ele>424.3</ele>
        <time>2023-06-11T06:49:06.000Z</time>
      </trkpt>
      <trkpt lat="45.46078" lon="4.96488">
        <ele>424.3</ele>
        <time>2023-06-11T06:49:09.000Z</time>
      </trkpt>
      <trkpt lat="45.46081" lon="4.96473">
        <ele>424.3</ele>
        <time>2023-06-11T06:49:12.000Z</time>
      </trkpt>
      <trkpt lat="45.46082" lon="4.96468">
        <ele>424.3</ele>
        <time>2023-06-11T06:49:13.000Z</time>
      </trkpt>
      <trkpt lat="45.46088" lon="4.96455">
        <ele>424.4</ele>
        <time>2023-06-11T06:49:16.000Z</time>
      </trkpt>
      <trkpt lat="45.46089" lon="4.96434">
        <ele>424.3</ele>
        <time>2023-06-11T06:49:21.000Z</time>
      </trkpt>
      <trkpt lat="45.46091" lon="4.96417">
        <ele>424.1</ele>
        <time>2023-06-11T06:49:25.000Z</time>
      </trkpt>
      <trkpt lat="45.461" lon="4.96379">
        <ele>423</ele>
        <time>2023-06-11T06:49:31.000Z</time>
      </trkpt>
      <trkpt lat="45.46102" lon="4.96373">
        <ele>423</ele>
        <time>2023-06-11T06:49:32.000Z</time>
      </trkpt>
      <trkpt lat="45.46104" lon="4.9636">
        <ele>422.7</ele>
        <time>2023-06-11T06:49:34.000Z</time>
      </trkpt>
      <trkpt lat="45.46105" lon="4.96349">
        <ele>422.5</ele>
        <time>2023-06-11T06:49:36.000Z</time>
      </trkpt>
      <trkpt lat="45.46106" lon="4.96343">
        <ele>422.6</ele>
        <time>2023-06-11T06:49:37.000Z</time>
      </trkpt>
      <trkpt lat="45.46113" lon="4.96321">
        <ele>422.8</ele>
        <time>2023-06-11T06:49:41.000Z</time>
      </trkpt>
      <trkpt lat="45.46131" lon="4.96275">
        <ele>423.1</ele>
        <time>2023-06-11T06:49:50.000Z</time>
      </trkpt>
      <trkpt lat="45.46146" lon="4.96219">
        <ele>423.2</ele>
        <time>2023-06-11T06:49:58.000Z</time>
      </trkpt>
      <trkpt lat="45.46156" lon="4.96147">
        <ele>423</ele>
        <time>2023-06-11T06:50:08.000Z</time>
      </trkpt>
      <trkpt lat="45.46167" lon="4.96084">
        <ele>422.6</ele>
        <time>2023-06-11T06:50:16.000Z</time>
      </trkpt>
      <trkpt lat="45.46168" lon="4.96076">
        <ele>422.6</ele>
        <time>2023-06-11T06:50:17.000Z</time>
      </trkpt>
      <trkpt lat="45.46174" lon="4.96017">
        <ele>422.4</ele>
        <time>2023-06-11T06:50:24.000Z</time>
      </trkpt>
      <trkpt lat="45.46173" lon="4.96">
        <ele>422.3</ele>
        <time>2023-06-11T06:50:26.000Z</time>
      </trkpt>
      <trkpt lat="45.46168" lon="4.95968">
        <ele>422.2</ele>
        <time>2023-06-11T06:50:30.000Z</time>
      </trkpt>
      <trkpt lat="45.46167" lon="4.9596">
        <ele>422.1</ele>
        <time>2023-06-11T06:50:31.000Z</time>
      </trkpt>
      <trkpt lat="45.46165" lon="4.9591">
        <ele>421.9</ele>
        <time>2023-06-11T06:50:37.000Z</time>
      </trkpt>
      <trkpt lat="45.46164" lon="4.95892">
        <ele>421.9</ele>
        <time>2023-06-11T06:50:39.000Z</time>
      </trkpt>
      <trkpt lat="45.46165" lon="4.95864">
        <ele>421.9</ele>
        <time>2023-06-11T06:50:42.000Z</time>
      </trkpt>
      <trkpt lat="45.46164" lon="4.95819">
        <ele>422</ele>
        <time>2023-06-11T06:50:47.000Z</time>
      </trkpt>
      <trkpt lat="45.46163" lon="4.95794">
        <ele>422</ele>
        <time>2023-06-11T06:50:50.000Z</time>
      </trkpt>
      <trkpt lat="45.46163" lon="4.95769">
        <ele>422</ele>
        <time>2023-06-11T06:50:53.000Z</time>
      </trkpt>
      <trkpt lat="45.46163" lon="4.95754">
        <ele>422</ele>
        <time>2023-06-11T06:50:55.000Z</time>
      </trkpt>
      <trkpt lat="45.46162" lon="4.95729">
        <ele>422.1</ele>
        <time>2023-06-11T06:50:58.000Z</time>
      </trkpt>
      <trkpt lat="45.46162" lon="4.9572">
        <ele>422.1</ele>
        <time>2023-06-11T06:50:59.000Z</time>
      </trkpt>
      <trkpt lat="45.46163" lon="4.95694">
        <ele>422</ele>
        <time>2023-06-11T06:51:02.000Z</time>
      </trkpt>
      <trkpt lat="45.46162" lon="4.95685">
        <ele>422</ele>
        <time>2023-06-11T06:51:03.000Z</time>
      </trkpt>
      <trkpt lat="45.46162" lon="4.95676">
        <ele>422</ele>
        <time>2023-06-11T06:51:04.000Z</time>
      </trkpt>
      <trkpt lat="45.46163" lon="4.9564">
        <ele>421.8</ele>
        <time>2023-06-11T06:51:08.000Z</time>
      </trkpt>
      <trkpt lat="45.46166" lon="4.95602">
        <ele>421.6</ele>
        <time>2023-06-11T06:51:12.000Z</time>
      </trkpt>
      <trkpt lat="45.46165" lon="4.95592">
        <ele>421.6</ele>
        <time>2023-06-11T06:51:13.000Z</time>
      </trkpt>
      <trkpt lat="45.46166" lon="4.95583">
        <ele>421.5</ele>
        <time>2023-06-11T06:51:14.000Z</time>
      </trkpt>
      <trkpt lat="45.46171" lon="4.95546">
        <ele>421.4</ele>
        <time>2023-06-11T06:51:18.000Z</time>
      </trkpt>
      <trkpt lat="45.4617" lon="4.95536">
        <ele>421.3</ele>
        <time>2023-06-11T06:51:19.000Z</time>
      </trkpt>
      <trkpt lat="45.46168" lon="4.95518">
        <ele>421.3</ele>
        <time>2023-06-11T06:51:21.000Z</time>
      </trkpt>
      <trkpt lat="45.46169" lon="4.95501">
        <ele>421.2</ele>
        <time>2023-06-11T06:51:23.000Z</time>
      </trkpt>
      <trkpt lat="45.46172" lon="4.95476">
        <ele>421.1</ele>
        <time>2023-06-11T06:51:26.000Z</time>
      </trkpt>
      <trkpt lat="45.46172" lon="4.95467">
        <ele>421.1</ele>
        <time>2023-06-11T06:51:27.000Z</time>
      </trkpt>
      <trkpt lat="45.46173" lon="4.95448">
        <ele>421.1</ele>
        <time>2023-06-11T06:51:29.000Z</time>
      </trkpt>
      <trkpt lat="45.46173" lon="4.95429">
        <ele>421.1</ele>
        <time>2023-06-11T06:51:31.000Z</time>
      </trkpt>
      <trkpt lat="45.46173" lon="4.95422">
        <ele>421</ele>
        <time>2023-06-11T06:51:32.000Z</time>
      </trkpt>
      <trkpt lat="45.46172" lon="4.95406">
        <ele>420.9</ele>
        <time>2023-06-11T06:51:34.000Z</time>
      </trkpt>
      <trkpt lat="45.46172" lon="4.95379">
        <ele>420.6</ele>
        <time>2023-06-11T06:51:37.000Z</time>
      </trkpt>
      <trkpt lat="45.46172" lon="4.95335">
        <ele>419.4</ele>
        <time>2023-06-11T06:51:42.000Z</time>
      </trkpt>
      <trkpt lat="45.46172" lon="4.95325">
        <ele>419.1</ele>
        <time>2023-06-11T06:51:43.000Z</time>
      </trkpt>
      <trkpt lat="45.46169" lon="4.95316">
        <ele>418.8</ele>
        <time>2023-06-11T06:51:44.000Z</time>
      </trkpt>
      <trkpt lat="45.46168" lon="4.95291">
        <ele>418</ele>
        <time>2023-06-11T06:51:47.000Z</time>
      </trkpt>
      <trkpt lat="45.4617" lon="4.95266">
        <ele>417.2</ele>
        <time>2023-06-11T06:51:50.000Z</time>
      </trkpt>
      <trkpt lat="45.46172" lon="4.95247">
        <ele>416.6</ele>
        <time>2023-06-11T06:51:52.000Z</time>
      </trkpt>
      <trkpt lat="45.46176" lon="4.95228">
        <ele>416</ele>
        <time>2023-06-11T06:51:54.000Z</time>
      </trkpt>
      <trkpt lat="45.46177" lon="4.95219">
        <ele>415.6</ele>
        <time>2023-06-11T06:51:55.000Z</time>
      </trkpt>
      <trkpt lat="45.46181" lon="4.95189">
        <ele>414.5</ele>
        <time>2023-06-11T06:51:58.000Z</time>
      </trkpt>
      <trkpt lat="45.46182" lon="4.95179">
        <ele>414.1</ele>
        <time>2023-06-11T06:51:59.000Z</time>
      </trkpt>
      <trkpt lat="45.46182" lon="4.95168">
        <ele>413.7</ele>
        <time>2023-06-11T06:52:00.000Z</time>
      </trkpt>
      <trkpt lat="45.46184" lon="4.95136">
        <ele>412.8</ele>
        <time>2023-06-11T06:52:03.000Z</time>
      </trkpt>
      <trkpt lat="45.46186" lon="4.95126">
        <ele>412.7</ele>
        <time>2023-06-11T06:52:04.000Z</time>
      </trkpt>
      <trkpt lat="45.46188" lon="4.95118">
        <ele>412.5</ele>
        <time>2023-06-11T06:52:05.000Z</time>
      </trkpt>
      <trkpt lat="45.4619" lon="4.95111">
        <ele>412.4</ele>
        <time>2023-06-11T06:52:06.000Z</time>
      </trkpt>
      <trkpt lat="45.46195" lon="4.95105">
        <ele>412.3</ele>
        <time>2023-06-11T06:52:08.000Z</time>
      </trkpt>
      <trkpt lat="45.46201" lon="4.95104">
        <ele>412.3</ele>
        <time>2023-06-11T06:52:10.000Z</time>
      </trkpt>
      <trkpt lat="45.4621" lon="4.95101">
        <ele>412.4</ele>
        <time>2023-06-11T06:52:13.000Z</time>
      </trkpt>
      <trkpt lat="45.46222" lon="4.95097">
        <ele>412.4</ele>
        <time>2023-06-11T06:52:16.000Z</time>
      </trkpt>
      <trkpt lat="45.46231" lon="4.95092">
        <ele>412.2</ele>
        <time>2023-06-11T06:52:18.000Z</time>
      </trkpt>
      <trkpt lat="45.46236" lon="4.95091">
        <ele>412</ele>
        <time>2023-06-11T06:52:19.000Z</time>
      </trkpt>
      <trkpt lat="45.46245" lon="4.95086">
        <ele>411.6</ele>
        <time>2023-06-11T06:52:21.000Z</time>
      </trkpt>
      <trkpt lat="45.4625" lon="4.95083">
        <ele>411.2</ele>
        <time>2023-06-11T06:52:22.000Z</time>
      </trkpt>
      <trkpt lat="45.46256" lon="4.95079">
        <ele>410.9</ele>
        <time>2023-06-11T06:52:23.000Z</time>
      </trkpt>
      <trkpt lat="45.46268" lon="4.95072">
        <ele>410</ele>
        <time>2023-06-11T06:52:25.000Z</time>
      </trkpt>
      <trkpt lat="45.46275" lon="4.95071">
        <ele>409.6</ele>
        <time>2023-06-11T06:52:26.000Z</time>
      </trkpt>
      <trkpt lat="45.46324" lon="4.95064">
        <ele>405.4</ele>
        <time>2023-06-11T06:52:33.000Z</time>
      </trkpt>
      <trkpt lat="45.46334" lon="4.95064">
        <ele>404</ele>
        <time>2023-06-11T06:52:35.000Z</time>
      </trkpt>
      <trkpt lat="45.46339" lon="4.95066">
        <ele>403.3</ele>
        <time>2023-06-11T06:52:36.000Z</time>
      </trkpt>
      <trkpt lat="45.46343" lon="4.95068">
        <ele>402.7</ele>
        <time>2023-06-11T06:52:37.000Z</time>
      </trkpt>
      <trkpt lat="45.46353" lon="4.95074">
        <ele>401</ele>
        <time>2023-06-11T06:52:39.000Z</time>
      </trkpt>
      <trkpt lat="45.46363" lon="4.95079">
        <ele>399.5</ele>
        <time>2023-06-11T06:52:41.000Z</time>
      </trkpt>
      <trkpt lat="45.46368" lon="4.95082">
        <ele>398.7</ele>
        <time>2023-06-11T06:52:42.000Z</time>
      </trkpt>
      <trkpt lat="45.46373" lon="4.95085">
        <ele>397.8</ele>
        <time>2023-06-11T06:52:43.000Z</time>
      </trkpt>
      <trkpt lat="45.46385" lon="4.95089">
        <ele>395.8</ele>
        <time>2023-06-11T06:52:45.000Z</time>
      </trkpt>
      <trkpt lat="45.46399" lon="4.95093">
        <ele>393.4</ele>
        <time>2023-06-11T06:52:47.000Z</time>
      </trkpt>
      <trkpt lat="45.46421" lon="4.95093">
        <ele>390.4</ele>
        <time>2023-06-11T06:52:50.000Z</time>
      </trkpt>
      <trkpt lat="45.46434" lon="4.95088">
        <ele>388.6</ele>
        <time>2023-06-11T06:52:52.000Z</time>
      </trkpt>
      <trkpt lat="45.46445" lon="4.95085">
        <ele>387.3</ele>
        <time>2023-06-11T06:52:54.000Z</time>
      </trkpt>
      <trkpt lat="45.46449" lon="4.95082">
        <ele>386.7</ele>
        <time>2023-06-11T06:52:55.000Z</time>
      </trkpt>
      <trkpt lat="45.46453" lon="4.95079">
        <ele>386</ele>
        <time>2023-06-11T06:52:56.000Z</time>
      </trkpt>
      <trkpt lat="45.46458" lon="4.95074">
        <ele>385.2</ele>
        <time>2023-06-11T06:52:57.000Z</time>
      </trkpt>
      <trkpt lat="45.46463" lon="4.95069">
        <ele>383.6</ele>
        <time>2023-06-11T06:52:58.000Z</time>
      </trkpt>
      <trkpt lat="45.46469" lon="4.95061">
        <ele>382.7</ele>
        <time>2023-06-11T06:52:59.000Z</time>
      </trkpt>
      <trkpt lat="45.46474" lon="4.95054">
        <ele>381.7</ele>
        <time>2023-06-11T06:53:00.000Z</time>
      </trkpt>
      <trkpt lat="45.4648" lon="4.95047">
        <ele>380.7</ele>
        <time>2023-06-11T06:53:01.000Z</time>
      </trkpt>
      <trkpt lat="45.46487" lon="4.95033">
        <ele>379.1</ele>
        <time>2023-06-11T06:53:03.000Z</time>
      </trkpt>
      <trkpt lat="45.46487" lon="4.95028">
        <ele>378.8</ele>
        <time>2023-06-11T06:53:04.000Z</time>
      </trkpt>
      <trkpt lat="45.46486" lon="4.95025">
        <ele>379.1</ele>
        <time>2023-06-11T06:53:05.000Z</time>
      </trkpt>
      <trkpt lat="45.46484" lon="4.95023">
        <ele>379.3</ele>
        <time>2023-06-11T06:53:06.000Z</time>
      </trkpt>
      <trkpt lat="45.46482" lon="4.95022">
        <ele>379.4</ele>
        <time>2023-06-11T06:53:07.000Z</time>
      </trkpt>
      <trkpt lat="45.46476" lon="4.9502">
        <ele>379.9</ele>
        <time>2023-06-11T06:53:09.000Z</time>
      </trkpt>
      <trkpt lat="45.4647" lon="4.95015">
        <ele>380.5</ele>
        <time>2023-06-11T06:53:11.000Z</time>
      </trkpt>
      <trkpt lat="45.46465" lon="4.95012">
        <ele>381</ele>
        <time>2023-06-11T06:53:13.000Z</time>
      </trkpt>
      <trkpt lat="45.46454" lon="4.95006">
        <ele>382</ele>
        <time>2023-06-11T06:53:17.000Z</time>
      </trkpt>
      <trkpt lat="45.46443" lon="4.94998">
        <ele>383</ele>
        <time>2023-06-11T06:53:21.000Z</time>
      </trkpt>
      <trkpt lat="45.4644" lon="4.94997">
        <ele>383.3</ele>
        <time>2023-06-11T06:53:22.000Z</time>
      </trkpt>
      <trkpt lat="45.46432" lon="4.94992">
        <ele>384</ele>
        <time>2023-06-11T06:53:26.000Z</time>
      </trkpt>
      <trkpt lat="45.46431" lon="4.9499">
        <ele>384.1</ele>
        <time>2023-06-11T06:53:27.000Z</time>
      </trkpt>
      <trkpt lat="45.46429" lon="4.94989">
        <ele>384.3</ele>
        <time>2023-06-11T06:53:28.000Z</time>
      </trkpt>
      <trkpt lat="45.46418" lon="4.9498">
        <ele>385.2</ele>
        <time>2023-06-11T06:53:32.000Z</time>
      </trkpt>
      <trkpt lat="45.4641" lon="4.94972">
        <ele>385.9</ele>
        <time>2023-06-11T06:53:36.000Z</time>
      </trkpt>
      <trkpt lat="45.46402" lon="4.94967">
        <ele>386.5</ele>
        <time>2023-06-11T06:53:39.000Z</time>
      </trkpt>
      <trkpt lat="45.46392" lon="4.9496">
        <ele>387.5</ele>
        <time>2023-06-11T06:53:42.000Z</time>
      </trkpt>
      <trkpt lat="45.46386" lon="4.94958">
        <ele>388</ele>
        <time>2023-06-11T06:53:44.000Z</time>
      </trkpt>
      <trkpt lat="45.46384" lon="4.94956">
        <ele>388.2</ele>
        <time>2023-06-11T06:53:45.000Z</time>
      </trkpt>
      <trkpt lat="45.4638" lon="4.94951">
        <ele>388.6</ele>
        <time>2023-06-11T06:53:47.000Z</time>
      </trkpt>
      <trkpt lat="45.46371" lon="4.94944">
        <ele>389.5</ele>
        <time>2023-06-11T06:53:50.000Z</time>
      </trkpt>
      <trkpt lat="45.46365" lon="4.94935">
        <ele>390.2</ele>
        <time>2023-06-11T06:53:53.000Z</time>
      </trkpt>
      <trkpt lat="45.46356" lon="4.94924">
        <ele>391.2</ele>
        <time>2023-06-11T06:53:58.000Z</time>
      </trkpt>
      <trkpt lat="45.46348" lon="4.94917">
        <ele>392</ele>
        <time>2023-06-11T06:54:03.000Z</time>
      </trkpt>
      <trkpt lat="45.46337" lon="4.94908">
        <ele>393.3</ele>
        <time>2023-06-11T06:54:08.000Z</time>
      </trkpt>
      <trkpt lat="45.46333" lon="4.94905">
        <ele>393.7</ele>
        <time>2023-06-11T06:54:10.000Z</time>
      </trkpt>
      <trkpt lat="45.46325" lon="4.94896">
        <ele>394.9</ele>
        <time>2023-06-11T06:54:16.000Z</time>
      </trkpt>
      <trkpt lat="45.46324" lon="4.94894">
        <ele>395.1</ele>
        <time>2023-06-11T06:54:17.000Z</time>
      </trkpt>
      <trkpt lat="45.4632" lon="4.94891">
        <ele>395.5</ele>
        <time>2023-06-11T06:54:21.000Z</time>
      </trkpt>
      <trkpt lat="45.46316" lon="4.94887">
        <ele>396</ele>
        <time>2023-06-11T06:54:23.000Z</time>
      </trkpt>
      <trkpt lat="45.46309" lon="4.94878">
        <ele>397</ele>
        <time>2023-06-11T06:54:27.000Z</time>
      </trkpt>
      <trkpt lat="45.463" lon="4.9487">
        <ele>398</ele>
        <time>2023-06-11T06:54:31.000Z</time>
      </trkpt>
      <trkpt lat="45.46296" lon="4.94866">
        <ele>398.4</ele>
        <time>2023-06-11T06:54:33.000Z</time>
      </trkpt>
      <trkpt lat="45.46289" lon="4.94858">
        <ele>399.2</ele>
        <time>2023-06-11T06:54:37.000Z</time>
      </trkpt>
      <trkpt lat="45.46283" lon="4.94853">
        <ele>399.8</ele>
        <time>2023-06-11T06:54:40.000Z</time>
      </trkpt>
      <trkpt lat="45.46277" lon="4.94845">
        <ele>400.6</ele>
        <time>2023-06-11T06:54:44.000Z</time>
      </trkpt>
      <trkpt lat="45.46275" lon="4.94841">
        <ele>401</ele>
        <time>2023-06-11T06:54:46.000Z</time>
      </trkpt>
      <trkpt lat="45.46266" lon="4.94832">
        <ele>402.3</ele>
        <time>2023-06-11T06:54:52.000Z</time>
      </trkpt>
      <trkpt lat="45.46264" lon="4.94831">
        <ele>402.5</ele>
        <time>2023-06-11T06:54:53.000Z</time>
      </trkpt>
      <trkpt lat="45.46259" lon="4.9482">
        <ele>403.7</ele>
        <time>2023-06-11T06:54:59.000Z</time>
      </trkpt>
      <trkpt lat="45.46258" lon="4.94818">
        <ele>403.8</ele>
        <time>2023-06-11T06:55:00.000Z</time>
      </trkpt>
      <trkpt lat="45.46254" lon="4.94809">
        <ele>404.8</ele>
        <time>2023-06-11T06:55:05.000Z</time>
      </trkpt>
      <trkpt lat="45.46252" lon="4.94805">
        <ele>405.1</ele>
        <time>2023-06-11T06:55:07.000Z</time>
      </trkpt>
      <trkpt lat="45.46251" lon="4.94798">
        <ele>405.6</ele>
        <time>2023-06-11T06:55:10.000Z</time>
      </trkpt>
      <trkpt lat="45.46249" lon="4.94789">
        <ele>406.2</ele>
        <time>2023-06-11T06:55:14.000Z</time>
      </trkpt>
      <trkpt lat="45.46248" lon="4.94786">
        <ele>406.3</ele>
        <time>2023-06-11T06:55:15.000Z</time>
      </trkpt>
      <trkpt lat="45.46243" lon="4.94768">
        <ele>407.3</ele>
        <time>2023-06-11T06:55:22.000Z</time>
      </trkpt>
      <trkpt lat="45.46239" lon="4.94755">
        <ele>407.9</ele>
        <time>2023-06-11T06:55:28.000Z</time>
      </trkpt>
      <trkpt lat="45.46237" lon="4.94752">
        <ele>408</ele>
        <time>2023-06-11T06:55:29.000Z</time>
      </trkpt>
      <trkpt lat="45.46236" lon="4.94745">
        <ele>408.2</ele>
        <time>2023-06-11T06:55:32.000Z</time>
      </trkpt>
      <trkpt lat="45.46234" lon="4.9474">
        <ele>408.4</ele>
        <time>2023-06-11T06:55:34.000Z</time>
      </trkpt>
      <trkpt lat="45.46234" lon="4.94736">
        <ele>408.5</ele>
        <time>2023-06-11T06:55:35.000Z</time>
      </trkpt>
      <trkpt lat="45.46234" lon="4.9473">
        <ele>408.7</ele>
        <time>2023-06-11T06:55:37.000Z</time>
      </trkpt>
      <trkpt lat="45.46231" lon="4.94716">
        <ele>409.3</ele>
        <time>2023-06-11T06:55:42.000Z</time>
      </trkpt>
      <trkpt lat="45.4623" lon="4.94713">
        <ele>409.5</ele>
        <time>2023-06-11T06:55:43.000Z</time>
      </trkpt>
      <trkpt lat="45.4623" lon="4.94709">
        <ele>409.6</ele>
        <time>2023-06-11T06:55:44.000Z</time>
      </trkpt>
      <trkpt lat="45.46227" lon="4.94696">
        <ele>410.3</ele>
        <time>2023-06-11T06:55:48.000Z</time>
      </trkpt>
      <trkpt lat="45.46223" lon="4.94675">
        <ele>411</ele>
        <time>2023-06-11T06:55:54.000Z</time>
      </trkpt>
      <trkpt lat="45.46222" lon="4.94666">
        <ele>411.3</ele>
        <time>2023-06-11T06:55:56.000Z</time>
      </trkpt>
      <trkpt lat="45.4622" lon="4.94644">
        <ele>412.2</ele>
        <time>2023-06-11T06:56:02.000Z</time>
      </trkpt>
      <trkpt lat="45.4622" lon="4.94637">
        <ele>412.4</ele>
        <time>2023-06-11T06:56:04.000Z</time>
      </trkpt>
      <trkpt lat="45.46216" lon="4.94626">
        <ele>412.9</ele>
        <time>2023-06-11T06:56:07.000Z</time>
      </trkpt>
      <trkpt lat="45.46214" lon="4.94622">
        <ele>413.1</ele>
        <time>2023-06-11T06:56:09.000Z</time>
      </trkpt>
      <trkpt lat="45.4621" lon="4.94607">
        <ele>413.7</ele>
        <time>2023-06-11T06:56:13.000Z</time>
      </trkpt>
      <trkpt lat="45.46207" lon="4.94592">
        <ele>414.1</ele>
        <time>2023-06-11T06:56:16.000Z</time>
      </trkpt>
      <trkpt lat="45.46204" lon="4.94588">
        <ele>414.3</ele>
        <time>2023-06-11T06:56:17.000Z</time>
      </trkpt>
      <trkpt lat="45.46204" lon="4.94581">
        <ele>414.5</ele>
        <time>2023-06-11T06:56:19.000Z</time>
      </trkpt>
      <trkpt lat="45.46201" lon="4.94574">
        <ele>414.8</ele>
        <time>2023-06-11T06:56:21.000Z</time>
      </trkpt>
      <trkpt lat="45.46196" lon="4.94553">
        <ele>415.3</ele>
        <time>2023-06-11T06:56:27.000Z</time>
      </trkpt>
      <trkpt lat="45.46193" lon="4.94537">
        <ele>415.7</ele>
        <time>2023-06-11T06:56:31.000Z</time>
      </trkpt>
      <trkpt lat="45.46192" lon="4.94525">
        <ele>415.9</ele>
        <time>2023-06-11T06:56:34.000Z</time>
      </trkpt>
      <trkpt lat="45.46192" lon="4.94522">
        <ele>415.9</ele>
        <time>2023-06-11T06:56:35.000Z</time>
      </trkpt>
      <trkpt lat="45.46189" lon="4.94519">
        <ele>416.1</ele>
        <time>2023-06-11T06:56:37.000Z</time>
      </trkpt>
      <trkpt lat="45.46185" lon="4.94524">
        <ele>416.1</ele>
        <time>2023-06-11T06:56:40.000Z</time>
      </trkpt>
      <trkpt lat="45.46176" lon="4.94539">
        <ele>416.2</ele>
        <time>2023-06-11T06:56:44.000Z</time>
      </trkpt>
      <trkpt lat="45.46172" lon="4.94556">
        <ele>416.3</ele>
        <time>2023-06-11T06:56:48.000Z</time>
      </trkpt>
      <trkpt lat="45.4617" lon="4.94566">
        <ele>416.4</ele>
        <time>2023-06-11T06:56:52.000Z</time>
      </trkpt>
      <trkpt lat="45.46169" lon="4.94569">
        <ele>416.4</ele>
        <time>2023-06-11T06:56:54.000Z</time>
      </trkpt>
      <trkpt lat="45.46168" lon="4.94574">
        <ele>416.4</ele>
        <time>2023-06-11T06:56:56.000Z</time>
      </trkpt>
      <trkpt lat="45.46167" lon="4.94577">
        <ele>416.4</ele>
        <time>2023-06-11T06:56:57.000Z</time>
      </trkpt>
      <trkpt lat="45.46162" lon="4.94589">
        <ele>416.4</ele>
        <time>2023-06-11T06:57:00.000Z</time>
      </trkpt>
      <trkpt lat="45.46158" lon="4.94593">
        <ele>416.3</ele>
        <time>2023-06-11T06:57:01.000Z</time>
      </trkpt>
      <trkpt lat="45.46152" lon="4.94605">
        <ele>416.3</ele>
        <time>2023-06-11T06:57:03.000Z</time>
      </trkpt>
      <trkpt lat="45.46149" lon="4.94617">
        <ele>416.3</ele>
        <time>2023-06-11T06:57:05.000Z</time>
      </trkpt>
      <trkpt lat="45.46149" lon="4.94631">
        <ele>416.3</ele>
        <time>2023-06-11T06:57:07.000Z</time>
      </trkpt>
      <trkpt lat="45.46147" lon="4.94642">
        <ele>416.3</ele>
        <time>2023-06-11T06:57:09.000Z</time>
      </trkpt>
      <trkpt lat="45.46142" lon="4.94648">
        <ele>416.3</ele>
        <time>2023-06-11T06:57:11.000Z</time>
      </trkpt>
      <trkpt lat="45.46139" lon="4.94656">
        <ele>416.3</ele>
        <time>2023-06-11T06:57:13.000Z</time>
      </trkpt>
      <trkpt lat="45.46137" lon="4.9466">
        <ele>416.2</ele>
        <time>2023-06-11T06:57:14.000Z</time>
      </trkpt>
      <trkpt lat="45.46137" lon="4.94674">
        <ele>416.1</ele>
        <time>2023-06-11T06:57:17.000Z</time>
      </trkpt>
      <trkpt lat="45.46137" lon="4.94683">
        <ele>416</ele>
        <time>2023-06-11T06:57:20.000Z</time>
      </trkpt>
      <trkpt lat="45.46136" lon="4.94685">
        <ele>415.9</ele>
        <time>2023-06-11T06:57:21.000Z</time>
      </trkpt>
      <trkpt lat="45.46119" lon="4.94689">
        <ele>415.5</ele>
        <time>2023-06-11T06:57:26.000Z</time>
      </trkpt>
      <trkpt lat="45.4611" lon="4.94691">
        <ele>415.3</ele>
        <time>2023-06-11T06:57:28.000Z</time>
      </trkpt>
      <trkpt lat="45.46102" lon="4.94688">
        <ele>415.1</ele>
        <time>2023-06-11T06:57:30.000Z</time>
      </trkpt>
      <trkpt lat="45.46075" lon="4.94671">
        <ele>414.3</ele>
        <time>2023-06-11T06:57:35.000Z</time>
      </trkpt>
      <trkpt lat="45.4606" lon="4.94644">
        <ele>413.6</ele>
        <time>2023-06-11T06:57:39.000Z</time>
      </trkpt>
      <trkpt lat="45.46051" lon="4.9463">
        <ele>413</ele>
        <time>2023-06-11T06:57:41.000Z</time>
      </trkpt>
      <trkpt lat="45.46042" lon="4.94617">
        <ele>412.4</ele>
        <time>2023-06-11T06:57:43.000Z</time>
      </trkpt>
      <trkpt lat="45.46037" lon="4.94611">
        <ele>412.1</ele>
        <time>2023-06-11T06:57:44.000Z</time>
      </trkpt>
      <trkpt lat="45.46033" lon="4.94607">
        <ele>411.8</ele>
        <time>2023-06-11T06:57:45.000Z</time>
      </trkpt>
      <trkpt lat="45.4602" lon="4.94596">
        <ele>411.1</ele>
        <time>2023-06-11T06:57:47.000Z</time>
      </trkpt>
      <trkpt lat="45.46013" lon="4.94594">
        <ele>410.8</ele>
        <time>2023-06-11T06:57:48.000Z</time>
      </trkpt>
      <trkpt lat="45.45977" lon="4.94583">
        <ele>409.3</ele>
        <time>2023-06-11T06:57:54.000Z</time>
      </trkpt>
      <trkpt lat="45.4597" lon="4.94581">
        <ele>409</ele>
        <time>2023-06-11T06:57:55.000Z</time>
      </trkpt>
      <trkpt lat="45.45958" lon="4.94575">
        <ele>408.6</ele>
        <time>2023-06-11T06:57:57.000Z</time>
      </trkpt>
      <trkpt lat="45.45934" lon="4.94566">
        <ele>407.9</ele>
        <time>2023-06-11T06:58:01.000Z</time>
      </trkpt>
      <trkpt lat="45.45929" lon="4.94564">
        <ele>407.7</ele>
        <time>2023-06-11T06:58:02.000Z</time>
      </trkpt>
      <trkpt lat="45.45917" lon="4.94557">
        <ele>407.3</ele>
        <time>2023-06-11T06:58:05.000Z</time>
      </trkpt>
      <trkpt lat="45.45908" lon="4.94552">
        <ele>407.1</ele>
        <time>2023-06-11T06:58:08.000Z</time>
      </trkpt>
      <trkpt lat="45.45902" lon="4.9455">
        <ele>406.9</ele>
        <time>2023-06-11T06:58:10.000Z</time>
      </trkpt>
      <trkpt lat="45.45882" lon="4.94544">
        <ele>406.5</ele>
        <time>2023-06-11T06:58:15.000Z</time>
      </trkpt>
      <trkpt lat="45.45869" lon="4.94537">
        <ele>406.2</ele>
        <time>2023-06-11T06:58:18.000Z</time>
      </trkpt>
      <trkpt lat="45.45858" lon="4.94533">
        <ele>406.1</ele>
        <time>2023-06-11T06:58:20.000Z</time>
      </trkpt>
      <trkpt lat="45.4584" lon="4.94523">
        <ele>406</ele>
        <time>2023-06-11T06:58:24.000Z</time>
      </trkpt>
      <trkpt lat="45.45833" lon="4.9452">
        <ele>406.2</ele>
        <time>2023-06-11T06:58:26.000Z</time>
      </trkpt>
      <trkpt lat="45.45823" lon="4.94515">
        <ele>406.6</ele>
        <time>2023-06-11T06:58:28.000Z</time>
      </trkpt>
      <trkpt lat="45.4582" lon="4.94512">
        <ele>406.7</ele>
        <time>2023-06-11T06:58:29.000Z</time>
      </trkpt>
      <trkpt lat="45.45821" lon="4.94511">
        <ele>406.8</ele>
        <time>2023-06-11T06:58:30.000Z</time>
      </trkpt>
      <trkpt lat="45.45822" lon="4.94509">
        <ele>406.9</ele>
        <time>2023-06-11T06:58:31.000Z</time>
      </trkpt>
      <trkpt lat="45.45823" lon="4.94508">
        <ele>406.9</ele>
        <time>2023-06-11T06:58:32.000Z</time>
      </trkpt>
      <trkpt lat="45.4583" lon="4.94506">
        <ele>407.3</ele>
        <time>2023-06-11T06:58:36.000Z</time>
      </trkpt>
      <trkpt lat="45.45841" lon="4.94502">
        <ele>408</ele>
        <time>2023-06-11T06:58:42.000Z</time>
      </trkpt>
      <trkpt lat="45.45843" lon="4.94501">
        <ele>408.1</ele>
        <time>2023-06-11T06:58:43.000Z</time>
      </trkpt>
      <trkpt lat="45.45853" lon="4.94499">
        <ele>408.8</ele>
        <time>2023-06-11T06:58:47.000Z</time>
      </trkpt>
      <trkpt lat="45.4586" lon="4.94497">
        <ele>409.2</ele>
        <time>2023-06-11T06:58:50.000Z</time>
      </trkpt>
      <trkpt lat="45.45864" lon="4.94494">
        <ele>409.6</ele>
        <time>2023-06-11T06:58:52.000Z</time>
      </trkpt>
      <trkpt lat="45.45866" lon="4.94493">
        <ele>409.7</ele>
        <time>2023-06-11T06:58:53.000Z</time>
      </trkpt>
      <trkpt lat="45.45873" lon="4.94487">
        <ele>410.3</ele>
        <time>2023-06-11T06:58:56.000Z</time>
      </trkpt>
      <trkpt lat="45.45878" lon="4.94483">
        <ele>410.6</ele>
        <time>2023-06-11T06:58:58.000Z</time>
      </trkpt>
      <trkpt lat="45.45883" lon="4.94478">
        <ele>411</ele>
        <time>2023-06-11T06:59:00.000Z</time>
      </trkpt>
      <trkpt lat="45.45889" lon="4.94474">
        <ele>411.3</ele>
        <time>2023-06-11T06:59:02.000Z</time>
      </trkpt>
      <trkpt lat="45.45905" lon="4.94462">
        <ele>411.5</ele>
        <time>2023-06-11T06:59:07.000Z</time>
      </trkpt>
      <trkpt lat="45.45912" lon="4.94452">
        <ele>411.1</ele>
        <time>2023-06-11T06:59:10.000Z</time>
      </trkpt>
      <trkpt lat="45.45913" lon="4.94435">
        <ele>410.3</ele>
        <time>2023-06-11T06:59:13.000Z</time>
      </trkpt>
      <trkpt lat="45.45918" lon="4.94407">
        <ele>408.8</ele>
        <time>2023-06-11T06:59:17.000Z</time>
      </trkpt>
      <trkpt lat="45.45919" lon="4.94399">
        <ele>408.4</ele>
        <time>2023-06-11T06:59:18.000Z</time>
      </trkpt>
      <trkpt lat="45.45936" lon="4.94352">
        <ele>407</ele>
        <time>2023-06-11T06:59:24.000Z</time>
      </trkpt>
      <trkpt lat="45.45947" lon="4.94332">
        <ele>406.3</ele>
        <time>2023-06-11T06:59:27.000Z</time>
      </trkpt>
      <trkpt lat="45.45951" lon="4.94325">
        <ele>405.8</ele>
        <time>2023-06-11T06:59:28.000Z</time>
      </trkpt>
      <trkpt lat="45.45955" lon="4.9431">
        <ele>404.7</ele>
        <time>2023-06-11T06:59:30.000Z</time>
      </trkpt>
      <trkpt lat="45.4595" lon="4.9429">
        <ele>402.6</ele>
        <time>2023-06-11T06:59:32.000Z</time>
      </trkpt>
      <trkpt lat="45.45947" lon="4.94279">
        <ele>401.2</ele>
        <time>2023-06-11T06:59:33.000Z</time>
      </trkpt>
      <trkpt lat="45.45941" lon="4.9426">
        <ele>398.6</ele>
        <time>2023-06-11T06:59:35.000Z</time>
      </trkpt>
      <trkpt lat="45.45934" lon="4.94224">
        <ele>394.5</ele>
        <time>2023-06-11T06:59:38.000Z</time>
      </trkpt>
      <trkpt lat="45.45929" lon="4.94196">
        <ele>392.4</ele>
        <time>2023-06-11T06:59:40.000Z</time>
      </trkpt>
      <trkpt lat="45.45925" lon="4.94171">
        <ele>391</ele>
        <time>2023-06-11T06:59:42.000Z</time>
      </trkpt>
      <trkpt lat="45.45924" lon="4.9416">
        <ele>390.4</ele>
        <time>2023-06-11T06:59:43.000Z</time>
      </trkpt>
      <trkpt lat="45.45925" lon="4.94139">
        <ele>388.8</ele>
        <time>2023-06-11T06:59:45.000Z</time>
      </trkpt>
      <trkpt lat="45.45925" lon="4.94128">
        <ele>387.9</ele>
        <time>2023-06-11T06:59:46.000Z</time>
      </trkpt>
      <trkpt lat="45.45925" lon="4.94116">
        <ele>387</ele>
        <time>2023-06-11T06:59:47.000Z</time>
      </trkpt>
      <trkpt lat="45.45925" lon="4.94104">
        <ele>386.2</ele>
        <time>2023-06-11T06:59:48.000Z</time>
      </trkpt>
      <trkpt lat="45.45924" lon="4.94093">
        <ele>385.5</ele>
        <time>2023-06-11T06:59:49.000Z</time>
      </trkpt>
      <trkpt lat="45.45922" lon="4.94082">
        <ele>385.1</ele>
        <time>2023-06-11T06:59:50.000Z</time>
      </trkpt>
      <trkpt lat="45.45917" lon="4.94073">
        <ele>385</ele>
        <time>2023-06-11T06:59:51.000Z</time>
      </trkpt>
      <trkpt lat="45.45913" lon="4.94068">
        <ele>385</ele>
        <time>2023-06-11T06:59:52.000Z</time>
      </trkpt>
      <trkpt lat="45.45897" lon="4.94062">
        <ele>385.5</ele>
        <time>2023-06-11T06:59:54.000Z</time>
      </trkpt>
      <trkpt lat="45.4589" lon="4.94061">
        <ele>385.8</ele>
        <time>2023-06-11T06:59:55.000Z</time>
      </trkpt>
      <trkpt lat="45.45884" lon="4.94059">
        <ele>386.2</ele>
        <time>2023-06-11T06:59:56.000Z</time>
      </trkpt>
      <trkpt lat="45.45879" lon="4.94057">
        <ele>386.5</ele>
        <time>2023-06-11T06:59:57.000Z</time>
      </trkpt>
      <trkpt lat="45.45871" lon="4.94056">
        <ele>387</ele>
        <time>2023-06-11T06:59:58.000Z</time>
      </trkpt>
      <trkpt lat="45.45866" lon="4.94054">
        <ele>387.3</ele>
        <time>2023-06-11T06:59:59.000Z</time>
      </trkpt>
      <trkpt lat="45.45861" lon="4.94052">
        <ele>387.5</ele>
        <time>2023-06-11T07:00:00.000Z</time>
      </trkpt>
      <trkpt lat="45.45844" lon="4.94046">
        <ele>387.9</ele>
        <time>2023-06-11T07:00:03.000Z</time>
      </trkpt>
      <trkpt lat="45.45827" lon="4.94042">
        <ele>388.1</ele>
        <time>2023-06-11T07:00:06.000Z</time>
      </trkpt>
      <trkpt lat="45.45814" lon="4.94039">
        <ele>388.4</ele>
        <time>2023-06-11T07:00:08.000Z</time>
      </trkpt>
      <trkpt lat="45.45801" lon="4.94034">
        <ele>388.9</ele>
        <time>2023-06-11T07:00:10.000Z</time>
      </trkpt>
      <trkpt lat="45.4579" lon="4.94025">
        <ele>389.5</ele>
        <time>2023-06-11T07:00:12.000Z</time>
      </trkpt>
      <trkpt lat="45.45772" lon="4.93999">
        <ele>390.7</ele>
        <time>2023-06-11T07:00:16.000Z</time>
      </trkpt>
      <trkpt lat="45.45761" lon="4.93981">
        <ele>392</ele>
        <time>2023-06-11T07:00:19.000Z</time>
      </trkpt>
      <trkpt lat="45.45751" lon="4.93958">
        <ele>393.8</ele>
        <time>2023-06-11T07:00:23.000Z</time>
      </trkpt>
      <trkpt lat="45.45749" lon="4.93953">
        <ele>394.2</ele>
        <time>2023-06-11T07:00:24.000Z</time>
      </trkpt>
      <trkpt lat="45.45748" lon="4.93949">
        <ele>394.5</ele>
        <time>2023-06-11T07:00:25.000Z</time>
      </trkpt>
      <trkpt lat="45.45747" lon="4.93939">
        <ele>395.3</ele>
        <time>2023-06-11T07:00:28.000Z</time>
      </trkpt>
      <trkpt lat="45.45748" lon="4.93934">
        <ele>395.8</ele>
        <time>2023-06-11T07:00:30.000Z</time>
      </trkpt>
      <trkpt lat="45.4575" lon="4.93929">
        <ele>396.3</ele>
        <time>2023-06-11T07:00:32.000Z</time>
      </trkpt>
      <trkpt lat="45.45751" lon="4.93928">
        <ele>396.5</ele>
        <time>2023-06-11T07:00:33.000Z</time>
      </trkpt>
      <trkpt lat="45.45754" lon="4.93926">
        <ele>396.9</ele>
        <time>2023-06-11T07:00:35.000Z</time>
      </trkpt>
      <trkpt lat="45.45757" lon="4.93925">
        <ele>397.3</ele>
        <time>2023-06-11T07:00:37.000Z</time>
      </trkpt>
      <trkpt lat="45.45758" lon="4.93924">
        <ele>397.5</ele>
        <time>2023-06-11T07:00:38.000Z</time>
      </trkpt>
      <trkpt lat="45.45761" lon="4.93922">
        <ele>397.8</ele>
        <time>2023-06-11T07:00:40.000Z</time>
      </trkpt>
      <trkpt lat="45.45771" lon="4.93919">
        <ele>398.8</ele>
        <time>2023-06-11T07:00:45.000Z</time>
      </trkpt>
      <trkpt lat="45.45773" lon="4.93919">
        <ele>399</ele>
        <time>2023-06-11T07:00:46.000Z</time>
      </trkpt>
      <trkpt lat="45.45777" lon="4.93918">
        <ele>399.4</ele>
        <time>2023-06-11T07:00:48.000Z</time>
      </trkpt>
      <trkpt lat="45.45786" lon="4.93916">
        <ele>400.2</ele>
        <time>2023-06-11T07:00:52.000Z</time>
      </trkpt>
      <trkpt lat="45.45794" lon="4.93916">
        <ele>400.8</ele>
        <time>2023-06-11T07:00:55.000Z</time>
      </trkpt>
      <trkpt lat="45.45806" lon="4.93914">
        <ele>401.8</ele>
        <time>2023-06-11T07:01:00.000Z</time>
      </trkpt>
      <trkpt lat="45.45811" lon="4.93913">
        <ele>402.2</ele>
        <time>2023-06-11T07:01:02.000Z</time>
      </trkpt>
      <trkpt lat="45.4582" lon="4.9391">
        <ele>403</ele>
        <time>2023-06-11T07:01:06.000Z</time>
      </trkpt>
      <trkpt lat="45.45821" lon="4.9391">
        <ele>403.2</ele>
        <time>2023-06-11T07:01:07.000Z</time>
      </trkpt>
      <trkpt lat="45.45829" lon="4.93907">
        <ele>403.9</ele>
        <time>2023-06-11T07:01:11.000Z</time>
      </trkpt>
      <trkpt lat="45.45832" lon="4.93904">
        <ele>404.2</ele>
        <time>2023-06-11T07:01:13.000Z</time>
      </trkpt>
      <trkpt lat="45.45835" lon="4.93904">
        <ele>404.4</ele>
        <time>2023-06-11T07:01:14.000Z</time>
      </trkpt>
      <trkpt lat="45.45847" lon="4.93899">
        <ele>405.5</ele>
        <time>2023-06-11T07:01:20.000Z</time>
      </trkpt>
      <trkpt lat="45.45849" lon="4.93898">
        <ele>405.7</ele>
        <time>2023-06-11T07:01:21.000Z</time>
      </trkpt>
      <trkpt lat="45.45861" lon="4.9389">
        <ele>406.7</ele>
        <time>2023-06-11T07:01:27.000Z</time>
      </trkpt>
      <trkpt lat="45.45863" lon="4.93889">
        <ele>406.9</ele>
        <time>2023-06-11T07:01:28.000Z</time>
      </trkpt>
      <trkpt lat="45.45871" lon="4.93884">
        <ele>407.4</ele>
        <time>2023-06-11T07:01:32.000Z</time>
      </trkpt>
      <trkpt lat="45.45874" lon="4.93882">
        <ele>407.6</ele>
        <time>2023-06-11T07:01:33.000Z</time>
      </trkpt>
      <trkpt lat="45.45875" lon="4.93881">
        <ele>407.7</ele>
        <time>2023-06-11T07:01:34.000Z</time>
      </trkpt>
      <trkpt lat="45.45884" lon="4.93879">
        <ele>408</ele>
        <time>2023-06-11T07:01:38.000Z</time>
      </trkpt>
      <trkpt lat="45.45889" lon="4.93879">
        <ele>408.2</ele>
        <time>2023-06-11T07:01:40.000Z</time>
      </trkpt>
      <trkpt lat="45.45901" lon="4.93878">
        <ele>408.6</ele>
        <time>2023-06-11T07:01:45.000Z</time>
      </trkpt>
      <trkpt lat="45.45906" lon="4.93879">
        <ele>408.6</ele>
        <time>2023-06-11T07:01:47.000Z</time>
      </trkpt>
      <trkpt lat="45.45923" lon="4.93885">
        <ele>408.8</ele>
        <time>2023-06-11T07:01:53.000Z</time>
      </trkpt>
      <trkpt lat="45.45926" lon="4.93886">
        <ele>408.8</ele>
        <time>2023-06-11T07:01:54.000Z</time>
      </trkpt>
      <trkpt lat="45.45955" lon="4.93895">
        <ele>409.1</ele>
        <time>2023-06-11T07:02:02.000Z</time>
      </trkpt>
      <trkpt lat="45.45988" lon="4.93906">
        <ele>409.4</ele>
        <time>2023-06-11T07:02:10.000Z</time>
      </trkpt>
      <trkpt lat="45.45992" lon="4.93907">
        <ele>409.5</ele>
        <time>2023-06-11T07:02:11.000Z</time>
      </trkpt>
      <trkpt lat="45.46001" lon="4.93906">
        <ele>409.7</ele>
        <time>2023-06-11T07:02:13.000Z</time>
      </trkpt>
      <trkpt lat="45.46009" lon="4.93903">
        <ele>409.9</ele>
        <time>2023-06-11T07:02:15.000Z</time>
      </trkpt>
      <trkpt lat="45.46041" lon="4.93887">
        <ele>410.8</ele>
        <time>2023-06-11T07:02:23.000Z</time>
      </trkpt>
      <trkpt lat="45.4607" lon="4.93875">
        <ele>411.2</ele>
        <time>2023-06-11T07:02:30.000Z</time>
      </trkpt>
      <trkpt lat="45.46079" lon="4.9387">
        <ele>411.2</ele>
        <time>2023-06-11T07:02:32.000Z</time>
      </trkpt>
      <trkpt lat="45.46086" lon="4.93865">
        <ele>411.3</ele>
        <time>2023-06-11T07:02:34.000Z</time>
      </trkpt>
      <trkpt lat="45.46096" lon="4.93864">
        <ele>411.4</ele>
        <time>2023-06-11T07:02:37.000Z</time>
      </trkpt>
      <trkpt lat="45.46112" lon="4.93886">
        <ele>411.4</ele>
        <time>2023-06-11T07:02:42.000Z</time>
      </trkpt>
      <trkpt lat="45.46139" lon="4.93927">
        <ele>411.2</ele>
        <time>2023-06-11T07:02:50.000Z</time>
      </trkpt>
      <trkpt lat="45.46161" lon="4.93958">
        <ele>411.2</ele>
        <time>2023-06-11T07:02:56.000Z</time>
      </trkpt>
      <trkpt lat="45.46173" lon="4.93975">
        <ele>411.2</ele>
        <time>2023-06-11T07:02:59.000Z</time>
      </trkpt>
      <trkpt lat="45.46215" lon="4.94027">
        <ele>411.6</ele>
        <time>2023-06-11T07:03:09.000Z</time>
      </trkpt>
      <trkpt lat="45.46239" lon="4.94053">
        <ele>411.5</ele>
        <time>2023-06-11T07:03:15.000Z</time>
      </trkpt>
      <trkpt lat="45.46248" lon="4.94057">
        <ele>411.4</ele>
        <time>2023-06-11T07:03:17.000Z</time>
      </trkpt>
      <trkpt lat="45.46266" lon="4.94055">
        <ele>410.9</ele>
        <time>2023-06-11T07:03:21.000Z</time>
      </trkpt>
      <trkpt lat="45.46275" lon="4.94053">
        <ele>410.3</ele>
        <time>2023-06-11T07:03:23.000Z</time>
      </trkpt>
      <trkpt lat="45.4628" lon="4.94051">
        <ele>410</ele>
        <time>2023-06-11T07:03:24.000Z</time>
      </trkpt>
      <trkpt lat="45.46299" lon="4.94038">
        <ele>407.7</ele>
        <time>2023-06-11T07:03:28.000Z</time>
      </trkpt>
      <trkpt lat="45.46317" lon="4.94027">
        <ele>404.5</ele>
        <time>2023-06-11T07:03:32.000Z</time>
      </trkpt>
      <trkpt lat="45.46323" lon="4.94024">
        <ele>403.4</ele>
        <time>2023-06-11T07:03:33.000Z</time>
      </trkpt>
      <trkpt lat="45.46329" lon="4.94021">
        <ele>402.4</ele>
        <time>2023-06-11T07:03:34.000Z</time>
      </trkpt>
      <trkpt lat="45.46336" lon="4.94019">
        <ele>401.2</ele>
        <time>2023-06-11T07:03:35.000Z</time>
      </trkpt>
      <trkpt lat="45.46341" lon="4.94018">
        <ele>400.3</ele>
        <time>2023-06-11T07:03:36.000Z</time>
      </trkpt>
      <trkpt lat="45.46348" lon="4.94017">
        <ele>399.2</ele>
        <time>2023-06-11T07:03:37.000Z</time>
      </trkpt>
      <trkpt lat="45.46362" lon="4.94014">
        <ele>396.9</ele>
        <time>2023-06-11T07:03:39.000Z</time>
      </trkpt>
      <trkpt lat="45.46368" lon="4.94011">
        <ele>395.9</ele>
        <time>2023-06-11T07:03:40.000Z</time>
      </trkpt>
      <trkpt lat="45.46374" lon="4.94009">
        <ele>395</ele>
        <time>2023-06-11T07:03:41.000Z</time>
      </trkpt>
      <trkpt lat="45.4638" lon="4.94009">
        <ele>394.2</ele>
        <time>2023-06-11T07:03:42.000Z</time>
      </trkpt>
      <trkpt lat="45.46386" lon="4.94007">
        <ele>393.5</ele>
        <time>2023-06-11T07:03:43.000Z</time>
      </trkpt>
      <trkpt lat="45.46392" lon="4.94007">
        <ele>392.8</ele>
        <time>2023-06-11T07:03:44.000Z</time>
      </trkpt>
      <trkpt lat="45.46398" lon="4.94007">
        <ele>392.1</ele>
        <time>2023-06-11T07:03:45.000Z</time>
      </trkpt>
      <trkpt lat="45.46402" lon="4.94008">
        <ele>391.6</ele>
        <time>2023-06-11T07:03:46.000Z</time>
      </trkpt>
      <trkpt lat="45.46407" lon="4.9401">
        <ele>391.1</ele>
        <time>2023-06-11T07:03:47.000Z</time>
      </trkpt>
      <trkpt lat="45.46412" lon="4.94012">
        <ele>390.6</ele>
        <time>2023-06-11T07:03:48.000Z</time>
      </trkpt>
      <trkpt lat="45.46417" lon="4.94013">
        <ele>390.1</ele>
        <time>2023-06-11T07:03:49.000Z</time>
      </trkpt>
      <trkpt lat="45.46428" lon="4.94017">
        <ele>388.9</ele>
        <time>2023-06-11T07:03:51.000Z</time>
      </trkpt>
      <trkpt lat="45.46435" lon="4.9402">
        <ele>388.1</ele>
        <time>2023-06-11T07:03:52.000Z</time>
      </trkpt>
      <trkpt lat="45.4644" lon="4.94021">
        <ele>387.5</ele>
        <time>2023-06-11T07:03:53.000Z</time>
      </trkpt>
      <trkpt lat="45.46445" lon="4.94019">
        <ele>386.9</ele>
        <time>2023-06-11T07:03:54.000Z</time>
      </trkpt>
      <trkpt lat="45.46448" lon="4.94013">
        <ele>386.4</ele>
        <time>2023-06-11T07:03:55.000Z</time>
      </trkpt>
      <trkpt lat="45.46451" lon="4.94005">
        <ele>385.7</ele>
        <time>2023-06-11T07:03:56.000Z</time>
      </trkpt>
      <trkpt lat="45.46461" lon="4.9398">
        <ele>383.4</ele>
        <time>2023-06-11T07:03:59.000Z</time>
      </trkpt>
      <trkpt lat="45.46467" lon="4.93969">
        <ele>382.2</ele>
        <time>2023-06-11T07:04:00.000Z</time>
      </trkpt>
      <trkpt lat="45.46471" lon="4.9396">
        <ele>381.3</ele>
        <time>2023-06-11T07:04:01.000Z</time>
      </trkpt>
      <trkpt lat="45.46473" lon="4.9395">
        <ele>380.4</ele>
        <time>2023-06-11T07:04:02.000Z</time>
      </trkpt>
      <trkpt lat="45.46477" lon="4.93933">
        <ele>379.2</ele>
        <time>2023-06-11T07:04:04.000Z</time>
      </trkpt>
      <trkpt lat="45.46475" lon="4.93914">
        <ele>378.5</ele>
        <time>2023-06-11T07:04:06.000Z</time>
      </trkpt>
      <trkpt lat="45.46472" lon="4.93906">
        <ele>378.3</ele>
        <time>2023-06-11T07:04:07.000Z</time>
      </trkpt>
      <trkpt lat="45.46469" lon="4.93898">
        <ele>378.2</ele>
        <time>2023-06-11T07:04:08.000Z</time>
      </trkpt>
      <trkpt lat="45.46466" lon="4.93889">
        <ele>378.2</ele>
        <time>2023-06-11T07:04:09.000Z</time>
      </trkpt>
      <trkpt lat="45.46462" lon="4.93881">
        <ele>378.2</ele>
        <time>2023-06-11T07:04:10.000Z</time>
      </trkpt>
      <trkpt lat="45.46457" lon="4.93873">
        <ele>378.3</ele>
        <time>2023-06-11T07:04:11.000Z</time>
      </trkpt>
      <trkpt lat="45.46453" lon="4.93866">
        <ele>378.3</ele>
        <time>2023-06-11T07:04:12.000Z</time>
      </trkpt>
      <trkpt lat="45.46449" lon="4.93862">
        <ele>377.7</ele>
        <time>2023-06-11T07:04:13.000Z</time>
      </trkpt>
      <trkpt lat="45.46447" lon="4.93858">
        <ele>377.3</ele>
        <time>2023-06-11T07:04:15.000Z</time>
      </trkpt>
      <trkpt lat="45.46448" lon="4.93858">
        <ele>377.2</ele>
        <time>2023-06-11T07:04:16.000Z</time>
      </trkpt>
      <trkpt lat="45.46458" lon="4.93861">
        <ele>375.8</ele>
        <time>2023-06-11T07:04:20.000Z</time>
      </trkpt>
      <trkpt lat="45.46472" lon="4.93858">
        <ele>373.3</ele>
        <time>2023-06-11T07:04:24.000Z</time>
      </trkpt>
      <trkpt lat="45.46485" lon="4.93847">
        <ele>370.8</ele>
        <time>2023-06-11T07:04:27.000Z</time>
      </trkpt>
      <trkpt lat="45.46492" lon="4.93845">
        <ele>369.6</ele>
        <time>2023-06-11T07:04:29.000Z</time>
      </trkpt>
      <trkpt lat="45.46498" lon="4.93844">
        <ele>368.6</ele>
        <time>2023-06-11T07:04:31.000Z</time>
      </trkpt>
      <trkpt lat="45.46504" lon="4.93848">
        <ele>367.5</ele>
        <time>2023-06-11T07:04:33.000Z</time>
      </trkpt>
      <trkpt lat="45.46514" lon="4.93853">
        <ele>365.8</ele>
        <time>2023-06-11T07:04:35.000Z</time>
      </trkpt>
      <trkpt lat="45.4652" lon="4.93856">
        <ele>364.7</ele>
        <time>2023-06-11T07:04:36.000Z</time>
      </trkpt>
      <trkpt lat="45.4653" lon="4.9386">
        <ele>363</ele>
        <time>2023-06-11T07:04:37.000Z</time>
      </trkpt>
      <trkpt lat="45.46548" lon="4.93864">
        <ele>360</ele>
        <time>2023-06-11T07:04:39.000Z</time>
      </trkpt>
      <trkpt lat="45.46556" lon="4.93867">
        <ele>358.9</ele>
        <time>2023-06-11T07:04:40.000Z</time>
      </trkpt>
      <trkpt lat="45.46565" lon="4.93873">
        <ele>357.5</ele>
        <time>2023-06-11T07:04:41.000Z</time>
      </trkpt>
      <trkpt lat="45.46583" lon="4.93886">
        <ele>355.4</ele>
        <time>2023-06-11T07:04:43.000Z</time>
      </trkpt>
      <trkpt lat="45.4659" lon="4.9389">
        <ele>354.7</ele>
        <time>2023-06-11T07:04:44.000Z</time>
      </trkpt>
      <trkpt lat="45.466" lon="4.93896">
        <ele>353.7</ele>
        <time>2023-06-11T07:04:45.000Z</time>
      </trkpt>
      <trkpt lat="45.46611" lon="4.93901">
        <ele>352.5</ele>
        <time>2023-06-11T07:04:46.000Z</time>
      </trkpt>
      <trkpt lat="45.4662" lon="4.93905">
        <ele>351.6</ele>
        <time>2023-06-11T07:04:47.000Z</time>
      </trkpt>
      <trkpt lat="45.4663" lon="4.9391">
        <ele>350.4</ele>
        <time>2023-06-11T07:04:48.000Z</time>
      </trkpt>
      <trkpt lat="45.46638" lon="4.93913">
        <ele>349.6</ele>
        <time>2023-06-11T07:04:49.000Z</time>
      </trkpt>
      <trkpt lat="45.46658" lon="4.9392">
        <ele>347.7</ele>
        <time>2023-06-11T07:04:51.000Z</time>
      </trkpt>
      <trkpt lat="45.46664" lon="4.93922">
        <ele>347.3</ele>
        <time>2023-06-11T07:04:52.000Z</time>
      </trkpt>
      <trkpt lat="45.46675" lon="4.93923">
        <ele>346.5</ele>
        <time>2023-06-11T07:04:54.000Z</time>
      </trkpt>
      <trkpt lat="45.46679" lon="4.93918">
        <ele>346.2</ele>
        <time>2023-06-11T07:04:55.000Z</time>
      </trkpt>
      <trkpt lat="45.46685" lon="4.93909">
        <ele>345.8</ele>
        <time>2023-06-11T07:04:56.000Z</time>
      </trkpt>
      <trkpt lat="45.4669" lon="4.93903">
        <ele>345.5</ele>
        <time>2023-06-11T07:04:57.000Z</time>
      </trkpt>
      <trkpt lat="45.46694" lon="4.93896">
        <ele>345.3</ele>
        <time>2023-06-11T07:04:58.000Z</time>
      </trkpt>
      <trkpt lat="45.467" lon="4.9389">
        <ele>345.1</ele>
        <time>2023-06-11T07:04:59.000Z</time>
      </trkpt>
      <trkpt lat="45.46705" lon="4.93885">
        <ele>345.1</ele>
        <time>2023-06-11T07:05:00.000Z</time>
      </trkpt>
      <trkpt lat="45.4671" lon="4.93883">
        <ele>345</ele>
        <time>2023-06-11T07:05:01.000Z</time>
      </trkpt>
      <trkpt lat="45.46715" lon="4.93883">
        <ele>345</ele>
        <time>2023-06-11T07:05:02.000Z</time>
      </trkpt>
      <trkpt lat="45.4673" lon="4.93889">
        <ele>344.8</ele>
        <time>2023-06-11T07:05:04.000Z</time>
      </trkpt>
      <trkpt lat="45.46737" lon="4.93892">
        <ele>344.7</ele>
        <time>2023-06-11T07:05:05.000Z</time>
      </trkpt>
      <trkpt lat="45.4675" lon="4.93897">
        <ele>344.4</ele>
        <time>2023-06-11T07:05:07.000Z</time>
      </trkpt>
      <trkpt lat="45.46774" lon="4.93905">
        <ele>343.8</ele>
        <time>2023-06-11T07:05:10.000Z</time>
      </trkpt>
      <trkpt lat="45.46781" lon="4.93908">
        <ele>343.5</ele>
        <time>2023-06-11T07:05:11.000Z</time>
      </trkpt>
      <trkpt lat="45.46788" lon="4.93911">
        <ele>343.2</ele>
        <time>2023-06-11T07:05:12.000Z</time>
      </trkpt>
      <trkpt lat="45.46794" lon="4.93909">
        <ele>342.9</ele>
        <time>2023-06-11T07:05:13.000Z</time>
      </trkpt>
      <trkpt lat="45.46799" lon="4.93909">
        <ele>342.8</ele>
        <time>2023-06-11T07:05:14.000Z</time>
      </trkpt>
      <trkpt lat="45.46805" lon="4.93912">
        <ele>341.5</ele>
        <time>2023-06-11T07:05:15.000Z</time>
      </trkpt>
      <trkpt lat="45.46812" lon="4.93917">
        <ele>339.7</ele>
        <time>2023-06-11T07:05:17.000Z</time>
      </trkpt>
      <trkpt lat="45.46817" lon="4.93918">
        <ele>338.7</ele>
        <time>2023-06-11T07:05:18.000Z</time>
      </trkpt>
      <trkpt lat="45.46822" lon="4.93917">
        <ele>337.3</ele>
        <time>2023-06-11T07:05:19.000Z</time>
      </trkpt>
      <trkpt lat="45.46827" lon="4.93912">
        <ele>336.9</ele>
        <time>2023-06-11T07:05:20.000Z</time>
      </trkpt>
      <trkpt lat="45.46838" lon="4.93901">
        <ele>336</ele>
        <time>2023-06-11T07:05:22.000Z</time>
      </trkpt>
      <trkpt lat="45.46861" lon="4.93878">
        <ele>334.4</ele>
        <time>2023-06-11T07:05:26.000Z</time>
      </trkpt>
      <trkpt lat="45.46867" lon="4.93873">
        <ele>334.1</ele>
        <time>2023-06-11T07:05:27.000Z</time>
      </trkpt>
      <trkpt lat="45.46892" lon="4.93847">
        <ele>332.8</ele>
        <time>2023-06-11T07:05:31.000Z</time>
      </trkpt>
      <trkpt lat="45.46898" lon="4.93839">
        <ele>332.5</ele>
        <time>2023-06-11T07:05:32.000Z</time>
      </trkpt>
      <trkpt lat="45.46903" lon="4.93831">
        <ele>332.2</ele>
        <time>2023-06-11T07:05:33.000Z</time>
      </trkpt>
      <trkpt lat="45.46908" lon="4.93823">
        <ele>331.9</ele>
        <time>2023-06-11T07:05:34.000Z</time>
      </trkpt>
      <trkpt lat="45.46913" lon="4.93813">
        <ele>331.7</ele>
        <time>2023-06-11T07:05:35.000Z</time>
      </trkpt>
      <trkpt lat="45.46917" lon="4.93803">
        <ele>331.5</ele>
        <time>2023-06-11T07:05:36.000Z</time>
      </trkpt>
      <trkpt lat="45.4692" lon="4.93792">
        <ele>331.3</ele>
        <time>2023-06-11T07:05:37.000Z</time>
      </trkpt>
      <trkpt lat="45.46925" lon="4.93757">
        <ele>330.7</ele>
        <time>2023-06-11T07:05:40.000Z</time>
      </trkpt>
      <trkpt lat="45.46925" lon="4.9371">
        <ele>329.8</ele>
        <time>2023-06-11T07:05:44.000Z</time>
      </trkpt>
      <trkpt lat="45.46926" lon="4.93687">
        <ele>329.3</ele>
        <time>2023-06-11T07:05:46.000Z</time>
      </trkpt>
      <trkpt lat="45.46926" lon="4.93674">
        <ele>329</ele>
        <time>2023-06-11T07:05:47.000Z</time>
      </trkpt>
      <trkpt lat="45.46931" lon="4.93638">
        <ele>328.3</ele>
        <time>2023-06-11T07:05:50.000Z</time>
      </trkpt>
      <trkpt lat="45.4694" lon="4.93617">
        <ele>327.6</ele>
        <time>2023-06-11T07:05:52.000Z</time>
      </trkpt>
      <trkpt lat="45.46945" lon="4.93607">
        <ele>327.2</ele>
        <time>2023-06-11T07:05:53.000Z</time>
      </trkpt>
      <trkpt lat="45.46982" lon="4.93567">
        <ele>325.5</ele>
        <time>2023-06-11T07:05:58.000Z</time>
      </trkpt>
      <trkpt lat="45.47012" lon="4.93537">
        <ele>324.3</ele>
        <time>2023-06-11T07:06:02.000Z</time>
      </trkpt>
      <trkpt lat="45.47033" lon="4.93515">
        <ele>323.3</ele>
        <time>2023-06-11T07:06:05.000Z</time>
      </trkpt>
      <trkpt lat="45.47048" lon="4.93499">
        <ele>322.6</ele>
        <time>2023-06-11T07:06:07.000Z</time>
      </trkpt>
      <trkpt lat="45.47055" lon="4.93491">
        <ele>322.2</ele>
        <time>2023-06-11T07:06:08.000Z</time>
      </trkpt>
      <trkpt lat="45.47078" lon="4.93456">
        <ele>321</ele>
        <time>2023-06-11T07:06:12.000Z</time>
      </trkpt>
      <trkpt lat="45.47101" lon="4.93406">
        <ele>319.5</ele>
        <time>2023-06-11T07:06:17.000Z</time>
      </trkpt>
      <trkpt lat="45.47111" lon="4.93373">
        <ele>318.6</ele>
        <time>2023-06-11T07:06:20.000Z</time>
      </trkpt>
      <trkpt lat="45.47117" lon="4.9335">
        <ele>318.1</ele>
        <time>2023-06-11T07:06:22.000Z</time>
      </trkpt>
      <trkpt lat="45.47122" lon="4.93326">
        <ele>317.5</ele>
        <time>2023-06-11T07:06:24.000Z</time>
      </trkpt>
      <trkpt lat="45.47129" lon="4.93277">
        <ele>316.7</ele>
        <time>2023-06-11T07:06:28.000Z</time>
      </trkpt>
      <trkpt lat="45.47139" lon="4.93212">
        <ele>315.8</ele>
        <time>2023-06-11T07:06:33.000Z</time>
      </trkpt>
      <trkpt lat="45.47148" lon="4.93178">
        <ele>315.7</ele>
        <time>2023-06-11T07:06:36.000Z</time>
      </trkpt>
      <trkpt lat="45.47151" lon="4.9317">
        <ele>315.7</ele>
        <time>2023-06-11T07:06:37.000Z</time>
      </trkpt>
      <trkpt lat="45.47156" lon="4.93161">
        <ele>315.8</ele>
        <time>2023-06-11T07:06:38.000Z</time>
      </trkpt>
      <trkpt lat="45.47162" lon="4.93154">
        <ele>315.8</ele>
        <time>2023-06-11T07:06:39.000Z</time>
      </trkpt>
      <trkpt lat="45.47168" lon="4.9315">
        <ele>315.9</ele>
        <time>2023-06-11T07:06:40.000Z</time>
      </trkpt>
      <trkpt lat="45.47182" lon="4.93143">
        <ele>316</ele>
        <time>2023-06-11T07:06:42.000Z</time>
      </trkpt>
      <trkpt lat="45.47189" lon="4.93141">
        <ele>316.1</ele>
        <time>2023-06-11T07:06:43.000Z</time>
      </trkpt>
      <trkpt lat="45.47196" lon="4.93139">
        <ele>316.2</ele>
        <time>2023-06-11T07:06:44.000Z</time>
      </trkpt>
      <trkpt lat="45.47235" lon="4.93131">
        <ele>316.6</ele>
        <time>2023-06-11T07:06:50.000Z</time>
      </trkpt>
      <trkpt lat="45.47274" lon="4.93119">
        <ele>316.9</ele>
        <time>2023-06-11T07:06:57.000Z</time>
      </trkpt>
      <trkpt lat="45.4728" lon="4.93109">
        <ele>318</ele>
        <time>2023-06-11T07:06:59.000Z</time>
      </trkpt>
      <trkpt lat="45.47281" lon="4.93103">
        <ele>318.4</ele>
        <time>2023-06-11T07:07:00.000Z</time>
      </trkpt>
      <trkpt lat="45.47282" lon="4.93094">
        <ele>319.2</ele>
        <time>2023-06-11T07:07:02.000Z</time>
      </trkpt>
      <trkpt lat="45.47283" lon="4.93084">
        <ele>320.1</ele>
        <time>2023-06-11T07:07:05.000Z</time>
      </trkpt>
      <trkpt lat="45.47284" lon="4.93074">
        <ele>321.2</ele>
        <time>2023-06-11T07:07:09.000Z</time>
      </trkpt>
      <trkpt lat="45.47285" lon="4.93066">
        <ele>322</ele>
        <time>2023-06-11T07:07:12.000Z</time>
      </trkpt>
      <trkpt lat="45.47285" lon="4.93059">
        <ele>322.8</ele>
        <time>2023-06-11T07:07:15.000Z</time>
      </trkpt>
      <trkpt lat="45.47286" lon="4.93052">
        <ele>323.5</ele>
        <time>2023-06-11T07:07:18.000Z</time>
      </trkpt>
      <trkpt lat="45.47286" lon="4.93045">
        <ele>324.4</ele>
        <time>2023-06-11T07:07:21.000Z</time>
      </trkpt>
      <trkpt lat="45.47286" lon="4.93043">
        <ele>324.7</ele>
        <time>2023-06-11T07:07:22.000Z</time>
      </trkpt>
      <trkpt lat="45.47287" lon="4.93032">
        <ele>326</ele>
        <time>2023-06-11T07:07:27.000Z</time>
      </trkpt>
      <trkpt lat="45.47289" lon="4.93028">
        <ele>326.6</ele>
        <time>2023-06-11T07:07:29.000Z</time>
      </trkpt>
      <trkpt lat="45.4729" lon="4.93024">
        <ele>327.2</ele>
        <time>2023-06-11T07:07:31.000Z</time>
      </trkpt>
      <trkpt lat="45.47293" lon="4.93016">
        <ele>328.5</ele>
        <time>2023-06-11T07:07:36.000Z</time>
      </trkpt>
      <trkpt lat="45.47293" lon="4.93014">
        <ele>328.8</ele>
        <time>2023-06-11T07:07:37.000Z</time>
      </trkpt>
      <trkpt lat="45.47297" lon="4.9301">
        <ele>329.7</ele>
        <time>2023-06-11T07:07:40.000Z</time>
      </trkpt>
      <trkpt lat="45.47298" lon="4.93008">
        <ele>330</ele>
        <time>2023-06-11T07:07:41.000Z</time>
      </trkpt>
      <trkpt lat="45.47299" lon="4.93005">
        <ele>330.5</ele>
        <time>2023-06-11T07:07:43.000Z</time>
      </trkpt>
      <trkpt lat="45.47301" lon="4.93001">
        <ele>331</ele>
        <time>2023-06-11T07:07:45.000Z</time>
      </trkpt>
      <trkpt lat="45.47303" lon="4.92997">
        <ele>331.7</ele>
        <time>2023-06-11T07:07:48.000Z</time>
      </trkpt>
      <trkpt lat="45.47307" lon="4.92991">
        <ele>332.7</ele>
        <time>2023-06-11T07:07:52.000Z</time>
      </trkpt>
      <trkpt lat="45.47308" lon="4.92989">
        <ele>332.9</ele>
        <time>2023-06-11T07:07:53.000Z</time>
      </trkpt>
      <trkpt lat="45.47311" lon="4.92985">
        <ele>333.6</ele>
        <time>2023-06-11T07:07:56.000Z</time>
      </trkpt>
      <trkpt lat="45.47316" lon="4.92977">
        <ele>334.6</ele>
        <time>2023-06-11T07:08:01.000Z</time>
      </trkpt>
      <trkpt lat="45.47317" lon="4.92976">
        <ele>334.8</ele>
        <time>2023-06-11T07:08:02.000Z</time>
      </trkpt>
      <trkpt lat="45.47321" lon="4.9297">
        <ele>335.6</ele>
        <time>2023-06-11T07:08:06.000Z</time>
      </trkpt>
      <trkpt lat="45.47323" lon="4.92966">
        <ele>335.9</ele>
        <time>2023-06-11T07:08:08.000Z</time>
      </trkpt>
      <trkpt lat="45.47328" lon="4.92959">
        <ele>336.6</ele>
        <time>2023-06-11T07:08:12.000Z</time>
      </trkpt>
      <trkpt lat="45.47334" lon="4.92949">
        <ele>337.6</ele>
        <time>2023-06-11T07:08:17.000Z</time>
      </trkpt>
      <trkpt lat="45.47335" lon="4.92947">
        <ele>337.8</ele>
        <time>2023-06-11T07:08:18.000Z</time>
      </trkpt>
      <trkpt lat="45.47342" lon="4.92931">
        <ele>339</ele>
        <time>2023-06-11T07:08:25.000Z</time>
      </trkpt>
      <trkpt lat="45.47343" lon="4.92929">
        <ele>339.2</ele>
        <time>2023-06-11T07:08:26.000Z</time>
      </trkpt>
      <trkpt lat="45.47351" lon="4.92912">
        <ele>340.5</ele>
        <time>2023-06-11T07:08:34.000Z</time>
      </trkpt>
      <trkpt lat="45.47352" lon="4.92909">
        <ele>340.8</ele>
        <time>2023-06-11T07:08:35.000Z</time>
      </trkpt>
      <trkpt lat="45.47358" lon="4.92891">
        <ele>342</ele>
        <time>2023-06-11T07:08:42.000Z</time>
      </trkpt>
      <trkpt lat="45.4736" lon="4.92884">
        <ele>342.4</ele>
        <time>2023-06-11T07:08:45.000Z</time>
      </trkpt>
      <trkpt lat="45.47362" lon="4.92873">
        <ele>343</ele>
        <time>2023-06-11T07:08:49.000Z</time>
      </trkpt>
      <trkpt lat="45.47368" lon="4.9286">
        <ele>343.8</ele>
        <time>2023-06-11T07:08:54.000Z</time>
      </trkpt>
      <trkpt lat="45.47371" lon="4.92854">
        <ele>344.1</ele>
        <time>2023-06-11T07:08:56.000Z</time>
      </trkpt>
      <trkpt lat="45.47379" lon="4.92838">
        <ele>345.1</ele>
        <time>2023-06-11T07:09:02.000Z</time>
      </trkpt>
      <trkpt lat="45.47382" lon="4.92833">
        <ele>345.5</ele>
        <time>2023-06-11T07:09:04.000Z</time>
      </trkpt>
      <trkpt lat="45.4739" lon="4.92818">
        <ele>346.7</ele>
        <time>2023-06-11T07:09:11.000Z</time>
      </trkpt>
      <trkpt lat="45.47392" lon="4.92811">
        <ele>347.3</ele>
        <time>2023-06-11T07:09:14.000Z</time>
      </trkpt>
      <trkpt lat="45.47392" lon="4.92802">
        <ele>349.2</ele>
        <time>2023-06-11T07:09:18.000Z</time>
      </trkpt>
      <trkpt lat="45.47387" lon="4.92796">
        <ele>349.9</ele>
        <time>2023-06-11T07:09:22.000Z</time>
      </trkpt>
      <trkpt lat="45.47386" lon="4.92795">
        <ele>350.1</ele>
        <time>2023-06-11T07:09:23.000Z</time>
      </trkpt>
      <trkpt lat="45.47379" lon="4.92795">
        <ele>350.9</ele>
        <time>2023-06-11T07:09:27.000Z</time>
      </trkpt>
      <trkpt lat="45.47372" lon="4.92795">
        <ele>351.5</ele>
        <time>2023-06-11T07:09:31.000Z</time>
      </trkpt>
      <trkpt lat="45.47365" lon="4.92795">
        <ele>352.2</ele>
        <time>2023-06-11T07:09:35.000Z</time>
      </trkpt>
      <trkpt lat="45.4736" lon="4.92795">
        <ele>352.6</ele>
        <time>2023-06-11T07:09:38.000Z</time>
      </trkpt>
      <trkpt lat="45.47355" lon="4.92795">
        <ele>353.1</ele>
        <time>2023-06-11T07:09:41.000Z</time>
      </trkpt>
      <trkpt lat="45.47345" lon="4.92795">
        <ele>353.7</ele>
        <time>2023-06-11T07:09:46.000Z</time>
      </trkpt>
      <trkpt lat="45.47343" lon="4.92795">
        <ele>353.9</ele>
        <time>2023-06-11T07:09:47.000Z</time>
      </trkpt>
      <trkpt lat="45.47335" lon="4.92796">
        <ele>354.4</ele>
        <time>2023-06-11T07:09:51.000Z</time>
      </trkpt>
      <trkpt lat="45.47325" lon="4.92796">
        <ele>355.2</ele>
        <time>2023-06-11T07:09:56.000Z</time>
      </trkpt>
      <trkpt lat="45.47318" lon="4.92796">
        <ele>355.7</ele>
        <time>2023-06-11T07:09:59.000Z</time>
      </trkpt>
      <trkpt lat="45.47302" lon="4.92794">
        <ele>356.9</ele>
        <time>2023-06-11T07:10:06.000Z</time>
      </trkpt>
      <trkpt lat="45.47297" lon="4.92793">
        <ele>357.2</ele>
        <time>2023-06-11T07:10:08.000Z</time>
      </trkpt>
      <trkpt lat="45.47283" lon="4.92787">
        <ele>358.4</ele>
        <time>2023-06-11T07:10:15.000Z</time>
      </trkpt>
      <trkpt lat="45.47274" lon="4.92782">
        <ele>359.2</ele>
        <time>2023-06-11T07:10:19.000Z</time>
      </trkpt>
      <trkpt lat="45.47269" lon="4.9278">
        <ele>359.5</ele>
        <time>2023-06-11T07:10:21.000Z</time>
      </trkpt>
      <trkpt lat="45.47255" lon="4.92775">
        <ele>360.4</ele>
        <time>2023-06-11T07:10:27.000Z</time>
      </trkpt>
      <trkpt lat="45.47252" lon="4.92775">
        <ele>360.6</ele>
        <time>2023-06-11T07:10:28.000Z</time>
      </trkpt>
      <trkpt lat="45.47235" lon="4.92772">
        <ele>361.4</ele>
        <time>2023-06-11T07:10:34.000Z</time>
      </trkpt>
      <trkpt lat="45.47228" lon="4.92771">
        <ele>361.8</ele>
        <time>2023-06-11T07:10:37.000Z</time>
      </trkpt>
      <trkpt lat="45.4722" lon="4.9277">
        <ele>362.2</ele>
        <time>2023-06-11T07:10:40.000Z</time>
      </trkpt>
      <trkpt lat="45.47199" lon="4.92766">
        <ele>363.2</ele>
        <time>2023-06-11T07:10:47.000Z</time>
      </trkpt>
      <trkpt lat="45.47196" lon="4.92765">
        <ele>363.3</ele>
        <time>2023-06-11T07:10:48.000Z</time>
      </trkpt>
      <trkpt lat="45.47172" lon="4.92759">
        <ele>364.8</ele>
        <time>2023-06-11T07:10:56.000Z</time>
      </trkpt>
      <trkpt lat="45.47166" lon="4.92756">
        <ele>365.3</ele>
        <time>2023-06-11T07:10:58.000Z</time>
      </trkpt>
      <trkpt lat="45.47151" lon="4.92747">
        <ele>366.6</ele>
        <time>2023-06-11T07:11:04.000Z</time>
      </trkpt>
      <trkpt lat="45.47143" lon="4.92742">
        <ele>367.3</ele>
        <time>2023-06-11T07:11:07.000Z</time>
      </trkpt>
      <trkpt lat="45.47135" lon="4.92737">
        <ele>367.9</ele>
        <time>2023-06-11T07:11:10.000Z</time>
      </trkpt>
      <trkpt lat="45.47127" lon="4.92732">
        <ele>368.6</ele>
        <time>2023-06-11T07:11:13.000Z</time>
      </trkpt>
      <trkpt lat="45.47119" lon="4.92727">
        <ele>369.2</ele>
        <time>2023-06-11T07:11:16.000Z</time>
      </trkpt>
      <trkpt lat="45.47105" lon="4.92721">
        <ele>370</ele>
        <time>2023-06-11T07:11:21.000Z</time>
      </trkpt>
      <trkpt lat="45.47102" lon="4.9272">
        <ele>370.2</ele>
        <time>2023-06-11T07:11:22.000Z</time>
      </trkpt>
      <trkpt lat="45.47088" lon="4.92714">
        <ele>370.8</ele>
        <time>2023-06-11T07:11:27.000Z</time>
      </trkpt>
      <trkpt lat="45.47076" lon="4.9271">
        <ele>371.3</ele>
        <time>2023-06-11T07:11:31.000Z</time>
      </trkpt>
      <trkpt lat="45.4707" lon="4.92709">
        <ele>371.5</ele>
        <time>2023-06-11T07:11:33.000Z</time>
      </trkpt>
      <trkpt lat="45.47034" lon="4.92697">
        <ele>373.4</ele>
        <time>2023-06-11T07:11:45.000Z</time>
      </trkpt>
      <trkpt lat="45.47031" lon="4.92695">
        <ele>373.6</ele>
        <time>2023-06-11T07:11:46.000Z</time>
      </trkpt>
      <trkpt lat="45.47011" lon="4.92692">
        <ele>373.5</ele>
        <time>2023-06-11T07:11:53.000Z</time>
      </trkpt>
      <trkpt lat="45.47003" lon="4.92692">
        <ele>373.2</ele>
        <time>2023-06-11T07:11:56.000Z</time>
      </trkpt>
      <trkpt lat="45.46998" lon="4.92689">
        <ele>373</ele>
        <time>2023-06-11T07:11:59.000Z</time>
      </trkpt>
      <trkpt lat="45.46997" lon="4.92687">
        <ele>372.9</ele>
        <time>2023-06-11T07:12:02.000Z</time>
      </trkpt>
      <trkpt lat="45.46993" lon="4.92689">
        <ele>372.8</ele>
        <time>2023-06-11T07:13:28.000Z</time>
      </trkpt>
      <trkpt lat="45.46991" lon="4.92689">
        <ele>372.7</ele>
        <time>2023-06-11T07:13:29.000Z</time>
      </trkpt>
      <trkpt lat="45.46988" lon="4.92689">
        <ele>372.7</ele>
        <time>2023-06-11T07:13:30.000Z</time>
      </trkpt>
      <trkpt lat="45.46971" lon="4.92696">
        <ele>372.6</ele>
        <time>2023-06-11T07:13:36.000Z</time>
      </trkpt>
      <trkpt lat="45.46958" lon="4.927">
        <ele>372.5</ele>
        <time>2023-06-11T07:13:40.000Z</time>
      </trkpt>
      <trkpt lat="45.46951" lon="4.92703">
        <ele>372.5</ele>
        <time>2023-06-11T07:13:42.000Z</time>
      </trkpt>
      <trkpt lat="45.46932" lon="4.92706">
        <ele>372.6</ele>
        <time>2023-06-11T07:13:48.000Z</time>
      </trkpt>
      <trkpt lat="45.46925" lon="4.92707">
        <ele>372.6</ele>
        <time>2023-06-11T07:13:50.000Z</time>
      </trkpt>
      <trkpt lat="45.46915" lon="4.92709">
        <ele>372.8</ele>
        <time>2023-06-11T07:13:53.000Z</time>
      </trkpt>
      <trkpt lat="45.46908" lon="4.92711">
        <ele>372.9</ele>
        <time>2023-06-11T07:13:56.000Z</time>
      </trkpt>
      <trkpt lat="45.46886" lon="4.92712">
        <ele>373.3</ele>
        <time>2023-06-11T07:14:01.000Z</time>
      </trkpt>
      <trkpt lat="45.46883" lon="4.92711">
        <ele>373.4</ele>
        <time>2023-06-11T07:14:02.000Z</time>
      </trkpt>
      <trkpt lat="45.46879" lon="4.92711">
        <ele>373.4</ele>
        <time>2023-06-11T07:14:03.000Z</time>
      </trkpt>
      <trkpt lat="45.46849" lon="4.92711">
        <ele>373.8</ele>
        <time>2023-06-11T07:14:11.000Z</time>
      </trkpt>
      <trkpt lat="45.46845" lon="4.92711">
        <ele>373.9</ele>
        <time>2023-06-11T07:14:12.000Z</time>
      </trkpt>
      <trkpt lat="45.46831" lon="4.92715">
        <ele>374.2</ele>
        <time>2023-06-11T07:14:16.000Z</time>
      </trkpt>
      <trkpt lat="45.46819" lon="4.92721">
        <ele>374.4</ele>
        <time>2023-06-11T07:14:19.000Z</time>
      </trkpt>
      <trkpt lat="45.46789" lon="4.92736">
        <ele>374</ele>
        <time>2023-06-11T07:14:26.000Z</time>
      </trkpt>
      <trkpt lat="45.46774" lon="4.92742">
        <ele>373.7</ele>
        <time>2023-06-11T07:14:29.000Z</time>
      </trkpt>
      <trkpt lat="45.46762" lon="4.92748">
        <ele>373.4</ele>
        <time>2023-06-11T07:14:31.000Z</time>
      </trkpt>
      <trkpt lat="45.46746" lon="4.92758">
        <ele>373.1</ele>
        <time>2023-06-11T07:14:34.000Z</time>
      </trkpt>
      <trkpt lat="45.46741" lon="4.92763">
        <ele>373.1</ele>
        <time>2023-06-11T07:14:35.000Z</time>
      </trkpt>
      <trkpt lat="45.46726" lon="4.92775">
        <ele>373</ele>
        <time>2023-06-11T07:14:38.000Z</time>
      </trkpt>
      <trkpt lat="45.46716" lon="4.92781">
        <ele>373</ele>
        <time>2023-06-11T07:14:40.000Z</time>
      </trkpt>
      <trkpt lat="45.46695" lon="4.92791">
        <ele>373.4</ele>
        <time>2023-06-11T07:14:44.000Z</time>
      </trkpt>
      <trkpt lat="45.46686" lon="4.92794">
        <ele>373.6</ele>
        <time>2023-06-11T07:14:46.000Z</time>
      </trkpt>
      <trkpt lat="45.46678" lon="4.92795">
        <ele>373.9</ele>
        <time>2023-06-11T07:14:48.000Z</time>
      </trkpt>
      <trkpt lat="45.46665" lon="4.92792">
        <ele>374.4</ele>
        <time>2023-06-11T07:14:51.000Z</time>
      </trkpt>
      <trkpt lat="45.46649" lon="4.92786">
        <ele>375.5</ele>
        <time>2023-06-11T07:14:56.000Z</time>
      </trkpt>
      <trkpt lat="45.46643" lon="4.92776">
        <ele>376.3</ele>
        <time>2023-06-11T07:15:00.000Z</time>
      </trkpt>
      <trkpt lat="45.46641" lon="4.92764">
        <ele>377.1</ele>
        <time>2023-06-11T07:15:04.000Z</time>
      </trkpt>
      <trkpt lat="45.46641" lon="4.92761">
        <ele>377.3</ele>
        <time>2023-06-11T07:15:05.000Z</time>
      </trkpt>
      <trkpt lat="45.46641" lon="4.92749">
        <ele>378.2</ele>
        <time>2023-06-11T07:15:09.000Z</time>
      </trkpt>
      <trkpt lat="45.46642" lon="4.9274">
        <ele>379</ele>
        <time>2023-06-11T07:15:13.000Z</time>
      </trkpt>
      <trkpt lat="45.46642" lon="4.92737">
        <ele>379.2</ele>
        <time>2023-06-11T07:15:14.000Z</time>
      </trkpt>
      <trkpt lat="45.46641" lon="4.92729">
        <ele>379.9</ele>
        <time>2023-06-11T07:15:17.000Z</time>
      </trkpt>
      <trkpt lat="45.46641" lon="4.92725">
        <ele>380.3</ele>
        <time>2023-06-11T07:15:19.000Z</time>
      </trkpt>
      <trkpt lat="45.46641" lon="4.92722">
        <ele>380.5</ele>
        <time>2023-06-11T07:15:20.000Z</time>
      </trkpt>
      <trkpt lat="45.46637" lon="4.92708">
        <ele>381.8</ele>
        <time>2023-06-11T07:15:26.000Z</time>
      </trkpt>
      <trkpt lat="45.46637" lon="4.92706">
        <ele>382</ele>
        <time>2023-06-11T07:15:27.000Z</time>
      </trkpt>
      <trkpt lat="45.46635" lon="4.92701">
        <ele>382.6</ele>
        <time>2023-06-11T07:15:30.000Z</time>
      </trkpt>
      <trkpt lat="45.46633" lon="4.92694">
        <ele>383.2</ele>
        <time>2023-06-11T07:15:34.000Z</time>
      </trkpt>
      <trkpt lat="45.46632" lon="4.92692">
        <ele>383.5</ele>
        <time>2023-06-11T07:15:35.000Z</time>
      </trkpt>
      <trkpt lat="45.46629" lon="4.92686">
        <ele>384.1</ele>
        <time>2023-06-11T07:15:39.000Z</time>
      </trkpt>
      <trkpt lat="45.46628" lon="4.92683">
        <ele>384.4</ele>
        <time>2023-06-11T07:15:41.000Z</time>
      </trkpt>
      <trkpt lat="45.46623" lon="4.92674">
        <ele>385.5</ele>
        <time>2023-06-11T07:15:46.000Z</time>
      </trkpt>
      <trkpt lat="45.4662" lon="4.92663">
        <ele>386.8</ele>
        <time>2023-06-11T07:15:51.000Z</time>
      </trkpt>
      <trkpt lat="45.46615" lon="4.92656">
        <ele>388</ele>
        <time>2023-06-11T07:15:55.000Z</time>
      </trkpt>
      <trkpt lat="45.46615" lon="4.92655">
        <ele>388.1</ele>
        <time>2023-06-11T07:15:56.000Z</time>
      </trkpt>
      <trkpt lat="45.4661" lon="4.92647">
        <ele>389.4</ele>
        <time>2023-06-11T07:16:01.000Z</time>
      </trkpt>
      <trkpt lat="45.46606" lon="4.92641">
        <ele>390.3</ele>
        <time>2023-06-11T07:16:05.000Z</time>
      </trkpt>
      <trkpt lat="45.46605" lon="4.9264">
        <ele>390.6</ele>
        <time>2023-06-11T07:16:06.000Z</time>
      </trkpt>
      <trkpt lat="45.466" lon="4.92634">
        <ele>391.7</ele>
        <time>2023-06-11T07:16:11.000Z</time>
      </trkpt>
      <trkpt lat="45.46596" lon="4.9263">
        <ele>392.6</ele>
        <time>2023-06-11T07:16:16.000Z</time>
      </trkpt>
      <trkpt lat="45.46593" lon="4.92626">
        <ele>393.4</ele>
        <time>2023-06-11T07:16:20.000Z</time>
      </trkpt>
      <trkpt lat="45.46591" lon="4.92624">
        <ele>393.8</ele>
        <time>2023-06-11T07:16:22.000Z</time>
      </trkpt>
      <trkpt lat="45.46587" lon="4.9262">
        <ele>394.7</ele>
        <time>2023-06-11T07:16:26.000Z</time>
      </trkpt>
      <trkpt lat="45.46586" lon="4.92619">
        <ele>394.9</ele>
        <time>2023-06-11T07:16:27.000Z</time>
      </trkpt>
      <trkpt lat="45.46583" lon="4.92614">
        <ele>395.8</ele>
        <time>2023-06-11T07:16:31.000Z</time>
      </trkpt>
      <trkpt lat="45.46582" lon="4.92614">
        <ele>396</ele>
        <time>2023-06-11T07:16:32.000Z</time>
      </trkpt>
      <trkpt lat="45.46581" lon="4.92613">
        <ele>396.2</ele>
        <time>2023-06-11T07:16:33.000Z</time>
      </trkpt>
      <trkpt lat="45.46577" lon="4.92607">
        <ele>397.1</ele>
        <time>2023-06-11T07:16:37.000Z</time>
      </trkpt>
      <trkpt lat="45.46574" lon="4.92602">
        <ele>397.8</ele>
        <time>2023-06-11T07:16:40.000Z</time>
      </trkpt>
      <trkpt lat="45.46571" lon="4.92597">
        <ele>398.4</ele>
        <time>2023-06-11T07:16:43.000Z</time>
      </trkpt>
      <trkpt lat="45.46571" lon="4.92595">
        <ele>399.4</ele>
        <time>2023-06-11T07:16:44.000Z</time>
      </trkpt>
      <trkpt lat="45.46573" lon="4.92591">
        <ele>399.4</ele>
        <time>2023-06-11T07:16:46.000Z</time>
      </trkpt>
      <trkpt lat="45.46576" lon="4.92586">
        <ele>399.4</ele>
        <time>2023-06-11T07:16:49.000Z</time>
      </trkpt>
      <trkpt lat="45.46585" lon="4.92574">
        <ele>399.4</ele>
        <time>2023-06-11T07:16:54.000Z</time>
      </trkpt>
      <trkpt lat="45.46589" lon="4.92553">
        <ele>399.3</ele>
        <time>2023-06-11T07:16:59.000Z</time>
      </trkpt>
      <trkpt lat="45.46581" lon="4.9254">
        <ele>399.2</ele>
        <time>2023-06-11T07:17:02.000Z</time>
      </trkpt>
      <trkpt lat="45.46578" lon="4.92538">
        <ele>399.1</ele>
        <time>2023-06-11T07:17:03.000Z</time>
      </trkpt>
      <trkpt lat="45.46573" lon="4.92536">
        <ele>399.1</ele>
        <time>2023-06-11T07:17:04.000Z</time>
      </trkpt>
      <trkpt lat="45.46562" lon="4.92537">
        <ele>398.9</ele>
        <time>2023-06-11T07:17:06.000Z</time>
      </trkpt>
      <trkpt lat="45.46532" lon="4.92552">
        <ele>398.1</ele>
        <time>2023-06-11T07:17:12.000Z</time>
      </trkpt>
      <trkpt lat="45.46512" lon="4.92563">
        <ele>398</ele>
        <time>2023-06-11T07:17:16.000Z</time>
      </trkpt>
      <trkpt lat="45.46508" lon="4.92563">
        <ele>398</ele>
        <time>2023-06-11T07:17:17.000Z</time>
      </trkpt>
      <trkpt lat="45.46502" lon="4.92562">
        <ele>397.6</ele>
        <time>2023-06-11T07:17:18.000Z</time>
      </trkpt>
      <trkpt lat="45.46495" lon="4.92553">
        <ele>396.4</ele>
        <time>2023-06-11T07:17:20.000Z</time>
      </trkpt>
      <trkpt lat="45.46495" lon="4.92546">
        <ele>395.8</ele>
        <time>2023-06-11T07:17:21.000Z</time>
      </trkpt>
      <trkpt lat="45.46496" lon="4.92537">
        <ele>394.9</ele>
        <time>2023-06-11T07:17:22.000Z</time>
      </trkpt>
      <trkpt lat="45.46503" lon="4.92522">
        <ele>393.1</ele>
        <time>2023-06-11T07:17:24.000Z</time>
      </trkpt>
      <trkpt lat="45.46512" lon="4.92506">
        <ele>390.9</ele>
        <time>2023-06-11T07:17:26.000Z</time>
      </trkpt>
      <trkpt lat="45.46516" lon="4.92497">
        <ele>389.8</ele>
        <time>2023-06-11T07:17:27.000Z</time>
      </trkpt>
      <trkpt lat="45.46517" lon="4.92489">
        <ele>389</ele>
        <time>2023-06-11T07:17:28.000Z</time>
      </trkpt>
      <trkpt lat="45.46517" lon="4.92476">
        <ele>387.8</ele>
        <time>2023-06-11T07:17:30.000Z</time>
      </trkpt>
      <trkpt lat="45.46511" lon="4.92472">
        <ele>386.4</ele>
        <time>2023-06-11T07:17:32.000Z</time>
      </trkpt>
      <trkpt lat="45.46507" lon="4.92473">
        <ele>386.5</ele>
        <time>2023-06-11T07:17:33.000Z</time>
      </trkpt>
      <trkpt lat="45.46504" lon="4.92477">
        <ele>386.6</ele>
        <time>2023-06-11T07:17:34.000Z</time>
      </trkpt>
      <trkpt lat="45.46501" lon="4.9248">
        <ele>386.8</ele>
        <time>2023-06-11T07:17:35.000Z</time>
      </trkpt>
      <trkpt lat="45.46497" lon="4.92483">
        <ele>387</ele>
        <time>2023-06-11T07:17:36.000Z</time>
      </trkpt>
      <trkpt lat="45.46493" lon="4.92486">
        <ele>387.1</ele>
        <time>2023-06-11T07:17:37.000Z</time>
      </trkpt>
      <trkpt lat="45.46486" lon="4.92492">
        <ele>387.5</ele>
        <time>2023-06-11T07:17:39.000Z</time>
      </trkpt>
      <trkpt lat="45.46479" lon="4.92497">
        <ele>387.9</ele>
        <time>2023-06-11T07:17:41.000Z</time>
      </trkpt>
      <trkpt lat="45.46477" lon="4.92499">
        <ele>388.1</ele>
        <time>2023-06-11T07:17:42.000Z</time>
      </trkpt>
      <trkpt lat="45.46456" lon="4.9251">
        <ele>389.3</ele>
        <time>2023-06-11T07:17:49.000Z</time>
      </trkpt>
      <trkpt lat="45.46442" lon="4.92511">
        <ele>389.9</ele>
        <time>2023-06-11T07:17:53.000Z</time>
      </trkpt>
      <trkpt lat="45.46431" lon="4.92521">
        <ele>390.4</ele>
        <time>2023-06-11T07:17:57.000Z</time>
      </trkpt>
      <trkpt lat="45.46425" lon="4.92529">
        <ele>390.7</ele>
        <time>2023-06-11T07:18:00.000Z</time>
      </trkpt>
      <trkpt lat="45.46421" lon="4.92534">
        <ele>391</ele>
        <time>2023-06-11T07:18:02.000Z</time>
      </trkpt>
      <trkpt lat="45.46415" lon="4.92541">
        <ele>391.3</ele>
        <time>2023-06-11T07:18:05.000Z</time>
      </trkpt>
      <trkpt lat="45.4641" lon="4.92545">
        <ele>391.6</ele>
        <time>2023-06-11T07:18:07.000Z</time>
      </trkpt>
      <trkpt lat="45.46403" lon="4.92552">
        <ele>391.9</ele>
        <time>2023-06-11T07:18:10.000Z</time>
      </trkpt>
      <trkpt lat="45.46394" lon="4.9256">
        <ele>392.4</ele>
        <time>2023-06-11T07:18:14.000Z</time>
      </trkpt>
      <trkpt lat="45.46392" lon="4.92562">
        <ele>392.6</ele>
        <time>2023-06-11T07:18:15.000Z</time>
      </trkpt>
      <trkpt lat="45.46377" lon="4.92574">
        <ele>393.4</ele>
        <time>2023-06-11T07:18:21.000Z</time>
      </trkpt>
      <trkpt lat="45.46375" lon="4.92577">
        <ele>393.6</ele>
        <time>2023-06-11T07:18:22.000Z</time>
      </trkpt>
      <trkpt lat="45.46357" lon="4.92592">
        <ele>394.6</ele>
        <time>2023-06-11T07:18:30.000Z</time>
      </trkpt>
      <trkpt lat="45.46354" lon="4.92594">
        <ele>394.8</ele>
        <time>2023-06-11T07:18:31.000Z</time>
      </trkpt>
      <trkpt lat="45.46341" lon="4.92605">
        <ele>395.3</ele>
        <time>2023-06-11T07:18:37.000Z</time>
      </trkpt>
      <trkpt lat="45.4634" lon="4.92603">
        <ele>395</ele>
        <time>2023-06-11T07:18:38.000Z</time>
      </trkpt>
      <trkpt lat="45.46341" lon="4.92599">
        <ele>394.7</ele>
        <time>2023-06-11T07:18:39.000Z</time>
      </trkpt>
      <trkpt lat="45.46343" lon="4.9257">
        <ele>392.1</ele>
        <time>2023-06-11T07:18:44.000Z</time>
      </trkpt>
      <trkpt lat="45.46345" lon="4.92528">
        <ele>387.3</ele>
        <time>2023-06-11T07:18:49.000Z</time>
      </trkpt>
      <trkpt lat="45.46344" lon="4.92522">
        <ele>386.4</ele>
        <time>2023-06-11T07:18:50.000Z</time>
      </trkpt>
      <trkpt lat="45.4634" lon="4.92513">
        <ele>385.1</ele>
        <time>2023-06-11T07:18:52.000Z</time>
      </trkpt>
      <trkpt lat="45.46337" lon="4.92512">
        <ele>384.5</ele>
        <time>2023-06-11T07:18:53.000Z</time>
      </trkpt>
      <trkpt lat="45.46329" lon="4.92513">
        <ele>383.1</ele>
        <time>2023-06-11T07:18:55.000Z</time>
      </trkpt>
      <trkpt lat="45.46321" lon="4.92513">
        <ele>382.2</ele>
        <time>2023-06-11T07:18:57.000Z</time>
      </trkpt>
      <trkpt lat="45.46319" lon="4.9251">
        <ele>382</ele>
        <time>2023-06-11T07:18:58.000Z</time>
      </trkpt>
      <trkpt lat="45.46319" lon="4.92501">
        <ele>381.8</ele>
        <time>2023-06-11T07:19:00.000Z</time>
      </trkpt>
      <trkpt lat="45.46319" lon="4.92497">
        <ele>381.8</ele>
        <time>2023-06-11T07:19:01.000Z</time>
      </trkpt>
      <trkpt lat="45.4632" lon="4.92492">
        <ele>381.9</ele>
        <time>2023-06-11T07:19:03.000Z</time>
      </trkpt>
      <trkpt lat="45.46321" lon="4.92489">
        <ele>381.9</ele>
        <time>2023-06-11T07:19:04.000Z</time>
      </trkpt>
      <trkpt lat="45.46321" lon="4.92488">
        <ele>382</ele>
        <time>2023-06-11T07:19:05.000Z</time>
      </trkpt>
      <trkpt lat="45.4632" lon="4.92486">
        <ele>382.1</ele>
        <time>2023-06-11T07:19:06.000Z</time>
      </trkpt>
      <trkpt lat="45.46319" lon="4.92481">
        <ele>382.3</ele>
        <time>2023-06-11T07:19:08.000Z</time>
      </trkpt>
      <trkpt lat="45.4632" lon="4.92479">
        <ele>382.4</ele>
        <time>2023-06-11T07:19:10.000Z</time>
      </trkpt>
      <trkpt lat="45.46321" lon="4.92477">
        <ele>382.6</ele>
        <time>2023-06-11T07:19:11.000Z</time>
      </trkpt>
      <trkpt lat="45.46321" lon="4.92473">
        <ele>382.9</ele>
        <time>2023-06-11T07:19:13.000Z</time>
      </trkpt>
      <trkpt lat="45.46321" lon="4.92468">
        <ele>383.3</ele>
        <time>2023-06-11T07:19:15.000Z</time>
      </trkpt>
      <trkpt lat="45.46321" lon="4.92464">
        <ele>383.5</ele>
        <time>2023-06-11T07:19:17.000Z</time>
      </trkpt>
      <trkpt lat="45.46321" lon="4.92459">
        <ele>384</ele>
        <time>2023-06-11T07:19:19.000Z</time>
      </trkpt>
      <trkpt lat="45.46321" lon="4.92452">
        <ele>384.6</ele>
        <time>2023-06-11T07:19:22.000Z</time>
      </trkpt>
      <trkpt lat="45.46322" lon="4.92447">
        <ele>385.1</ele>
        <time>2023-06-11T07:19:24.000Z</time>
      </trkpt>
      <trkpt lat="45.46322" lon="4.92442">
        <ele>385.4</ele>
        <time>2023-06-11T07:19:26.000Z</time>
      </trkpt>
      <trkpt lat="45.46321" lon="4.92437">
        <ele>385.8</ele>
        <time>2023-06-11T07:19:28.000Z</time>
      </trkpt>
      <trkpt lat="45.46323" lon="4.92434">
        <ele>386.1</ele>
        <time>2023-06-11T07:19:29.000Z</time>
      </trkpt>
      <trkpt lat="45.46323" lon="4.92428">
        <ele>386.6</ele>
        <time>2023-06-11T07:19:31.000Z</time>
      </trkpt>
      <trkpt lat="45.46323" lon="4.92426">
        <ele>386.7</ele>
        <time>2023-06-11T07:19:32.000Z</time>
      </trkpt>
      <trkpt lat="45.46322" lon="4.92424">
        <ele>386.9</ele>
        <time>2023-06-11T07:19:35.000Z</time>
      </trkpt>
      <trkpt lat="45.46323" lon="4.92418">
        <ele>387.2</ele>
        <time>2023-06-11T07:19:38.000Z</time>
      </trkpt>
      <trkpt lat="45.46323" lon="4.92413">
        <ele>387.5</ele>
        <time>2023-06-11T07:19:41.000Z</time>
      </trkpt>
      <trkpt lat="45.46324" lon="4.92408">
        <ele>387.8</ele>
        <time>2023-06-11T07:19:44.000Z</time>
      </trkpt>
      <trkpt lat="45.46324" lon="4.92403">
        <ele>388.1</ele>
        <time>2023-06-11T07:19:47.000Z</time>
      </trkpt>
      <trkpt lat="45.46325" lon="4.92399">
        <ele>388.2</ele>
        <time>2023-06-11T07:19:49.000Z</time>
      </trkpt>
      <trkpt lat="45.46325" lon="4.92393">
        <ele>388.5</ele>
        <time>2023-06-11T07:19:52.000Z</time>
      </trkpt>
      <trkpt lat="45.46325" lon="4.92378">
        <ele>389.2</ele>
        <time>2023-06-11T07:19:59.000Z</time>
      </trkpt>
      <trkpt lat="45.46326" lon="4.92373">
        <ele>389.4</ele>
        <time>2023-06-11T07:20:01.000Z</time>
      </trkpt>
      <trkpt lat="45.46327" lon="4.92362">
        <ele>390</ele>
        <time>2023-06-11T07:20:05.000Z</time>
      </trkpt>
      <trkpt lat="45.46328" lon="4.9236">
        <ele>390.1</ele>
        <time>2023-06-11T07:20:06.000Z</time>
      </trkpt>
      <trkpt lat="45.46332" lon="4.92348">
        <ele>390.8</ele>
        <time>2023-06-11T07:20:11.000Z</time>
      </trkpt>
      <trkpt lat="45.46332" lon="4.92345">
        <ele>391</ele>
        <time>2023-06-11T07:20:12.000Z</time>
      </trkpt>
      <trkpt lat="45.46331" lon="4.92333">
        <ele>391.5</ele>
        <time>2023-06-11T07:20:18.000Z</time>
      </trkpt>
      <trkpt lat="45.46331" lon="4.92329">
        <ele>391.7</ele>
        <time>2023-06-11T07:20:20.000Z</time>
      </trkpt>
      <trkpt lat="45.46331" lon="4.92325">
        <ele>391.9</ele>
        <time>2023-06-11T07:20:22.000Z</time>
      </trkpt>
      <trkpt lat="45.4633" lon="4.9232">
        <ele>392.1</ele>
        <time>2023-06-11T07:20:24.000Z</time>
      </trkpt>
      <trkpt lat="45.4633" lon="4.92315">
        <ele>392.3</ele>
        <time>2023-06-11T07:20:26.000Z</time>
      </trkpt>
      <trkpt lat="45.46326" lon="4.92301">
        <ele>392.9</ele>
        <time>2023-06-11T07:20:32.000Z</time>
      </trkpt>
      <trkpt lat="45.46326" lon="4.92298">
        <ele>393</ele>
        <time>2023-06-11T07:20:33.000Z</time>
      </trkpt>
      <trkpt lat="45.46326" lon="4.92294">
        <ele>393.2</ele>
        <time>2023-06-11T07:20:35.000Z</time>
      </trkpt>
      <trkpt lat="45.46326" lon="4.92284">
        <ele>393.5</ele>
        <time>2023-06-11T07:20:38.000Z</time>
      </trkpt>
      <trkpt lat="45.46329" lon="4.92266">
        <ele>394.1</ele>
        <time>2023-06-11T07:20:42.000Z</time>
      </trkpt>
      <trkpt lat="45.4633" lon="4.92262">
        <ele>394.3</ele>
        <time>2023-06-11T07:20:43.000Z</time>
      </trkpt>
      <trkpt lat="45.46329" lon="4.92249">
        <ele>394.6</ele>
        <time>2023-06-11T07:20:47.000Z</time>
      </trkpt>
      <trkpt lat="45.46331" lon="4.92236">
        <ele>394.9</ele>
        <time>2023-06-11T07:20:52.000Z</time>
      </trkpt>
      <trkpt lat="45.46334" lon="4.92214">
        <ele>395.4</ele>
        <time>2023-06-11T07:21:00.000Z</time>
      </trkpt>
      <trkpt lat="45.46338" lon="4.9219">
        <ele>395.7</ele>
        <time>2023-06-11T07:21:08.000Z</time>
      </trkpt>
      <trkpt lat="45.46339" lon="4.92178">
        <ele>395.7</ele>
        <time>2023-06-11T07:21:11.000Z</time>
      </trkpt>
      <trkpt lat="45.46338" lon="4.92161">
        <ele>395.5</ele>
        <time>2023-06-11T07:21:15.000Z</time>
      </trkpt>
      <trkpt lat="45.46338" lon="4.92125">
        <ele>394.2</ele>
        <time>2023-06-11T07:21:21.000Z</time>
      </trkpt>
      <trkpt lat="45.46339" lon="4.92089">
        <ele>392.1</ele>
        <time>2023-06-11T07:21:26.000Z</time>
      </trkpt>
      <trkpt lat="45.46345" lon="4.92079">
        <ele>391.5</ele>
        <time>2023-06-11T07:21:28.000Z</time>
      </trkpt>
      <trkpt lat="45.46348" lon="4.92077">
        <ele>391.4</ele>
        <time>2023-06-11T07:21:29.000Z</time>
      </trkpt>
      <trkpt lat="45.46352" lon="4.92079">
        <ele>391.3</ele>
        <time>2023-06-11T07:21:30.000Z</time>
      </trkpt>
      <trkpt lat="45.4636" lon="4.92088">
        <ele>391.5</ele>
        <time>2023-06-11T07:21:32.000Z</time>
      </trkpt>
      <trkpt lat="45.46363" lon="4.92093">
        <ele>391.6</ele>
        <time>2023-06-11T07:21:33.000Z</time>
      </trkpt>
      <trkpt lat="45.46368" lon="4.92095">
        <ele>391.7</ele>
        <time>2023-06-11T07:21:34.000Z</time>
      </trkpt>
      <trkpt lat="45.46373" lon="4.92096">
        <ele>391.7</ele>
        <time>2023-06-11T07:21:35.000Z</time>
      </trkpt>
      <trkpt lat="45.46385" lon="4.92099">
        <ele>391.6</ele>
        <time>2023-06-11T07:21:37.000Z</time>
      </trkpt>
      <trkpt lat="45.46396" lon="4.92106">
        <ele>391.2</ele>
        <time>2023-06-11T07:21:39.000Z</time>
      </trkpt>
      <trkpt lat="45.46401" lon="4.92112">
        <ele>390.9</ele>
        <time>2023-06-11T07:21:40.000Z</time>
      </trkpt>
      <trkpt lat="45.46407" lon="4.92115">
        <ele>390.4</ele>
        <time>2023-06-11T07:21:41.000Z</time>
      </trkpt>
      <trkpt lat="45.46414" lon="4.92117">
        <ele>389.9</ele>
        <time>2023-06-11T07:21:42.000Z</time>
      </trkpt>
      <trkpt lat="45.46422" lon="4.92116">
        <ele>389.3</ele>
        <time>2023-06-11T07:21:43.000Z</time>
      </trkpt>
      <trkpt lat="45.46438" lon="4.92111">
        <ele>387.8</ele>
        <time>2023-06-11T07:21:45.000Z</time>
      </trkpt>
      <trkpt lat="45.46447" lon="4.92106">
        <ele>386.9</ele>
        <time>2023-06-11T07:21:46.000Z</time>
      </trkpt>
      <trkpt lat="45.46456" lon="4.92099">
        <ele>385.9</ele>
        <time>2023-06-11T07:21:47.000Z</time>
      </trkpt>
      <trkpt lat="45.46464" lon="4.9209">
        <ele>384.9</ele>
        <time>2023-06-11T07:21:48.000Z</time>
      </trkpt>
      <trkpt lat="45.4648" lon="4.92075">
        <ele>383</ele>
        <time>2023-06-11T07:21:50.000Z</time>
      </trkpt>
      <trkpt lat="45.46489" lon="4.9207">
        <ele>382</ele>
        <time>2023-06-11T07:21:51.000Z</time>
      </trkpt>
      <trkpt lat="45.46499" lon="4.92067">
        <ele>381.1</ele>
        <time>2023-06-11T07:21:52.000Z</time>
      </trkpt>
      <trkpt lat="45.46519" lon="4.92062">
        <ele>379.1</ele>
        <time>2023-06-11T07:21:54.000Z</time>
      </trkpt>
      <trkpt lat="45.46529" lon="4.9206">
        <ele>378</ele>
        <time>2023-06-11T07:21:55.000Z</time>
      </trkpt>
      <trkpt lat="45.46539" lon="4.92057">
        <ele>376.9</ele>
        <time>2023-06-11T07:21:56.000Z</time>
      </trkpt>
      <trkpt lat="45.4655" lon="4.92054">
        <ele>375.8</ele>
        <time>2023-06-11T07:21:57.000Z</time>
      </trkpt>
      <trkpt lat="45.4656" lon="4.92051">
        <ele>374.7</ele>
        <time>2023-06-11T07:21:58.000Z</time>
      </trkpt>
      <trkpt lat="45.46569" lon="4.92049">
        <ele>373.9</ele>
        <time>2023-06-11T07:21:59.000Z</time>
      </trkpt>
      <trkpt lat="45.46578" lon="4.92049">
        <ele>373</ele>
        <time>2023-06-11T07:22:00.000Z</time>
      </trkpt>
      <trkpt lat="45.46587" lon="4.92049">
        <ele>372</ele>
        <time>2023-06-11T07:22:01.000Z</time>
      </trkpt>
      <trkpt lat="45.46596" lon="4.92047">
        <ele>370.7</ele>
        <time>2023-06-11T07:22:02.000Z</time>
      </trkpt>
      <trkpt lat="45.46605" lon="4.92042">
        <ele>369.2</ele>
        <time>2023-06-11T07:22:03.000Z</time>
      </trkpt>
      <trkpt lat="45.46624" lon="4.92029">
        <ele>365.8</ele>
        <time>2023-06-11T07:22:05.000Z</time>
      </trkpt>
      <trkpt lat="45.46634" lon="4.92021">
        <ele>364.6</ele>
        <time>2023-06-11T07:22:06.000Z</time>
      </trkpt>
      <trkpt lat="45.46643" lon="4.92012">
        <ele>363.6</ele>
        <time>2023-06-11T07:22:07.000Z</time>
      </trkpt>
      <trkpt lat="45.46655" lon="4.9199">
        <ele>361.5</ele>
        <time>2023-06-11T07:22:09.000Z</time>
      </trkpt>
      <trkpt lat="45.46662" lon="4.91967">
        <ele>358.5</ele>
        <time>2023-06-11T07:22:11.000Z</time>
      </trkpt>
      <trkpt lat="45.46665" lon="4.91955">
        <ele>358.6</ele>
        <time>2023-06-11T07:22:12.000Z</time>
      </trkpt>
      <trkpt lat="45.46667" lon="4.91944">
        <ele>358.8</ele>
        <time>2023-06-11T07:22:13.000Z</time>
      </trkpt>
      <trkpt lat="45.4667" lon="4.91934">
        <ele>359</ele>
        <time>2023-06-11T07:22:14.000Z</time>
      </trkpt>
      <trkpt lat="45.46673" lon="4.91926">
        <ele>359.4</ele>
        <time>2023-06-11T07:22:15.000Z</time>
      </trkpt>
      <trkpt lat="45.46676" lon="4.91917">
        <ele>359.8</ele>
        <time>2023-06-11T07:22:16.000Z</time>
      </trkpt>
      <trkpt lat="45.46679" lon="4.9191">
        <ele>360.2</ele>
        <time>2023-06-11T07:22:17.000Z</time>
      </trkpt>
      <trkpt lat="45.46681" lon="4.91904">
        <ele>360.5</ele>
        <time>2023-06-11T07:22:18.000Z</time>
      </trkpt>
      <trkpt lat="45.46683" lon="4.91898">
        <ele>360.9</ele>
        <time>2023-06-11T07:22:19.000Z</time>
      </trkpt>
      <trkpt lat="45.46686" lon="4.91885">
        <ele>361.5</ele>
        <time>2023-06-11T07:22:21.000Z</time>
      </trkpt>
      <trkpt lat="45.46686" lon="4.91879">
        <ele>361.8</ele>
        <time>2023-06-11T07:22:22.000Z</time>
      </trkpt>
      <trkpt lat="45.46686" lon="4.91874">
        <ele>362.1</ele>
        <time>2023-06-11T07:22:23.000Z</time>
      </trkpt>
      <trkpt lat="45.46685" lon="4.91864">
        <ele>362.7</ele>
        <time>2023-06-11T07:22:25.000Z</time>
      </trkpt>
      <trkpt lat="45.46685" lon="4.91859">
        <ele>362.9</ele>
        <time>2023-06-11T07:22:26.000Z</time>
      </trkpt>
      <trkpt lat="45.46684" lon="4.91849">
        <ele>363.4</ele>
        <time>2023-06-11T07:22:28.000Z</time>
      </trkpt>
      <trkpt lat="45.46682" lon="4.91837">
        <ele>364.1</ele>
        <time>2023-06-11T07:22:31.000Z</time>
      </trkpt>
      <trkpt lat="45.46679" lon="4.91828">
        <ele>364.5</ele>
        <time>2023-06-11T07:22:33.000Z</time>
      </trkpt>
      <trkpt lat="45.46678" lon="4.91823">
        <ele>364.7</ele>
        <time>2023-06-11T07:22:34.000Z</time>
      </trkpt>
      <trkpt lat="45.46675" lon="4.91809">
        <ele>365</ele>
        <time>2023-06-11T07:22:37.000Z</time>
      </trkpt>
      <trkpt lat="45.46666" lon="4.91798">
        <ele>365.2</ele>
        <time>2023-06-11T07:22:40.000Z</time>
      </trkpt>
      <trkpt lat="45.46663" lon="4.91796">
        <ele>365.2</ele>
        <time>2023-06-11T07:22:41.000Z</time>
      </trkpt>
      <trkpt lat="45.46651" lon="4.91792">
        <ele>365.5</ele>
        <time>2023-06-11T07:22:44.000Z</time>
      </trkpt>
      <trkpt lat="45.46648" lon="4.9179">
        <ele>365.6</ele>
        <time>2023-06-11T07:22:45.000Z</time>
      </trkpt>
      <trkpt lat="45.46625" lon="4.91784">
        <ele>367.3</ele>
        <time>2023-06-11T07:22:51.000Z</time>
      </trkpt>
      <trkpt lat="45.46617" lon="4.91783">
        <ele>368</ele>
        <time>2023-06-11T07:22:55.000Z</time>
      </trkpt>
      <trkpt lat="45.46614" lon="4.91783">
        <ele>368.5</ele>
        <time>2023-06-11T07:22:57.000Z</time>
      </trkpt>
      <trkpt lat="45.46607" lon="4.91783">
        <ele>369.2</ele>
        <time>2023-06-11T07:23:01.000Z</time>
      </trkpt>
      <trkpt lat="45.46604" lon="4.91784">
        <ele>369.6</ele>
        <time>2023-06-11T07:23:03.000Z</time>
      </trkpt>
      <trkpt lat="45.46599" lon="4.91784">
        <ele>370.2</ele>
        <time>2023-06-11T07:23:06.000Z</time>
      </trkpt>
      <trkpt lat="45.46597" lon="4.91784">
        <ele>370.4</ele>
        <time>2023-06-11T07:23:07.000Z</time>
      </trkpt>
      <trkpt lat="45.46595" lon="4.91784">
        <ele>370.6</ele>
        <time>2023-06-11T07:23:08.000Z</time>
      </trkpt>
      <trkpt lat="45.46594" lon="4.91784">
        <ele>370.8</ele>
        <time>2023-06-11T07:23:09.000Z</time>
      </trkpt>
      <trkpt lat="45.46587" lon="4.91784">
        <ele>371.6</ele>
        <time>2023-06-11T07:23:13.000Z</time>
      </trkpt>
      <trkpt lat="45.46577" lon="4.91785">
        <ele>372.7</ele>
        <time>2023-06-11T07:23:19.000Z</time>
      </trkpt>
      <trkpt lat="45.4657" lon="4.91787">
        <ele>373.6</ele>
        <time>2023-06-11T07:23:24.000Z</time>
      </trkpt>
      <trkpt lat="45.4656" lon="4.91791">
        <ele>374.7</ele>
        <time>2023-06-11T07:23:30.000Z</time>
      </trkpt>
      <trkpt lat="45.46555" lon="4.91793">
        <ele>375.2</ele>
        <time>2023-06-11T07:23:33.000Z</time>
      </trkpt>
      <trkpt lat="45.46553" lon="4.91795">
        <ele>375.5</ele>
        <time>2023-06-11T07:23:35.000Z</time>
      </trkpt>
      <trkpt lat="45.46545" lon="4.91804">
        <ele>376.6</ele>
        <time>2023-06-11T07:23:41.000Z</time>
      </trkpt>
      <trkpt lat="45.46542" lon="4.91807">
        <ele>377</ele>
        <time>2023-06-11T07:23:43.000Z</time>
      </trkpt>
      <trkpt lat="45.46537" lon="4.91808">
        <ele>377.4</ele>
        <time>2023-06-11T07:23:46.000Z</time>
      </trkpt>
      <trkpt lat="45.46536" lon="4.91809">
        <ele>377.5</ele>
        <time>2023-06-11T07:23:47.000Z</time>
      </trkpt>
      <trkpt lat="45.46532" lon="4.91813">
        <ele>377.9</ele>
        <time>2023-06-11T07:23:50.000Z</time>
      </trkpt>
      <trkpt lat="45.46525" lon="4.91816">
        <ele>378.5</ele>
        <time>2023-06-11T07:23:55.000Z</time>
      </trkpt>
      <trkpt lat="45.46521" lon="4.91818">
        <ele>378.7</ele>
        <time>2023-06-11T07:23:57.000Z</time>
      </trkpt>
      <trkpt lat="45.4651" lon="4.91822">
        <ele>379.5</ele>
        <time>2023-06-11T07:24:04.000Z</time>
      </trkpt>
      <trkpt lat="45.46504" lon="4.91824">
        <ele>379.9</ele>
        <time>2023-06-11T07:24:08.000Z</time>
      </trkpt>
      <trkpt lat="45.46501" lon="4.91825">
        <ele>380.1</ele>
        <time>2023-06-11T07:24:10.000Z</time>
      </trkpt>
      <trkpt lat="45.46488" lon="4.91827">
        <ele>380.9</ele>
        <time>2023-06-11T07:24:18.000Z</time>
      </trkpt>
      <trkpt lat="45.46486" lon="4.91827">
        <ele>381.1</ele>
        <time>2023-06-11T07:24:19.000Z</time>
      </trkpt>
      <trkpt lat="45.46473" lon="4.91831">
        <ele>382.1</ele>
        <time>2023-06-11T07:24:27.000Z</time>
      </trkpt>
      <trkpt lat="45.46468" lon="4.91832">
        <ele>382.5</ele>
        <time>2023-06-11T07:24:30.000Z</time>
      </trkpt>
      <trkpt lat="45.46464" lon="4.91833">
        <ele>382.9</ele>
        <time>2023-06-11T07:24:33.000Z</time>
      </trkpt>
      <trkpt lat="45.46457" lon="4.91835">
        <ele>383.4</ele>
        <time>2023-06-11T07:24:37.000Z</time>
      </trkpt>
      <trkpt lat="45.46448" lon="4.91838">
        <ele>384.3</ele>
        <time>2023-06-11T07:24:43.000Z</time>
      </trkpt>
      <trkpt lat="45.46445" lon="4.91842">
        <ele>384.7</ele>
        <time>2023-06-11T07:24:46.000Z</time>
      </trkpt>
      <trkpt lat="45.46436" lon="4.91845">
        <ele>385.6</ele>
        <time>2023-06-11T07:24:52.000Z</time>
      </trkpt>
      <trkpt lat="45.46432" lon="4.91848">
        <ele>386</ele>
        <time>2023-06-11T07:24:55.000Z</time>
      </trkpt>
      <trkpt lat="45.46425" lon="4.91852">
        <ele>386.7</ele>
        <time>2023-06-11T07:25:00.000Z</time>
      </trkpt>
      <trkpt lat="45.46423" lon="4.91852">
        <ele>386.9</ele>
        <time>2023-06-11T07:25:01.000Z</time>
      </trkpt>
      <trkpt lat="45.46416" lon="4.91858">
        <ele>387.7</ele>
        <time>2023-06-11T07:25:07.000Z</time>
      </trkpt>
      <trkpt lat="45.46411" lon="4.91861">
        <ele>388.2</ele>
        <time>2023-06-11T07:25:10.000Z</time>
      </trkpt>
      <trkpt lat="45.46405" lon="4.91862">
        <ele>389.1</ele>
        <time>2023-06-11T07:25:14.000Z</time>
      </trkpt>
      <trkpt lat="45.46404" lon="4.9186">
        <ele>389.1</ele>
        <time>2023-06-11T07:25:16.000Z</time>
      </trkpt>
      <trkpt lat="45.46404" lon="4.91858">
        <ele>389.1</ele>
        <time>2023-06-11T07:25:17.000Z</time>
      </trkpt>
      <trkpt lat="45.46403" lon="4.91842">
        <ele>389.1</ele>
        <time>2023-06-11T07:25:22.000Z</time>
      </trkpt>
      <trkpt lat="45.46401" lon="4.91833">
        <ele>389.1</ele>
        <time>2023-06-11T07:25:24.000Z</time>
      </trkpt>
      <trkpt lat="45.46399" lon="4.9182">
        <ele>389.2</ele>
        <time>2023-06-11T07:25:27.000Z</time>
      </trkpt>
      <trkpt lat="45.46395" lon="4.91791">
        <ele>389.1</ele>
        <time>2023-06-11T07:25:33.000Z</time>
      </trkpt>
      <trkpt lat="45.46392" lon="4.91748">
        <ele>389.1</ele>
        <time>2023-06-11T07:25:41.000Z</time>
      </trkpt>
      <trkpt lat="45.46398" lon="4.917">
        <ele>388.9</ele>
        <time>2023-06-11T07:25:49.000Z</time>
      </trkpt>
      <trkpt lat="45.46399" lon="4.91654">
        <ele>387.3</ele>
        <time>2023-06-11T07:25:55.000Z</time>
      </trkpt>
      <trkpt lat="45.46399" lon="4.91645">
        <ele>386.9</ele>
        <time>2023-06-11T07:25:56.000Z</time>
      </trkpt>
      <trkpt lat="45.46397" lon="4.91609">
        <ele>385.6</ele>
        <time>2023-06-11T07:26:00.000Z</time>
      </trkpt>
      <trkpt lat="45.46398" lon="4.91591">
        <ele>384.9</ele>
        <time>2023-06-11T07:26:02.000Z</time>
      </trkpt>
      <trkpt lat="45.464" lon="4.91582">
        <ele>384.6</ele>
        <time>2023-06-11T07:26:03.000Z</time>
      </trkpt>
      <trkpt lat="45.46403" lon="4.91575">
        <ele>384.3</ele>
        <time>2023-06-11T07:26:04.000Z</time>
      </trkpt>
      <trkpt lat="45.46406" lon="4.9157">
        <ele>384.1</ele>
        <time>2023-06-11T07:26:05.000Z</time>
      </trkpt>
      <trkpt lat="45.4641" lon="4.91566">
        <ele>383.8</ele>
        <time>2023-06-11T07:26:06.000Z</time>
      </trkpt>
      <trkpt lat="45.46418" lon="4.91557">
        <ele>383.3</ele>
        <time>2023-06-11T07:26:08.000Z</time>
      </trkpt>
      <trkpt lat="45.4642" lon="4.91551">
        <ele>382.8</ele>
        <time>2023-06-11T07:26:09.000Z</time>
      </trkpt>
      <trkpt lat="45.46419" lon="4.91545">
        <ele>382.3</ele>
        <time>2023-06-11T07:26:10.000Z</time>
      </trkpt>
      <trkpt lat="45.46415" lon="4.91532">
        <ele>381.3</ele>
        <time>2023-06-11T07:26:12.000Z</time>
      </trkpt>
      <trkpt lat="45.46409" lon="4.91518">
        <ele>380.3</ele>
        <time>2023-06-11T07:26:14.000Z</time>
      </trkpt>
      <trkpt lat="45.46405" lon="4.9151">
        <ele>379.9</ele>
        <time>2023-06-11T07:26:15.000Z</time>
      </trkpt>
      <trkpt lat="45.46398" lon="4.91496">
        <ele>379.1</ele>
        <time>2023-06-11T07:26:17.000Z</time>
      </trkpt>
      <trkpt lat="45.46393" lon="4.91489">
        <ele>378.8</ele>
        <time>2023-06-11T07:26:18.000Z</time>
      </trkpt>
      <trkpt lat="45.46382" lon="4.91483">
        <ele>378.3</ele>
        <time>2023-06-11T07:26:20.000Z</time>
      </trkpt>
      <trkpt lat="45.46365" lon="4.91482">
        <ele>377.7</ele>
        <time>2023-06-11T07:26:23.000Z</time>
      </trkpt>
      <trkpt lat="45.46353" lon="4.9148">
        <ele>377.3</ele>
        <time>2023-06-11T07:26:25.000Z</time>
      </trkpt>
      <trkpt lat="45.46346" lon="4.91479">
        <ele>377</ele>
        <time>2023-06-11T07:26:26.000Z</time>
      </trkpt>
      <trkpt lat="45.46334" lon="4.91476">
        <ele>376.6</ele>
        <time>2023-06-11T07:26:28.000Z</time>
      </trkpt>
      <trkpt lat="45.46315" lon="4.91469">
        <ele>375.9</ele>
        <time>2023-06-11T07:26:31.000Z</time>
      </trkpt>
      <trkpt lat="45.46297" lon="4.91463">
        <ele>374.8</ele>
        <time>2023-06-11T07:26:34.000Z</time>
      </trkpt>
      <trkpt lat="45.46291" lon="4.91459">
        <ele>374.3</ele>
        <time>2023-06-11T07:26:35.000Z</time>
      </trkpt>
      <trkpt lat="45.46287" lon="4.91455">
        <ele>373.8</ele>
        <time>2023-06-11T07:26:36.000Z</time>
      </trkpt>
      <trkpt lat="45.46282" lon="4.91449">
        <ele>373.1</ele>
        <time>2023-06-11T07:26:37.000Z</time>
      </trkpt>
      <trkpt lat="45.4626" lon="4.91416">
        <ele>369.8</ele>
        <time>2023-06-11T07:26:41.000Z</time>
      </trkpt>
      <trkpt lat="45.46254" lon="4.91408">
        <ele>369.1</ele>
        <time>2023-06-11T07:26:42.000Z</time>
      </trkpt>
      <trkpt lat="45.46241" lon="4.91398">
        <ele>367.8</ele>
        <time>2023-06-11T07:26:44.000Z</time>
      </trkpt>
      <trkpt lat="45.46235" lon="4.91396">
        <ele>367.3</ele>
        <time>2023-06-11T07:26:45.000Z</time>
      </trkpt>
      <trkpt lat="45.46224" lon="4.91392">
        <ele>366.3</ele>
        <time>2023-06-11T07:26:47.000Z</time>
      </trkpt>
      <trkpt lat="45.46219" lon="4.91389">
        <ele>365.9</ele>
        <time>2023-06-11T07:26:48.000Z</time>
      </trkpt>
      <trkpt lat="45.46214" lon="4.91386">
        <ele>365.4</ele>
        <time>2023-06-11T07:26:49.000Z</time>
      </trkpt>
      <trkpt lat="45.46208" lon="4.91383">
        <ele>365</ele>
        <time>2023-06-11T07:26:50.000Z</time>
      </trkpt>
      <trkpt lat="45.46202" lon="4.91379">
        <ele>364.6</ele>
        <time>2023-06-11T07:26:51.000Z</time>
      </trkpt>
      <trkpt lat="45.46197" lon="4.91377">
        <ele>364.2</ele>
        <time>2023-06-11T07:26:52.000Z</time>
      </trkpt>
      <trkpt lat="45.46185" lon="4.9137">
        <ele>363.6</ele>
        <time>2023-06-11T07:26:54.000Z</time>
      </trkpt>
      <trkpt lat="45.46169" lon="4.91358">
        <ele>362.8</ele>
        <time>2023-06-11T07:26:57.000Z</time>
      </trkpt>
      <trkpt lat="45.46164" lon="4.91355">
        <ele>362.5</ele>
        <time>2023-06-11T07:26:58.000Z</time>
      </trkpt>
      <trkpt lat="45.46154" lon="4.91346">
        <ele>361.9</ele>
        <time>2023-06-11T07:27:00.000Z</time>
      </trkpt>
      <trkpt lat="45.46149" lon="4.91342">
        <ele>361.5</ele>
        <time>2023-06-11T07:27:01.000Z</time>
      </trkpt>
      <trkpt lat="45.46136" lon="4.9134">
        <ele>360.6</ele>
        <time>2023-06-11T07:27:03.000Z</time>
      </trkpt>
      <trkpt lat="45.46129" lon="4.9134">
        <ele>360.1</ele>
        <time>2023-06-11T07:27:04.000Z</time>
      </trkpt>
      <trkpt lat="45.46116" lon="4.91338">
        <ele>359.3</ele>
        <time>2023-06-11T07:27:06.000Z</time>
      </trkpt>
      <trkpt lat="45.4611" lon="4.91335">
        <ele>359</ele>
        <time>2023-06-11T07:27:07.000Z</time>
      </trkpt>
      <trkpt lat="45.46098" lon="4.91331">
        <ele>358.5</ele>
        <time>2023-06-11T07:27:09.000Z</time>
      </trkpt>
      <trkpt lat="45.46087" lon="4.91335">
        <ele>358</ele>
        <time>2023-06-11T07:27:11.000Z</time>
      </trkpt>
      <trkpt lat="45.46074" lon="4.91341">
        <ele>357.6</ele>
        <time>2023-06-11T07:27:13.000Z</time>
      </trkpt>
      <trkpt lat="45.46053" lon="4.91353">
        <ele>357.5</ele>
        <time>2023-06-11T07:27:16.000Z</time>
      </trkpt>
      <trkpt lat="45.46035" lon="4.91361">
        <ele>358</ele>
        <time>2023-06-11T07:27:19.000Z</time>
      </trkpt>
      <trkpt lat="45.46029" lon="4.91362">
        <ele>358.2</ele>
        <time>2023-06-11T07:27:20.000Z</time>
      </trkpt>
      <trkpt lat="45.46023" lon="4.91363">
        <ele>358.4</ele>
        <time>2023-06-11T07:27:21.000Z</time>
      </trkpt>
      <trkpt lat="45.46012" lon="4.91363">
        <ele>358.7</ele>
        <time>2023-06-11T07:27:23.000Z</time>
      </trkpt>
      <trkpt lat="45.46008" lon="4.91362">
        <ele>358.8</ele>
        <time>2023-06-11T07:27:24.000Z</time>
      </trkpt>
      <trkpt lat="45.4598" lon="4.91357">
        <ele>358.9</ele>
        <time>2023-06-11T07:27:29.000Z</time>
      </trkpt>
      <trkpt lat="45.45967" lon="4.91345">
        <ele>359</ele>
        <time>2023-06-11T07:27:33.000Z</time>
      </trkpt>
      <trkpt lat="45.45964" lon="4.91342">
        <ele>359.1</ele>
        <time>2023-06-11T07:27:34.000Z</time>
      </trkpt>
      <trkpt lat="45.45948" lon="4.91331">
        <ele>359.6</ele>
        <time>2023-06-11T07:27:39.000Z</time>
      </trkpt>
      <trkpt lat="45.4593" lon="4.91325">
        <ele>360.5</ele>
        <time>2023-06-11T07:27:44.000Z</time>
      </trkpt>
      <trkpt lat="45.45928" lon="4.91324">
        <ele>360.6</ele>
        <time>2023-06-11T07:27:45.000Z</time>
      </trkpt>
      <trkpt lat="45.45919" lon="4.91319">
        <ele>361.2</ele>
        <time>2023-06-11T07:27:48.000Z</time>
      </trkpt>
      <trkpt lat="45.45916" lon="4.91318">
        <ele>361.4</ele>
        <time>2023-06-11T07:27:49.000Z</time>
      </trkpt>
      <trkpt lat="45.45903" lon="4.91311">
        <ele>362.3</ele>
        <time>2023-06-11T07:27:54.000Z</time>
      </trkpt>
      <trkpt lat="45.45902" lon="4.9131">
        <ele>362.4</ele>
        <time>2023-06-11T07:27:55.000Z</time>
      </trkpt>
      <trkpt lat="45.45898" lon="4.91305">
        <ele>362.8</ele>
        <time>2023-06-11T07:27:57.000Z</time>
      </trkpt>
      <trkpt lat="45.45896" lon="4.913">
        <ele>363</ele>
        <time>2023-06-11T07:28:00.000Z</time>
      </trkpt>
      <trkpt lat="45.45896" lon="4.913">
        <ele>363.2</ele>
        <time>2023-06-11T07:28:02.000Z</time>
      </trkpt>
      <trkpt lat="45.45896" lon="4.913">
        <ele>363.2</ele>
        <time>2023-06-11T07:28:04.000Z</time>
      </trkpt>
      <trkpt lat="45.45896" lon="4.91307">
        <ele>363.7</ele>
        <time>2023-06-11T07:28:08.000Z</time>
      </trkpt>
      <trkpt lat="45.45897" lon="4.91309">
        <ele>363.9</ele>
        <time>2023-06-11T07:28:09.000Z</time>
      </trkpt>
      <trkpt lat="45.459" lon="4.91323">
        <ele>365.3</ele>
        <time>2023-06-11T07:28:15.000Z</time>
      </trkpt>
      <trkpt lat="45.45902" lon="4.91337">
        <ele>366.8</ele>
        <time>2023-06-11T07:28:22.000Z</time>
      </trkpt>
      <trkpt lat="45.45901" lon="4.91341">
        <ele>367.3</ele>
        <time>2023-06-11T07:28:24.000Z</time>
      </trkpt>
      <trkpt lat="45.459" lon="4.91343">
        <ele>367.5</ele>
        <time>2023-06-11T07:28:25.000Z</time>
      </trkpt>
      <trkpt lat="45.45898" lon="4.91346">
        <ele>368</ele>
        <time>2023-06-11T07:28:27.000Z</time>
      </trkpt>
      <trkpt lat="45.45896" lon="4.91351">
        <ele>368.6</ele>
        <time>2023-06-11T07:28:30.000Z</time>
      </trkpt>
      <trkpt lat="45.45894" lon="4.91357">
        <ele>369.3</ele>
        <time>2023-06-11T07:28:34.000Z</time>
      </trkpt>
      <trkpt lat="45.45893" lon="4.91359">
        <ele>369.5</ele>
        <time>2023-06-11T07:28:35.000Z</time>
      </trkpt>
      <trkpt lat="45.45892" lon="4.91361">
        <ele>369.7</ele>
        <time>2023-06-11T07:28:36.000Z</time>
      </trkpt>
      <trkpt lat="45.45892" lon="4.91368">
        <ele>370.3</ele>
        <time>2023-06-11T07:28:40.000Z</time>
      </trkpt>
      <trkpt lat="45.45891" lon="4.9137">
        <ele>370.5</ele>
        <time>2023-06-11T07:28:41.000Z</time>
      </trkpt>
      <trkpt lat="45.45889" lon="4.91374">
        <ele>370.9</ele>
        <time>2023-06-11T07:28:44.000Z</time>
      </trkpt>
      <trkpt lat="45.45888" lon="4.91378">
        <ele>371.2</ele>
        <time>2023-06-11T07:28:46.000Z</time>
      </trkpt>
      <trkpt lat="45.45887" lon="4.9138">
        <ele>371.3</ele>
        <time>2023-06-11T07:28:47.000Z</time>
      </trkpt>
      <trkpt lat="45.45886" lon="4.91383">
        <ele>371.5</ele>
        <time>2023-06-11T07:28:49.000Z</time>
      </trkpt>
      <trkpt lat="45.45885" lon="4.91385">
        <ele>371.7</ele>
        <time>2023-06-11T07:28:50.000Z</time>
      </trkpt>
      <trkpt lat="45.45884" lon="4.91386">
        <ele>371.8</ele>
        <time>2023-06-11T07:28:51.000Z</time>
      </trkpt>
      <trkpt lat="45.45881" lon="4.91394">
        <ele>372.4</ele>
        <time>2023-06-11T07:28:55.000Z</time>
      </trkpt>
      <trkpt lat="45.45879" lon="4.91404">
        <ele>373.1</ele>
        <time>2023-06-11T07:29:00.000Z</time>
      </trkpt>
      <trkpt lat="45.45878" lon="4.91406">
        <ele>373.3</ele>
        <time>2023-06-11T07:29:01.000Z</time>
      </trkpt>
      <trkpt lat="45.45878" lon="4.91406">
        <ele>373.3</ele>
        <time>2023-06-11T07:29:02.000Z</time>
      </trkpt>
      <trkpt lat="45.45875" lon="4.9141">
        <ele>373.7</ele>
        <time>2023-06-11T07:29:04.000Z</time>
      </trkpt>
      <trkpt lat="45.45874" lon="4.91419">
        <ele>374.4</ele>
        <time>2023-06-11T07:29:07.000Z</time>
      </trkpt>
      <trkpt lat="45.45869" lon="4.9143">
        <ele>375.6</ele>
        <time>2023-06-11T07:29:11.000Z</time>
      </trkpt>
      <trkpt lat="45.45862" lon="4.91435">
        <ele>376.7</ele>
        <time>2023-06-11T07:29:14.000Z</time>
      </trkpt>
      <trkpt lat="45.4586" lon="4.91436">
        <ele>377</ele>
        <time>2023-06-11T07:29:15.000Z</time>
      </trkpt>
      <trkpt lat="45.45856" lon="4.91442">
        <ele>377.8</ele>
        <time>2023-06-11T07:29:19.000Z</time>
      </trkpt>
      <trkpt lat="45.45855" lon="4.91446">
        <ele>378.4</ele>
        <time>2023-06-11T07:29:22.000Z</time>
      </trkpt>
      <trkpt lat="45.45854" lon="4.91447">
        <ele>378.6</ele>
        <time>2023-06-11T07:29:23.000Z</time>
      </trkpt>
      <trkpt lat="45.45854" lon="4.9145">
        <ele>378.8</ele>
        <time>2023-06-11T07:29:25.000Z</time>
      </trkpt>
      <trkpt lat="45.45854" lon="4.9145">
        <ele>379</ele>
        <time>2023-06-11T07:29:27.000Z</time>
      </trkpt>
      <trkpt lat="45.4585" lon="4.91453">
        <ele>379.7</ele>
        <time>2023-06-11T07:29:30.000Z</time>
      </trkpt>
      <trkpt lat="45.45849" lon="4.91454">
        <ele>379.9</ele>
        <time>2023-06-11T07:29:31.000Z</time>
      </trkpt>
      <trkpt lat="45.45846" lon="4.9146">
        <ele>380.8</ele>
        <time>2023-06-11T07:29:34.000Z</time>
      </trkpt>
      <trkpt lat="45.45844" lon="4.91463">
        <ele>381.3</ele>
        <time>2023-06-11T07:29:36.000Z</time>
      </trkpt>
      <trkpt lat="45.45843" lon="4.91465">
        <ele>381.6</ele>
        <time>2023-06-11T07:29:37.000Z</time>
      </trkpt>
      <trkpt lat="45.45838" lon="4.91472">
        <ele>382.9</ele>
        <time>2023-06-11T07:29:42.000Z</time>
      </trkpt>
      <trkpt lat="45.45836" lon="4.91475">
        <ele>383.4</ele>
        <time>2023-06-11T07:29:44.000Z</time>
      </trkpt>
      <trkpt lat="45.45836" lon="4.91476">
        <ele>383.5</ele>
        <time>2023-06-11T07:29:47.000Z</time>
      </trkpt>
      <trkpt lat="45.45739" lon="4.91499">
        <ele>399.4</ele>
        <time>2023-06-11T07:31:27.000Z</time>
      </trkpt>
      <trkpt lat="45.45738" lon="4.915">
        <ele>399.5</ele>
        <time>2023-06-11T07:31:28.000Z</time>
      </trkpt>
      <trkpt lat="45.45735" lon="4.91501">
        <ele>399.9</ele>
        <time>2023-06-11T07:31:30.000Z</time>
      </trkpt>
      <trkpt lat="45.45732" lon="4.91503">
        <ele>400.2</ele>
        <time>2023-06-11T07:31:32.000Z</time>
      </trkpt>
      <trkpt lat="45.45731" lon="4.91504">
        <ele>400.3</ele>
        <time>2023-06-11T07:31:33.000Z</time>
      </trkpt>
      <trkpt lat="45.4573" lon="4.91504">
        <ele>400.4</ele>
        <time>2023-06-11T07:31:34.000Z</time>
      </trkpt>
      <trkpt lat="45.45729" lon="4.91505">
        <ele>400.6</ele>
        <time>2023-06-11T07:31:35.000Z</time>
      </trkpt>
      <trkpt lat="45.45722" lon="4.91507">
        <ele>401.3</ele>
        <time>2023-06-11T07:31:40.000Z</time>
      </trkpt>
      <trkpt lat="45.45718" lon="4.91511">
        <ele>401.7</ele>
        <time>2023-06-11T07:31:43.000Z</time>
      </trkpt>
      <trkpt lat="45.45713" lon="4.91516">
        <ele>402.1</ele>
        <time>2023-06-11T07:31:47.000Z</time>
      </trkpt>
      <trkpt lat="45.4571" lon="4.91521">
        <ele>402.4</ele>
        <time>2023-06-11T07:31:50.000Z</time>
      </trkpt>
      <trkpt lat="45.45704" lon="4.91529">
        <ele>402.7</ele>
        <time>2023-06-11T07:31:55.000Z</time>
      </trkpt>
      <trkpt lat="45.457" lon="4.91533">
        <ele>403</ele>
        <time>2023-06-11T07:31:58.000Z</time>
      </trkpt>
      <trkpt lat="45.45692" lon="4.91537">
        <ele>403.5</ele>
        <time>2023-06-11T07:32:03.000Z</time>
      </trkpt>
      <trkpt lat="45.45684" lon="4.91537">
        <ele>403.9</ele>
        <time>2023-06-11T07:32:07.000Z</time>
      </trkpt>
      <trkpt lat="45.45673" lon="4.91536">
        <ele>404.5</ele>
        <time>2023-06-11T07:32:12.000Z</time>
      </trkpt>
      <trkpt lat="45.4567" lon="4.91535">
        <ele>404.7</ele>
        <time>2023-06-11T07:32:14.000Z</time>
      </trkpt>
      <trkpt lat="45.45667" lon="4.91535">
        <ele>404.8</ele>
        <time>2023-06-11T07:32:15.000Z</time>
      </trkpt>
      <trkpt lat="45.45661" lon="4.91535">
        <ele>405.1</ele>
        <time>2023-06-11T07:32:18.000Z</time>
      </trkpt>
      <trkpt lat="45.45652" lon="4.91535">
        <ele>405.5</ele>
        <time>2023-06-11T07:32:22.000Z</time>
      </trkpt>
      <trkpt lat="45.4565" lon="4.91536">
        <ele>405.6</ele>
        <time>2023-06-11T07:32:23.000Z</time>
      </trkpt>
      <trkpt lat="45.45647" lon="4.91536">
        <ele>405.7</ele>
        <time>2023-06-11T07:32:24.000Z</time>
      </trkpt>
      <trkpt lat="45.45635" lon="4.91539">
        <ele>406.2</ele>
        <time>2023-06-11T07:32:28.000Z</time>
      </trkpt>
      <trkpt lat="45.45624" lon="4.91559">
        <ele>407</ele>
        <time>2023-06-11T07:32:34.000Z</time>
      </trkpt>
      <trkpt lat="45.45619" lon="4.91568">
        <ele>407.2</ele>
        <time>2023-06-11T07:32:37.000Z</time>
      </trkpt>
      <trkpt lat="45.45613" lon="4.91578">
        <ele>407.6</ele>
        <time>2023-06-11T07:32:40.000Z</time>
      </trkpt>
      <trkpt lat="45.45604" lon="4.91595">
        <ele>408.3</ele>
        <time>2023-06-11T07:32:46.000Z</time>
      </trkpt>
      <trkpt lat="45.45603" lon="4.91598">
        <ele>408.4</ele>
        <time>2023-06-11T07:32:47.000Z</time>
      </trkpt>
      <trkpt lat="45.45593" lon="4.91613">
        <ele>409</ele>
        <time>2023-06-11T07:32:53.000Z</time>
      </trkpt>
      <trkpt lat="45.45586" lon="4.91623">
        <ele>409.4</ele>
        <time>2023-06-11T07:32:57.000Z</time>
      </trkpt>
      <trkpt lat="45.45582" lon="4.91628">
        <ele>409.7</ele>
        <time>2023-06-11T07:32:59.000Z</time>
      </trkpt>
      <trkpt lat="45.4557" lon="4.91646">
        <ele>410.4</ele>
        <time>2023-06-11T07:33:05.000Z</time>
      </trkpt>
      <trkpt lat="45.45568" lon="4.91648">
        <ele>410.5</ele>
        <time>2023-06-11T07:33:06.000Z</time>
      </trkpt>
      <trkpt lat="45.45566" lon="4.9165">
        <ele>410.6</ele>
        <time>2023-06-11T07:33:07.000Z</time>
      </trkpt>
      <trkpt lat="45.45551" lon="4.91669">
        <ele>411.4</ele>
        <time>2023-06-11T07:33:14.000Z</time>
      </trkpt>
      <trkpt lat="45.45547" lon="4.91677">
        <ele>411.6</ele>
        <time>2023-06-11T07:33:16.000Z</time>
      </trkpt>
      <trkpt lat="45.45541" lon="4.91684">
        <ele>411.9</ele>
        <time>2023-06-11T07:33:19.000Z</time>
      </trkpt>
      <trkpt lat="45.45526" lon="4.91707">
        <ele>412.5</ele>
        <time>2023-06-11T07:33:25.000Z</time>
      </trkpt>
      <trkpt lat="45.45524" lon="4.91711">
        <ele>412.6</ele>
        <time>2023-06-11T07:33:26.000Z</time>
      </trkpt>
      <trkpt lat="45.45516" lon="4.91728">
        <ele>413</ele>
        <time>2023-06-11T07:33:30.000Z</time>
      </trkpt>
      <trkpt lat="45.45502" lon="4.91754">
        <ele>413.6</ele>
        <time>2023-06-11T07:33:37.000Z</time>
      </trkpt>
      <trkpt lat="45.455" lon="4.91761">
        <ele>413.8</ele>
        <time>2023-06-11T07:33:39.000Z</time>
      </trkpt>
      <trkpt lat="45.45499" lon="4.91763">
        <ele>413.8</ele>
        <time>2023-06-11T07:33:40.000Z</time>
      </trkpt>
      <trkpt lat="45.45494" lon="4.91764">
        <ele>413.9</ele>
        <time>2023-06-11T07:33:42.000Z</time>
      </trkpt>
      <trkpt lat="45.45493" lon="4.91766">
        <ele>414</ele>
        <time>2023-06-11T07:33:44.000Z</time>
      </trkpt>
      <trkpt lat="45.45494" lon="4.91767">
        <ele>414</ele>
        <time>2023-06-11T07:33:45.000Z</time>
      </trkpt>
      <trkpt lat="45.45494" lon="4.91769">
        <ele>414</ele>
        <time>2023-06-11T07:33:46.000Z</time>
      </trkpt>
      <trkpt lat="45.45492" lon="4.91775">
        <ele>414.1</ele>
        <time>2023-06-11T07:33:48.000Z</time>
      </trkpt>
      <trkpt lat="45.45494" lon="4.9178">
        <ele>414.2</ele>
        <time>2023-06-11T07:33:50.000Z</time>
      </trkpt>
      <trkpt lat="45.45494" lon="4.91787">
        <ele>414.2</ele>
        <time>2023-06-11T07:33:52.000Z</time>
      </trkpt>
      <trkpt lat="45.45485" lon="4.91801">
        <ele>414.3</ele>
        <time>2023-06-11T07:33:56.000Z</time>
      </trkpt>
      <trkpt lat="45.45483" lon="4.91805">
        <ele>414.3</ele>
        <time>2023-06-11T07:33:57.000Z</time>
      </trkpt>
      <trkpt lat="45.45473" lon="4.91831">
        <ele>414.3</ele>
        <time>2023-06-11T07:34:02.000Z</time>
      </trkpt>
      <trkpt lat="45.45466" lon="4.9186">
        <ele>414.2</ele>
        <time>2023-06-11T07:34:07.000Z</time>
      </trkpt>
      <trkpt lat="45.45461" lon="4.91888">
        <ele>413.9</ele>
        <time>2023-06-11T07:34:12.000Z</time>
      </trkpt>
      <trkpt lat="45.45462" lon="4.91894">
        <ele>413.9</ele>
        <time>2023-06-11T07:34:13.000Z</time>
      </trkpt>
      <trkpt lat="45.45474" lon="4.91918">
        <ele>414.1</ele>
        <time>2023-06-11T07:34:18.000Z</time>
      </trkpt>
      <trkpt lat="45.45488" lon="4.9195">
        <ele>414.5</ele>
        <time>2023-06-11T07:34:25.000Z</time>
      </trkpt>
      <trkpt lat="45.45497" lon="4.91971">
        <ele>414.7</ele>
        <time>2023-06-11T07:34:30.000Z</time>
      </trkpt>
      <trkpt lat="45.45508" lon="4.91997">
        <ele>414.9</ele>
        <time>2023-06-11T07:34:36.000Z</time>
      </trkpt>
      <trkpt lat="45.45522" lon="4.9203">
        <ele>415.2</ele>
        <time>2023-06-11T07:34:43.000Z</time>
      </trkpt>
      <trkpt lat="45.45525" lon="4.92038">
        <ele>415.3</ele>
        <time>2023-06-11T07:34:45.000Z</time>
      </trkpt>
      <trkpt lat="45.45528" lon="4.92045">
        <ele>415.3</ele>
        <time>2023-06-11T07:34:47.000Z</time>
      </trkpt>
      <trkpt lat="45.45532" lon="4.92051">
        <ele>415.4</ele>
        <time>2023-06-11T07:34:49.000Z</time>
      </trkpt>
      <trkpt lat="45.45535" lon="4.92063">
        <ele>415.5</ele>
        <time>2023-06-11T07:34:51.000Z</time>
      </trkpt>
      <trkpt lat="45.45543" lon="4.92102">
        <ele>415.8</ele>
        <time>2023-06-11T07:34:57.000Z</time>
      </trkpt>
      <trkpt lat="45.45541" lon="4.92113">
        <ele>415.8</ele>
        <time>2023-06-11T07:34:59.000Z</time>
      </trkpt>
      <trkpt lat="45.45533" lon="4.9212">
        <ele>415.8</ele>
        <time>2023-06-11T07:35:01.000Z</time>
      </trkpt>
      <trkpt lat="45.45528" lon="4.92121">
        <ele>415.7</ele>
        <time>2023-06-11T07:35:02.000Z</time>
      </trkpt>
      <trkpt lat="45.45519" lon="4.92116">
        <ele>415.6</ele>
        <time>2023-06-11T07:35:04.000Z</time>
      </trkpt>
      <trkpt lat="45.4551" lon="4.92111">
        <ele>415.5</ele>
        <time>2023-06-11T07:35:06.000Z</time>
      </trkpt>
      <trkpt lat="45.45496" lon="4.92105">
        <ele>415.2</ele>
        <time>2023-06-11T07:35:09.000Z</time>
      </trkpt>
      <trkpt lat="45.4547" lon="4.92091">
        <ele>414.6</ele>
        <time>2023-06-11T07:35:14.000Z</time>
      </trkpt>
      <trkpt lat="45.45458" lon="4.92086">
        <ele>414.4</ele>
        <time>2023-06-11T07:35:16.000Z</time>
      </trkpt>
      <trkpt lat="45.45453" lon="4.92083">
        <ele>414.2</ele>
        <time>2023-06-11T07:35:17.000Z</time>
      </trkpt>
      <trkpt lat="45.4543" lon="4.92073">
        <ele>413.8</ele>
        <time>2023-06-11T07:35:21.000Z</time>
      </trkpt>
      <trkpt lat="45.45401" lon="4.9206">
        <ele>413.3</ele>
        <time>2023-06-11T07:35:26.000Z</time>
      </trkpt>
      <trkpt lat="45.45383" lon="4.92053">
        <ele>413.1</ele>
        <time>2023-06-11T07:35:29.000Z</time>
      </trkpt>
      <trkpt lat="45.45353" lon="4.9204">
        <ele>412.7</ele>
        <time>2023-06-11T07:35:34.000Z</time>
      </trkpt>
      <trkpt lat="45.45341" lon="4.92035">
        <ele>412.7</ele>
        <time>2023-06-11T07:35:36.000Z</time>
      </trkpt>
      <trkpt lat="45.45301" lon="4.92018">
        <ele>412.6</ele>
        <time>2023-06-11T07:35:43.000Z</time>
      </trkpt>
      <trkpt lat="45.45263" lon="4.92">
        <ele>412.6</ele>
        <time>2023-06-11T07:35:50.000Z</time>
      </trkpt>
      <trkpt lat="45.45258" lon="4.91998">
        <ele>412.6</ele>
        <time>2023-06-11T07:35:51.000Z</time>
      </trkpt>
      <trkpt lat="45.45248" lon="4.91999">
        <ele>412.8</ele>
        <time>2023-06-11T07:35:53.000Z</time>
      </trkpt>
      <trkpt lat="45.4524" lon="4.92005">
        <ele>413.1</ele>
        <time>2023-06-11T07:35:55.000Z</time>
      </trkpt>
      <trkpt lat="45.4523" lon="4.92016">
        <ele>413.4</ele>
        <time>2023-06-11T07:35:58.000Z</time>
      </trkpt>
      <trkpt lat="45.45213" lon="4.92043">
        <ele>413.8</ele>
        <time>2023-06-11T07:36:04.000Z</time>
      </trkpt>
      <trkpt lat="45.45204" lon="4.92062">
        <ele>413.9</ele>
        <time>2023-06-11T07:36:08.000Z</time>
      </trkpt>
      <trkpt lat="45.45195" lon="4.92077">
        <ele>413.9</ele>
        <time>2023-06-11T07:36:11.000Z</time>
      </trkpt>
      <trkpt lat="45.45186" lon="4.92092">
        <ele>413.7</ele>
        <time>2023-06-11T07:36:14.000Z</time>
      </trkpt>
      <trkpt lat="45.45183" lon="4.92097">
        <ele>413.6</ele>
        <time>2023-06-11T07:36:15.000Z</time>
      </trkpt>
      <trkpt lat="45.45177" lon="4.92109">
        <ele>413.4</ele>
        <time>2023-06-11T07:36:17.000Z</time>
      </trkpt>
      <trkpt lat="45.4516" lon="4.92146">
        <ele>412.8</ele>
        <time>2023-06-11T07:36:23.000Z</time>
      </trkpt>
      <trkpt lat="45.45156" lon="4.92151">
        <ele>412.7</ele>
        <time>2023-06-11T07:36:24.000Z</time>
      </trkpt>
      <trkpt lat="45.4515" lon="4.92161">
        <ele>412.5</ele>
        <time>2023-06-11T07:36:26.000Z</time>
      </trkpt>
      <trkpt lat="45.45146" lon="4.92166">
        <ele>412.4</ele>
        <time>2023-06-11T07:36:27.000Z</time>
      </trkpt>
      <trkpt lat="45.45141" lon="4.9217">
        <ele>412.2</ele>
        <time>2023-06-11T07:36:28.000Z</time>
      </trkpt>
      <trkpt lat="45.45129" lon="4.9217">
        <ele>411.9</ele>
        <time>2023-06-11T07:36:30.000Z</time>
      </trkpt>
      <trkpt lat="45.45123" lon="4.9217">
        <ele>411.8</ele>
        <time>2023-06-11T07:36:31.000Z</time>
      </trkpt>
      <trkpt lat="45.45112" lon="4.92174">
        <ele>411.6</ele>
        <time>2023-06-11T07:36:33.000Z</time>
      </trkpt>
      <trkpt lat="45.45108" lon="4.92178">
        <ele>411.5</ele>
        <time>2023-06-11T07:36:34.000Z</time>
      </trkpt>
      <trkpt lat="45.45104" lon="4.92183">
        <ele>411.3</ele>
        <time>2023-06-11T07:36:35.000Z</time>
      </trkpt>
      <trkpt lat="45.45098" lon="4.92196">
        <ele>411.1</ele>
        <time>2023-06-11T07:36:37.000Z</time>
      </trkpt>
      <trkpt lat="45.45095" lon="4.92202">
        <ele>410.9</ele>
        <time>2023-06-11T07:36:38.000Z</time>
      </trkpt>
      <trkpt lat="45.45091" lon="4.92208">
        <ele>410.8</ele>
        <time>2023-06-11T07:36:39.000Z</time>
      </trkpt>
      <trkpt lat="45.45087" lon="4.92213">
        <ele>410.6</ele>
        <time>2023-06-11T07:36:40.000Z</time>
      </trkpt>
      <trkpt lat="45.45079" lon="4.92226">
        <ele>410.1</ele>
        <time>2023-06-11T07:36:42.000Z</time>
      </trkpt>
      <trkpt lat="45.4507" lon="4.92239">
        <ele>409.5</ele>
        <time>2023-06-11T07:36:44.000Z</time>
      </trkpt>
      <trkpt lat="45.45061" lon="4.92253">
        <ele>409</ele>
        <time>2023-06-11T07:36:46.000Z</time>
      </trkpt>
      <trkpt lat="45.45044" lon="4.92275">
        <ele>408.3</ele>
        <time>2023-06-11T07:36:49.000Z</time>
      </trkpt>
      <trkpt lat="45.45018" lon="4.92305">
        <ele>407.3</ele>
        <time>2023-06-11T07:36:53.000Z</time>
      </trkpt>
      <trkpt lat="45.45012" lon="4.92313">
        <ele>407.1</ele>
        <time>2023-06-11T07:36:54.000Z</time>
      </trkpt>
      <trkpt lat="45.44999" lon="4.92327">
        <ele>406.8</ele>
        <time>2023-06-11T07:36:56.000Z</time>
      </trkpt>
      <trkpt lat="45.44987" lon="4.9234">
        <ele>406.6</ele>
        <time>2023-06-11T07:36:58.000Z</time>
      </trkpt>
      <trkpt lat="45.44976" lon="4.92355">
        <ele>406.4</ele>
        <time>2023-06-11T07:37:00.000Z</time>
      </trkpt>
      <trkpt lat="45.44971" lon="4.92364">
        <ele>406.2</ele>
        <time>2023-06-11T07:37:01.000Z</time>
      </trkpt>
      <trkpt lat="45.44952" lon="4.92395">
        <ele>405.6</ele>
        <time>2023-06-11T07:37:05.000Z</time>
      </trkpt>
      <trkpt lat="45.44947" lon="4.92403">
        <ele>405.4</ele>
        <time>2023-06-11T07:37:06.000Z</time>
      </trkpt>
      <trkpt lat="45.44931" lon="4.92432">
        <ele>404.5</ele>
        <time>2023-06-11T07:37:10.000Z</time>
      </trkpt>
      <trkpt lat="45.44928" lon="4.9244">
        <ele>404.2</ele>
        <time>2023-06-11T07:37:11.000Z</time>
      </trkpt>
      <trkpt lat="45.44926" lon="4.92448">
        <ele>403.9</ele>
        <time>2023-06-11T07:37:12.000Z</time>
      </trkpt>
      <trkpt lat="45.44922" lon="4.92473">
        <ele>402.5</ele>
        <time>2023-06-11T07:37:15.000Z</time>
      </trkpt>
      <trkpt lat="45.44921" lon="4.92482">
        <ele>401.8</ele>
        <time>2023-06-11T07:37:16.000Z</time>
      </trkpt>
      <trkpt lat="45.44917" lon="4.92502">
        <ele>400.4</ele>
        <time>2023-06-11T07:37:18.000Z</time>
      </trkpt>
      <trkpt lat="45.44915" lon="4.92512">
        <ele>399.6</ele>
        <time>2023-06-11T07:37:19.000Z</time>
      </trkpt>
      <trkpt lat="45.44909" lon="4.92534">
        <ele>397.9</ele>
        <time>2023-06-11T07:37:21.000Z</time>
      </trkpt>
      <trkpt lat="45.44892" lon="4.92576">
        <ele>394.3</ele>
        <time>2023-06-11T07:37:25.000Z</time>
      </trkpt>
      <trkpt lat="45.44888" lon="4.92587">
        <ele>393.4</ele>
        <time>2023-06-11T07:37:26.000Z</time>
      </trkpt>
      <trkpt lat="45.44881" lon="4.92622">
        <ele>390.5</ele>
        <time>2023-06-11T07:37:29.000Z</time>
      </trkpt>
      <trkpt lat="45.44878" lon="4.92644">
        <ele>388.6</ele>
        <time>2023-06-11T07:37:31.000Z</time>
      </trkpt>
      <trkpt lat="45.44878" lon="4.92654">
        <ele>387.7</ele>
        <time>2023-06-11T07:37:32.000Z</time>
      </trkpt>
      <trkpt lat="45.44876" lon="4.92664">
        <ele>386.9</ele>
        <time>2023-06-11T07:37:33.000Z</time>
      </trkpt>
      <trkpt lat="45.44874" lon="4.92673">
        <ele>385.9</ele>
        <time>2023-06-11T07:37:34.000Z</time>
      </trkpt>
      <trkpt lat="45.44871" lon="4.92682">
        <ele>385</ele>
        <time>2023-06-11T07:37:35.000Z</time>
      </trkpt>
      <trkpt lat="45.44868" lon="4.92692">
        <ele>383.9</ele>
        <time>2023-06-11T07:37:36.000Z</time>
      </trkpt>
      <trkpt lat="45.44864" lon="4.92702">
        <ele>382.8</ele>
        <time>2023-06-11T07:37:37.000Z</time>
      </trkpt>
      <trkpt lat="45.44856" lon="4.92725">
        <ele>380.4</ele>
        <time>2023-06-11T07:37:39.000Z</time>
      </trkpt>
      <trkpt lat="45.44851" lon="4.92738">
        <ele>379.3</ele>
        <time>2023-06-11T07:37:40.000Z</time>
      </trkpt>
      <trkpt lat="45.44847" lon="4.9275">
        <ele>378.1</ele>
        <time>2023-06-11T07:37:41.000Z</time>
      </trkpt>
      <trkpt lat="45.44839" lon="4.92773">
        <ele>376.1</ele>
        <time>2023-06-11T07:37:43.000Z</time>
      </trkpt>
      <trkpt lat="45.44832" lon="4.92791">
        <ele>374.2</ele>
        <time>2023-06-11T07:37:45.000Z</time>
      </trkpt>
      <trkpt lat="45.44824" lon="4.92811">
        <ele>371.9</ele>
        <time>2023-06-11T07:37:47.000Z</time>
      </trkpt>
      <trkpt lat="45.44814" lon="4.92833">
        <ele>369.5</ele>
        <time>2023-06-11T07:37:49.000Z</time>
      </trkpt>
      <trkpt lat="45.44809" lon="4.92846">
        <ele>368.2</ele>
        <time>2023-06-11T07:37:50.000Z</time>
      </trkpt>
      <trkpt lat="45.44804" lon="4.92859">
        <ele>366.7</ele>
        <time>2023-06-11T07:37:51.000Z</time>
      </trkpt>
      <trkpt lat="45.44794" lon="4.92888">
        <ele>362.9</ele>
        <time>2023-06-11T07:37:53.000Z</time>
      </trkpt>
      <trkpt lat="45.44784" lon="4.92921">
        <ele>358.5</ele>
        <time>2023-06-11T07:37:55.000Z</time>
      </trkpt>
      <trkpt lat="45.44773" lon="4.92953">
        <ele>354.7</ele>
        <time>2023-06-11T07:37:57.000Z</time>
      </trkpt>
      <trkpt lat="45.44766" lon="4.92968">
        <ele>353</ele>
        <time>2023-06-11T07:37:58.000Z</time>
      </trkpt>
      <trkpt lat="45.44758" lon="4.92982">
        <ele>351.3</ele>
        <time>2023-06-11T07:37:59.000Z</time>
      </trkpt>
      <trkpt lat="45.44748" lon="4.92996">
        <ele>349.9</ele>
        <time>2023-06-11T07:38:00.000Z</time>
      </trkpt>
      <trkpt lat="45.44738" lon="4.93008">
        <ele>348.8</ele>
        <time>2023-06-11T07:38:01.000Z</time>
      </trkpt>
      <trkpt lat="45.44728" lon="4.9302">
        <ele>348.2</ele>
        <time>2023-06-11T07:38:02.000Z</time>
      </trkpt>
      <trkpt lat="45.44719" lon="4.93034">
        <ele>347.8</ele>
        <time>2023-06-11T07:38:03.000Z</time>
      </trkpt>
      <trkpt lat="45.44711" lon="4.93047">
        <ele>347.6</ele>
        <time>2023-06-11T07:38:04.000Z</time>
      </trkpt>
      <trkpt lat="45.44704" lon="4.93061">
        <ele>347.5</ele>
        <time>2023-06-11T07:38:05.000Z</time>
      </trkpt>
      <trkpt lat="45.44697" lon="4.93073">
        <ele>347.5</ele>
        <time>2023-06-11T07:38:06.000Z</time>
      </trkpt>
      <trkpt lat="45.44688" lon="4.93084">
        <ele>347.7</ele>
        <time>2023-06-11T07:38:07.000Z</time>
      </trkpt>
      <trkpt lat="45.4468" lon="4.93093">
        <ele>348.1</ele>
        <time>2023-06-11T07:38:08.000Z</time>
      </trkpt>
      <trkpt lat="45.44671" lon="4.93099">
        <ele>348.7</ele>
        <time>2023-06-11T07:38:09.000Z</time>
      </trkpt>
      <trkpt lat="45.44662" lon="4.93105">
        <ele>349.5</ele>
        <time>2023-06-11T07:38:10.000Z</time>
      </trkpt>
      <trkpt lat="45.44654" lon="4.93108">
        <ele>350.4</ele>
        <time>2023-06-11T07:38:11.000Z</time>
      </trkpt>
      <trkpt lat="45.44643" lon="4.93111">
        <ele>351.5</ele>
        <time>2023-06-11T07:38:13.000Z</time>
      </trkpt>
      <trkpt lat="45.44641" lon="4.93114">
        <ele>352</ele>
        <time>2023-06-11T07:38:14.000Z</time>
      </trkpt>
      <trkpt lat="45.44642" lon="4.93116">
        <ele>352</ele>
        <time>2023-06-11T07:38:15.000Z</time>
      </trkpt>
      <trkpt lat="45.44644" lon="4.93118">
        <ele>351.9</ele>
        <time>2023-06-11T07:38:16.000Z</time>
      </trkpt>
      <trkpt lat="45.44646" lon="4.93125">
        <ele>351.9</ele>
        <time>2023-06-11T07:38:18.000Z</time>
      </trkpt>
      <trkpt lat="45.44646" lon="4.93128">
        <ele>351.2</ele>
        <time>2023-06-11T07:38:19.000Z</time>
      </trkpt>
      <trkpt lat="45.4463" lon="4.93136">
        <ele>350.4</ele>
        <time>2023-06-11T07:38:23.000Z</time>
      </trkpt>
      <trkpt lat="45.4462" lon="4.93139">
        <ele>349.9</ele>
        <time>2023-06-11T07:38:26.000Z</time>
      </trkpt>
      <trkpt lat="45.44597" lon="4.93149">
        <ele>348.8</ele>
        <time>2023-06-11T07:38:29.000Z</time>
      </trkpt>
      <trkpt lat="45.44569" lon="4.93166">
        <ele>347.3</ele>
        <time>2023-06-11T07:38:34.000Z</time>
      </trkpt>
      <trkpt lat="45.44563" lon="4.9317">
        <ele>346.7</ele>
        <time>2023-06-11T07:38:35.000Z</time>
      </trkpt>
      <trkpt lat="45.44527" lon="4.93189">
        <ele>343.4</ele>
        <time>2023-06-11T07:38:40.000Z</time>
      </trkpt>
      <trkpt lat="45.4451" lon="4.93194">
        <ele>341.6</ele>
        <time>2023-06-11T07:38:42.000Z</time>
      </trkpt>
      <trkpt lat="45.44501" lon="4.93198">
        <ele>340.7</ele>
        <time>2023-06-11T07:38:43.000Z</time>
      </trkpt>
      <trkpt lat="45.44494" lon="4.93204">
        <ele>339.8</ele>
        <time>2023-06-11T07:38:44.000Z</time>
      </trkpt>
      <trkpt lat="45.44489" lon="4.93212">
        <ele>338.4</ele>
        <time>2023-06-11T07:38:45.000Z</time>
      </trkpt>
      <trkpt lat="45.44487" lon="4.93222">
        <ele>337.5</ele>
        <time>2023-06-11T07:38:46.000Z</time>
      </trkpt>
      <trkpt lat="45.44489" lon="4.93232">
        <ele>336.5</ele>
        <time>2023-06-11T07:38:47.000Z</time>
      </trkpt>
      <trkpt lat="45.44493" lon="4.93243">
        <ele>335.4</ele>
        <time>2023-06-11T07:38:48.000Z</time>
      </trkpt>
      <trkpt lat="45.44499" lon="4.93253">
        <ele>334.3</ele>
        <time>2023-06-11T07:38:49.000Z</time>
      </trkpt>
      <trkpt lat="45.44511" lon="4.93275">
        <ele>331.8</ele>
        <time>2023-06-11T07:38:51.000Z</time>
      </trkpt>
      <trkpt lat="45.44517" lon="4.93287">
        <ele>330.6</ele>
        <time>2023-06-11T07:38:52.000Z</time>
      </trkpt>
      <trkpt lat="45.4453" lon="4.93312">
        <ele>328.1</ele>
        <time>2023-06-11T07:38:54.000Z</time>
      </trkpt>
      <trkpt lat="45.44538" lon="4.93323">
        <ele>327.2</ele>
        <time>2023-06-11T07:38:55.000Z</time>
      </trkpt>
      <trkpt lat="45.44546" lon="4.93334">
        <ele>326.2</ele>
        <time>2023-06-11T07:38:56.000Z</time>
      </trkpt>
      <trkpt lat="45.44556" lon="4.93344">
        <ele>325.3</ele>
        <time>2023-06-11T07:38:57.000Z</time>
      </trkpt>
      <trkpt lat="45.44565" lon="4.93354">
        <ele>324.4</ele>
        <time>2023-06-11T07:38:58.000Z</time>
      </trkpt>
      <trkpt lat="45.44574" lon="4.93363">
        <ele>323.6</ele>
        <time>2023-06-11T07:38:59.000Z</time>
      </trkpt>
      <trkpt lat="45.44583" lon="4.93372">
        <ele>322.7</ele>
        <time>2023-06-11T07:39:00.000Z</time>
      </trkpt>
      <trkpt lat="45.44591" lon="4.93381">
        <ele>321.8</ele>
        <time>2023-06-11T07:39:01.000Z</time>
      </trkpt>
      <trkpt lat="45.44597" lon="4.93391">
        <ele>321</ele>
        <time>2023-06-11T07:39:02.000Z</time>
      </trkpt>
      <trkpt lat="45.44601" lon="4.93402">
        <ele>320.3</ele>
        <time>2023-06-11T07:39:03.000Z</time>
      </trkpt>
      <trkpt lat="45.44601" lon="4.93413">
        <ele>319.5</ele>
        <time>2023-06-11T07:39:04.000Z</time>
      </trkpt>
      <trkpt lat="45.446" lon="4.93425">
        <ele>318.7</ele>
        <time>2023-06-11T07:39:05.000Z</time>
      </trkpt>
      <trkpt lat="45.44597" lon="4.93437">
        <ele>317.8</ele>
        <time>2023-06-11T07:39:06.000Z</time>
      </trkpt>
      <trkpt lat="45.44594" lon="4.93449">
        <ele>317</ele>
        <time>2023-06-11T07:39:07.000Z</time>
      </trkpt>
      <trkpt lat="45.4459" lon="4.93462">
        <ele>316.1</ele>
        <time>2023-06-11T07:39:08.000Z</time>
      </trkpt>
      <trkpt lat="45.44588" lon="4.93475">
        <ele>315.3</ele>
        <time>2023-06-11T07:39:09.000Z</time>
      </trkpt>
      <trkpt lat="45.44585" lon="4.93488">
        <ele>314.4</ele>
        <time>2023-06-11T07:39:10.000Z</time>
      </trkpt>
      <trkpt lat="45.44583" lon="4.93502">
        <ele>313.6</ele>
        <time>2023-06-11T07:39:11.000Z</time>
      </trkpt>
      <trkpt lat="45.4458" lon="4.93531">
        <ele>312.2</ele>
        <time>2023-06-11T07:39:13.000Z</time>
      </trkpt>
      <trkpt lat="45.44578" lon="4.93559">
        <ele>311.1</ele>
        <time>2023-06-11T07:39:15.000Z</time>
      </trkpt>
      <trkpt lat="45.44577" lon="4.93573">
        <ele>310.7</ele>
        <time>2023-06-11T07:39:16.000Z</time>
      </trkpt>
      <trkpt lat="45.44577" lon="4.93587">
        <ele>310.3</ele>
        <time>2023-06-11T07:39:17.000Z</time>
      </trkpt>
      <trkpt lat="45.44575" lon="4.93615">
        <ele>309.4</ele>
        <time>2023-06-11T07:39:19.000Z</time>
      </trkpt>
      <trkpt lat="45.44575" lon="4.93642">
        <ele>308.7</ele>
        <time>2023-06-11T07:39:21.000Z</time>
      </trkpt>
      <trkpt lat="45.44573" lon="4.93669">
        <ele>308.1</ele>
        <time>2023-06-11T07:39:23.000Z</time>
      </trkpt>
      <trkpt lat="45.44572" lon="4.93682">
        <ele>307.9</ele>
        <time>2023-06-11T07:39:24.000Z</time>
      </trkpt>
      <trkpt lat="45.44571" lon="4.93706">
        <ele>307.5</ele>
        <time>2023-06-11T07:39:26.000Z</time>
      </trkpt>
      <trkpt lat="45.4457" lon="4.93741">
        <ele>307.8</ele>
        <time>2023-06-11T07:39:29.000Z</time>
      </trkpt>
      <trkpt lat="45.44569" lon="4.93751">
        <ele>307.8</ele>
        <time>2023-06-11T07:39:30.000Z</time>
      </trkpt>
      <trkpt lat="45.44567" lon="4.93762">
        <ele>307.8</ele>
        <time>2023-06-11T07:39:31.000Z</time>
      </trkpt>
      <trkpt lat="45.44564" lon="4.93771">
        <ele>307.9</ele>
        <time>2023-06-11T07:39:32.000Z</time>
      </trkpt>
      <trkpt lat="45.4456" lon="4.9378">
        <ele>308</ele>
        <time>2023-06-11T07:39:33.000Z</time>
      </trkpt>
      <trkpt lat="45.44545" lon="4.93811">
        <ele>309.3</ele>
        <time>2023-06-11T07:39:37.000Z</time>
      </trkpt>
      <trkpt lat="45.44538" lon="4.93825">
        <ele>310.4</ele>
        <time>2023-06-11T07:39:39.000Z</time>
      </trkpt>
      <trkpt lat="45.44531" lon="4.93843">
        <ele>312.4</ele>
        <time>2023-06-11T07:39:42.000Z</time>
      </trkpt>
      <trkpt lat="45.4453" lon="4.93847">
        <ele>313</ele>
        <time>2023-06-11T07:39:43.000Z</time>
      </trkpt>
      <trkpt lat="45.44528" lon="4.93859">
        <ele>314.3</ele>
        <time>2023-06-11T07:39:46.000Z</time>
      </trkpt>
      <trkpt lat="45.44527" lon="4.93868">
        <ele>315.3</ele>
        <time>2023-06-11T07:39:49.000Z</time>
      </trkpt>
      <trkpt lat="45.44527" lon="4.93871">
        <ele>315.6</ele>
        <time>2023-06-11T07:39:50.000Z</time>
      </trkpt>
      <trkpt lat="45.44527" lon="4.93877">
        <ele>316.2</ele>
        <time>2023-06-11T07:39:52.000Z</time>
      </trkpt>
      <trkpt lat="45.44528" lon="4.93884">
        <ele>316.9</ele>
        <time>2023-06-11T07:39:55.000Z</time>
      </trkpt>
      <trkpt lat="45.44531" lon="4.93891">
        <ele>317.5</ele>
        <time>2023-06-11T07:39:58.000Z</time>
      </trkpt>
      <trkpt lat="45.44535" lon="4.93895">
        <ele>318.2</ele>
        <time>2023-06-11T07:40:01.000Z</time>
      </trkpt>
      <trkpt lat="45.44541" lon="4.93897">
        <ele>318.8</ele>
        <time>2023-06-11T07:40:04.000Z</time>
      </trkpt>
      <trkpt lat="45.44549" lon="4.93899">
        <ele>319.6</ele>
        <time>2023-06-11T07:40:08.000Z</time>
      </trkpt>
      <trkpt lat="45.44554" lon="4.93901">
        <ele>320.1</ele>
        <time>2023-06-11T07:40:11.000Z</time>
      </trkpt>
      <trkpt lat="45.44556" lon="4.93902">
        <ele>320.2</ele>
        <time>2023-06-11T07:40:12.000Z</time>
      </trkpt>
      <trkpt lat="45.44557" lon="4.93903">
        <ele>320.4</ele>
        <time>2023-06-11T07:40:13.000Z</time>
      </trkpt>
      <trkpt lat="45.44565" lon="4.93906">
        <ele>321</ele>
        <time>2023-06-11T07:40:17.000Z</time>
      </trkpt>
      <trkpt lat="45.44572" lon="4.9391">
        <ele>321.6</ele>
        <time>2023-06-11T07:40:21.000Z</time>
      </trkpt>
      <trkpt lat="45.4458" lon="4.93914">
        <ele>322.2</ele>
        <time>2023-06-11T07:40:25.000Z</time>
      </trkpt>
      <trkpt lat="45.44592" lon="4.93917">
        <ele>323.2</ele>
        <time>2023-06-11T07:40:31.000Z</time>
      </trkpt>
      <trkpt lat="45.44607" lon="4.93921">
        <ele>324.5</ele>
        <time>2023-06-11T07:40:38.000Z</time>
      </trkpt>
      <trkpt lat="45.44614" lon="4.93923">
        <ele>325.1</ele>
        <time>2023-06-11T07:40:41.000Z</time>
      </trkpt>
      <trkpt lat="45.44616" lon="4.93924">
        <ele>325.4</ele>
        <time>2023-06-11T07:40:42.000Z</time>
      </trkpt>
      <trkpt lat="45.44626" lon="4.93925">
        <ele>326.6</ele>
        <time>2023-06-11T07:40:47.000Z</time>
      </trkpt>
      <trkpt lat="45.44636" lon="4.93928">
        <ele>328</ele>
        <time>2023-06-11T07:40:54.000Z</time>
      </trkpt>
      <trkpt lat="45.44643" lon="4.93929">
        <ele>328.9</ele>
        <time>2023-06-11T07:40:59.000Z</time>
      </trkpt>
      <trkpt lat="45.44648" lon="4.9393">
        <ele>329.6</ele>
        <time>2023-06-11T07:41:03.000Z</time>
      </trkpt>
      <trkpt lat="45.44655" lon="4.93933">
        <ele>330.6</ele>
        <time>2023-06-11T07:41:08.000Z</time>
      </trkpt>
      <trkpt lat="45.4466" lon="4.93934">
        <ele>331.2</ele>
        <time>2023-06-11T07:41:11.000Z</time>
      </trkpt>
      <trkpt lat="45.44664" lon="4.93935">
        <ele>331.7</ele>
        <time>2023-06-11T07:41:13.000Z</time>
      </trkpt>
      <trkpt lat="45.4467" lon="4.93936">
        <ele>332.6</ele>
        <time>2023-06-11T07:41:17.000Z</time>
      </trkpt>
      <trkpt lat="45.44677" lon="4.93937">
        <ele>333.7</ele>
        <time>2023-06-11T07:41:22.000Z</time>
      </trkpt>
      <trkpt lat="45.44683" lon="4.93938">
        <ele>334.7</ele>
        <time>2023-06-11T07:41:26.000Z</time>
      </trkpt>
      <trkpt lat="45.44689" lon="4.93941">
        <ele>335.6</ele>
        <time>2023-06-11T07:41:30.000Z</time>
      </trkpt>
      <trkpt lat="45.44691" lon="4.93941">
        <ele>336.1</ele>
        <time>2023-06-11T07:41:32.000Z</time>
      </trkpt>
      <trkpt lat="45.44697" lon="4.93943">
        <ele>337.1</ele>
        <time>2023-06-11T07:41:36.000Z</time>
      </trkpt>
      <trkpt lat="45.447" lon="4.93944">
        <ele>337.7</ele>
        <time>2023-06-11T07:41:39.000Z</time>
      </trkpt>
      <trkpt lat="45.44703" lon="4.93945">
        <ele>338.1</ele>
        <time>2023-06-11T07:41:41.000Z</time>
      </trkpt>
      <trkpt lat="45.4471" lon="4.93947">
        <ele>339.3</ele>
        <time>2023-06-11T07:41:46.000Z</time>
      </trkpt>
      <trkpt lat="45.44712" lon="4.93947">
        <ele>339.5</ele>
        <time>2023-06-11T07:41:47.000Z</time>
      </trkpt>
      <trkpt lat="45.44717" lon="4.93948">
        <ele>340.3</ele>
        <time>2023-06-11T07:41:51.000Z</time>
      </trkpt>
      <trkpt lat="45.44724" lon="4.93949">
        <ele>341.3</ele>
        <time>2023-06-11T07:41:56.000Z</time>
      </trkpt>
      <trkpt lat="45.44725" lon="4.9395">
        <ele>341.5</ele>
        <time>2023-06-11T07:41:57.000Z</time>
      </trkpt>
      <trkpt lat="45.44736" lon="4.93953">
        <ele>342.9</ele>
        <time>2023-06-11T07:42:04.000Z</time>
      </trkpt>
      <trkpt lat="45.44741" lon="4.93954">
        <ele>343.6</ele>
        <time>2023-06-11T07:42:07.000Z</time>
      </trkpt>
      <trkpt lat="45.44744" lon="4.93955">
        <ele>344.1</ele>
        <time>2023-06-11T07:42:09.000Z</time>
      </trkpt>
      <trkpt lat="45.44752" lon="4.93958">
        <ele>345.3</ele>
        <time>2023-06-11T07:42:15.000Z</time>
      </trkpt>
      <trkpt lat="45.44753" lon="4.93959">
        <ele>345.6</ele>
        <time>2023-06-11T07:42:16.000Z</time>
      </trkpt>
      <trkpt lat="45.44761" lon="4.93963">
        <ele>347</ele>
        <time>2023-06-11T07:42:22.000Z</time>
      </trkpt>
      <trkpt lat="45.44763" lon="4.93965">
        <ele>347.4</ele>
        <time>2023-06-11T07:42:24.000Z</time>
      </trkpt>
      <trkpt lat="45.44767" lon="4.93968">
        <ele>348.2</ele>
        <time>2023-06-11T07:42:27.000Z</time>
      </trkpt>
      <trkpt lat="45.44769" lon="4.93969">
        <ele>348.6</ele>
        <time>2023-06-11T07:42:29.000Z</time>
      </trkpt>
      <trkpt lat="45.44774" lon="4.93973">
        <ele>349.5</ele>
        <time>2023-06-11T07:42:33.000Z</time>
      </trkpt>
      <trkpt lat="45.44775" lon="4.93973">
        <ele>349.8</ele>
        <time>2023-06-11T07:42:34.000Z</time>
      </trkpt>
      <trkpt lat="45.4478" lon="4.93977">
        <ele>350.8</ele>
        <time>2023-06-11T07:42:38.000Z</time>
      </trkpt>
      <trkpt lat="45.44786" lon="4.9398">
        <ele>352</ele>
        <time>2023-06-11T07:42:43.000Z</time>
      </trkpt>
      <trkpt lat="45.44789" lon="4.93982">
        <ele>352.6</ele>
        <time>2023-06-11T07:42:46.000Z</time>
      </trkpt>
      <trkpt lat="45.44793" lon="4.93983">
        <ele>353.3</ele>
        <time>2023-06-11T07:42:49.000Z</time>
      </trkpt>
      <trkpt lat="45.44798" lon="4.93985">
        <ele>354.3</ele>
        <time>2023-06-11T07:42:53.000Z</time>
      </trkpt>
      <trkpt lat="45.44803" lon="4.93987">
        <ele>355.2</ele>
        <time>2023-06-11T07:42:57.000Z</time>
      </trkpt>
      <trkpt lat="45.44804" lon="4.93987">
        <ele>355.4</ele>
        <time>2023-06-11T07:42:58.000Z</time>
      </trkpt>
      <trkpt lat="45.4481" lon="4.93989">
        <ele>356.3</ele>
        <time>2023-06-11T07:43:02.000Z</time>
      </trkpt>
      <trkpt lat="45.44815" lon="4.9399">
        <ele>357.1</ele>
        <time>2023-06-11T07:43:06.000Z</time>
      </trkpt>
      <trkpt lat="45.44819" lon="4.93991">
        <ele>357.7</ele>
        <time>2023-06-11T07:43:09.000Z</time>
      </trkpt>
      <trkpt lat="45.44822" lon="4.93992">
        <ele>358.2</ele>
        <time>2023-06-11T07:43:11.000Z</time>
      </trkpt>
      <trkpt lat="45.4483" lon="4.93996">
        <ele>359.4</ele>
        <time>2023-06-11T07:43:17.000Z</time>
      </trkpt>
      <trkpt lat="45.44832" lon="4.93997">
        <ele>359.9</ele>
        <time>2023-06-11T07:43:19.000Z</time>
      </trkpt>
      <trkpt lat="45.44834" lon="4.93997">
        <ele>360.1</ele>
        <time>2023-06-11T07:43:20.000Z</time>
      </trkpt>
      <trkpt lat="45.44835" lon="4.93997">
        <ele>360.2</ele>
        <time>2023-06-11T07:43:21.000Z</time>
      </trkpt>
      <trkpt lat="45.44836" lon="4.93998">
        <ele>360.4</ele>
        <time>2023-06-11T07:43:22.000Z</time>
      </trkpt>
      <trkpt lat="45.44839" lon="4.93998">
        <ele>360.8</ele>
        <time>2023-06-11T07:43:24.000Z</time>
      </trkpt>
      <trkpt lat="45.44842" lon="4.93998">
        <ele>361.2</ele>
        <time>2023-06-11T07:43:26.000Z</time>
      </trkpt>
      <trkpt lat="45.44849" lon="4.93996">
        <ele>362.2</ele>
        <time>2023-06-11T07:43:31.000Z</time>
      </trkpt>
      <trkpt lat="45.44857" lon="4.93993">
        <ele>363.3</ele>
        <time>2023-06-11T07:43:36.000Z</time>
      </trkpt>
      <trkpt lat="45.44862" lon="4.93991">
        <ele>364.2</ele>
        <time>2023-06-11T07:43:40.000Z</time>
      </trkpt>
      <trkpt lat="45.44865" lon="4.93991">
        <ele>364.6</ele>
        <time>2023-06-11T07:43:42.000Z</time>
      </trkpt>
      <trkpt lat="45.44867" lon="4.9399">
        <ele>364.8</ele>
        <time>2023-06-11T07:43:43.000Z</time>
      </trkpt>
      <trkpt lat="45.44876" lon="4.93991">
        <ele>366.5</ele>
        <time>2023-06-11T07:43:50.000Z</time>
      </trkpt>
      <trkpt lat="45.44878" lon="4.93992">
        <ele>366.7</ele>
        <time>2023-06-11T07:43:51.000Z</time>
      </trkpt>
      <trkpt lat="45.44881" lon="4.93997">
        <ele>367.3</ele>
        <time>2023-06-11T07:43:54.000Z</time>
      </trkpt>
      <trkpt lat="45.44885" lon="4.94005">
        <ele>368.3</ele>
        <time>2023-06-11T07:43:59.000Z</time>
      </trkpt>
      <trkpt lat="45.44886" lon="4.94007">
        <ele>368.4</ele>
        <time>2023-06-11T07:44:00.000Z</time>
      </trkpt>
      <trkpt lat="45.44887" lon="4.94008">
        <ele>368.6</ele>
        <time>2023-06-11T07:44:01.000Z</time>
      </trkpt>
      <trkpt lat="45.44888" lon="4.94011">
        <ele>369</ele>
        <time>2023-06-11T07:44:03.000Z</time>
      </trkpt>
      <trkpt lat="45.44892" lon="4.9402">
        <ele>369.9</ele>
        <time>2023-06-11T07:44:08.000Z</time>
      </trkpt>
      <trkpt lat="45.44893" lon="4.94021">
        <ele>370.1</ele>
        <time>2023-06-11T07:44:09.000Z</time>
      </trkpt>
      <trkpt lat="45.44898" lon="4.9403">
        <ele>371.1</ele>
        <time>2023-06-11T07:44:15.000Z</time>
      </trkpt>
      <trkpt lat="45.44902" lon="4.94037">
        <ele>371.7</ele>
        <time>2023-06-11T07:44:19.000Z</time>
      </trkpt>
      <trkpt lat="45.44903" lon="4.94038">
        <ele>371.9</ele>
        <time>2023-06-11T07:44:20.000Z</time>
      </trkpt>
      <trkpt lat="45.44908" lon="4.94048">
        <ele>372.8</ele>
        <time>2023-06-11T07:44:26.000Z</time>
      </trkpt>
      <trkpt lat="45.44912" lon="4.94055">
        <ele>373.5</ele>
        <time>2023-06-11T07:44:30.000Z</time>
      </trkpt>
      <trkpt lat="45.44914" lon="4.94059">
        <ele>373.8</ele>
        <time>2023-06-11T07:44:32.000Z</time>
      </trkpt>
      <trkpt lat="45.44918" lon="4.94069">
        <ele>374.8</ele>
        <time>2023-06-11T07:44:38.000Z</time>
      </trkpt>
      <trkpt lat="45.44923" lon="4.94083">
        <ele>375.9</ele>
        <time>2023-06-11T07:44:45.000Z</time>
      </trkpt>
      <trkpt lat="45.44929" lon="4.94096">
        <ele>377</ele>
        <time>2023-06-11T07:44:51.000Z</time>
      </trkpt>
      <trkpt lat="45.44934" lon="4.94104">
        <ele>377.6</ele>
        <time>2023-06-11T07:44:55.000Z</time>
      </trkpt>
      <trkpt lat="45.44936" lon="4.94108">
        <ele>377.9</ele>
        <time>2023-06-11T07:44:57.000Z</time>
      </trkpt>
      <trkpt lat="45.44943" lon="4.94121">
        <ele>378.8</ele>
        <time>2023-06-11T07:45:03.000Z</time>
      </trkpt>
      <trkpt lat="45.44945" lon="4.94123">
        <ele>378.9</ele>
        <time>2023-06-11T07:45:04.000Z</time>
      </trkpt>
      <trkpt lat="45.44955" lon="4.9414">
        <ele>379.9</ele>
        <time>2023-06-11T07:45:11.000Z</time>
      </trkpt>
      <trkpt lat="45.44961" lon="4.94151">
        <ele>380.5</ele>
        <time>2023-06-11T07:45:15.000Z</time>
      </trkpt>
      <trkpt lat="45.44965" lon="4.94159">
        <ele>380.9</ele>
        <time>2023-06-11T07:45:18.000Z</time>
      </trkpt>
      <trkpt lat="45.44977" lon="4.94181">
        <ele>382.4</ele>
        <time>2023-06-11T07:45:26.000Z</time>
      </trkpt>
      <trkpt lat="45.44981" lon="4.94189">
        <ele>383</ele>
        <time>2023-06-11T07:45:29.000Z</time>
      </trkpt>
      <trkpt lat="45.44986" lon="4.94199">
        <ele>383.9</ele>
        <time>2023-06-11T07:45:33.000Z</time>
      </trkpt>
      <trkpt lat="45.44991" lon="4.94211">
        <ele>384.9</ele>
        <time>2023-06-11T07:45:38.000Z</time>
      </trkpt>
      <trkpt lat="45.44994" lon="4.94216">
        <ele>385.4</ele>
        <time>2023-06-11T07:45:40.000Z</time>
      </trkpt>
      <trkpt lat="45.44999" lon="4.94227">
        <ele>386.5</ele>
        <time>2023-06-11T07:45:45.000Z</time>
      </trkpt>
      <trkpt lat="45.45001" lon="4.94231">
        <ele>386.9</ele>
        <time>2023-06-11T07:45:47.000Z</time>
      </trkpt>
      <trkpt lat="45.45003" lon="4.94235">
        <ele>387.3</ele>
        <time>2023-06-11T07:45:50.000Z</time>
      </trkpt>
      <trkpt lat="45.45007" lon="4.94247">
        <ele>388.2</ele>
        <time>2023-06-11T07:45:54.000Z</time>
      </trkpt>
      <trkpt lat="45.45009" lon="4.9425">
        <ele>388.4</ele>
        <time>2023-06-11T07:45:55.000Z</time>
      </trkpt>
      <trkpt lat="45.45012" lon="4.94258">
        <ele>389</ele>
        <time>2023-06-11T07:45:58.000Z</time>
      </trkpt>
      <trkpt lat="45.45016" lon="4.94272">
        <ele>390</ele>
        <time>2023-06-11T07:46:03.000Z</time>
      </trkpt>
      <trkpt lat="45.45017" lon="4.94275">
        <ele>390.2</ele>
        <time>2023-06-11T07:46:04.000Z</time>
      </trkpt>
      <trkpt lat="45.45023" lon="4.94294">
        <ele>391.5</ele>
        <time>2023-06-11T07:46:11.000Z</time>
      </trkpt>
      <trkpt lat="45.45024" lon="4.94296">
        <ele>391.7</ele>
        <time>2023-06-11T07:46:12.000Z</time>
      </trkpt>
      <trkpt lat="45.4503" lon="4.94311">
        <ele>393.2</ele>
        <time>2023-06-11T07:46:18.000Z</time>
      </trkpt>
      <trkpt lat="45.45031" lon="4.94313">
        <ele>393.4</ele>
        <time>2023-06-11T07:46:19.000Z</time>
      </trkpt>
      <trkpt lat="45.45035" lon="4.94323">
        <ele>394.4</ele>
        <time>2023-06-11T07:46:24.000Z</time>
      </trkpt>
      <trkpt lat="45.45037" lon="4.94327">
        <ele>394.9</ele>
        <time>2023-06-11T07:46:26.000Z</time>
      </trkpt>
      <trkpt lat="45.4504" lon="4.94331">
        <ele>395.5</ele>
        <time>2023-06-11T07:46:29.000Z</time>
      </trkpt>
      <trkpt lat="45.45046" lon="4.94341">
        <ele>396.6</ele>
        <time>2023-06-11T07:46:34.000Z</time>
      </trkpt>
      <trkpt lat="45.45047" lon="4.94343">
        <ele>396.8</ele>
        <time>2023-06-11T07:46:35.000Z</time>
      </trkpt>
      <trkpt lat="45.45053" lon="4.94351">
        <ele>397.8</ele>
        <time>2023-06-11T07:46:40.000Z</time>
      </trkpt>
      <trkpt lat="45.45058" lon="4.9436">
        <ele>398.8</ele>
        <time>2023-06-11T07:46:45.000Z</time>
      </trkpt>
      <trkpt lat="45.45059" lon="4.94361">
        <ele>399</ele>
        <time>2023-06-11T07:46:46.000Z</time>
      </trkpt>
      <trkpt lat="45.45066" lon="4.94371">
        <ele>399.9</ele>
        <time>2023-06-11T07:46:51.000Z</time>
      </trkpt>
      <trkpt lat="45.45072" lon="4.94379">
        <ele>400.6</ele>
        <time>2023-06-11T07:46:55.000Z</time>
      </trkpt>
      <trkpt lat="45.45075" lon="4.94383">
        <ele>400.9</ele>
        <time>2023-06-11T07:46:57.000Z</time>
      </trkpt>
      <trkpt lat="45.4508" lon="4.94402">
        <ele>401.7</ele>
        <time>2023-06-11T07:47:03.000Z</time>
      </trkpt>
      <trkpt lat="45.45081" lon="4.94406">
        <ele>401.8</ele>
        <time>2023-06-11T07:47:04.000Z</time>
      </trkpt>
      <trkpt lat="45.45083" lon="4.94432">
        <ele>402.3</ele>
        <time>2023-06-11T07:47:10.000Z</time>
      </trkpt>
      <trkpt lat="45.45083" lon="4.94437">
        <ele>402.4</ele>
        <time>2023-06-11T07:47:11.000Z</time>
      </trkpt>
      <trkpt lat="45.45084" lon="4.94477">
        <ele>402.5</ele>
        <time>2023-06-11T07:47:19.000Z</time>
      </trkpt>
      <trkpt lat="45.4509" lon="4.94508">
        <ele>402.4</ele>
        <time>2023-06-11T07:47:24.000Z</time>
      </trkpt>
      <trkpt lat="45.45106" lon="4.9455">
        <ele>402.3</ele>
        <time>2023-06-11T07:47:31.000Z</time>
      </trkpt>
      <trkpt lat="45.45122" lon="4.94579">
        <ele>402.6</ele>
        <time>2023-06-11T07:47:37.000Z</time>
      </trkpt>
      <trkpt lat="45.45136" lon="4.94603">
        <ele>403</ele>
        <time>2023-06-11T07:47:42.000Z</time>
      </trkpt>
      <trkpt lat="45.45145" lon="4.94617">
        <ele>403.3</ele>
        <time>2023-06-11T07:47:45.000Z</time>
      </trkpt>
      <trkpt lat="45.45156" lon="4.94636">
        <ele>403.6</ele>
        <time>2023-06-11T07:47:49.000Z</time>
      </trkpt>
      <trkpt lat="45.4516" lon="4.94647">
        <ele>403.9</ele>
        <time>2023-06-11T07:47:51.000Z</time>
      </trkpt>
      <trkpt lat="45.45162" lon="4.94653">
        <ele>404</ele>
        <time>2023-06-11T07:47:52.000Z</time>
      </trkpt>
      <trkpt lat="45.45167" lon="4.94671">
        <ele>404.3</ele>
        <time>2023-06-11T07:47:55.000Z</time>
      </trkpt>
      <trkpt lat="45.45176" lon="4.94686">
        <ele>404.5</ele>
        <time>2023-06-11T07:47:58.000Z</time>
      </trkpt>
      <trkpt lat="45.4518" lon="4.94691">
        <ele>404.6</ele>
        <time>2023-06-11T07:47:59.000Z</time>
      </trkpt>
      <trkpt lat="45.45183" lon="4.94696">
        <ele>404.6</ele>
        <time>2023-06-11T07:48:00.000Z</time>
      </trkpt>
      <trkpt lat="45.45195" lon="4.94714">
        <ele>404.9</ele>
        <time>2023-06-11T07:48:04.000Z</time>
      </trkpt>
      <trkpt lat="45.45212" lon="4.94734">
        <ele>405</ele>
        <time>2023-06-11T07:48:09.000Z</time>
      </trkpt>
      <trkpt lat="45.45215" lon="4.94738">
        <ele>405</ele>
        <time>2023-06-11T07:48:10.000Z</time>
      </trkpt>
      <trkpt lat="45.45229" lon="4.94748">
        <ele>404.9</ele>
        <time>2023-06-11T07:48:13.000Z</time>
      </trkpt>
      <trkpt lat="45.45233" lon="4.94754">
        <ele>404.8</ele>
        <time>2023-06-11T07:48:14.000Z</time>
      </trkpt>
      <trkpt lat="45.45238" lon="4.94758">
        <ele>404.7</ele>
        <time>2023-06-11T07:48:15.000Z</time>
      </trkpt>
      <trkpt lat="45.45252" lon="4.94771">
        <ele>404.5</ele>
        <time>2023-06-11T07:48:18.000Z</time>
      </trkpt>
      <trkpt lat="45.45257" lon="4.94777">
        <ele>404.3</ele>
        <time>2023-06-11T07:48:19.000Z</time>
      </trkpt>
      <trkpt lat="45.45304" lon="4.94819">
        <ele>404.1</ele>
        <time>2023-06-11T07:48:28.000Z</time>
      </trkpt>
      <trkpt lat="45.45308" lon="4.94823">
        <ele>404.2</ele>
        <time>2023-06-11T07:48:29.000Z</time>
      </trkpt>
      <trkpt lat="45.45331" lon="4.94846">
        <ele>405</ele>
        <time>2023-06-11T07:48:34.000Z</time>
      </trkpt>
      <trkpt lat="45.45341" lon="4.94853">
        <ele>405.4</ele>
        <time>2023-06-11T07:48:36.000Z</time>
      </trkpt>
      <trkpt lat="45.45371" lon="4.94877">
        <ele>406.8</ele>
        <time>2023-06-11T07:48:44.000Z</time>
      </trkpt>
      <trkpt lat="45.45392" lon="4.94899">
        <ele>407.5</ele>
        <time>2023-06-11T07:48:50.000Z</time>
      </trkpt>
      <trkpt lat="45.45395" lon="4.94902">
        <ele>407.6</ele>
        <time>2023-06-11T07:48:51.000Z</time>
      </trkpt>
      <trkpt lat="45.45412" lon="4.94915">
        <ele>407.7</ele>
        <time>2023-06-11T07:48:55.000Z</time>
      </trkpt>
      <trkpt lat="45.45434" lon="4.9493">
        <ele>407.7</ele>
        <time>2023-06-11T07:49:00.000Z</time>
      </trkpt>
      <trkpt lat="45.45462" lon="4.94953">
        <ele>407.7</ele>
        <time>2023-06-11T07:49:06.000Z</time>
      </trkpt>
      <trkpt lat="45.45492" lon="4.94974">
        <ele>407.5</ele>
        <time>2023-06-11T07:49:12.000Z</time>
      </trkpt>
      <trkpt lat="45.45524" lon="4.9501">
        <ele>407</ele>
        <time>2023-06-11T07:49:19.000Z</time>
      </trkpt>
      <trkpt lat="45.45531" lon="4.95023">
        <ele>406.9</ele>
        <time>2023-06-11T07:49:21.000Z</time>
      </trkpt>
      <trkpt lat="45.45541" lon="4.95047">
        <ele>406.7</ele>
        <time>2023-06-11T07:49:24.000Z</time>
      </trkpt>
      <trkpt lat="45.45556" lon="4.95086">
        <ele>406.7</ele>
        <time>2023-06-11T07:49:29.000Z</time>
      </trkpt>
      <trkpt lat="45.45561" lon="4.95098">
        <ele>406.9</ele>
        <time>2023-06-11T07:49:31.000Z</time>
      </trkpt>
      <trkpt lat="45.45564" lon="4.95104">
        <ele>407</ele>
        <time>2023-06-11T07:49:32.000Z</time>
      </trkpt>
      <trkpt lat="45.45569" lon="4.95125">
        <ele>407.4</ele>
        <time>2023-06-11T07:49:35.000Z</time>
      </trkpt>
      <trkpt lat="45.45571" lon="4.95131">
        <ele>407.5</ele>
        <time>2023-06-11T07:49:36.000Z</time>
      </trkpt>
      <trkpt lat="45.45573" lon="4.95153">
        <ele>407.9</ele>
        <time>2023-06-11T07:49:39.000Z</time>
      </trkpt>
      <trkpt lat="45.45575" lon="4.95173">
        <ele>408</ele>
        <time>2023-06-11T07:49:42.000Z</time>
      </trkpt>
      <trkpt lat="45.45576" lon="4.9518">
        <ele>408.1</ele>
        <time>2023-06-11T07:49:43.000Z</time>
      </trkpt>
      <trkpt lat="45.45577" lon="4.95199">
        <ele>408.2</ele>
        <time>2023-06-11T07:49:45.000Z</time>
      </trkpt>
      <trkpt lat="45.45575" lon="4.95217">
        <ele>408.3</ele>
        <time>2023-06-11T07:49:47.000Z</time>
      </trkpt>
      <trkpt lat="45.45574" lon="4.95225">
        <ele>408.4</ele>
        <time>2023-06-11T07:49:48.000Z</time>
      </trkpt>
      <trkpt lat="45.45567" lon="4.95259">
        <ele>409.1</ele>
        <time>2023-06-11T07:49:53.000Z</time>
      </trkpt>
      <trkpt lat="45.45563" lon="4.95284">
        <ele>410</ele>
        <time>2023-06-11T07:49:57.000Z</time>
      </trkpt>
      <trkpt lat="45.45564" lon="4.95294">
        <ele>410.5</ele>
        <time>2023-06-11T07:49:59.000Z</time>
      </trkpt>
      <trkpt lat="45.45567" lon="4.95316">
        <ele>411.5</ele>
        <time>2023-06-11T07:50:04.000Z</time>
      </trkpt>
      <trkpt lat="45.4557" lon="4.95336">
        <ele>412.6</ele>
        <time>2023-06-11T07:50:09.000Z</time>
      </trkpt>
      <trkpt lat="45.45571" lon="4.9534">
        <ele>412.8</ele>
        <time>2023-06-11T07:50:10.000Z</time>
      </trkpt>
      <trkpt lat="45.45576" lon="4.95353">
        <ele>413.7</ele>
        <time>2023-06-11T07:50:14.000Z</time>
      </trkpt>
      <trkpt lat="45.45578" lon="4.95356">
        <ele>414</ele>
        <time>2023-06-11T07:50:15.000Z</time>
      </trkpt>
      <trkpt lat="45.45585" lon="4.95367">
        <ele>414.8</ele>
        <time>2023-06-11T07:50:19.000Z</time>
      </trkpt>
      <trkpt lat="45.45586" lon="4.95372">
        <ele>415.1</ele>
        <time>2023-06-11T07:50:20.000Z</time>
      </trkpt>
      <trkpt lat="45.45594" lon="4.95387">
        <ele>415.9</ele>
        <time>2023-06-11T07:50:24.000Z</time>
      </trkpt>
      <trkpt lat="45.456" lon="4.95391">
        <ele>416.2</ele>
        <time>2023-06-11T07:50:26.000Z</time>
      </trkpt>
      <trkpt lat="45.45613" lon="4.954">
        <ele>416.6</ele>
        <time>2023-06-11T07:50:30.000Z</time>
      </trkpt>
      <trkpt lat="45.45616" lon="4.95403">
        <ele>416.7</ele>
        <time>2023-06-11T07:50:31.000Z</time>
      </trkpt>
      <trkpt lat="45.45634" lon="4.9541">
        <ele>416.9</ele>
        <time>2023-06-11T07:50:36.000Z</time>
      </trkpt>
      <trkpt lat="45.45656" lon="4.95415">
        <ele>417.2</ele>
        <time>2023-06-11T07:50:42.000Z</time>
      </trkpt>
      <trkpt lat="45.45683" lon="4.95418">
        <ele>417.5</ele>
        <time>2023-06-11T07:50:49.000Z</time>
      </trkpt>
      <trkpt lat="45.45714" lon="4.95417">
        <ele>417.8</ele>
        <time>2023-06-11T07:50:56.000Z</time>
      </trkpt>
      <trkpt lat="45.45727" lon="4.95416">
        <ele>417.9</ele>
        <time>2023-06-11T07:50:59.000Z</time>
      </trkpt>
      <trkpt lat="45.45747" lon="4.95419">
        <ele>418.1</ele>
        <time>2023-06-11T07:51:04.000Z</time>
      </trkpt>
      <trkpt lat="45.45758" lon="4.95427">
        <ele>417.9</ele>
        <time>2023-06-11T07:51:07.000Z</time>
      </trkpt>
      <trkpt lat="45.45762" lon="4.95435">
        <ele>417.5</ele>
        <time>2023-06-11T07:51:09.000Z</time>
      </trkpt>
      <trkpt lat="45.45761" lon="4.95444">
        <ele>415.9</ele>
        <time>2023-06-11T07:51:11.000Z</time>
      </trkpt>
      <trkpt lat="45.45759" lon="4.95448">
        <ele>415.5</ele>
        <time>2023-06-11T07:51:12.000Z</time>
      </trkpt>
      <trkpt lat="45.45742" lon="4.95468">
        <ele>413.5</ele>
        <time>2023-06-11T07:51:16.000Z</time>
      </trkpt>
      <trkpt lat="45.45733" lon="4.95481">
        <ele>412.4</ele>
        <time>2023-06-11T07:51:18.000Z</time>
      </trkpt>
      <trkpt lat="45.45724" lon="4.95501">
        <ele>411</ele>
        <time>2023-06-11T07:51:20.000Z</time>
      </trkpt>
      <trkpt lat="45.4572" lon="4.95509">
        <ele>410.4</ele>
        <time>2023-06-11T07:51:21.000Z</time>
      </trkpt>
      <trkpt lat="45.45717" lon="4.95519">
        <ele>409.5</ele>
        <time>2023-06-11T07:51:22.000Z</time>
      </trkpt>
      <trkpt lat="45.45713" lon="4.95532">
        <ele>408.3</ele>
        <time>2023-06-11T07:51:23.000Z</time>
      </trkpt>
      <trkpt lat="45.45704" lon="4.95551">
        <ele>406.2</ele>
        <time>2023-06-11T07:51:25.000Z</time>
      </trkpt>
      <trkpt lat="45.45688" lon="4.95567">
        <ele>403.8</ele>
        <time>2023-06-11T07:51:27.000Z</time>
      </trkpt>
      <trkpt lat="45.4567" lon="4.95582">
        <ele>401.3</ele>
        <time>2023-06-11T07:51:29.000Z</time>
      </trkpt>
      <trkpt lat="45.45648" lon="4.95596">
        <ele>398.5</ele>
        <time>2023-06-11T07:51:31.000Z</time>
      </trkpt>
      <trkpt lat="45.45626" lon="4.95611">
        <ele>396</ele>
        <time>2023-06-11T07:51:33.000Z</time>
      </trkpt>
      <trkpt lat="45.45615" lon="4.95619">
        <ele>394.9</ele>
        <time>2023-06-11T07:51:34.000Z</time>
      </trkpt>
      <trkpt lat="45.45604" lon="4.95627">
        <ele>393.9</ele>
        <time>2023-06-11T07:51:35.000Z</time>
      </trkpt>
      <trkpt lat="45.45593" lon="4.95636">
        <ele>392.9</ele>
        <time>2023-06-11T07:51:36.000Z</time>
      </trkpt>
      <trkpt lat="45.45583" lon="4.95644">
        <ele>391.9</ele>
        <time>2023-06-11T07:51:37.000Z</time>
      </trkpt>
      <trkpt lat="45.45572" lon="4.95654">
        <ele>391</ele>
        <time>2023-06-11T07:51:38.000Z</time>
      </trkpt>
      <trkpt lat="45.45561" lon="4.95663">
        <ele>390</ele>
        <time>2023-06-11T07:51:39.000Z</time>
      </trkpt>
      <trkpt lat="45.45551" lon="4.95673">
        <ele>389.1</ele>
        <time>2023-06-11T07:51:40.000Z</time>
      </trkpt>
      <trkpt lat="45.45542" lon="4.95681">
        <ele>388.3</ele>
        <time>2023-06-11T07:51:41.000Z</time>
      </trkpt>
      <trkpt lat="45.45534" lon="4.95687">
        <ele>387.5</ele>
        <time>2023-06-11T07:51:42.000Z</time>
      </trkpt>
      <trkpt lat="45.45527" lon="4.95694">
        <ele>386.8</ele>
        <time>2023-06-11T07:51:43.000Z</time>
      </trkpt>
      <trkpt lat="45.45523" lon="4.95701">
        <ele>386.2</ele>
        <time>2023-06-11T07:51:44.000Z</time>
      </trkpt>
      <trkpt lat="45.4552" lon="4.95707">
        <ele>385.8</ele>
        <time>2023-06-11T07:51:45.000Z</time>
      </trkpt>
      <trkpt lat="45.4552" lon="4.9573">
        <ele>383.7</ele>
        <time>2023-06-11T07:51:47.000Z</time>
      </trkpt>
      <trkpt lat="45.45523" lon="4.95741">
        <ele>382.7</ele>
        <time>2023-06-11T07:51:48.000Z</time>
      </trkpt>
      <trkpt lat="45.45526" lon="4.95752">
        <ele>381.5</ele>
        <time>2023-06-11T07:51:49.000Z</time>
      </trkpt>
      <trkpt lat="45.45531" lon="4.95775">
        <ele>379.3</ele>
        <time>2023-06-11T07:51:51.000Z</time>
      </trkpt>
      <trkpt lat="45.45529" lon="4.95795">
        <ele>377.4</ele>
        <time>2023-06-11T07:51:53.000Z</time>
      </trkpt>
      <trkpt lat="45.45525" lon="4.95806">
        <ele>376.4</ele>
        <time>2023-06-11T07:51:54.000Z</time>
      </trkpt>
      <trkpt lat="45.45518" lon="4.95815">
        <ele>375.4</ele>
        <time>2023-06-11T07:51:55.000Z</time>
      </trkpt>
      <trkpt lat="45.4551" lon="4.95821">
        <ele>374.5</ele>
        <time>2023-06-11T07:51:56.000Z</time>
      </trkpt>
      <trkpt lat="45.45501" lon="4.95826">
        <ele>373.6</ele>
        <time>2023-06-11T07:51:57.000Z</time>
      </trkpt>
      <trkpt lat="45.45481" lon="4.95834">
        <ele>371.9</ele>
        <time>2023-06-11T07:51:59.000Z</time>
      </trkpt>
      <trkpt lat="45.45463" lon="4.9585">
        <ele>369.9</ele>
        <time>2023-06-11T07:52:01.000Z</time>
      </trkpt>
      <trkpt lat="45.45454" lon="4.95861">
        <ele>368.7</ele>
        <time>2023-06-11T07:52:02.000Z</time>
      </trkpt>
      <trkpt lat="45.45445" lon="4.95871">
        <ele>367.4</ele>
        <time>2023-06-11T07:52:03.000Z</time>
      </trkpt>
      <trkpt lat="45.45436" lon="4.95882">
        <ele>366.2</ele>
        <time>2023-06-11T07:52:04.000Z</time>
      </trkpt>
      <trkpt lat="45.45426" lon="4.95893">
        <ele>364.9</ele>
        <time>2023-06-11T07:52:05.000Z</time>
      </trkpt>
      <trkpt lat="45.45416" lon="4.95903">
        <ele>363.7</ele>
        <time>2023-06-11T07:52:06.000Z</time>
      </trkpt>
      <trkpt lat="45.45405" lon="4.95913">
        <ele>362.4</ele>
        <time>2023-06-11T07:52:07.000Z</time>
      </trkpt>
      <trkpt lat="45.45394" lon="4.95922">
        <ele>361</ele>
        <time>2023-06-11T07:52:08.000Z</time>
      </trkpt>
      <trkpt lat="45.45382" lon="4.95931">
        <ele>359.5</ele>
        <time>2023-06-11T07:52:09.000Z</time>
      </trkpt>
      <trkpt lat="45.45358" lon="4.9595">
        <ele>356.4</ele>
        <time>2023-06-11T07:52:11.000Z</time>
      </trkpt>
      <trkpt lat="45.45347" lon="4.9596">
        <ele>354.9</ele>
        <time>2023-06-11T07:52:12.000Z</time>
      </trkpt>
      <trkpt lat="45.45336" lon="4.95969">
        <ele>353.4</ele>
        <time>2023-06-11T07:52:13.000Z</time>
      </trkpt>
      <trkpt lat="45.45325" lon="4.95979">
        <ele>352.2</ele>
        <time>2023-06-11T07:52:14.000Z</time>
      </trkpt>
      <trkpt lat="45.45315" lon="4.9599">
        <ele>351.4</ele>
        <time>2023-06-11T07:52:15.000Z</time>
      </trkpt>
      <trkpt lat="45.45305" lon="4.96002">
        <ele>350.7</ele>
        <time>2023-06-11T07:52:16.000Z</time>
      </trkpt>
      <trkpt lat="45.45298" lon="4.96012">
        <ele>350.4</ele>
        <time>2023-06-11T07:52:17.000Z</time>
      </trkpt>
      <trkpt lat="45.45288" lon="4.96027">
        <ele>350.2</ele>
        <time>2023-06-11T07:52:18.000Z</time>
      </trkpt>
      <trkpt lat="45.45281" lon="4.96035">
        <ele>350.2</ele>
        <time>2023-06-11T07:52:19.000Z</time>
      </trkpt>
      <trkpt lat="45.4527" lon="4.96044">
        <ele>350.1</ele>
        <time>2023-06-11T07:52:20.000Z</time>
      </trkpt>
      <trkpt lat="45.45263" lon="4.96048">
        <ele>350</ele>
        <time>2023-06-11T07:52:21.000Z</time>
      </trkpt>
      <trkpt lat="45.45254" lon="4.96051">
        <ele>350.2</ele>
        <time>2023-06-11T07:52:22.000Z</time>
      </trkpt>
      <trkpt lat="45.45243" lon="4.96054">
        <ele>350.5</ele>
        <time>2023-06-11T07:52:23.000Z</time>
      </trkpt>
      <trkpt lat="45.45235" lon="4.96055">
        <ele>350.8</ele>
        <time>2023-06-11T07:52:24.000Z</time>
      </trkpt>
      <trkpt lat="45.45228" lon="4.96055">
        <ele>351.2</ele>
        <time>2023-06-11T07:52:25.000Z</time>
      </trkpt>
      <trkpt lat="45.45214" lon="4.96053">
        <ele>352.1</ele>
        <time>2023-06-11T07:52:27.000Z</time>
      </trkpt>
      <trkpt lat="45.45194" lon="4.9604">
        <ele>354.1</ele>
        <time>2023-06-11T07:52:31.000Z</time>
      </trkpt>
      <trkpt lat="45.45186" lon="4.96033">
        <ele>355.1</ele>
        <time>2023-06-11T07:52:33.000Z</time>
      </trkpt>
      <trkpt lat="45.45176" lon="4.96023">
        <ele>356.5</ele>
        <time>2023-06-11T07:52:36.000Z</time>
      </trkpt>
      <trkpt lat="45.45168" lon="4.96014">
        <ele>357.5</ele>
        <time>2023-06-11T07:52:39.000Z</time>
      </trkpt>
      <trkpt lat="45.45163" lon="4.96008">
        <ele>358.2</ele>
        <time>2023-06-11T07:52:41.000Z</time>
      </trkpt>
      <trkpt lat="45.45159" lon="4.96003">
        <ele>358.8</ele>
        <time>2023-06-11T07:52:43.000Z</time>
      </trkpt>
      <trkpt lat="45.45157" lon="4.96001">
        <ele>359</ele>
        <time>2023-06-11T07:52:44.000Z</time>
      </trkpt>
      <trkpt lat="45.45152" lon="4.95995">
        <ele>359.6</ele>
        <time>2023-06-11T07:52:46.000Z</time>
      </trkpt>
      <trkpt lat="45.45148" lon="4.95991">
        <ele>360</ele>
        <time>2023-06-11T07:52:48.000Z</time>
      </trkpt>
      <trkpt lat="45.45144" lon="4.95986">
        <ele>360.6</ele>
        <time>2023-06-11T07:52:50.000Z</time>
      </trkpt>
      <trkpt lat="45.45137" lon="4.95978">
        <ele>361.3</ele>
        <time>2023-06-11T07:52:53.000Z</time>
      </trkpt>
      <trkpt lat="45.45135" lon="4.95975">
        <ele>361.6</ele>
        <time>2023-06-11T07:52:54.000Z</time>
      </trkpt>
      <trkpt lat="45.45127" lon="4.95966">
        <ele>362.5</ele>
        <time>2023-06-11T07:52:58.000Z</time>
      </trkpt>
      <trkpt lat="45.45121" lon="4.9596">
        <ele>363.1</ele>
        <time>2023-06-11T07:53:01.000Z</time>
      </trkpt>
      <trkpt lat="45.45116" lon="4.95958">
        <ele>363.5</ele>
        <time>2023-06-11T07:53:03.000Z</time>
      </trkpt>
      <trkpt lat="45.4511" lon="4.95958">
        <ele>364.1</ele>
        <time>2023-06-11T07:53:06.000Z</time>
      </trkpt>
      <trkpt lat="45.45106" lon="4.9596">
        <ele>364.4</ele>
        <time>2023-06-11T07:53:08.000Z</time>
      </trkpt>
      <trkpt lat="45.451" lon="4.95963">
        <ele>364.9</ele>
        <time>2023-06-11T07:53:12.000Z</time>
      </trkpt>
      <trkpt lat="45.45099" lon="4.95963">
        <ele>365</ele>
        <time>2023-06-11T07:53:13.000Z</time>
      </trkpt>
      <trkpt lat="45.45097" lon="4.95964">
        <ele>365.1</ele>
        <time>2023-06-11T07:53:14.000Z</time>
      </trkpt>
      <trkpt lat="45.45091" lon="4.95968">
        <ele>365.7</ele>
        <time>2023-06-11T07:53:18.000Z</time>
      </trkpt>
      <trkpt lat="45.45085" lon="4.95971">
        <ele>366.3</ele>
        <time>2023-06-11T07:53:22.000Z</time>
      </trkpt>
      <trkpt lat="45.45076" lon="4.95977">
        <ele>367.4</ele>
        <time>2023-06-11T07:53:29.000Z</time>
      </trkpt>
      <trkpt lat="45.45072" lon="4.95979">
        <ele>367.9</ele>
        <time>2023-06-11T07:53:32.000Z</time>
      </trkpt>
      <trkpt lat="45.45069" lon="4.9598">
        <ele>368.2</ele>
        <time>2023-06-11T07:53:34.000Z</time>
      </trkpt>
      <trkpt lat="45.45063" lon="4.95984">
        <ele>368.8</ele>
        <time>2023-06-11T07:53:39.000Z</time>
      </trkpt>
      <trkpt lat="45.4506" lon="4.95985">
        <ele>369.1</ele>
        <time>2023-06-11T07:53:41.000Z</time>
      </trkpt>
      <trkpt lat="45.45055" lon="4.95988">
        <ele>369.6</ele>
        <time>2023-06-11T07:53:45.000Z</time>
      </trkpt>
      <trkpt lat="45.45044" lon="4.95993">
        <ele>370.7</ele>
        <time>2023-06-11T07:53:53.000Z</time>
      </trkpt>
      <trkpt lat="45.45043" lon="4.95994">
        <ele>370.8</ele>
        <time>2023-06-11T07:53:54.000Z</time>
      </trkpt>
      <trkpt lat="45.45032" lon="4.95999">
        <ele>372</ele>
        <time>2023-06-11T07:54:02.000Z</time>
      </trkpt>
      <trkpt lat="45.45026" lon="4.96002">
        <ele>372.7</ele>
        <time>2023-06-11T07:54:07.000Z</time>
      </trkpt>
      <trkpt lat="45.45021" lon="4.96005">
        <ele>373.4</ele>
        <time>2023-06-11T07:54:11.000Z</time>
      </trkpt>
      <trkpt lat="45.45018" lon="4.96006">
        <ele>373.7</ele>
        <time>2023-06-11T07:54:13.000Z</time>
      </trkpt>
      <trkpt lat="45.45011" lon="4.9601">
        <ele>374.7</ele>
        <time>2023-06-11T07:54:19.000Z</time>
      </trkpt>
      <trkpt lat="45.45008" lon="4.96011">
        <ele>375.1</ele>
        <time>2023-06-11T07:54:21.000Z</time>
      </trkpt>
      <trkpt lat="45.45002" lon="4.96014">
        <ele>376</ele>
        <time>2023-06-11T07:54:26.000Z</time>
      </trkpt>
      <trkpt lat="45.44995" lon="4.96018">
        <ele>376.9</ele>
        <time>2023-06-11T07:54:31.000Z</time>
      </trkpt>
      <trkpt lat="45.44994" lon="4.96019">
        <ele>377.1</ele>
        <time>2023-06-11T07:54:32.000Z</time>
      </trkpt>
      <trkpt lat="45.44987" lon="4.96023">
        <ele>378.1</ele>
        <time>2023-06-11T07:54:37.000Z</time>
      </trkpt>
      <trkpt lat="45.44982" lon="4.96025">
        <ele>378.8</ele>
        <time>2023-06-11T07:54:40.000Z</time>
      </trkpt>
      <trkpt lat="45.44979" lon="4.96026">
        <ele>379.1</ele>
        <time>2023-06-11T07:54:42.000Z</time>
      </trkpt>
      <trkpt lat="45.44972" lon="4.96028">
        <ele>380.1</ele>
        <time>2023-06-11T07:54:47.000Z</time>
      </trkpt>
      <trkpt lat="45.44968" lon="4.9603">
        <ele>380.7</ele>
        <time>2023-06-11T07:54:50.000Z</time>
      </trkpt>
      <trkpt lat="45.44963" lon="4.96032">
        <ele>381.3</ele>
        <time>2023-06-11T07:54:53.000Z</time>
      </trkpt>
      <trkpt lat="45.44954" lon="4.96037">
        <ele>382.8</ele>
        <time>2023-06-11T07:55:00.000Z</time>
      </trkpt>
      <trkpt lat="45.44948" lon="4.96041">
        <ele>383.7</ele>
        <time>2023-06-11T07:55:04.000Z</time>
      </trkpt>
      <trkpt lat="45.44947" lon="4.96042">
        <ele>383.9</ele>
        <time>2023-06-11T07:55:05.000Z</time>
      </trkpt>
      <trkpt lat="45.44944" lon="4.96043">
        <ele>384.3</ele>
        <time>2023-06-11T07:55:07.000Z</time>
      </trkpt>
      <trkpt lat="45.44938" lon="4.96047">
        <ele>385.5</ele>
        <time>2023-06-11T07:55:12.000Z</time>
      </trkpt>
      <trkpt lat="45.44932" lon="4.9605">
        <ele>386.4</ele>
        <time>2023-06-11T07:55:16.000Z</time>
      </trkpt>
      <trkpt lat="45.44928" lon="4.96052">
        <ele>387.2</ele>
        <time>2023-06-11T07:55:19.000Z</time>
      </trkpt>
      <trkpt lat="45.4492" lon="4.96056">
        <ele>388.7</ele>
        <time>2023-06-11T07:55:25.000Z</time>
      </trkpt>
      <trkpt lat="45.44918" lon="4.96057">
        <ele>389.1</ele>
        <time>2023-06-11T07:55:27.000Z</time>
      </trkpt>
      <trkpt lat="45.44912" lon="4.9606">
        <ele>390.1</ele>
        <time>2023-06-11T07:55:31.000Z</time>
      </trkpt>
      <trkpt lat="45.44906" lon="4.96064">
        <ele>391.1</ele>
        <time>2023-06-11T07:55:35.000Z</time>
      </trkpt>
      <trkpt lat="45.44905" lon="4.96065">
        <ele>391.3</ele>
        <time>2023-06-11T07:55:36.000Z</time>
      </trkpt>
      <trkpt lat="45.44897" lon="4.96068">
        <ele>392.7</ele>
        <time>2023-06-11T07:55:42.000Z</time>
      </trkpt>
      <trkpt lat="45.44891" lon="4.9607">
        <ele>393.6</ele>
        <time>2023-06-11T07:55:46.000Z</time>
      </trkpt>
      <trkpt lat="45.4489" lon="4.96071">
        <ele>393.8</ele>
        <time>2023-06-11T07:55:47.000Z</time>
      </trkpt>
      <trkpt lat="45.44883" lon="4.96074">
        <ele>394.9</ele>
        <time>2023-06-11T07:55:52.000Z</time>
      </trkpt>
      <trkpt lat="45.44882" lon="4.96074">
        <ele>395.1</ele>
        <time>2023-06-11T07:55:53.000Z</time>
      </trkpt>
      <trkpt lat="45.44881" lon="4.96075">
        <ele>395.3</ele>
        <time>2023-06-11T07:55:54.000Z</time>
      </trkpt>
      <trkpt lat="45.44876" lon="4.96078">
        <ele>396.2</ele>
        <time>2023-06-11T07:55:58.000Z</time>
      </trkpt>
      <trkpt lat="45.44874" lon="4.96079">
        <ele>396.4</ele>
        <time>2023-06-11T07:55:59.000Z</time>
      </trkpt>
      <trkpt lat="45.44871" lon="4.9608">
        <ele>396.9</ele>
        <time>2023-06-11T07:56:01.000Z</time>
      </trkpt>
      <trkpt lat="45.44868" lon="4.96081">
        <ele>397.6</ele>
        <time>2023-06-11T07:56:04.000Z</time>
      </trkpt>
      <trkpt lat="45.44866" lon="4.96081">
        <ele>397.8</ele>
        <time>2023-06-11T07:56:05.000Z</time>
      </trkpt>
      <trkpt lat="45.44864" lon="4.96082">
        <ele>398.1</ele>
        <time>2023-06-11T07:56:06.000Z</time>
      </trkpt>
      <trkpt lat="45.4486" lon="4.96082">
        <ele>398.9</ele>
        <time>2023-06-11T07:56:09.000Z</time>
      </trkpt>
      <trkpt lat="45.44856" lon="4.96084">
        <ele>399.7</ele>
        <time>2023-06-11T07:56:12.000Z</time>
      </trkpt>
      <trkpt lat="45.44855" lon="4.96084">
        <ele>399.9</ele>
        <time>2023-06-11T07:56:13.000Z</time>
      </trkpt>
      <trkpt lat="45.44851" lon="4.96085">
        <ele>400.6</ele>
        <time>2023-06-11T07:56:16.000Z</time>
      </trkpt>
      <trkpt lat="45.44849" lon="4.96087">
        <ele>401</ele>
        <time>2023-06-11T07:56:18.000Z</time>
      </trkpt>
      <trkpt lat="45.44848" lon="4.96088">
        <ele>401.2</ele>
        <time>2023-06-11T07:56:19.000Z</time>
      </trkpt>
      <trkpt lat="45.44844" lon="4.96094">
        <ele>402.2</ele>
        <time>2023-06-11T07:56:23.000Z</time>
      </trkpt>
      <trkpt lat="45.44842" lon="4.96095">
        <ele>402.4</ele>
        <time>2023-06-11T07:56:24.000Z</time>
      </trkpt>
      <trkpt lat="45.44842" lon="4.96096">
        <ele>402.6</ele>
        <time>2023-06-11T07:56:25.000Z</time>
      </trkpt>
      <trkpt lat="45.44841" lon="4.96098">
        <ele>402.8</ele>
        <time>2023-06-11T07:56:26.000Z</time>
      </trkpt>
      <trkpt lat="45.44838" lon="4.96103">
        <ele>403.4</ele>
        <time>2023-06-11T07:56:29.000Z</time>
      </trkpt>
      <trkpt lat="45.44837" lon="4.96105">
        <ele>403.7</ele>
        <time>2023-06-11T07:56:31.000Z</time>
      </trkpt>
      <trkpt lat="45.44832" lon="4.96111">
        <ele>404.4</ele>
        <time>2023-06-11T07:56:36.000Z</time>
      </trkpt>
      <trkpt lat="45.44832" lon="4.96113">
        <ele>404.6</ele>
        <time>2023-06-11T07:56:37.000Z</time>
      </trkpt>
      <trkpt lat="45.4483" lon="4.96119">
        <ele>405</ele>
        <time>2023-06-11T07:56:40.000Z</time>
      </trkpt>
      <trkpt lat="45.4483" lon="4.9612">
        <ele>405.2</ele>
        <time>2023-06-11T07:56:41.000Z</time>
      </trkpt>
      <trkpt lat="45.44826" lon="4.96129">
        <ele>405.9</ele>
        <time>2023-06-11T07:56:46.000Z</time>
      </trkpt>
      <trkpt lat="45.44824" lon="4.96134">
        <ele>406.3</ele>
        <time>2023-06-11T07:56:49.000Z</time>
      </trkpt>
      <trkpt lat="45.44822" lon="4.96138">
        <ele>406.6</ele>
        <time>2023-06-11T07:56:51.000Z</time>
      </trkpt>
      <trkpt lat="45.44819" lon="4.96144">
        <ele>407.2</ele>
        <time>2023-06-11T07:56:55.000Z</time>
      </trkpt>
      <trkpt lat="45.44818" lon="4.96147">
        <ele>407.5</ele>
        <time>2023-06-11T07:56:57.000Z</time>
      </trkpt>
      <trkpt lat="45.44814" lon="4.96154">
        <ele>408.1</ele>
        <time>2023-06-11T07:57:01.000Z</time>
      </trkpt>
      <trkpt lat="45.4481" lon="4.96163">
        <ele>408.9</ele>
        <time>2023-06-11T07:57:06.000Z</time>
      </trkpt>
      <trkpt lat="45.44809" lon="4.96167">
        <ele>409.3</ele>
        <time>2023-06-11T07:57:08.000Z</time>
      </trkpt>
      <trkpt lat="45.44805" lon="4.96177">
        <ele>410.2</ele>
        <time>2023-06-11T07:57:13.000Z</time>
      </trkpt>
      <trkpt lat="45.44804" lon="4.96179">
        <ele>410.4</ele>
        <time>2023-06-11T07:57:14.000Z</time>
      </trkpt>
      <trkpt lat="45.448" lon="4.96189">
        <ele>411.3</ele>
        <time>2023-06-11T07:57:19.000Z</time>
      </trkpt>
      <trkpt lat="45.44796" lon="4.96199">
        <ele>412.2</ele>
        <time>2023-06-11T07:57:24.000Z</time>
      </trkpt>
      <trkpt lat="45.44795" lon="4.96204">
        <ele>412.6</ele>
        <time>2023-06-11T07:57:26.000Z</time>
      </trkpt>
      <trkpt lat="45.44789" lon="4.9622">
        <ele>413.7</ele>
        <time>2023-06-11T07:57:32.000Z</time>
      </trkpt>
      <trkpt lat="45.44788" lon="4.96222">
        <ele>413.8</ele>
        <time>2023-06-11T07:57:33.000Z</time>
      </trkpt>
      <trkpt lat="45.4478" lon="4.96241">
        <ele>414.8</ele>
        <time>2023-06-11T07:57:40.000Z</time>
      </trkpt>
      <trkpt lat="45.44778" lon="4.96248">
        <ele>415.1</ele>
        <time>2023-06-11T07:57:42.000Z</time>
      </trkpt>
      <trkpt lat="45.44772" lon="4.96263">
        <ele>415.3</ele>
        <time>2023-06-11T07:57:47.000Z</time>
      </trkpt>
      <trkpt lat="45.44768" lon="4.96269">
        <ele>415</ele>
        <time>2023-06-11T07:57:49.000Z</time>
      </trkpt>
      <trkpt lat="45.44747" lon="4.96291">
        <ele>413.9</ele>
        <time>2023-06-11T07:57:56.000Z</time>
      </trkpt>
      <trkpt lat="45.44729" lon="4.96307">
        <ele>412.5</ele>
        <time>2023-06-11T07:58:00.000Z</time>
      </trkpt>
      <trkpt lat="45.44697" lon="4.96335">
        <ele>409</ele>
        <time>2023-06-11T07:58:05.000Z</time>
      </trkpt>
      <trkpt lat="45.44663" lon="4.96362">
        <ele>404.9</ele>
        <time>2023-06-11T07:58:10.000Z</time>
      </trkpt>
      <trkpt lat="45.44653" lon="4.9637">
        <ele>404.1</ele>
        <time>2023-06-11T07:58:11.000Z</time>
      </trkpt>
      <trkpt lat="45.44635" lon="4.9638">
        <ele>402.6</ele>
        <time>2023-06-11T07:58:13.000Z</time>
      </trkpt>
      <trkpt lat="45.44626" lon="4.96382">
        <ele>401.8</ele>
        <time>2023-06-11T07:58:14.000Z</time>
      </trkpt>
      <trkpt lat="45.44616" lon="4.96383">
        <ele>401.1</ele>
        <time>2023-06-11T07:58:15.000Z</time>
      </trkpt>
      <trkpt lat="45.44596" lon="4.9638">
        <ele>399.4</ele>
        <time>2023-06-11T07:58:17.000Z</time>
      </trkpt>
      <trkpt lat="45.44585" lon="4.96379">
        <ele>398.6</ele>
        <time>2023-06-11T07:58:18.000Z</time>
      </trkpt>
      <trkpt lat="45.44574" lon="4.96381">
        <ele>397.9</ele>
        <time>2023-06-11T07:58:19.000Z</time>
      </trkpt>
      <trkpt lat="45.44564" lon="4.96382">
        <ele>397.4</ele>
        <time>2023-06-11T07:58:20.000Z</time>
      </trkpt>
      <trkpt lat="45.44555" lon="4.96385">
        <ele>396.6</ele>
        <time>2023-06-11T07:58:21.000Z</time>
      </trkpt>
      <trkpt lat="45.44546" lon="4.96389">
        <ele>395.6</ele>
        <time>2023-06-11T07:58:22.000Z</time>
      </trkpt>
      <trkpt lat="45.44538" lon="4.96395">
        <ele>394.6</ele>
        <time>2023-06-11T07:58:23.000Z</time>
      </trkpt>
      <trkpt lat="45.4453" lon="4.964">
        <ele>393.6</ele>
        <time>2023-06-11T07:58:24.000Z</time>
      </trkpt>
      <trkpt lat="45.44523" lon="4.96404">
        <ele>392.6</ele>
        <time>2023-06-11T07:58:25.000Z</time>
      </trkpt>
      <trkpt lat="45.44506" lon="4.96412">
        <ele>389.7</ele>
        <time>2023-06-11T07:58:27.000Z</time>
      </trkpt>
      <trkpt lat="45.44499" lon="4.96415">
        <ele>388.6</ele>
        <time>2023-06-11T07:58:28.000Z</time>
      </trkpt>
      <trkpt lat="45.44482" lon="4.96421">
        <ele>385.6</ele>
        <time>2023-06-11T07:58:31.000Z</time>
      </trkpt>
      <trkpt lat="45.44478" lon="4.96424">
        <ele>384.8</ele>
        <time>2023-06-11T07:58:32.000Z</time>
      </trkpt>
      <trkpt lat="45.44475" lon="4.96427">
        <ele>384.3</ele>
        <time>2023-06-11T07:58:33.000Z</time>
      </trkpt>
      <trkpt lat="45.4447" lon="4.96434">
        <ele>382.1</ele>
        <time>2023-06-11T07:58:34.000Z</time>
      </trkpt>
      <trkpt lat="45.44466" lon="4.9644">
        <ele>381.2</ele>
        <time>2023-06-11T07:58:35.000Z</time>
      </trkpt>
      <trkpt lat="45.44462" lon="4.96448">
        <ele>379.5</ele>
        <time>2023-06-11T07:58:36.000Z</time>
      </trkpt>
      <trkpt lat="45.44459" lon="4.96456">
        <ele>378.3</ele>
        <time>2023-06-11T07:58:37.000Z</time>
      </trkpt>
      <trkpt lat="45.44451" lon="4.96474">
        <ele>375.2</ele>
        <time>2023-06-11T07:58:39.000Z</time>
      </trkpt>
      <trkpt lat="45.44447" lon="4.9648">
        <ele>373.9</ele>
        <time>2023-06-11T07:58:40.000Z</time>
      </trkpt>
      <trkpt lat="45.44442" lon="4.96483">
        <ele>373.4</ele>
        <time>2023-06-11T07:58:41.000Z</time>
      </trkpt>
      <trkpt lat="45.44436" lon="4.96485">
        <ele>372</ele>
        <time>2023-06-11T07:58:42.000Z</time>
      </trkpt>
      <trkpt lat="45.44429" lon="4.96485">
        <ele>370.8</ele>
        <time>2023-06-11T07:58:43.000Z</time>
      </trkpt>
      <trkpt lat="45.44415" lon="4.96482">
        <ele>369.3</ele>
        <time>2023-06-11T07:58:45.000Z</time>
      </trkpt>
      <trkpt lat="45.44397" lon="4.96479">
        <ele>367.1</ele>
        <time>2023-06-11T07:58:47.000Z</time>
      </trkpt>
      <trkpt lat="45.44381" lon="4.96478">
        <ele>364.6</ele>
        <time>2023-06-11T07:58:49.000Z</time>
      </trkpt>
      <trkpt lat="45.44368" lon="4.96482">
        <ele>363</ele>
        <time>2023-06-11T07:58:51.000Z</time>
      </trkpt>
      <trkpt lat="45.44354" lon="4.96485">
        <ele>360.6</ele>
        <time>2023-06-11T07:58:53.000Z</time>
      </trkpt>
      <trkpt lat="45.44346" lon="4.96487">
        <ele>359.7</ele>
        <time>2023-06-11T07:58:54.000Z</time>
      </trkpt>
      <trkpt lat="45.44338" lon="4.96489">
        <ele>358.3</ele>
        <time>2023-06-11T07:58:55.000Z</time>
      </trkpt>
      <trkpt lat="45.44331" lon="4.96491">
        <ele>357.4</ele>
        <time>2023-06-11T07:58:56.000Z</time>
      </trkpt>
      <trkpt lat="45.44315" lon="4.96492">
        <ele>355.1</ele>
        <time>2023-06-11T07:58:58.000Z</time>
      </trkpt>
      <trkpt lat="45.44307" lon="4.96491">
        <ele>354.3</ele>
        <time>2023-06-11T07:58:59.000Z</time>
      </trkpt>
      <trkpt lat="45.44299" lon="4.96491">
        <ele>353.1</ele>
        <time>2023-06-11T07:59:00.000Z</time>
      </trkpt>
      <trkpt lat="45.4429" lon="4.96492">
        <ele>352.2</ele>
        <time>2023-06-11T07:59:01.000Z</time>
      </trkpt>
      <trkpt lat="45.44271" lon="4.96493">
        <ele>350.2</ele>
        <time>2023-06-11T07:59:03.000Z</time>
      </trkpt>
      <trkpt lat="45.4426" lon="4.96494">
        <ele>349</ele>
        <time>2023-06-11T07:59:04.000Z</time>
      </trkpt>
      <trkpt lat="45.44249" lon="4.96494">
        <ele>348</ele>
        <time>2023-06-11T07:59:05.000Z</time>
      </trkpt>
      <trkpt lat="45.4424" lon="4.96495">
        <ele>347.2</ele>
        <time>2023-06-11T07:59:06.000Z</time>
      </trkpt>
      <trkpt lat="45.44231" lon="4.96495">
        <ele>346.5</ele>
        <time>2023-06-11T07:59:07.000Z</time>
      </trkpt>
      <trkpt lat="45.44223" lon="4.96495">
        <ele>345.7</ele>
        <time>2023-06-11T07:59:08.000Z</time>
      </trkpt>
      <trkpt lat="45.44215" lon="4.96494">
        <ele>344.9</ele>
        <time>2023-06-11T07:59:09.000Z</time>
      </trkpt>
      <trkpt lat="45.44209" lon="4.96491">
        <ele>344.2</ele>
        <time>2023-06-11T07:59:10.000Z</time>
      </trkpt>
      <trkpt lat="45.44205" lon="4.96487">
        <ele>343.8</ele>
        <time>2023-06-11T07:59:11.000Z</time>
      </trkpt>
      <trkpt lat="45.44202" lon="4.96481">
        <ele>343.3</ele>
        <time>2023-06-11T07:59:12.000Z</time>
      </trkpt>
      <trkpt lat="45.44199" lon="4.96474">
        <ele>342.6</ele>
        <time>2023-06-11T07:59:13.000Z</time>
      </trkpt>
      <trkpt lat="45.44196" lon="4.96467">
        <ele>342.2</ele>
        <time>2023-06-11T07:59:14.000Z</time>
      </trkpt>
      <trkpt lat="45.44192" lon="4.9646">
        <ele>341.5</ele>
        <time>2023-06-11T07:59:15.000Z</time>
      </trkpt>
      <trkpt lat="45.44187" lon="4.96454">
        <ele>340.8</ele>
        <time>2023-06-11T07:59:16.000Z</time>
      </trkpt>
      <trkpt lat="45.4418" lon="4.96448">
        <ele>340</ele>
        <time>2023-06-11T07:59:17.000Z</time>
      </trkpt>
      <trkpt lat="45.44167" lon="4.96437">
        <ele>338.3</ele>
        <time>2023-06-11T07:59:19.000Z</time>
      </trkpt>
      <trkpt lat="45.44153" lon="4.96425">
        <ele>336.6</ele>
        <time>2023-06-11T07:59:21.000Z</time>
      </trkpt>
      <trkpt lat="45.44147" lon="4.9642">
        <ele>335.7</ele>
        <time>2023-06-11T07:59:22.000Z</time>
      </trkpt>
      <trkpt lat="45.44141" lon="4.96415">
        <ele>334.7</ele>
        <time>2023-06-11T07:59:23.000Z</time>
      </trkpt>
      <trkpt lat="45.44132" lon="4.9641">
        <ele>333.2</ele>
        <time>2023-06-11T07:59:24.000Z</time>
      </trkpt>
      <trkpt lat="45.44125" lon="4.96407">
        <ele>331.8</ele>
        <time>2023-06-11T07:59:25.000Z</time>
      </trkpt>
      <trkpt lat="45.44119" lon="4.96405">
        <ele>331.1</ele>
        <time>2023-06-11T07:59:26.000Z</time>
      </trkpt>
      <trkpt lat="45.44114" lon="4.96403">
        <ele>330.6</ele>
        <time>2023-06-11T07:59:27.000Z</time>
      </trkpt>
      <trkpt lat="45.44109" lon="4.96403">
        <ele>329.6</ele>
        <time>2023-06-11T07:59:28.000Z</time>
      </trkpt>
      <trkpt lat="45.44101" lon="4.96402">
        <ele>328.2</ele>
        <time>2023-06-11T07:59:30.000Z</time>
      </trkpt>
      <trkpt lat="45.44096" lon="4.96401">
        <ele>327.6</ele>
        <time>2023-06-11T07:59:31.000Z</time>
      </trkpt>
      <trkpt lat="45.44085" lon="4.964">
        <ele>325.5</ele>
        <time>2023-06-11T07:59:33.000Z</time>
      </trkpt>
      <trkpt lat="45.4408" lon="4.96399">
        <ele>324.3</ele>
        <time>2023-06-11T07:59:34.000Z</time>
      </trkpt>
      <trkpt lat="45.44075" lon="4.964">
        <ele>323.8</ele>
        <time>2023-06-11T07:59:35.000Z</time>
      </trkpt>
      <trkpt lat="45.44065" lon="4.96399">
        <ele>322.3</ele>
        <time>2023-06-11T07:59:37.000Z</time>
      </trkpt>
      <trkpt lat="45.44053" lon="4.96396">
        <ele>320.2</ele>
        <time>2023-06-11T07:59:39.000Z</time>
      </trkpt>
      <trkpt lat="45.44047" lon="4.96393">
        <ele>318.7</ele>
        <time>2023-06-11T07:59:40.000Z</time>
      </trkpt>
      <trkpt lat="45.44032" lon="4.96383">
        <ele>317</ele>
        <time>2023-06-11T07:59:42.000Z</time>
      </trkpt>
      <trkpt lat="45.44017" lon="4.96372">
        <ele>314.5</ele>
        <time>2023-06-11T07:59:44.000Z</time>
      </trkpt>
      <trkpt lat="45.4401" lon="4.96368">
        <ele>313.3</ele>
        <time>2023-06-11T07:59:45.000Z</time>
      </trkpt>
      <trkpt lat="45.44002" lon="4.96366">
        <ele>312</ele>
        <time>2023-06-11T07:59:46.000Z</time>
      </trkpt>
      <trkpt lat="45.43993" lon="4.96365">
        <ele>311.2</ele>
        <time>2023-06-11T07:59:47.000Z</time>
      </trkpt>
      <trkpt lat="45.43985" lon="4.96366">
        <ele>310.2</ele>
        <time>2023-06-11T07:59:48.000Z</time>
      </trkpt>
      <trkpt lat="45.43976" lon="4.96367">
        <ele>309.2</ele>
        <time>2023-06-11T07:59:49.000Z</time>
      </trkpt>
      <trkpt lat="45.43959" lon="4.96369">
        <ele>307.6</ele>
        <time>2023-06-11T07:59:51.000Z</time>
      </trkpt>
      <trkpt lat="45.43951" lon="4.9637">
        <ele>307.2</ele>
        <time>2023-06-11T07:59:52.000Z</time>
      </trkpt>
      <trkpt lat="45.43935" lon="4.96371">
        <ele>306.2</ele>
        <time>2023-06-11T07:59:54.000Z</time>
      </trkpt>
      <trkpt lat="45.43927" lon="4.96372">
        <ele>306</ele>
        <time>2023-06-11T07:59:55.000Z</time>
      </trkpt>
      <trkpt lat="45.43919" lon="4.96373">
        <ele>305.7</ele>
        <time>2023-06-11T07:59:56.000Z</time>
      </trkpt>
      <trkpt lat="45.43904" lon="4.96376">
        <ele>305.1</ele>
        <time>2023-06-11T07:59:58.000Z</time>
      </trkpt>
      <trkpt lat="45.43897" lon="4.96377">
        <ele>305</ele>
        <time>2023-06-11T07:59:59.000Z</time>
      </trkpt>
      <trkpt lat="45.43883" lon="4.9638">
        <ele>304.6</ele>
        <time>2023-06-11T08:00:02.000Z</time>
      </trkpt>
      <trkpt lat="45.43874" lon="4.96383">
        <ele>304.6</ele>
        <time>2023-06-11T08:00:05.000Z</time>
      </trkpt>
      <trkpt lat="45.4387" lon="4.96384">
        <ele>304.6</ele>
        <time>2023-06-11T08:00:06.000Z</time>
      </trkpt>
      <trkpt lat="45.4386" lon="4.96385">
        <ele>304.6</ele>
        <time>2023-06-11T08:00:08.000Z</time>
      </trkpt>
      <trkpt lat="45.43849" lon="4.96387">
        <ele>304.5</ele>
        <time>2023-06-11T08:00:10.000Z</time>
      </trkpt>
      <trkpt lat="45.43831" lon="4.9639">
        <ele>304.4</ele>
        <time>2023-06-11T08:00:13.000Z</time>
      </trkpt>
      <trkpt lat="45.43813" lon="4.96392">
        <ele>304.4</ele>
        <time>2023-06-11T08:00:16.000Z</time>
      </trkpt>
      <trkpt lat="45.4379" lon="4.96396">
        <ele>304.2</ele>
        <time>2023-06-11T08:00:20.000Z</time>
      </trkpt>
      <trkpt lat="45.4378" lon="4.96397">
        <ele>304.2</ele>
        <time>2023-06-11T08:00:22.000Z</time>
      </trkpt>
      <trkpt lat="45.43776" lon="4.96397">
        <ele>304.2</ele>
        <time>2023-06-11T08:00:23.000Z</time>
      </trkpt>
      <trkpt lat="45.43769" lon="4.9639">
        <ele>304.2</ele>
        <time>2023-06-11T08:00:25.000Z</time>
      </trkpt>
      <trkpt lat="45.43762" lon="4.96371">
        <ele>304.2</ele>
        <time>2023-06-11T08:00:28.000Z</time>
      </trkpt>
      <trkpt lat="45.4376" lon="4.96364">
        <ele>304.2</ele>
        <time>2023-06-11T08:00:29.000Z</time>
      </trkpt>
      <trkpt lat="45.43754" lon="4.9635">
        <ele>304</ele>
        <time>2023-06-11T08:00:31.000Z</time>
      </trkpt>
      <trkpt lat="45.43745" lon="4.96337">
        <ele>303.6</ele>
        <time>2023-06-11T08:00:33.000Z</time>
      </trkpt>
      <trkpt lat="45.43712" lon="4.96299">
        <ele>303</ele>
        <time>2023-06-11T08:00:40.000Z</time>
      </trkpt>
      <trkpt lat="45.43707" lon="4.96294">
        <ele>303</ele>
        <time>2023-06-11T08:00:41.000Z</time>
      </trkpt>
      <trkpt lat="45.43683" lon="4.96282">
        <ele>302.6</ele>
        <time>2023-06-11T08:00:45.000Z</time>
      </trkpt>
      <trkpt lat="45.43669" lon="4.9628">
        <ele>302.7</ele>
        <time>2023-06-11T08:00:47.000Z</time>
      </trkpt>
      <trkpt lat="45.43656" lon="4.96278">
        <ele>302.6</ele>
        <time>2023-06-11T08:00:49.000Z</time>
      </trkpt>
      <trkpt lat="45.43643" lon="4.96274">
        <ele>302.5</ele>
        <time>2023-06-11T08:00:51.000Z</time>
      </trkpt>
      <trkpt lat="45.43637" lon="4.96271">
        <ele>302.4</ele>
        <time>2023-06-11T08:00:52.000Z</time>
      </trkpt>
      <trkpt lat="45.43625" lon="4.96264">
        <ele>302.3</ele>
        <time>2023-06-11T08:00:54.000Z</time>
      </trkpt>
      <trkpt lat="45.43615" lon="4.96251">
        <ele>303.1</ele>
        <time>2023-06-11T08:00:56.000Z</time>
      </trkpt>
      <trkpt lat="45.43607" lon="4.96241">
        <ele>303.8</ele>
        <time>2023-06-11T08:00:58.000Z</time>
      </trkpt>
      <trkpt lat="45.43603" lon="4.96238">
        <ele>304.1</ele>
        <time>2023-06-11T08:01:00.000Z</time>
      </trkpt>
      <trkpt lat="45.43599" lon="4.96233">
        <ele>304.4</ele>
        <time>2023-06-11T08:01:03.000Z</time>
      </trkpt>
      <trkpt lat="45.43594" lon="4.96235">
        <ele>304.8</ele>
        <time>2023-06-11T08:01:06.000Z</time>
      </trkpt>
      <trkpt lat="45.43587" lon="4.96239">
        <ele>305.4</ele>
        <time>2023-06-11T08:01:10.000Z</time>
      </trkpt>
      <trkpt lat="45.4358" lon="4.96243">
        <ele>306.4</ele>
        <time>2023-06-11T08:01:13.000Z</time>
      </trkpt>
      <trkpt lat="45.43577" lon="4.96246">
        <ele>306.8</ele>
        <time>2023-06-11T08:01:15.000Z</time>
      </trkpt>
      <trkpt lat="45.43574" lon="4.96247">
        <ele>307.2</ele>
        <time>2023-06-11T08:01:17.000Z</time>
      </trkpt>
      <trkpt lat="45.43569" lon="4.96248">
        <ele>307.4</ele>
        <time>2023-06-11T08:01:20.000Z</time>
      </trkpt>
      <trkpt lat="45.43562" lon="4.96247">
        <ele>308.5</ele>
        <time>2023-06-11T08:01:23.000Z</time>
      </trkpt>
      <trkpt lat="45.43555" lon="4.96244">
        <ele>309.3</ele>
        <time>2023-06-11T08:01:25.000Z</time>
      </trkpt>
      <trkpt lat="45.43551" lon="4.9624">
        <ele>309.8</ele>
        <time>2023-06-11T08:01:26.000Z</time>
      </trkpt>
      <trkpt lat="45.43538" lon="4.96239">
        <ele>311.3</ele>
        <time>2023-06-11T08:01:29.000Z</time>
      </trkpt>
      <trkpt lat="45.43535" lon="4.96238">
        <ele>312.3</ele>
        <time>2023-06-11T08:01:30.000Z</time>
      </trkpt>
      <trkpt lat="45.43525" lon="4.96233">
        <ele>313.8</ele>
        <time>2023-06-11T08:01:33.000Z</time>
      </trkpt>
      <trkpt lat="45.43522" lon="4.96232">
        <ele>314.2</ele>
        <time>2023-06-11T08:01:35.000Z</time>
      </trkpt>
      <trkpt lat="45.43511" lon="4.96221">
        <ele>316.4</ele>
        <time>2023-06-11T08:01:40.000Z</time>
      </trkpt>
      <trkpt lat="45.43507" lon="4.96217">
        <ele>316.9</ele>
        <time>2023-06-11T08:01:41.000Z</time>
      </trkpt>
      <trkpt lat="45.43505" lon="4.96215">
        <ele>316.9</ele>
        <time>2023-06-11T08:01:42.000Z</time>
      </trkpt>
      <trkpt lat="45.43505" lon="4.96213">
        <ele>317.5</ele>
        <time>2023-06-11T08:01:43.000Z</time>
      </trkpt>
      <trkpt lat="45.43505" lon="4.96211">
        <ele>317.2</ele>
        <time>2023-06-11T08:01:44.000Z</time>
      </trkpt>
      <trkpt lat="45.43508" lon="4.96208">
        <ele>317.4</ele>
        <time>2023-06-11T08:01:46.000Z</time>
      </trkpt>
      <trkpt lat="45.43511" lon="4.96205">
        <ele>317.2</ele>
        <time>2023-06-11T08:01:48.000Z</time>
      </trkpt>
      <trkpt lat="45.43514" lon="4.96207">
        <ele>316.9</ele>
        <time>2023-06-11T08:01:52.000Z</time>
      </trkpt>
      <trkpt lat="45.43519" lon="4.96206">
        <ele>316.2</ele>
        <time>2023-06-11T08:01:54.000Z</time>
      </trkpt>
      <trkpt lat="45.43523" lon="4.96206">
        <ele>315.4</ele>
        <time>2023-06-11T08:01:57.000Z</time>
      </trkpt>
      <trkpt lat="45.43525" lon="4.96208">
        <ele>315.4</ele>
        <time>2023-06-11T08:01:59.000Z</time>
      </trkpt>
      <trkpt lat="45.43526" lon="4.96208">
        <ele>315.4</ele>
        <time>2023-06-11T08:02:00.000Z</time>
      </trkpt>
      <trkpt lat="45.43527" lon="4.96208">
        <ele>314.9</ele>
        <time>2023-06-11T08:02:02.000Z</time>
      </trkpt>
      <trkpt lat="45.43529" lon="4.9621">
        <ele>314.7</ele>
        <time>2023-06-11T08:02:05.000Z</time>
      </trkpt>
      <trkpt lat="45.43533" lon="4.96208">
        <ele>313.9</ele>
        <time>2023-06-11T08:02:09.000Z</time>
      </trkpt>
      <trkpt lat="45.43534" lon="4.96208">
        <ele>313.9</ele>
        <time>2023-06-11T08:02:10.000Z</time>
      </trkpt>
      <trkpt lat="45.43534" lon="4.96206">
        <ele>313.9</ele>
        <time>2023-06-11T08:02:11.000Z</time>
      </trkpt>
      <trkpt lat="45.43538" lon="4.96199">
        <ele>313.8</ele>
        <time>2023-06-11T08:02:16.000Z</time>
      </trkpt>
      <trkpt lat="45.43538" lon="4.96198">
        <ele>313.8</ele>
        <time>2023-06-11T08:02:17.000Z</time>
      </trkpt>
      <trkpt lat="45.4354" lon="4.96193">
        <ele>313.5</ele>
        <time>2023-06-11T08:02:20.000Z</time>
      </trkpt>
      <trkpt lat="45.4354" lon="4.96191">
        <ele>313.7</ele>
        <time>2023-06-11T08:02:21.000Z</time>
      </trkpt>
      <trkpt lat="45.43541" lon="4.96188">
        <ele>313.7</ele>
        <time>2023-06-11T08:02:23.000Z</time>
      </trkpt>
      <trkpt lat="45.43543" lon="4.96183">
        <ele>313.7</ele>
        <time>2023-06-11T08:02:27.000Z</time>
      </trkpt>
      <trkpt lat="45.43542" lon="4.96181">
        <ele>313.7</ele>
        <time>2023-06-11T08:02:28.000Z</time>
      </trkpt>
      <trkpt lat="45.43546" lon="4.96173">
        <ele>313.9</ele>
        <time>2023-06-11T08:02:32.000Z</time>
      </trkpt>
      <trkpt lat="45.43545" lon="4.96171">
        <ele>313.9</ele>
        <time>2023-06-11T08:02:34.000Z</time>
      </trkpt>
      <trkpt lat="45.43545" lon="4.96166">
        <ele>314.1</ele>
        <time>2023-06-11T08:02:36.000Z</time>
      </trkpt>
      <trkpt lat="45.43547" lon="4.9616">
        <ele>314.6</ele>
        <time>2023-06-11T08:02:38.000Z</time>
      </trkpt>
      <trkpt lat="45.43547" lon="4.96157">
        <ele>314.9</ele>
        <time>2023-06-11T08:02:40.000Z</time>
      </trkpt>
      <trkpt lat="45.43545" lon="4.96149">
        <ele>315.1</ele>
        <time>2023-06-11T08:02:44.000Z</time>
      </trkpt>
      <trkpt lat="45.43546" lon="4.96147">
        <ele>315.2</ele>
        <time>2023-06-11T08:02:45.000Z</time>
      </trkpt>
      <trkpt lat="45.43545" lon="4.96145">
        <ele>315.2</ele>
        <time>2023-06-11T08:02:46.000Z</time>
      </trkpt>
      <trkpt lat="45.43544" lon="4.96141">
        <ele>315.9</ele>
        <time>2023-06-11T08:02:48.000Z</time>
      </trkpt>
      <trkpt lat="45.43544" lon="4.9614">
        <ele>315.9</ele>
        <time>2023-06-11T08:02:49.000Z</time>
      </trkpt>
      <trkpt lat="45.43543" lon="4.96137">
        <ele>316.1</ele>
        <time>2023-06-11T08:02:51.000Z</time>
      </trkpt>
      <trkpt lat="45.43543" lon="4.96132">
        <ele>316.3</ele>
        <time>2023-06-11T08:02:54.000Z</time>
      </trkpt>
      <trkpt lat="45.43543" lon="4.96129">
        <ele>316.5</ele>
        <time>2023-06-11T08:02:56.000Z</time>
      </trkpt>
      <trkpt lat="45.43541" lon="4.96127">
        <ele>316.8</ele>
        <time>2023-06-11T08:02:58.000Z</time>
      </trkpt>
      <trkpt lat="45.4354" lon="4.96119">
        <ele>317.5</ele>
        <time>2023-06-11T08:03:04.000Z</time>
      </trkpt>
      <trkpt lat="45.43541" lon="4.96114">
        <ele>318.1</ele>
        <time>2023-06-11T08:03:10.000Z</time>
      </trkpt>
      <trkpt lat="45.43543" lon="4.96099">
        <ele>318.5</ele>
        <time>2023-06-11T08:03:16.000Z</time>
      </trkpt>
      <trkpt lat="45.43543" lon="4.96086">
        <ele>319.3</ele>
        <time>2023-06-11T08:03:22.000Z</time>
      </trkpt>
      <trkpt lat="45.43544" lon="4.96084">
        <ele>319.6</ele>
        <time>2023-06-11T08:03:23.000Z</time>
      </trkpt>
      <trkpt lat="45.43545" lon="4.9608">
        <ele>319.2</ele>
        <time>2023-06-11T08:03:25.000Z</time>
      </trkpt>
      <trkpt lat="45.43545" lon="4.96074">
        <ele>319.4</ele>
        <time>2023-06-11T08:03:29.000Z</time>
      </trkpt>
      <trkpt lat="45.43546" lon="4.96071">
        <ele>319.6</ele>
        <time>2023-06-11T08:03:31.000Z</time>
      </trkpt>
      <trkpt lat="45.43545" lon="4.96064">
        <ele>319.7</ele>
        <time>2023-06-11T08:03:35.000Z</time>
      </trkpt>
      <trkpt lat="45.43546" lon="4.9606">
        <ele>319.8</ele>
        <time>2023-06-11T08:03:37.000Z</time>
      </trkpt>
      <trkpt lat="45.43544" lon="4.96055">
        <ele>320.5</ele>
        <time>2023-06-11T08:03:39.000Z</time>
      </trkpt>
      <trkpt lat="45.43541" lon="4.9605">
        <ele>321.3</ele>
        <time>2023-06-11T08:03:42.000Z</time>
      </trkpt>
      <trkpt lat="45.43541" lon="4.96047">
        <ele>321.3</ele>
        <time>2023-06-11T08:03:43.000Z</time>
      </trkpt>
      <trkpt lat="45.43543" lon="4.9604">
        <ele>320.6</ele>
        <time>2023-06-11T08:03:47.000Z</time>
      </trkpt>
      <trkpt lat="45.43541" lon="4.96037">
        <ele>321.2</ele>
        <time>2023-06-11T08:03:49.000Z</time>
      </trkpt>
      <trkpt lat="45.43539" lon="4.96036">
        <ele>321.2</ele>
        <time>2023-06-11T08:03:50.000Z</time>
      </trkpt>
      <trkpt lat="45.43538" lon="4.96034">
        <ele>321.2</ele>
        <time>2023-06-11T08:03:51.000Z</time>
      </trkpt>
      <trkpt lat="45.43536" lon="4.96032">
        <ele>321.8</ele>
        <time>2023-06-11T08:03:52.000Z</time>
      </trkpt>
      <trkpt lat="45.43534" lon="4.96029">
        <ele>322.5</ele>
        <time>2023-06-11T08:03:53.000Z</time>
      </trkpt>
      <trkpt lat="45.43532" lon="4.96026">
        <ele>322.4</ele>
        <time>2023-06-11T08:03:55.000Z</time>
      </trkpt>
      <trkpt lat="45.43533" lon="4.96024">
        <ele>322.4</ele>
        <time>2023-06-11T08:03:56.000Z</time>
      </trkpt>
      <trkpt lat="45.43531" lon="4.96021">
        <ele>323</ele>
        <time>2023-06-11T08:03:58.000Z</time>
      </trkpt>
      <trkpt lat="45.43529" lon="4.96018">
        <ele>323.6</ele>
        <time>2023-06-11T08:04:00.000Z</time>
      </trkpt>
      <trkpt lat="45.43529" lon="4.96017">
        <ele>322.9</ele>
        <time>2023-06-11T08:04:01.000Z</time>
      </trkpt>
      <trkpt lat="45.43528" lon="4.96013">
        <ele>323.5</ele>
        <time>2023-06-11T08:04:04.000Z</time>
      </trkpt>
      <trkpt lat="45.43525" lon="4.96009">
        <ele>324</ele>
        <time>2023-06-11T08:04:07.000Z</time>
      </trkpt>
      <trkpt lat="45.43522" lon="4.96006">
        <ele>324.5</ele>
        <time>2023-06-11T08:04:10.000Z</time>
      </trkpt>
      <trkpt lat="45.43516" lon="4.96004">
        <ele>325.9</ele>
        <time>2023-06-11T08:04:15.000Z</time>
      </trkpt>
      <trkpt lat="45.43515" lon="4.96004">
        <ele>325.9</ele>
        <time>2023-06-11T08:04:16.000Z</time>
      </trkpt>
      <trkpt lat="45.43514" lon="4.96005">
        <ele>325.9</ele>
        <time>2023-06-11T08:04:17.000Z</time>
      </trkpt>
      <trkpt lat="45.43512" lon="4.96005">
        <ele>326.6</ele>
        <time>2023-06-11T08:04:19.000Z</time>
      </trkpt>
      <trkpt lat="45.43511" lon="4.96006">
        <ele>327.2</ele>
        <time>2023-06-11T08:04:20.000Z</time>
      </trkpt>
      <trkpt lat="45.43508" lon="4.96007">
        <ele>327.9</ele>
        <time>2023-06-11T08:04:22.000Z</time>
      </trkpt>
      <trkpt lat="45.43504" lon="4.9601">
        <ele>328.8</ele>
        <time>2023-06-11T08:04:26.000Z</time>
      </trkpt>
      <trkpt lat="45.43504" lon="4.9601">
        <ele>328.8</ele>
        <time>2023-06-11T08:04:27.000Z</time>
      </trkpt>
      <trkpt lat="45.43499" lon="4.96011">
        <ele>330.3</ele>
        <time>2023-06-11T08:04:31.000Z</time>
      </trkpt>
      <trkpt lat="45.43495" lon="4.96012">
        <ele>331.1</ele>
        <time>2023-06-11T08:04:34.000Z</time>
      </trkpt>
      <trkpt lat="45.43492" lon="4.96012">
        <ele>331.8</ele>
        <time>2023-06-11T08:04:36.000Z</time>
      </trkpt>
      <trkpt lat="45.43485" lon="4.96013">
        <ele>332.9</ele>
        <time>2023-06-11T08:04:42.000Z</time>
      </trkpt>
      <trkpt lat="45.43483" lon="4.96014">
        <ele>333.4</ele>
        <time>2023-06-11T08:04:43.000Z</time>
      </trkpt>
      <trkpt lat="45.43479" lon="4.96014">
        <ele>333.9</ele>
        <time>2023-06-11T08:04:47.000Z</time>
      </trkpt>
      <trkpt lat="45.43476" lon="4.96015">
        <ele>334.4</ele>
        <time>2023-06-11T08:04:49.000Z</time>
      </trkpt>
      <trkpt lat="45.43471" lon="4.96018">
        <ele>335.5</ele>
        <time>2023-06-11T08:04:53.000Z</time>
      </trkpt>
      <trkpt lat="45.43465" lon="4.9602">
        <ele>336.4</ele>
        <time>2023-06-11T08:04:57.000Z</time>
      </trkpt>
      <trkpt lat="45.43465" lon="4.96021">
        <ele>336.4</ele>
        <time>2023-06-11T08:04:59.000Z</time>
      </trkpt>
      <trkpt lat="45.43462" lon="4.96023">
        <ele>336.8</ele>
        <time>2023-06-11T08:05:01.000Z</time>
      </trkpt>
      <trkpt lat="45.43458" lon="4.96025">
        <ele>337.2</ele>
        <time>2023-06-11T08:05:03.000Z</time>
      </trkpt>
      <trkpt lat="45.43454" lon="4.96027">
        <ele>337.9</ele>
        <time>2023-06-11T08:05:05.000Z</time>
      </trkpt>
      <trkpt lat="45.43447" lon="4.96029">
        <ele>338.6</ele>
        <time>2023-06-11T08:05:09.000Z</time>
      </trkpt>
      <trkpt lat="45.43443" lon="4.9603">
        <ele>339</ele>
        <time>2023-06-11T08:05:11.000Z</time>
      </trkpt>
      <trkpt lat="45.43442" lon="4.96032">
        <ele>339.4</ele>
        <time>2023-06-11T08:05:12.000Z</time>
      </trkpt>
      <trkpt lat="45.43424" lon="4.96042">
        <ele>340.3</ele>
        <time>2023-06-11T08:05:21.000Z</time>
      </trkpt>
      <trkpt lat="45.43413" lon="4.96048">
        <ele>341</ele>
        <time>2023-06-11T08:05:26.000Z</time>
      </trkpt>
      <trkpt lat="45.43408" lon="4.96048">
        <ele>341.4</ele>
        <time>2023-06-11T08:05:28.000Z</time>
      </trkpt>
      <trkpt lat="45.43386" lon="4.96052">
        <ele>342</ele>
        <time>2023-06-11T08:05:36.000Z</time>
      </trkpt>
      <trkpt lat="45.43369" lon="4.9605">
        <ele>342.8</ele>
        <time>2023-06-11T08:05:42.000Z</time>
      </trkpt>
      <trkpt lat="45.43366" lon="4.9605">
        <ele>343.2</ele>
        <time>2023-06-11T08:05:43.000Z</time>
      </trkpt>
      <trkpt lat="45.43352" lon="4.96047">
        <ele>343.8</ele>
        <time>2023-06-11T08:05:48.000Z</time>
      </trkpt>
      <trkpt lat="45.43339" lon="4.96042">
        <ele>344.7</ele>
        <time>2023-06-11T08:05:53.000Z</time>
      </trkpt>
      <trkpt lat="45.43333" lon="4.9604">
        <ele>345.2</ele>
        <time>2023-06-11T08:05:55.000Z</time>
      </trkpt>
      <trkpt lat="45.4331" lon="4.96033">
        <ele>346.2</ele>
        <time>2023-06-11T08:06:03.000Z</time>
      </trkpt>
      <trkpt lat="45.43308" lon="4.96033">
        <ele>346.3</ele>
        <time>2023-06-11T08:06:04.000Z</time>
      </trkpt>
      <trkpt lat="45.43294" lon="4.96035">
        <ele>346.9</ele>
        <time>2023-06-11T08:06:10.000Z</time>
      </trkpt>
      <trkpt lat="45.43286" lon="4.96036">
        <ele>347.2</ele>
        <time>2023-06-11T08:06:14.000Z</time>
      </trkpt>
      <trkpt lat="45.43283" lon="4.96037">
        <ele>347.3</ele>
        <time>2023-06-11T08:06:16.000Z</time>
      </trkpt>
      <trkpt lat="45.43276" lon="4.96038">
        <ele>348</ele>
        <time>2023-06-11T08:06:20.000Z</time>
      </trkpt>
      <trkpt lat="45.43272" lon="4.96039">
        <ele>348.2</ele>
        <time>2023-06-11T08:06:22.000Z</time>
      </trkpt>
      <trkpt lat="45.43263" lon="4.9604">
        <ele>348.7</ele>
        <time>2023-06-11T08:06:27.000Z</time>
      </trkpt>
      <trkpt lat="45.43254" lon="4.9604">
        <ele>349.5</ele>
        <time>2023-06-11T08:06:31.000Z</time>
      </trkpt>
      <trkpt lat="45.43251" lon="4.96041">
        <ele>349.6</ele>
        <time>2023-06-11T08:06:33.000Z</time>
      </trkpt>
      <trkpt lat="45.43239" lon="4.96041">
        <ele>350.9</ele>
        <time>2023-06-11T08:06:39.000Z</time>
      </trkpt>
      <trkpt lat="45.43237" lon="4.96042">
        <ele>351.2</ele>
        <time>2023-06-11T08:06:40.000Z</time>
      </trkpt>
      <trkpt lat="45.43231" lon="4.96042">
        <ele>351.5</ele>
        <time>2023-06-11T08:06:44.000Z</time>
      </trkpt>
      <trkpt lat="45.43228" lon="4.9604">
        <ele>352.1</ele>
        <time>2023-06-11T08:06:46.000Z</time>
      </trkpt>
      <trkpt lat="45.43227" lon="4.96038">
        <ele>352.4</ele>
        <time>2023-06-11T08:06:48.000Z</time>
      </trkpt>
      <trkpt lat="45.43219" lon="4.96031">
        <ele>354.1</ele>
        <time>2023-06-11T08:06:53.000Z</time>
      </trkpt>
      <trkpt lat="45.43215" lon="4.96029">
        <ele>354.5</ele>
        <time>2023-06-11T08:06:55.000Z</time>
      </trkpt>
      <trkpt lat="45.43205" lon="4.96024">
        <ele>355.9</ele>
        <time>2023-06-11T08:07:01.000Z</time>
      </trkpt>
      <trkpt lat="45.43192" lon="4.96016">
        <ele>357.7</ele>
        <time>2023-06-11T08:07:09.000Z</time>
      </trkpt>
      <trkpt lat="45.43191" lon="4.96015">
        <ele>358</ele>
        <time>2023-06-11T08:07:10.000Z</time>
      </trkpt>
      <trkpt lat="45.43186" lon="4.9601">
        <ele>358.3</ele>
        <time>2023-06-11T08:07:14.000Z</time>
      </trkpt>
      <trkpt lat="45.43186" lon="4.96009">
        <ele>358.8</ele>
        <time>2023-06-11T08:07:15.000Z</time>
      </trkpt>
      <trkpt lat="45.43184" lon="4.96008">
        <ele>358.8</ele>
        <time>2023-06-11T08:07:16.000Z</time>
      </trkpt>
      <trkpt lat="45.43179" lon="4.96001">
        <ele>359.3</ele>
        <time>2023-06-11T08:07:20.000Z</time>
      </trkpt>
      <trkpt lat="45.43174" lon="4.95995">
        <ele>359.7</ele>
        <time>2023-06-11T08:07:23.000Z</time>
      </trkpt>
      <trkpt lat="45.43169" lon="4.95991">
        <ele>360.5</ele>
        <time>2023-06-11T08:07:27.000Z</time>
      </trkpt>
      <trkpt lat="45.43167" lon="4.95989">
        <ele>361</ele>
        <time>2023-06-11T08:07:28.000Z</time>
      </trkpt>
      <trkpt lat="45.43163" lon="4.95987">
        <ele>361.4</ele>
        <time>2023-06-11T08:07:30.000Z</time>
      </trkpt>
      <trkpt lat="45.43154" lon="4.95974">
        <ele>362.5</ele>
        <time>2023-06-11T08:07:36.000Z</time>
      </trkpt>
      <trkpt lat="45.43152" lon="4.95976">
        <ele>362.9</ele>
        <time>2023-06-11T08:07:38.000Z</time>
      </trkpt>
      <trkpt lat="45.43145" lon="4.95975">
        <ele>363.6</ele>
        <time>2023-06-11T08:07:43.000Z</time>
      </trkpt>
      <trkpt lat="45.43141" lon="4.95975">
        <ele>363.9</ele>
        <time>2023-06-11T08:07:46.000Z</time>
      </trkpt>
      <trkpt lat="45.43138" lon="4.95975">
        <ele>364.3</ele>
        <time>2023-06-11T08:07:48.000Z</time>
      </trkpt>
      <trkpt lat="45.43131" lon="4.95976">
        <ele>365.4</ele>
        <time>2023-06-11T08:07:54.000Z</time>
      </trkpt>
      <trkpt lat="45.4313" lon="4.95976">
        <ele>365.4</ele>
        <time>2023-06-11T08:07:55.000Z</time>
      </trkpt>
      <trkpt lat="45.43123" lon="4.95978">
        <ele>366</ele>
        <time>2023-06-11T08:08:00.000Z</time>
      </trkpt>
      <trkpt lat="45.43118" lon="4.95977">
        <ele>366.7</ele>
        <time>2023-06-11T08:08:04.000Z</time>
      </trkpt>
      <trkpt lat="45.43114" lon="4.95977">
        <ele>367.2</ele>
        <time>2023-06-11T08:08:07.000Z</time>
      </trkpt>
      <trkpt lat="45.43109" lon="4.95975">
        <ele>368.2</ele>
        <time>2023-06-11T08:08:13.000Z</time>
      </trkpt>
      <trkpt lat="45.43108" lon="4.95974">
        <ele>368.2</ele>
        <time>2023-06-11T08:08:14.000Z</time>
      </trkpt>
      <trkpt lat="45.43103" lon="4.95972">
        <ele>369.2</ele>
        <time>2023-06-11T08:08:18.000Z</time>
      </trkpt>
      <trkpt lat="45.43098" lon="4.9597">
        <ele>370</ele>
        <time>2023-06-11T08:08:22.000Z</time>
      </trkpt>
      <trkpt lat="45.43097" lon="4.9597">
        <ele>370</ele>
        <time>2023-06-11T08:08:23.000Z</time>
      </trkpt>
      <trkpt lat="45.43096" lon="4.9597">
        <ele>370.4</ele>
        <time>2023-06-11T08:08:24.000Z</time>
      </trkpt>
      <trkpt lat="45.43089" lon="4.95968">
        <ele>371.3</ele>
        <time>2023-06-11T08:08:29.000Z</time>
      </trkpt>
      <trkpt lat="45.43087" lon="4.95968">
        <ele>371.3</ele>
        <time>2023-06-11T08:08:30.000Z</time>
      </trkpt>
      <trkpt lat="45.43082" lon="4.95966">
        <ele>372.2</ele>
        <time>2023-06-11T08:08:34.000Z</time>
      </trkpt>
      <trkpt lat="45.43078" lon="4.95965">
        <ele>372.7</ele>
        <time>2023-06-11T08:08:37.000Z</time>
      </trkpt>
      <trkpt lat="45.43076" lon="4.95965">
        <ele>373.1</ele>
        <time>2023-06-11T08:08:38.000Z</time>
      </trkpt>
      <trkpt lat="45.4307" lon="4.95964">
        <ele>373.8</ele>
        <time>2023-06-11T08:08:43.000Z</time>
      </trkpt>
      <trkpt lat="45.43063" lon="4.95964">
        <ele>374.5</ele>
        <time>2023-06-11T08:08:48.000Z</time>
      </trkpt>
      <trkpt lat="45.43056" lon="4.95965">
        <ele>375.5</ele>
        <time>2023-06-11T08:08:53.000Z</time>
      </trkpt>
      <trkpt lat="45.43048" lon="4.95965">
        <ele>376.2</ele>
        <time>2023-06-11T08:08:58.000Z</time>
      </trkpt>
      <trkpt lat="45.43047" lon="4.95964">
        <ele>376.2</ele>
        <time>2023-06-11T08:08:59.000Z</time>
      </trkpt>
      <trkpt lat="45.43044" lon="4.95964">
        <ele>376.8</ele>
        <time>2023-06-11T08:09:01.000Z</time>
      </trkpt>
      <trkpt lat="45.4304" lon="4.95964">
        <ele>376.8</ele>
        <time>2023-06-11T08:09:04.000Z</time>
      </trkpt>
      <trkpt lat="45.43034" lon="4.95964">
        <ele>377.4</ele>
        <time>2023-06-11T08:09:08.000Z</time>
      </trkpt>
      <trkpt lat="45.43028" lon="4.95964">
        <ele>378</ele>
        <time>2023-06-11T08:09:12.000Z</time>
      </trkpt>
      <trkpt lat="45.43023" lon="4.95965">
        <ele>379</ele>
        <time>2023-06-11T08:09:16.000Z</time>
      </trkpt>
      <trkpt lat="45.4302" lon="4.95966">
        <ele>379.2</ele>
        <time>2023-06-11T08:09:18.000Z</time>
      </trkpt>
      <trkpt lat="45.43014" lon="4.95968">
        <ele>379.7</ele>
        <time>2023-06-11T08:09:22.000Z</time>
      </trkpt>
      <trkpt lat="45.4301" lon="4.9597">
        <ele>380.1</ele>
        <time>2023-06-11T08:09:25.000Z</time>
      </trkpt>
      <trkpt lat="45.43" lon="4.95973">
        <ele>380.6</ele>
        <time>2023-06-11T08:09:31.000Z</time>
      </trkpt>
      <trkpt lat="45.42999" lon="4.95973">
        <ele>380.7</ele>
        <time>2023-06-11T08:09:32.000Z</time>
      </trkpt>
      <trkpt lat="45.42986" lon="4.95978">
        <ele>381.9</ele>
        <time>2023-06-11T08:09:40.000Z</time>
      </trkpt>
      <trkpt lat="45.42984" lon="4.95978">
        <ele>382.1</ele>
        <time>2023-06-11T08:09:41.000Z</time>
      </trkpt>
      <trkpt lat="45.42974" lon="4.95978">
        <ele>383</ele>
        <time>2023-06-11T08:09:46.000Z</time>
      </trkpt>
      <trkpt lat="45.42963" lon="4.9598">
        <ele>383.7</ele>
        <time>2023-06-11T08:09:51.000Z</time>
      </trkpt>
      <trkpt lat="45.42958" lon="4.95981">
        <ele>384</ele>
        <time>2023-06-11T08:09:54.000Z</time>
      </trkpt>
      <trkpt lat="45.4295" lon="4.95982">
        <ele>384.4</ele>
        <time>2023-06-11T08:09:58.000Z</time>
      </trkpt>
      <trkpt lat="45.42943" lon="4.95983">
        <ele>384.7</ele>
        <time>2023-06-11T08:10:01.000Z</time>
      </trkpt>
      <trkpt lat="45.4293" lon="4.95985">
        <ele>385.3</ele>
        <time>2023-06-11T08:10:07.000Z</time>
      </trkpt>
      <trkpt lat="45.42928" lon="4.95985">
        <ele>385.4</ele>
        <time>2023-06-11T08:10:08.000Z</time>
      </trkpt>
      <trkpt lat="45.42917" lon="4.95987">
        <ele>386</ele>
        <time>2023-06-11T08:10:13.000Z</time>
      </trkpt>
      <trkpt lat="45.42906" lon="4.95989">
        <ele>386.5</ele>
        <time>2023-06-11T08:10:18.000Z</time>
      </trkpt>
      <trkpt lat="45.42888" lon="4.95992">
        <ele>387.2</ele>
        <time>2023-06-11T08:10:25.000Z</time>
      </trkpt>
      <trkpt lat="45.42883" lon="4.95993">
        <ele>387.4</ele>
        <time>2023-06-11T08:10:27.000Z</time>
      </trkpt>
      <trkpt lat="45.42867" lon="4.96001">
        <ele>388</ele>
        <time>2023-06-11T08:10:34.000Z</time>
      </trkpt>
      <trkpt lat="45.42862" lon="4.96005">
        <ele>388.1</ele>
        <time>2023-06-11T08:10:36.000Z</time>
      </trkpt>
      <trkpt lat="45.4286" lon="4.96007">
        <ele>388.2</ele>
        <time>2023-06-11T08:10:37.000Z</time>
      </trkpt>
      <trkpt lat="45.42842" lon="4.96026">
        <ele>389</ele>
        <time>2023-06-11T08:10:45.000Z</time>
      </trkpt>
      <trkpt lat="45.42818" lon="4.96041">
        <ele>390.1</ele>
        <time>2023-06-11T08:10:53.000Z</time>
      </trkpt>
      <trkpt lat="45.42803" lon="4.96053">
        <ele>390.7</ele>
        <time>2023-06-11T08:10:58.000Z</time>
      </trkpt>
      <trkpt lat="45.4279" lon="4.96061">
        <ele>391.2</ele>
        <time>2023-06-11T08:11:02.000Z</time>
      </trkpt>
      <trkpt lat="45.42759" lon="4.96072">
        <ele>391.9</ele>
        <time>2023-06-11T08:11:11.000Z</time>
      </trkpt>
      <trkpt lat="45.42725" lon="4.96087">
        <ele>392.4</ele>
        <time>2023-06-11T08:11:20.000Z</time>
      </trkpt>
      <trkpt lat="45.42717" lon="4.96091">
        <ele>392.4</ele>
        <time>2023-06-11T08:11:22.000Z</time>
      </trkpt>
      <trkpt lat="45.42702" lon="4.96099">
        <ele>392.5</ele>
        <time>2023-06-11T08:11:26.000Z</time>
      </trkpt>
      <trkpt lat="45.42685" lon="4.96106">
        <ele>392.6</ele>
        <time>2023-06-11T08:11:30.000Z</time>
      </trkpt>
      <trkpt lat="45.42665" lon="4.96118">
        <ele>392.8</ele>
        <time>2023-06-11T08:11:35.000Z</time>
      </trkpt>
      <trkpt lat="45.42649" lon="4.96127">
        <ele>393.3</ele>
        <time>2023-06-11T08:11:39.000Z</time>
      </trkpt>
      <trkpt lat="45.42621" lon="4.9614">
        <ele>394.3</ele>
        <time>2023-06-11T08:11:46.000Z</time>
      </trkpt>
      <trkpt lat="45.42617" lon="4.96143">
        <ele>394.5</ele>
        <time>2023-06-11T08:11:47.000Z</time>
      </trkpt>
      <trkpt lat="45.42613" lon="4.96145">
        <ele>394.7</ele>
        <time>2023-06-11T08:11:48.000Z</time>
      </trkpt>
      <trkpt lat="45.42582" lon="4.96163">
        <ele>396.3</ele>
        <time>2023-06-11T08:11:57.000Z</time>
      </trkpt>
      <trkpt lat="45.4257" lon="4.9617">
        <ele>396.6</ele>
        <time>2023-06-11T08:12:01.000Z</time>
      </trkpt>
      <trkpt lat="45.4256" lon="4.96173">
        <ele>396.6</ele>
        <time>2023-06-11T08:12:04.000Z</time>
      </trkpt>
      <trkpt lat="45.4255" lon="4.96178">
        <ele>396.5</ele>
        <time>2023-06-11T08:12:07.000Z</time>
      </trkpt>
      <trkpt lat="45.42532" lon="4.96182">
        <ele>396.6</ele>
        <time>2023-06-11T08:12:13.000Z</time>
      </trkpt>
      <trkpt lat="45.42529" lon="4.96183">
        <ele>396.7</ele>
        <time>2023-06-11T08:12:14.000Z</time>
      </trkpt>
      <trkpt lat="45.42509" lon="4.96188">
        <ele>396.8</ele>
        <time>2023-06-11T08:12:20.000Z</time>
      </trkpt>
      <trkpt lat="45.42497" lon="4.96189">
        <ele>397</ele>
        <time>2023-06-11T08:12:24.000Z</time>
      </trkpt>
      <trkpt lat="45.42482" lon="4.96191">
        <ele>397.4</ele>
        <time>2023-06-11T08:12:29.000Z</time>
      </trkpt>
      <trkpt lat="45.42471" lon="4.96196">
        <ele>397.8</ele>
        <time>2023-06-11T08:12:33.000Z</time>
      </trkpt>
      <trkpt lat="45.42464" lon="4.96199">
        <ele>398</ele>
        <time>2023-06-11T08:12:36.000Z</time>
      </trkpt>
      <trkpt lat="45.42453" lon="4.96204">
        <ele>398.2</ele>
        <time>2023-06-11T08:12:40.000Z</time>
      </trkpt>
      <trkpt lat="45.4245" lon="4.96206">
        <ele>398.3</ele>
        <time>2023-06-11T08:12:41.000Z</time>
      </trkpt>
      <trkpt lat="45.42434" lon="4.96212">
        <ele>398.4</ele>
        <time>2023-06-11T08:12:46.000Z</time>
      </trkpt>
      <trkpt lat="45.42428" lon="4.96214">
        <ele>398.4</ele>
        <time>2023-06-11T08:12:48.000Z</time>
      </trkpt>
      <trkpt lat="45.42415" lon="4.96216">
        <ele>398.3</ele>
        <time>2023-06-11T08:12:52.000Z</time>
      </trkpt>
      <trkpt lat="45.42401" lon="4.96217">
        <ele>398.3</ele>
        <time>2023-06-11T08:12:57.000Z</time>
      </trkpt>
      <trkpt lat="45.42391" lon="4.96217">
        <ele>398.2</ele>
        <time>2023-06-11T08:13:00.000Z</time>
      </trkpt>
      <trkpt lat="45.42366" lon="4.96218">
        <ele>398.6</ele>
        <time>2023-06-11T08:13:07.000Z</time>
      </trkpt>
      <trkpt lat="45.42331" lon="4.96217">
        <ele>399.3</ele>
        <time>2023-06-11T08:13:16.000Z</time>
      </trkpt>
      <trkpt lat="45.42295" lon="4.96212">
        <ele>399.6</ele>
        <time>2023-06-11T08:13:24.000Z</time>
      </trkpt>
      <trkpt lat="45.42266" lon="4.96208">
        <ele>399.6</ele>
        <time>2023-06-11T08:13:30.000Z</time>
      </trkpt>
      <trkpt lat="45.42236" lon="4.96204">
        <ele>400.3</ele>
        <time>2023-06-11T08:13:36.000Z</time>
      </trkpt>
      <trkpt lat="45.42231" lon="4.96204">
        <ele>400.5</ele>
        <time>2023-06-11T08:13:37.000Z</time>
      </trkpt>
      <trkpt lat="45.42187" lon="4.96207">
        <ele>403.5</ele>
        <time>2023-06-11T08:13:47.000Z</time>
      </trkpt>
      <trkpt lat="45.42177" lon="4.96209">
        <ele>404.5</ele>
        <time>2023-06-11T08:13:50.000Z</time>
      </trkpt>
      <trkpt lat="45.42162" lon="4.96213">
        <ele>406</ele>
        <time>2023-06-11T08:13:55.000Z</time>
      </trkpt>
      <trkpt lat="45.42147" lon="4.96216">
        <ele>407.3</ele>
        <time>2023-06-11T08:14:00.000Z</time>
      </trkpt>
      <trkpt lat="45.42137" lon="4.96218">
        <ele>408</ele>
        <time>2023-06-11T08:14:03.000Z</time>
      </trkpt>
      <trkpt lat="45.42132" lon="4.96219">
        <ele>408.4</ele>
        <time>2023-06-11T08:14:05.000Z</time>
      </trkpt>
      <trkpt lat="45.42113" lon="4.9622">
        <ele>409.5</ele>
        <time>2023-06-11T08:14:11.000Z</time>
      </trkpt>
      <trkpt lat="45.42096" lon="4.9622">
        <ele>410.3</ele>
        <time>2023-06-11T08:14:16.000Z</time>
      </trkpt>
      <trkpt lat="45.42076" lon="4.96219">
        <ele>411.4</ele>
        <time>2023-06-11T08:14:22.000Z</time>
      </trkpt>
      <trkpt lat="45.42072" lon="4.96219">
        <ele>411.5</ele>
        <time>2023-06-11T08:14:23.000Z</time>
      </trkpt>
      <trkpt lat="45.42039" lon="4.96217">
        <ele>413</ele>
        <time>2023-06-11T08:14:33.000Z</time>
      </trkpt>
      <trkpt lat="45.42005" lon="4.96214">
        <ele>414.9</ele>
        <time>2023-06-11T08:14:43.000Z</time>
      </trkpt>
      <trkpt lat="45.42001" lon="4.96214">
        <ele>415.1</ele>
        <time>2023-06-11T08:14:44.000Z</time>
      </trkpt>
      <trkpt lat="45.41994" lon="4.96214">
        <ele>415.5</ele>
        <time>2023-06-11T08:14:46.000Z</time>
      </trkpt>
      <trkpt lat="45.41972" lon="4.96212">
        <ele>416.4</ele>
        <time>2023-06-11T08:14:52.000Z</time>
      </trkpt>
      <trkpt lat="45.41957" lon="4.96211">
        <ele>416.8</ele>
        <time>2023-06-11T08:14:56.000Z</time>
      </trkpt>
      <trkpt lat="45.41935" lon="4.96219">
        <ele>416.9</ele>
        <time>2023-06-11T08:15:02.000Z</time>
      </trkpt>
      <trkpt lat="45.41929" lon="4.96228">
        <ele>417.1</ele>
        <time>2023-06-11T08:15:04.000Z</time>
      </trkpt>
      <trkpt lat="45.41929" lon="4.96234">
        <ele>417.1</ele>
        <time>2023-06-11T08:15:05.000Z</time>
      </trkpt>
      <trkpt lat="45.41929" lon="4.96247">
        <ele>417.2</ele>
        <time>2023-06-11T08:15:07.000Z</time>
      </trkpt>
      <trkpt lat="45.41932" lon="4.96273">
        <ele>417.4</ele>
        <time>2023-06-11T08:15:11.000Z</time>
      </trkpt>
      <trkpt lat="45.41941" lon="4.96337">
        <ele>417.4</ele>
        <time>2023-06-11T08:15:20.000Z</time>
      </trkpt>
      <trkpt lat="45.41945" lon="4.96406">
        <ele>417.1</ele>
        <time>2023-06-11T08:15:29.000Z</time>
      </trkpt>
      <trkpt lat="45.41945" lon="4.96414">
        <ele>417</ele>
        <time>2023-06-11T08:15:30.000Z</time>
      </trkpt>
      <trkpt lat="45.41948" lon="4.9649">
        <ele>416.8</ele>
        <time>2023-06-11T08:15:40.000Z</time>
      </trkpt>
      <trkpt lat="45.41947" lon="4.96561">
        <ele>416.7</ele>
        <time>2023-06-11T08:15:49.000Z</time>
      </trkpt>
      <trkpt lat="45.41942" lon="4.96637">
        <ele>416.6</ele>
        <time>2023-06-11T08:15:58.000Z</time>
      </trkpt>
      <trkpt lat="45.41933" lon="4.96719">
        <ele>416.7</ele>
        <time>2023-06-11T08:16:07.000Z</time>
      </trkpt>
      <trkpt lat="45.41935" lon="4.96785">
        <ele>417</ele>
        <time>2023-06-11T08:16:14.000Z</time>
      </trkpt>
      <trkpt lat="45.41945" lon="4.96864">
        <ele>417.6</ele>
        <time>2023-06-11T08:16:23.000Z</time>
      </trkpt>
      <trkpt lat="45.41946" lon="4.96928">
        <ele>418.7</ele>
        <time>2023-06-11T08:16:31.000Z</time>
      </trkpt>
      <trkpt lat="45.41946" lon="4.96936">
        <ele>418.8</ele>
        <time>2023-06-11T08:16:32.000Z</time>
      </trkpt>
      <trkpt lat="45.41946" lon="4.96985">
        <ele>419.8</ele>
        <time>2023-06-11T08:16:39.000Z</time>
      </trkpt>
      <trkpt lat="45.41947" lon="4.97006">
        <ele>420.1</ele>
        <time>2023-06-11T08:16:42.000Z</time>
      </trkpt>
      <trkpt lat="45.41952" lon="4.97047">
        <ele>420.6</ele>
        <time>2023-06-11T08:16:48.000Z</time>
      </trkpt>
      <trkpt lat="45.41954" lon="4.9706">
        <ele>420.7</ele>
        <time>2023-06-11T08:16:50.000Z</time>
      </trkpt>
      <trkpt lat="45.41962" lon="4.97118">
        <ele>421</ele>
        <time>2023-06-11T08:16:58.000Z</time>
      </trkpt>
      <trkpt lat="45.41964" lon="4.97133">
        <ele>421.1</ele>
        <time>2023-06-11T08:17:00.000Z</time>
      </trkpt>
      <trkpt lat="45.41978" lon="4.97174">
        <ele>421.2</ele>
        <time>2023-06-11T08:17:07.000Z</time>
      </trkpt>
      <trkpt lat="45.41979" lon="4.97178">
        <ele>421.3</ele>
        <time>2023-06-11T08:17:08.000Z</time>
      </trkpt>
      <trkpt lat="45.41978" lon="4.9718">
        <ele>421.7</ele>
        <time>2023-06-11T08:17:09.000Z</time>
      </trkpt>
      <trkpt lat="45.41976" lon="4.97182">
        <ele>421.5</ele>
        <time>2023-06-11T08:17:10.000Z</time>
      </trkpt>
      <trkpt lat="45.41967" lon="4.97182">
        <ele>421.9</ele>
        <time>2023-06-11T08:17:13.000Z</time>
      </trkpt>
      <trkpt lat="45.41945" lon="4.97186">
        <ele>422.8</ele>
        <time>2023-06-11T08:17:19.000Z</time>
      </trkpt>
      <trkpt lat="45.41928" lon="4.97188">
        <ele>423.1</ele>
        <time>2023-06-11T08:17:24.000Z</time>
      </trkpt>
      <trkpt lat="45.41901" lon="4.97194">
        <ele>423.4</ele>
        <time>2023-06-11T08:17:32.000Z</time>
      </trkpt>
      <trkpt lat="45.41898" lon="4.97194">
        <ele>423.3</ele>
        <time>2023-06-11T08:17:33.000Z</time>
      </trkpt>
      <trkpt lat="45.41872" lon="4.972">
        <ele>423.4</ele>
        <time>2023-06-11T08:17:40.000Z</time>
      </trkpt>
      <trkpt lat="45.41868" lon="4.97201">
        <ele>423.4</ele>
        <time>2023-06-11T08:17:41.000Z</time>
      </trkpt>
      <trkpt lat="45.41865" lon="4.97201">
        <ele>423.3</ele>
        <time>2023-06-11T08:17:42.000Z</time>
      </trkpt>
      <trkpt lat="45.41846" lon="4.97205">
        <ele>423.3</ele>
        <time>2023-06-11T08:17:47.000Z</time>
      </trkpt>
      <trkpt lat="45.41822" lon="4.97211">
        <ele>423</ele>
        <time>2023-06-11T08:17:53.000Z</time>
      </trkpt>
      <trkpt lat="45.41792" lon="4.97218">
        <ele>421.9</ele>
        <time>2023-06-11T08:17:59.000Z</time>
      </trkpt>
      <trkpt lat="45.4176" lon="4.97225">
        <ele>419.8</ele>
        <time>2023-06-11T08:18:05.000Z</time>
      </trkpt>
      <trkpt lat="45.41755" lon="4.97226">
        <ele>419.3</ele>
        <time>2023-06-11T08:18:06.000Z</time>
      </trkpt>
      <trkpt lat="45.4175" lon="4.97227">
        <ele>419</ele>
        <time>2023-06-11T08:18:07.000Z</time>
      </trkpt>
      <trkpt lat="45.4174" lon="4.97223">
        <ele>418.2</ele>
        <time>2023-06-11T08:18:09.000Z</time>
      </trkpt>
      <trkpt lat="45.41735" lon="4.97221">
        <ele>417.8</ele>
        <time>2023-06-11T08:18:10.000Z</time>
      </trkpt>
      <trkpt lat="45.41718" lon="4.97219">
        <ele>416.3</ele>
        <time>2023-06-11T08:18:13.000Z</time>
      </trkpt>
      <trkpt lat="45.41711" lon="4.97214">
        <ele>415.6</ele>
        <time>2023-06-11T08:18:15.000Z</time>
      </trkpt>
      <trkpt lat="45.4171" lon="4.9721">
        <ele>415.1</ele>
        <time>2023-06-11T08:18:16.000Z</time>
      </trkpt>
      <trkpt lat="45.41711" lon="4.97201">
        <ele>414.9</ele>
        <time>2023-06-11T08:18:18.000Z</time>
      </trkpt>
      <trkpt lat="45.41714" lon="4.97197">
        <ele>414.9</ele>
        <time>2023-06-11T08:18:19.000Z</time>
      </trkpt>
      <trkpt lat="45.41718" lon="4.97187">
        <ele>414.6</ele>
        <time>2023-06-11T08:18:21.000Z</time>
      </trkpt>
      <trkpt lat="45.41725" lon="4.97171">
        <ele>414.6</ele>
        <time>2023-06-11T08:18:24.000Z</time>
      </trkpt>
      <trkpt lat="45.41733" lon="4.97149">
        <ele>415</ele>
        <time>2023-06-11T08:18:28.000Z</time>
      </trkpt>
      <trkpt lat="45.41733" lon="4.97144">
        <ele>414.8</ele>
        <time>2023-06-11T08:18:29.000Z</time>
      </trkpt>
      <trkpt lat="45.4173" lon="4.9714">
        <ele>414.5</ele>
        <time>2023-06-11T08:18:30.000Z</time>
      </trkpt>
      <trkpt lat="45.41726" lon="4.97138">
        <ele>414.1</ele>
        <time>2023-06-11T08:18:31.000Z</time>
      </trkpt>
      <trkpt lat="45.41703" lon="4.97134">
        <ele>412.2</ele>
        <time>2023-06-11T08:18:35.000Z</time>
      </trkpt>
      <trkpt lat="45.41697" lon="4.97133">
        <ele>411.5</ele>
        <time>2023-06-11T08:18:36.000Z</time>
      </trkpt>
      <trkpt lat="45.41689" lon="4.97132">
        <ele>410.9</ele>
        <time>2023-06-11T08:18:37.000Z</time>
      </trkpt>
      <trkpt lat="45.41657" lon="4.97126">
        <ele>407</ele>
        <time>2023-06-11T08:18:41.000Z</time>
      </trkpt>
      <trkpt lat="45.41642" lon="4.97125">
        <ele>404.6</ele>
        <time>2023-06-11T08:18:43.000Z</time>
      </trkpt>
      <trkpt lat="45.41636" lon="4.97125">
        <ele>403.3</ele>
        <time>2023-06-11T08:18:44.000Z</time>
      </trkpt>
      <trkpt lat="45.4163" lon="4.97127">
        <ele>402.2</ele>
        <time>2023-06-11T08:18:45.000Z</time>
      </trkpt>
      <trkpt lat="45.41626" lon="4.97132">
        <ele>401.2</ele>
        <time>2023-06-11T08:18:46.000Z</time>
      </trkpt>
      <trkpt lat="45.41619" lon="4.97146">
        <ele>400.3</ele>
        <time>2023-06-11T08:18:48.000Z</time>
      </trkpt>
      <trkpt lat="45.41616" lon="4.97153">
        <ele>399.8</ele>
        <time>2023-06-11T08:18:49.000Z</time>
      </trkpt>
      <trkpt lat="45.41612" lon="4.97158">
        <ele>399.5</ele>
        <time>2023-06-11T08:18:50.000Z</time>
      </trkpt>
      <trkpt lat="45.41609" lon="4.97161">
        <ele>398.8</ele>
        <time>2023-06-11T08:18:51.000Z</time>
      </trkpt>
      <trkpt lat="45.41603" lon="4.97162">
        <ele>397.8</ele>
        <time>2023-06-11T08:18:52.000Z</time>
      </trkpt>
      <trkpt lat="45.4159" lon="4.97161">
        <ele>395.5</ele>
        <time>2023-06-11T08:18:54.000Z</time>
      </trkpt>
      <trkpt lat="45.41575" lon="4.97159">
        <ele>393.1</ele>
        <time>2023-06-11T08:18:56.000Z</time>
      </trkpt>
      <trkpt lat="45.41554" lon="4.97157">
        <ele>390.4</ele>
        <time>2023-06-11T08:18:59.000Z</time>
      </trkpt>
      <trkpt lat="45.41547" lon="4.97157">
        <ele>389.3</ele>
        <time>2023-06-11T08:19:00.000Z</time>
      </trkpt>
      <trkpt lat="45.4154" lon="4.97157">
        <ele>388.7</ele>
        <time>2023-06-11T08:19:01.000Z</time>
      </trkpt>
      <trkpt lat="45.41533" lon="4.97158">
        <ele>388</ele>
        <time>2023-06-11T08:19:02.000Z</time>
      </trkpt>
      <trkpt lat="45.41519" lon="4.9716">
        <ele>386.3</ele>
        <time>2023-06-11T08:19:04.000Z</time>
      </trkpt>
      <trkpt lat="45.41512" lon="4.97161">
        <ele>385.7</ele>
        <time>2023-06-11T08:19:05.000Z</time>
      </trkpt>
      <trkpt lat="45.41504" lon="4.97161">
        <ele>384.9</ele>
        <time>2023-06-11T08:19:06.000Z</time>
      </trkpt>
      <trkpt lat="45.41497" lon="4.97161">
        <ele>384.1</ele>
        <time>2023-06-11T08:19:07.000Z</time>
      </trkpt>
      <trkpt lat="45.41484" lon="4.97161">
        <ele>382.2</ele>
        <time>2023-06-11T08:19:09.000Z</time>
      </trkpt>
      <trkpt lat="45.41479" lon="4.97162">
        <ele>382</ele>
        <time>2023-06-11T08:19:10.000Z</time>
      </trkpt>
      <trkpt lat="45.41475" lon="4.97166">
        <ele>381.5</ele>
        <time>2023-06-11T08:19:11.000Z</time>
      </trkpt>
      <trkpt lat="45.41469" lon="4.97176">
        <ele>380.8</ele>
        <time>2023-06-11T08:19:13.000Z</time>
      </trkpt>
      <trkpt lat="45.41463" lon="4.97189">
        <ele>380.5</ele>
        <time>2023-06-11T08:19:15.000Z</time>
      </trkpt>
      <trkpt lat="45.41458" lon="4.97199">
        <ele>380.5</ele>
        <time>2023-06-11T08:19:17.000Z</time>
      </trkpt>
      <trkpt lat="45.41454" lon="4.97206">
        <ele>380.5</ele>
        <time>2023-06-11T08:19:19.000Z</time>
      </trkpt>
      <trkpt lat="45.41452" lon="4.97208">
        <ele>380.1</ele>
        <time>2023-06-11T08:19:21.000Z</time>
      </trkpt>
      <trkpt lat="45.41451" lon="4.9721">
        <ele>379.9</ele>
        <time>2023-06-11T08:19:23.000Z</time>
      </trkpt>
      <trkpt lat="45.41449" lon="4.97211">
        <ele>379.8</ele>
        <time>2023-06-11T08:19:25.000Z</time>
      </trkpt>
      <trkpt lat="45.41448" lon="4.97211">
        <ele>379.3</ele>
        <time>2023-06-11T08:19:27.000Z</time>
      </trkpt>
      <trkpt lat="45.41448" lon="4.97211">
        <ele>379.2</ele>
        <time>2023-06-11T08:19:28.000Z</time>
      </trkpt>
      <trkpt lat="45.41444" lon="4.9721">
        <ele>378.8</ele>
        <time>2023-06-11T08:19:36.000Z</time>
      </trkpt>
      <trkpt lat="45.41439" lon="4.97208">
        <ele>378.1</ele>
        <time>2023-06-11T08:19:39.000Z</time>
      </trkpt>
      <trkpt lat="45.41437" lon="4.97207">
        <ele>377.7</ele>
        <time>2023-06-11T08:19:40.000Z</time>
      </trkpt>
      <trkpt lat="45.41435" lon="4.97208">
        <ele>377.2</ele>
        <time>2023-06-11T08:19:41.000Z</time>
      </trkpt>
      <trkpt lat="45.41434" lon="4.9721">
        <ele>377.3</ele>
        <time>2023-06-11T08:19:42.000Z</time>
      </trkpt>
      <trkpt lat="45.41433" lon="4.97219">
        <ele>377.2</ele>
        <time>2023-06-11T08:19:44.000Z</time>
      </trkpt>
      <trkpt lat="45.41431" lon="4.97223">
        <ele>377.2</ele>
        <time>2023-06-11T08:19:45.000Z</time>
      </trkpt>
      <trkpt lat="45.41422" lon="4.97229">
        <ele>376.2</ele>
        <time>2023-06-11T08:19:47.000Z</time>
      </trkpt>
      <trkpt lat="45.41417" lon="4.97229">
        <ele>375.5</ele>
        <time>2023-06-11T08:19:48.000Z</time>
      </trkpt>
      <trkpt lat="45.41398" lon="4.9723">
        <ele>373.8</ele>
        <time>2023-06-11T08:19:51.000Z</time>
      </trkpt>
      <trkpt lat="45.41392" lon="4.9723">
        <ele>373.4</ele>
        <time>2023-06-11T08:19:52.000Z</time>
      </trkpt>
      <trkpt lat="45.41388" lon="4.9723">
        <ele>373.4</ele>
        <time>2023-06-11T08:19:53.000Z</time>
      </trkpt>
      <trkpt lat="45.4138" lon="4.97232">
        <ele>373</ele>
        <time>2023-06-11T08:19:55.000Z</time>
      </trkpt>
      <trkpt lat="45.41372" lon="4.97232">
        <ele>372.6</ele>
        <time>2023-06-11T08:19:57.000Z</time>
      </trkpt>
      <trkpt lat="45.41366" lon="4.97232">
        <ele>372.3</ele>
        <time>2023-06-11T08:19:59.000Z</time>
      </trkpt>
      <trkpt lat="45.41363" lon="4.97231">
        <ele>372.1</ele>
        <time>2023-06-11T08:20:01.000Z</time>
      </trkpt>
      <trkpt lat="45.41362" lon="4.97231">
        <ele>372.1</ele>
        <time>2023-06-11T08:20:04.000Z</time>
      </trkpt>
      <trkpt lat="45.41361" lon="4.97231">
        <ele>372.1</ele>
        <time>2023-06-11T08:20:05.000Z</time>
      </trkpt>
      <trkpt lat="45.41354" lon="4.97232">
        <ele>371.8</ele>
        <time>2023-06-11T08:22:39.000Z</time>
      </trkpt>
      <trkpt lat="45.41346" lon="4.97225">
        <ele>371.9</ele>
        <time>2023-06-11T08:22:42.000Z</time>
      </trkpt>
      <trkpt lat="45.41341" lon="4.9722">
        <ele>372.1</ele>
        <time>2023-06-11T08:22:44.000Z</time>
      </trkpt>
      <trkpt lat="45.41324" lon="4.97201">
        <ele>372.8</ele>
        <time>2023-06-11T08:22:53.000Z</time>
      </trkpt>
      <trkpt lat="45.41315" lon="4.97191">
        <ele>373.1</ele>
        <time>2023-06-11T08:22:57.000Z</time>
      </trkpt>
      <trkpt lat="45.41313" lon="4.97189">
        <ele>373.2</ele>
        <time>2023-06-11T08:22:58.000Z</time>
      </trkpt>
      <trkpt lat="45.41306" lon="4.9718">
        <ele>373.4</ele>
        <time>2023-06-11T08:23:01.000Z</time>
      </trkpt>
      <trkpt lat="45.41298" lon="4.97171">
        <ele>373.6</ele>
        <time>2023-06-11T08:23:04.000Z</time>
      </trkpt>
      <trkpt lat="45.41292" lon="4.9716">
        <ele>373.7</ele>
        <time>2023-06-11T08:23:07.000Z</time>
      </trkpt>
      <trkpt lat="45.41294" lon="4.9714">
        <ele>373.9</ele>
        <time>2023-06-11T08:23:11.000Z</time>
      </trkpt>
      <trkpt lat="45.41296" lon="4.97121">
        <ele>374.5</ele>
        <time>2023-06-11T08:23:15.000Z</time>
      </trkpt>
      <trkpt lat="45.41298" lon="4.97112">
        <ele>374.8</ele>
        <time>2023-06-11T08:23:17.000Z</time>
      </trkpt>
      <trkpt lat="45.41303" lon="4.97084">
        <ele>375.8</ele>
        <time>2023-06-11T08:23:23.000Z</time>
      </trkpt>
      <trkpt lat="45.41306" lon="4.97061">
        <ele>376.8</ele>
        <time>2023-06-11T08:23:28.000Z</time>
      </trkpt>
      <trkpt lat="45.41311" lon="4.97039">
        <ele>377.8</ele>
        <time>2023-06-11T08:23:33.000Z</time>
      </trkpt>
      <trkpt lat="45.41315" lon="4.97028">
        <ele>378.4</ele>
        <time>2023-06-11T08:23:36.000Z</time>
      </trkpt>
      <trkpt lat="45.41323" lon="4.9701">
        <ele>379.8</ele>
        <time>2023-06-11T08:23:42.000Z</time>
      </trkpt>
      <trkpt lat="45.41328" lon="4.96996">
        <ele>381</ele>
        <time>2023-06-11T08:23:48.000Z</time>
      </trkpt>
      <trkpt lat="45.41329" lon="4.96992">
        <ele>381.4</ele>
        <time>2023-06-11T08:23:50.000Z</time>
      </trkpt>
      <trkpt lat="45.41328" lon="4.9698">
        <ele>382</ele>
        <time>2023-06-11T08:23:55.000Z</time>
      </trkpt>
      <trkpt lat="45.41326" lon="4.96967">
        <ele>382.9</ele>
        <time>2023-06-11T08:24:01.000Z</time>
      </trkpt>
      <trkpt lat="45.41325" lon="4.96961">
        <ele>383.4</ele>
        <time>2023-06-11T08:24:04.000Z</time>
      </trkpt>
      <trkpt lat="45.41324" lon="4.96957">
        <ele>383.6</ele>
        <time>2023-06-11T08:24:06.000Z</time>
      </trkpt>
      <trkpt lat="45.41323" lon="4.96953">
        <ele>384</ele>
        <time>2023-06-11T08:24:08.000Z</time>
      </trkpt>
      <trkpt lat="45.41323" lon="4.9695">
        <ele>384.3</ele>
        <time>2023-06-11T08:24:10.000Z</time>
      </trkpt>
      <trkpt lat="45.4132" lon="4.96941">
        <ele>385.2</ele>
        <time>2023-06-11T08:24:15.000Z</time>
      </trkpt>
      <trkpt lat="45.41319" lon="4.96939">
        <ele>385.4</ele>
        <time>2023-06-11T08:24:16.000Z</time>
      </trkpt>
      <trkpt lat="45.41318" lon="4.96929">
        <ele>386.3</ele>
        <time>2023-06-11T08:24:21.000Z</time>
      </trkpt>
      <trkpt lat="45.41316" lon="4.96925">
        <ele>386.7</ele>
        <time>2023-06-11T08:24:23.000Z</time>
      </trkpt>
      <trkpt lat="45.41313" lon="4.96917">
        <ele>387.4</ele>
        <time>2023-06-11T08:24:27.000Z</time>
      </trkpt>
      <trkpt lat="45.41311" lon="4.9691">
        <ele>387.8</ele>
        <time>2023-06-11T08:24:30.000Z</time>
      </trkpt>
      <trkpt lat="45.41312" lon="4.96906">
        <ele>388</ele>
        <time>2023-06-11T08:24:32.000Z</time>
      </trkpt>
      <trkpt lat="45.41316" lon="4.9689">
        <ele>388.4</ele>
        <time>2023-06-11T08:24:38.000Z</time>
      </trkpt>
      <trkpt lat="45.41322" lon="4.96873">
        <ele>387.9</ele>
        <time>2023-06-11T08:24:42.000Z</time>
      </trkpt>
      <trkpt lat="45.41334" lon="4.96843">
        <ele>386.7</ele>
        <time>2023-06-11T08:24:48.000Z</time>
      </trkpt>
      <trkpt lat="45.41343" lon="4.96822">
        <ele>385.2</ele>
        <time>2023-06-11T08:24:51.000Z</time>
      </trkpt>
      <trkpt lat="45.41347" lon="4.96815">
        <ele>384.7</ele>
        <time>2023-06-11T08:24:52.000Z</time>
      </trkpt>
      <trkpt lat="45.41365" lon="4.96772">
        <ele>383.2</ele>
        <time>2023-06-11T08:24:57.000Z</time>
      </trkpt>
      <trkpt lat="45.41364" lon="4.96752">
        <ele>382.8</ele>
        <time>2023-06-11T08:24:59.000Z</time>
      </trkpt>
      <trkpt lat="45.41364" lon="4.96742">
        <ele>382.7</ele>
        <time>2023-06-11T08:25:00.000Z</time>
      </trkpt>
      <trkpt lat="45.41363" lon="4.96717">
        <ele>382.5</ele>
        <time>2023-06-11T08:25:03.000Z</time>
      </trkpt>
      <trkpt lat="45.41363" lon="4.9671">
        <ele>382.5</ele>
        <time>2023-06-11T08:25:04.000Z</time>
      </trkpt>
      <trkpt lat="45.41364" lon="4.96703">
        <ele>382.5</ele>
        <time>2023-06-11T08:25:05.000Z</time>
      </trkpt>
      <trkpt lat="45.41364" lon="4.96695">
        <ele>382.5</ele>
        <time>2023-06-11T08:25:06.000Z</time>
      </trkpt>
      <trkpt lat="45.41365" lon="4.96688">
        <ele>382.5</ele>
        <time>2023-06-11T08:25:07.000Z</time>
      </trkpt>
      <trkpt lat="45.41366" lon="4.96666">
        <ele>382.7</ele>
        <time>2023-06-11T08:25:10.000Z</time>
      </trkpt>
      <trkpt lat="45.41365" lon="4.96652">
        <ele>382.8</ele>
        <time>2023-06-11T08:25:12.000Z</time>
      </trkpt>
      <trkpt lat="45.41367" lon="4.96639">
        <ele>382.9</ele>
        <time>2023-06-11T08:25:14.000Z</time>
      </trkpt>
      <trkpt lat="45.41367" lon="4.96626">
        <ele>383</ele>
        <time>2023-06-11T08:25:16.000Z</time>
      </trkpt>
      <trkpt lat="45.41368" lon="4.96614">
        <ele>382.9</ele>
        <time>2023-06-11T08:25:18.000Z</time>
      </trkpt>
      <trkpt lat="45.41369" lon="4.966">
        <ele>382.8</ele>
        <time>2023-06-11T08:25:20.000Z</time>
      </trkpt>
      <trkpt lat="45.41373" lon="4.96579">
        <ele>382.4</ele>
        <time>2023-06-11T08:25:23.000Z</time>
      </trkpt>
      <trkpt lat="45.41382" lon="4.96531">
        <ele>380.9</ele>
        <time>2023-06-11T08:25:29.000Z</time>
      </trkpt>
      <trkpt lat="45.41381" lon="4.96522">
        <ele>380.6</ele>
        <time>2023-06-11T08:25:30.000Z</time>
      </trkpt>
      <trkpt lat="45.41381" lon="4.96501">
        <ele>380.5</ele>
        <time>2023-06-11T08:25:32.000Z</time>
      </trkpt>
      <trkpt lat="45.41385" lon="4.96485">
        <ele>380.7</ele>
        <time>2023-06-11T08:25:34.000Z</time>
      </trkpt>
      <trkpt lat="45.41395" lon="4.96469">
        <ele>381.2</ele>
        <time>2023-06-11T08:25:37.000Z</time>
      </trkpt>
      <trkpt lat="45.41396" lon="4.96463">
        <ele>381.3</ele>
        <time>2023-06-11T08:25:38.000Z</time>
      </trkpt>
      <trkpt lat="45.41397" lon="4.96457">
        <ele>381.5</ele>
        <time>2023-06-11T08:25:39.000Z</time>
      </trkpt>
      <trkpt lat="45.41396" lon="4.96452">
        <ele>381.6</ele>
        <time>2023-06-11T08:25:40.000Z</time>
      </trkpt>
      <trkpt lat="45.41397" lon="4.96407">
        <ele>382.1</ele>
        <time>2023-06-11T08:25:48.000Z</time>
      </trkpt>
      <trkpt lat="45.41397" lon="4.9636">
        <ele>382.1</ele>
        <time>2023-06-11T08:25:56.000Z</time>
      </trkpt>
      <trkpt lat="45.41397" lon="4.96348">
        <ele>382</ele>
        <time>2023-06-11T08:25:58.000Z</time>
      </trkpt>
      <trkpt lat="45.41397" lon="4.96314">
        <ele>381.7</ele>
        <time>2023-06-11T08:26:03.000Z</time>
      </trkpt>
      <trkpt lat="45.41397" lon="4.96293">
        <ele>381.7</ele>
        <time>2023-06-11T08:26:06.000Z</time>
      </trkpt>
      <trkpt lat="45.41399" lon="4.96241">
        <ele>381.7</ele>
        <time>2023-06-11T08:26:14.000Z</time>
      </trkpt>
      <trkpt lat="45.41398" lon="4.96229">
        <ele>381.7</ele>
        <time>2023-06-11T08:26:16.000Z</time>
      </trkpt>
      <trkpt lat="45.41393" lon="4.96211">
        <ele>381.8</ele>
        <time>2023-06-11T08:26:19.000Z</time>
      </trkpt>
      <trkpt lat="45.41391" lon="4.96205">
        <ele>381.8</ele>
        <time>2023-06-11T08:26:20.000Z</time>
      </trkpt>
      <trkpt lat="45.4138" lon="4.9617">
        <ele>381.9</ele>
        <time>2023-06-11T08:26:26.000Z</time>
      </trkpt>
      <trkpt lat="45.41379" lon="4.96164">
        <ele>381.8</ele>
        <time>2023-06-11T08:26:27.000Z</time>
      </trkpt>
      <trkpt lat="45.41377" lon="4.96136">
        <ele>381.4</ele>
        <time>2023-06-11T08:26:31.000Z</time>
      </trkpt>
      <trkpt lat="45.41376" lon="4.96096">
        <ele>381</ele>
        <time>2023-06-11T08:26:36.000Z</time>
      </trkpt>
      <trkpt lat="45.41366" lon="4.96036">
        <ele>380.7</ele>
        <time>2023-06-11T08:26:44.000Z</time>
      </trkpt>
      <trkpt lat="45.41354" lon="4.95985">
        <ele>380.3</ele>
        <time>2023-06-11T08:26:51.000Z</time>
      </trkpt>
      <trkpt lat="45.4135" lon="4.9597">
        <ele>380.2</ele>
        <time>2023-06-11T08:26:53.000Z</time>
      </trkpt>
      <trkpt lat="45.41339" lon="4.95926">
        <ele>380.1</ele>
        <time>2023-06-11T08:27:00.000Z</time>
      </trkpt>
      <trkpt lat="45.41331" lon="4.95908">
        <ele>380.2</ele>
        <time>2023-06-11T08:27:03.000Z</time>
      </trkpt>
      <trkpt lat="45.41323" lon="4.95897">
        <ele>380.3</ele>
        <time>2023-06-11T08:27:05.000Z</time>
      </trkpt>
      <trkpt lat="45.41315" lon="4.95887">
        <ele>380.5</ele>
        <time>2023-06-11T08:27:07.000Z</time>
      </trkpt>
      <trkpt lat="45.413" lon="4.95868">
        <ele>380.8</ele>
        <time>2023-06-11T08:27:11.000Z</time>
      </trkpt>
      <trkpt lat="45.41283" lon="4.9584">
        <ele>380.6</ele>
        <time>2023-06-11T08:27:17.000Z</time>
      </trkpt>
      <trkpt lat="45.41282" lon="4.95828">
        <ele>379.6</ele>
        <time>2023-06-11T08:27:19.000Z</time>
      </trkpt>
      <trkpt lat="45.41284" lon="4.95822">
        <ele>378.9</ele>
        <time>2023-06-11T08:27:20.000Z</time>
      </trkpt>
      <trkpt lat="45.41287" lon="4.95815">
        <ele>378.2</ele>
        <time>2023-06-11T08:27:21.000Z</time>
      </trkpt>
      <trkpt lat="45.41298" lon="4.95801">
        <ele>376.4</ele>
        <time>2023-06-11T08:27:23.000Z</time>
      </trkpt>
      <trkpt lat="45.41321" lon="4.9576">
        <ele>372.2</ele>
        <time>2023-06-11T08:27:27.000Z</time>
      </trkpt>
      <trkpt lat="45.41327" lon="4.95748">
        <ele>370.9</ele>
        <time>2023-06-11T08:27:28.000Z</time>
      </trkpt>
      <trkpt lat="45.41334" lon="4.95719">
        <ele>368.4</ele>
        <time>2023-06-11T08:27:30.000Z</time>
      </trkpt>
      <trkpt lat="45.41341" lon="4.95687">
        <ele>365.7</ele>
        <time>2023-06-11T08:27:32.000Z</time>
      </trkpt>
      <trkpt lat="45.41344" lon="4.9567">
        <ele>364.7</ele>
        <time>2023-06-11T08:27:33.000Z</time>
      </trkpt>
      <trkpt lat="45.41347" lon="4.95653">
        <ele>363.6</ele>
        <time>2023-06-11T08:27:34.000Z</time>
      </trkpt>
      <trkpt lat="45.41349" lon="4.95636">
        <ele>362.3</ele>
        <time>2023-06-11T08:27:35.000Z</time>
      </trkpt>
      <trkpt lat="45.41352" lon="4.95619">
        <ele>361.1</ele>
        <time>2023-06-11T08:27:36.000Z</time>
      </trkpt>
      <trkpt lat="45.41354" lon="4.95602">
        <ele>360</ele>
        <time>2023-06-11T08:27:37.000Z</time>
      </trkpt>
      <trkpt lat="45.41354" lon="4.95584">
        <ele>359</ele>
        <time>2023-06-11T08:27:38.000Z</time>
      </trkpt>
      <trkpt lat="45.41353" lon="4.95567">
        <ele>358.1</ele>
        <time>2023-06-11T08:27:39.000Z</time>
      </trkpt>
      <trkpt lat="45.41351" lon="4.95549">
        <ele>357.1</ele>
        <time>2023-06-11T08:27:40.000Z</time>
      </trkpt>
      <trkpt lat="45.41348" lon="4.95533">
        <ele>356.1</ele>
        <time>2023-06-11T08:27:41.000Z</time>
      </trkpt>
      <trkpt lat="45.41343" lon="4.95517">
        <ele>355</ele>
        <time>2023-06-11T08:27:42.000Z</time>
      </trkpt>
      <trkpt lat="45.41337" lon="4.95504">
        <ele>353.8</ele>
        <time>2023-06-11T08:27:43.000Z</time>
      </trkpt>
      <trkpt lat="45.41331" lon="4.95493">
        <ele>352.7</ele>
        <time>2023-06-11T08:27:44.000Z</time>
      </trkpt>
      <trkpt lat="45.41323" lon="4.95483">
        <ele>351.5</ele>
        <time>2023-06-11T08:27:45.000Z</time>
      </trkpt>
      <trkpt lat="45.41313" lon="4.95475">
        <ele>350.2</ele>
        <time>2023-06-11T08:27:46.000Z</time>
      </trkpt>
      <trkpt lat="45.41303" lon="4.95468">
        <ele>348.9</ele>
        <time>2023-06-11T08:27:47.000Z</time>
      </trkpt>
      <trkpt lat="45.41293" lon="4.9546">
        <ele>347.6</ele>
        <time>2023-06-11T08:27:48.000Z</time>
      </trkpt>
      <trkpt lat="45.41284" lon="4.95451">
        <ele>346.4</ele>
        <time>2023-06-11T08:27:49.000Z</time>
      </trkpt>
      <trkpt lat="45.41276" lon="4.95442">
        <ele>345.2</ele>
        <time>2023-06-11T08:27:50.000Z</time>
      </trkpt>
      <trkpt lat="45.4127" lon="4.95433">
        <ele>344.3</ele>
        <time>2023-06-11T08:27:51.000Z</time>
      </trkpt>
      <trkpt lat="45.41266" lon="4.95424">
        <ele>343.6</ele>
        <time>2023-06-11T08:27:52.000Z</time>
      </trkpt>
      <trkpt lat="45.4126" lon="4.95407">
        <ele>342.7</ele>
        <time>2023-06-11T08:27:54.000Z</time>
      </trkpt>
      <trkpt lat="45.41258" lon="4.95397">
        <ele>342</ele>
        <time>2023-06-11T08:27:55.000Z</time>
      </trkpt>
      <trkpt lat="45.41257" lon="4.95386">
        <ele>341.4</ele>
        <time>2023-06-11T08:27:56.000Z</time>
      </trkpt>
      <trkpt lat="45.41255" lon="4.95376">
        <ele>341.3</ele>
        <time>2023-06-11T08:27:57.000Z</time>
      </trkpt>
      <trkpt lat="45.41252" lon="4.95367">
        <ele>341.5</ele>
        <time>2023-06-11T08:27:58.000Z</time>
      </trkpt>
      <trkpt lat="45.4125" lon="4.95359">
        <ele>342</ele>
        <time>2023-06-11T08:27:59.000Z</time>
      </trkpt>
      <trkpt lat="45.41247" lon="4.95352">
        <ele>342.8</ele>
        <time>2023-06-11T08:28:00.000Z</time>
      </trkpt>
      <trkpt lat="45.41244" lon="4.95348">
        <ele>343.5</ele>
        <time>2023-06-11T08:28:01.000Z</time>
      </trkpt>
      <trkpt lat="45.41241" lon="4.95345">
        <ele>344</ele>
        <time>2023-06-11T08:28:02.000Z</time>
      </trkpt>
      <trkpt lat="45.41239" lon="4.95344">
        <ele>344.6</ele>
        <time>2023-06-11T08:28:03.000Z</time>
      </trkpt>
      <trkpt lat="45.41236" lon="4.95342">
        <ele>345.2</ele>
        <time>2023-06-11T08:28:05.000Z</time>
      </trkpt>
      <trkpt lat="45.41234" lon="4.95341">
        <ele>345.5</ele>
        <time>2023-06-11T08:28:06.000Z</time>
      </trkpt>
      <trkpt lat="45.41233" lon="4.9534">
        <ele>345.7</ele>
        <time>2023-06-11T08:28:07.000Z</time>
      </trkpt>
      <trkpt lat="45.4123" lon="4.95337">
        <ele>346.4</ele>
        <time>2023-06-11T08:28:10.000Z</time>
      </trkpt>
      <trkpt lat="45.41229" lon="4.95337">
        <ele>346.5</ele>
        <time>2023-06-11T08:28:11.000Z</time>
      </trkpt>
      <trkpt lat="45.41229" lon="4.95336">
        <ele>346.7</ele>
        <time>2023-06-11T08:28:12.000Z</time>
      </trkpt>
      <trkpt lat="45.41227" lon="4.95335">
        <ele>347</ele>
        <time>2023-06-11T08:28:15.000Z</time>
      </trkpt>
      <trkpt lat="45.41223" lon="4.95333">
        <ele>347.8</ele>
        <time>2023-06-11T08:28:18.000Z</time>
      </trkpt>
      <trkpt lat="45.41219" lon="4.9533">
        <ele>348.5</ele>
        <time>2023-06-11T08:28:21.000Z</time>
      </trkpt>
      <trkpt lat="45.41216" lon="4.95328">
        <ele>349.2</ele>
        <time>2023-06-11T08:28:23.000Z</time>
      </trkpt>
      <trkpt lat="45.41213" lon="4.95327">
        <ele>349.9</ele>
        <time>2023-06-11T08:28:25.000Z</time>
      </trkpt>
      <trkpt lat="45.4121" lon="4.95325">
        <ele>350.6</ele>
        <time>2023-06-11T08:28:27.000Z</time>
      </trkpt>
      <trkpt lat="45.41206" lon="4.95324">
        <ele>351.3</ele>
        <time>2023-06-11T08:28:30.000Z</time>
      </trkpt>
      <trkpt lat="45.41204" lon="4.95324">
        <ele>351.5</ele>
        <time>2023-06-11T08:28:32.000Z</time>
      </trkpt>
      <trkpt lat="45.41203" lon="4.95324">
        <ele>351.8</ele>
        <time>2023-06-11T08:28:33.000Z</time>
      </trkpt>
      <trkpt lat="45.412" lon="4.95324">
        <ele>352.3</ele>
        <time>2023-06-11T08:28:35.000Z</time>
      </trkpt>
      <trkpt lat="45.41194" lon="4.95322">
        <ele>353.3</ele>
        <time>2023-06-11T08:28:40.000Z</time>
      </trkpt>
      <trkpt lat="45.41193" lon="4.95322">
        <ele>353.5</ele>
        <time>2023-06-11T08:28:41.000Z</time>
      </trkpt>
      <trkpt lat="45.41185" lon="4.95323">
        <ele>354.5</ele>
        <time>2023-06-11T08:28:46.000Z</time>
      </trkpt>
      <trkpt lat="45.41182" lon="4.95322">
        <ele>354.9</ele>
        <time>2023-06-11T08:28:48.000Z</time>
      </trkpt>
      <trkpt lat="45.41178" lon="4.95324">
        <ele>355.5</ele>
        <time>2023-06-11T08:28:51.000Z</time>
      </trkpt>
      <trkpt lat="45.41176" lon="4.95326">
        <ele>355.9</ele>
        <time>2023-06-11T08:28:53.000Z</time>
      </trkpt>
      <trkpt lat="45.41174" lon="4.95326">
        <ele>356.2</ele>
        <time>2023-06-11T08:28:56.000Z</time>
      </trkpt>
      <trkpt lat="45.4117" lon="4.95328">
        <ele>356.8</ele>
        <time>2023-06-11T08:28:59.000Z</time>
      </trkpt>
      <trkpt lat="45.41169" lon="4.95328">
        <ele>356.9</ele>
        <time>2023-06-11T08:29:01.000Z</time>
      </trkpt>
      <trkpt lat="45.41167" lon="4.95327">
        <ele>357.3</ele>
        <time>2023-06-11T08:29:02.000Z</time>
      </trkpt>
      <trkpt lat="45.4116" lon="4.95323">
        <ele>358.6</ele>
        <time>2023-06-11T08:29:07.000Z</time>
      </trkpt>
      <trkpt lat="45.41158" lon="4.95323">
        <ele>358.9</ele>
        <time>2023-06-11T08:29:08.000Z</time>
      </trkpt>
      <trkpt lat="45.41152" lon="4.95323">
        <ele>359.8</ele>
        <time>2023-06-11T08:29:12.000Z</time>
      </trkpt>
      <trkpt lat="45.4115" lon="4.95323">
        <ele>360.3</ele>
        <time>2023-06-11T08:29:14.000Z</time>
      </trkpt>
      <trkpt lat="45.41148" lon="4.95324">
        <ele>360.6</ele>
        <time>2023-06-11T08:29:16.000Z</time>
      </trkpt>
      <trkpt lat="45.41147" lon="4.95325">
        <ele>360.7</ele>
        <time>2023-06-11T08:29:17.000Z</time>
      </trkpt>
      <trkpt lat="45.41145" lon="4.95326">
        <ele>361</ele>
        <time>2023-06-11T08:29:19.000Z</time>
      </trkpt>
      <trkpt lat="45.41144" lon="4.95326">
        <ele>361.2</ele>
        <time>2023-06-11T08:29:20.000Z</time>
      </trkpt>
      <trkpt lat="45.41141" lon="4.95325">
        <ele>361.7</ele>
        <time>2023-06-11T08:29:22.000Z</time>
      </trkpt>
      <trkpt lat="45.4114" lon="4.95325">
        <ele>361.9</ele>
        <time>2023-06-11T08:29:23.000Z</time>
      </trkpt>
      <trkpt lat="45.41137" lon="4.95327">
        <ele>362.4</ele>
        <time>2023-06-11T08:29:26.000Z</time>
      </trkpt>
      <trkpt lat="45.41136" lon="4.95327">
        <ele>362.6</ele>
        <time>2023-06-11T08:29:27.000Z</time>
      </trkpt>
      <trkpt lat="45.41134" lon="4.95328">
        <ele>363</ele>
        <time>2023-06-11T08:29:29.000Z</time>
      </trkpt>
      <trkpt lat="45.41132" lon="4.95329">
        <ele>363.4</ele>
        <time>2023-06-11T08:29:31.000Z</time>
      </trkpt>
      <trkpt lat="45.41131" lon="4.95329">
        <ele>363.6</ele>
        <time>2023-06-11T08:29:32.000Z</time>
      </trkpt>
      <trkpt lat="45.41127" lon="4.9533">
        <ele>364.1</ele>
        <time>2023-06-11T08:29:35.000Z</time>
      </trkpt>
      <trkpt lat="45.41123" lon="4.95329">
        <ele>364.7</ele>
        <time>2023-06-11T08:29:38.000Z</time>
      </trkpt>
      <trkpt lat="45.41122" lon="4.95329">
        <ele>364.9</ele>
        <time>2023-06-11T08:29:39.000Z</time>
      </trkpt>
      <trkpt lat="45.4112" lon="4.95329">
        <ele>365.1</ele>
        <time>2023-06-11T08:29:40.000Z</time>
      </trkpt>
      <trkpt lat="45.41119" lon="4.95329">
        <ele>365.3</ele>
        <time>2023-06-11T08:29:41.000Z</time>
      </trkpt>
      <trkpt lat="45.41116" lon="4.95329">
        <ele>365.6</ele>
        <time>2023-06-11T08:29:43.000Z</time>
      </trkpt>
      <trkpt lat="45.41114" lon="4.95328">
        <ele>365.9</ele>
        <time>2023-06-11T08:29:44.000Z</time>
      </trkpt>
      <trkpt lat="45.41106" lon="4.95327">
        <ele>366.9</ele>
        <time>2023-06-11T08:29:50.000Z</time>
      </trkpt>
      <trkpt lat="45.41105" lon="4.95327">
        <ele>367</ele>
        <time>2023-06-11T08:29:51.000Z</time>
      </trkpt>
      <trkpt lat="45.41104" lon="4.95327">
        <ele>367.1</ele>
        <time>2023-06-11T08:29:52.000Z</time>
      </trkpt>
      <trkpt lat="45.41095" lon="4.95324">
        <ele>368</ele>
        <time>2023-06-11T08:29:57.000Z</time>
      </trkpt>
      <trkpt lat="45.41092" lon="4.95324">
        <ele>368.3</ele>
        <time>2023-06-11T08:29:59.000Z</time>
      </trkpt>
      <trkpt lat="45.41088" lon="4.95324">
        <ele>368.6</ele>
        <time>2023-06-11T08:30:02.000Z</time>
      </trkpt>
      <trkpt lat="45.41082" lon="4.95321">
        <ele>369.1</ele>
        <time>2023-06-11T08:30:06.000Z</time>
      </trkpt>
      <trkpt lat="45.41078" lon="4.9532">
        <ele>369.5</ele>
        <time>2023-06-11T08:30:09.000Z</time>
      </trkpt>
      <trkpt lat="45.41068" lon="4.95315">
        <ele>370.2</ele>
        <time>2023-06-11T08:30:15.000Z</time>
      </trkpt>
      <trkpt lat="45.41065" lon="4.95313">
        <ele>370.4</ele>
        <time>2023-06-11T08:30:17.000Z</time>
      </trkpt>
      <trkpt lat="45.41054" lon="4.9531">
        <ele>371</ele>
        <time>2023-06-11T08:30:23.000Z</time>
      </trkpt>
      <trkpt lat="45.41053" lon="4.9531">
        <ele>371.1</ele>
        <time>2023-06-11T08:30:24.000Z</time>
      </trkpt>
      <trkpt lat="45.41046" lon="4.95309">
        <ele>371.3</ele>
        <time>2023-06-11T08:30:28.000Z</time>
      </trkpt>
      <trkpt lat="45.41038" lon="4.95303">
        <ele>371.6</ele>
        <time>2023-06-11T08:30:33.000Z</time>
      </trkpt>
      <trkpt lat="45.41026" lon="4.95293">
        <ele>372</ele>
        <time>2023-06-11T08:30:39.000Z</time>
      </trkpt>
      <trkpt lat="45.41016" lon="4.95283">
        <ele>372.3</ele>
        <time>2023-06-11T08:30:44.000Z</time>
      </trkpt>
      <trkpt lat="45.4101" lon="4.95277">
        <ele>372.6</ele>
        <time>2023-06-11T08:30:47.000Z</time>
      </trkpt>
      <trkpt lat="45.41002" lon="4.95268">
        <ele>373</ele>
        <time>2023-06-11T08:30:50.000Z</time>
      </trkpt>
      <trkpt lat="45.4099" lon="4.95254">
        <ele>373.8</ele>
        <time>2023-06-11T08:30:56.000Z</time>
      </trkpt>
      <trkpt lat="45.40983" lon="4.95247">
        <ele>374.1</ele>
        <time>2023-06-11T08:30:59.000Z</time>
      </trkpt>
      <trkpt lat="45.40976" lon="4.95236">
        <ele>374.5</ele>
        <time>2023-06-11T08:31:02.000Z</time>
      </trkpt>
      <trkpt lat="45.40967" lon="4.95224">
        <ele>375.1</ele>
        <time>2023-06-11T08:31:06.000Z</time>
      </trkpt>
      <trkpt lat="45.40962" lon="4.9522">
        <ele>375.4</ele>
        <time>2023-06-11T08:31:09.000Z</time>
      </trkpt>
      <trkpt lat="45.40957" lon="4.95217">
        <ele>375.6</ele>
        <time>2023-06-11T08:31:11.000Z</time>
      </trkpt>
      <trkpt lat="45.40939" lon="4.95199">
        <ele>376.2</ele>
        <time>2023-06-11T08:31:19.000Z</time>
      </trkpt>
      <trkpt lat="45.40913" lon="4.95173">
        <ele>377</ele>
        <time>2023-06-11T08:31:30.000Z</time>
      </trkpt>
      <trkpt lat="45.40905" lon="4.95166">
        <ele>377.2</ele>
        <time>2023-06-11T08:31:33.000Z</time>
      </trkpt>
      <trkpt lat="45.40882" lon="4.95144">
        <ele>377.6</ele>
        <time>2023-06-11T08:31:42.000Z</time>
      </trkpt>
      <trkpt lat="45.40862" lon="4.95122">
        <ele>377.8</ele>
        <time>2023-06-11T08:31:50.000Z</time>
      </trkpt>
      <trkpt lat="45.40859" lon="4.95119">
        <ele>377.8</ele>
        <time>2023-06-11T08:31:51.000Z</time>
      </trkpt>
      <trkpt lat="45.40833" lon="4.95095">
        <ele>378</ele>
        <time>2023-06-11T08:32:00.000Z</time>
      </trkpt>
      <trkpt lat="45.40809" lon="4.95076">
        <ele>378</ele>
        <time>2023-06-11T08:32:08.000Z</time>
      </trkpt>
      <trkpt lat="45.40791" lon="4.95062">
        <ele>378.1</ele>
        <time>2023-06-11T08:32:14.000Z</time>
      </trkpt>
      <trkpt lat="45.40778" lon="4.9505">
        <ele>378.2</ele>
        <time>2023-06-11T08:32:18.000Z</time>
      </trkpt>
      <trkpt lat="45.40752" lon="4.95029">
        <ele>378.2</ele>
        <time>2023-06-11T08:32:26.000Z</time>
      </trkpt>
      <trkpt lat="45.40714" lon="4.95004">
        <ele>377.7</ele>
        <time>2023-06-11T08:32:36.000Z</time>
      </trkpt>
      <trkpt lat="45.40697" lon="4.94997">
        <ele>377.7</ele>
        <time>2023-06-11T08:32:41.000Z</time>
      </trkpt>
      <trkpt lat="45.40696" lon="4.94999">
        <ele>377.8</ele>
        <time>2023-06-11T08:32:42.000Z</time>
      </trkpt>
      <trkpt lat="45.40695" lon="4.95002">
        <ele>377.9</ele>
        <time>2023-06-11T08:32:43.000Z</time>
      </trkpt>
      <trkpt lat="45.40696" lon="4.95014">
        <ele>378.3</ele>
        <time>2023-06-11T08:32:46.000Z</time>
      </trkpt>
      <trkpt lat="45.40701" lon="4.95048">
        <ele>379.6</ele>
        <time>2023-06-11T08:32:56.000Z</time>
      </trkpt>
      <trkpt lat="45.40707" lon="4.95077">
        <ele>380.8</ele>
        <time>2023-06-11T08:33:04.000Z</time>
      </trkpt>
      <trkpt lat="45.40707" lon="4.9508">
        <ele>381</ele>
        <time>2023-06-11T08:33:05.000Z</time>
      </trkpt>
      <trkpt lat="45.40708" lon="4.95083">
        <ele>381.2</ele>
        <time>2023-06-11T08:33:06.000Z</time>
      </trkpt>
      <trkpt lat="45.40712" lon="4.95104">
        <ele>382.3</ele>
        <time>2023-06-11T08:33:12.000Z</time>
      </trkpt>
      <trkpt lat="45.40714" lon="4.9511">
        <ele>382.7</ele>
        <time>2023-06-11T08:33:14.000Z</time>
      </trkpt>
      <trkpt lat="45.40719" lon="4.95121">
        <ele>383.5</ele>
        <time>2023-06-11T08:33:18.000Z</time>
      </trkpt>
      <trkpt lat="45.40725" lon="4.9513">
        <ele>384.4</ele>
        <time>2023-06-11T08:33:23.000Z</time>
      </trkpt>
      <trkpt lat="45.4073" lon="4.95137">
        <ele>385.2</ele>
        <time>2023-06-11T08:33:27.000Z</time>
      </trkpt>
      <trkpt lat="45.40737" lon="4.95146">
        <ele>386.2</ele>
        <time>2023-06-11T08:33:32.000Z</time>
      </trkpt>
      <trkpt lat="45.40743" lon="4.95159">
        <ele>387.5</ele>
        <time>2023-06-11T08:33:38.000Z</time>
      </trkpt>
      <trkpt lat="45.40744" lon="4.95163">
        <ele>387.9</ele>
        <time>2023-06-11T08:33:40.000Z</time>
      </trkpt>
      <trkpt lat="45.40745" lon="4.9517">
        <ele>388.5</ele>
        <time>2023-06-11T08:33:43.000Z</time>
      </trkpt>
      <trkpt lat="45.40744" lon="4.95179">
        <ele>389.2</ele>
        <time>2023-06-11T08:33:47.000Z</time>
      </trkpt>
      <trkpt lat="45.40743" lon="4.95189">
        <ele>390</ele>
        <time>2023-06-11T08:33:51.000Z</time>
      </trkpt>
      <trkpt lat="45.4074" lon="4.95204">
        <ele>391.2</ele>
        <time>2023-06-11T08:33:57.000Z</time>
      </trkpt>
      <trkpt lat="45.4074" lon="4.95206">
        <ele>391.4</ele>
        <time>2023-06-11T08:33:58.000Z</time>
      </trkpt>
      <trkpt lat="45.40737" lon="4.95225">
        <ele>392.6</ele>
        <time>2023-06-11T08:34:06.000Z</time>
      </trkpt>
      <trkpt lat="45.40737" lon="4.95227">
        <ele>392.8</ele>
        <time>2023-06-11T08:34:07.000Z</time>
      </trkpt>
      <trkpt lat="45.40736" lon="4.95246">
        <ele>394.1</ele>
        <time>2023-06-11T08:34:15.000Z</time>
      </trkpt>
      <trkpt lat="45.40735" lon="4.95256">
        <ele>394.8</ele>
        <time>2023-06-11T08:34:19.000Z</time>
      </trkpt>
      <trkpt lat="45.40734" lon="4.95263">
        <ele>395.4</ele>
        <time>2023-06-11T08:34:22.000Z</time>
      </trkpt>
      <trkpt lat="45.40732" lon="4.95275">
        <ele>396.2</ele>
        <time>2023-06-11T08:34:27.000Z</time>
      </trkpt>
      <trkpt lat="45.40732" lon="4.95278">
        <ele>396.4</ele>
        <time>2023-06-11T08:34:28.000Z</time>
      </trkpt>
      <trkpt lat="45.4073" lon="4.95292">
        <ele>397.4</ele>
        <time>2023-06-11T08:34:34.000Z</time>
      </trkpt>
      <trkpt lat="45.4073" lon="4.95295">
        <ele>397.6</ele>
        <time>2023-06-11T08:34:35.000Z</time>
      </trkpt>
      <trkpt lat="45.40727" lon="4.95314">
        <ele>398.8</ele>
        <time>2023-06-11T08:34:42.000Z</time>
      </trkpt>
      <trkpt lat="45.40726" lon="4.95323">
        <ele>399.3</ele>
        <time>2023-06-11T08:34:45.000Z</time>
      </trkpt>
      <trkpt lat="45.40725" lon="4.95335">
        <ele>399.9</ele>
        <time>2023-06-11T08:34:49.000Z</time>
      </trkpt>
      <trkpt lat="45.40725" lon="4.95343">
        <ele>400.4</ele>
        <time>2023-06-11T08:34:52.000Z</time>
      </trkpt>
      <trkpt lat="45.40725" lon="4.95358">
        <ele>401.3</ele>
        <time>2023-06-11T08:34:57.000Z</time>
      </trkpt>
      <trkpt lat="45.40725" lon="4.95373">
        <ele>402.1</ele>
        <time>2023-06-11T08:35:02.000Z</time>
      </trkpt>
      <trkpt lat="45.40725" lon="4.95379">
        <ele>402.5</ele>
        <time>2023-06-11T08:35:04.000Z</time>
      </trkpt>
      <trkpt lat="45.40726" lon="4.95398">
        <ele>403.5</ele>
        <time>2023-06-11T08:35:10.000Z</time>
      </trkpt>
      <trkpt lat="45.40727" lon="4.95415">
        <ele>404.3</ele>
        <time>2023-06-11T08:35:15.000Z</time>
      </trkpt>
      <trkpt lat="45.40727" lon="4.95422">
        <ele>404.6</ele>
        <time>2023-06-11T08:35:17.000Z</time>
      </trkpt>
      <trkpt lat="45.40727" lon="4.95425">
        <ele>404.7</ele>
        <time>2023-06-11T08:35:18.000Z</time>
      </trkpt>
      <trkpt lat="45.40729" lon="4.95445">
        <ele>405.5</ele>
        <time>2023-06-11T08:35:23.000Z</time>
      </trkpt>
      <trkpt lat="45.40731" lon="4.95466">
        <ele>406.2</ele>
        <time>2023-06-11T08:35:28.000Z</time>
      </trkpt>
      <trkpt lat="45.40731" lon="4.9548">
        <ele>406.5</ele>
        <time>2023-06-11T08:35:31.000Z</time>
      </trkpt>
      <trkpt lat="45.40733" lon="4.95507">
        <ele>407.1</ele>
        <time>2023-06-11T08:35:37.000Z</time>
      </trkpt>
      <trkpt lat="45.40734" lon="4.9553">
        <ele>407.6</ele>
        <time>2023-06-11T08:35:42.000Z</time>
      </trkpt>
      <trkpt lat="45.40734" lon="4.95556">
        <ele>407.9</ele>
        <time>2023-06-11T08:35:47.000Z</time>
      </trkpt>
      <trkpt lat="45.40735" lon="4.95578">
        <ele>408.2</ele>
        <time>2023-06-11T08:35:51.000Z</time>
      </trkpt>
      <trkpt lat="45.40737" lon="4.95613">
        <ele>408.8</ele>
        <time>2023-06-11T08:35:58.000Z</time>
      </trkpt>
      <trkpt lat="45.40739" lon="4.95643">
        <ele>409.3</ele>
        <time>2023-06-11T08:36:04.000Z</time>
      </trkpt>
      <trkpt lat="45.40739" lon="4.95658">
        <ele>409.5</ele>
        <time>2023-06-11T08:36:07.000Z</time>
      </trkpt>
      <trkpt lat="45.40741" lon="4.95698">
        <ele>410.3</ele>
        <time>2023-06-11T08:36:15.000Z</time>
      </trkpt>
      <trkpt lat="45.40742" lon="4.95707">
        <ele>410.5</ele>
        <time>2023-06-11T08:36:17.000Z</time>
      </trkpt>
      <trkpt lat="45.40742" lon="4.95717">
        <ele>410.7</ele>
        <time>2023-06-11T08:36:19.000Z</time>
      </trkpt>
      <trkpt lat="45.40744" lon="4.95754">
        <ele>411.6</ele>
        <time>2023-06-11T08:36:27.000Z</time>
      </trkpt>
      <trkpt lat="45.40744" lon="4.95759">
        <ele>411.8</ele>
        <time>2023-06-11T08:36:28.000Z</time>
      </trkpt>
      <trkpt lat="45.40746" lon="4.95799">
        <ele>413.1</ele>
        <time>2023-06-11T08:36:37.000Z</time>
      </trkpt>
      <trkpt lat="45.40747" lon="4.95812">
        <ele>413.5</ele>
        <time>2023-06-11T08:36:40.000Z</time>
      </trkpt>
      <trkpt lat="45.40749" lon="4.9583">
        <ele>414.1</ele>
        <time>2023-06-11T08:36:44.000Z</time>
      </trkpt>
      <trkpt lat="45.40749" lon="4.95852">
        <ele>414.8</ele>
        <time>2023-06-11T08:36:49.000Z</time>
      </trkpt>
      <trkpt lat="45.40749" lon="4.95865">
        <ele>415.2</ele>
        <time>2023-06-11T08:36:52.000Z</time>
      </trkpt>
      <trkpt lat="45.40743" lon="4.95884">
        <ele>416</ele>
        <time>2023-06-11T08:36:57.000Z</time>
      </trkpt>
      <trkpt lat="45.40742" lon="4.95887">
        <ele>416.1</ele>
        <time>2023-06-11T08:36:58.000Z</time>
      </trkpt>
      <trkpt lat="45.40725" lon="4.95904">
        <ele>416.9</ele>
        <time>2023-06-11T08:37:04.000Z</time>
      </trkpt>
      <trkpt lat="45.40718" lon="4.95909">
        <ele>417.2</ele>
        <time>2023-06-11T08:37:06.000Z</time>
      </trkpt>
      <trkpt lat="45.40708" lon="4.95916">
        <ele>417.5</ele>
        <time>2023-06-11T08:37:09.000Z</time>
      </trkpt>
      <trkpt lat="45.40695" lon="4.95924">
        <ele>418</ele>
        <time>2023-06-11T08:37:13.000Z</time>
      </trkpt>
      <trkpt lat="45.40665" lon="4.95942">
        <ele>419.2</ele>
        <time>2023-06-11T08:37:22.000Z</time>
      </trkpt>
      <trkpt lat="45.40662" lon="4.95944">
        <ele>419.3</ele>
        <time>2023-06-11T08:37:23.000Z</time>
      </trkpt>
      <trkpt lat="45.4063" lon="4.95965">
        <ele>420.8</ele>
        <time>2023-06-11T08:37:33.000Z</time>
      </trkpt>
      <trkpt lat="45.40623" lon="4.95969">
        <ele>421.1</ele>
        <time>2023-06-11T08:37:35.000Z</time>
      </trkpt>
      <trkpt lat="45.40598" lon="4.95983">
        <ele>422.2</ele>
        <time>2023-06-11T08:37:43.000Z</time>
      </trkpt>
      <trkpt lat="45.40591" lon="4.95987">
        <ele>422.5</ele>
        <time>2023-06-11T08:37:45.000Z</time>
      </trkpt>
      <trkpt lat="45.40576" lon="4.95996">
        <ele>423.4</ele>
        <time>2023-06-11T08:37:50.000Z</time>
      </trkpt>
      <trkpt lat="45.40565" lon="4.96003">
        <ele>423.9</ele>
        <time>2023-06-11T08:37:54.000Z</time>
      </trkpt>
      <trkpt lat="45.40559" lon="4.96007">
        <ele>424.2</ele>
        <time>2023-06-11T08:37:56.000Z</time>
      </trkpt>
      <trkpt lat="45.4054" lon="4.96019">
        <ele>424.9</ele>
        <time>2023-06-11T08:38:02.000Z</time>
      </trkpt>
      <trkpt lat="45.40537" lon="4.96021">
        <ele>424.9</ele>
        <time>2023-06-11T08:38:03.000Z</time>
      </trkpt>
      <trkpt lat="45.4052" lon="4.96031">
        <ele>425.3</ele>
        <time>2023-06-11T08:38:08.000Z</time>
      </trkpt>
      <trkpt lat="45.40503" lon="4.96042">
        <ele>425.5</ele>
        <time>2023-06-11T08:38:13.000Z</time>
      </trkpt>
      <trkpt lat="45.40473" lon="4.96068">
        <ele>425.8</ele>
        <time>2023-06-11T08:38:21.000Z</time>
      </trkpt>
      <trkpt lat="45.40459" lon="4.96088">
        <ele>425.8</ele>
        <time>2023-06-11T08:38:25.000Z</time>
      </trkpt>
      <trkpt lat="45.40449" lon="4.96105">
        <ele>425.8</ele>
        <time>2023-06-11T08:38:28.000Z</time>
      </trkpt>
      <trkpt lat="45.40437" lon="4.9613">
        <ele>425.7</ele>
        <time>2023-06-11T08:38:32.000Z</time>
      </trkpt>
      <trkpt lat="45.40425" lon="4.96156">
        <ele>425.8</ele>
        <time>2023-06-11T08:38:36.000Z</time>
      </trkpt>
      <trkpt lat="45.40423" lon="4.96163">
        <ele>425.8</ele>
        <time>2023-06-11T08:38:37.000Z</time>
      </trkpt>
      <trkpt lat="45.4042" lon="4.96169">
        <ele>425.9</ele>
        <time>2023-06-11T08:38:38.000Z</time>
      </trkpt>
      <trkpt lat="45.40413" lon="4.96175">
        <ele>425.9</ele>
        <time>2023-06-11T08:38:40.000Z</time>
      </trkpt>
      <trkpt lat="45.40391" lon="4.96182">
        <ele>425.5</ele>
        <time>2023-06-11T08:38:44.000Z</time>
      </trkpt>
      <trkpt lat="45.40379" lon="4.96187">
        <ele>425</ele>
        <time>2023-06-11T08:38:46.000Z</time>
      </trkpt>
      <trkpt lat="45.40345" lon="4.96204">
        <ele>423.9</ele>
        <time>2023-06-11T08:38:52.000Z</time>
      </trkpt>
      <trkpt lat="45.40339" lon="4.96206">
        <ele>423.4</ele>
        <time>2023-06-11T08:38:53.000Z</time>
      </trkpt>
      <trkpt lat="45.40285" lon="4.96222">
        <ele>421.5</ele>
        <time>2023-06-11T08:39:02.000Z</time>
      </trkpt>
      <trkpt lat="45.40279" lon="4.96224">
        <ele>421</ele>
        <time>2023-06-11T08:39:03.000Z</time>
      </trkpt>
      <trkpt lat="45.40244" lon="4.96233">
        <ele>420.1</ele>
        <time>2023-06-11T08:39:09.000Z</time>
      </trkpt>
      <trkpt lat="45.40238" lon="4.96234">
        <ele>419.5</ele>
        <time>2023-06-11T08:39:10.000Z</time>
      </trkpt>
      <trkpt lat="45.40232" lon="4.96236">
        <ele>419.4</ele>
        <time>2023-06-11T08:39:11.000Z</time>
      </trkpt>
      <trkpt lat="45.4021" lon="4.96246">
        <ele>419.1</ele>
        <time>2023-06-11T08:39:15.000Z</time>
      </trkpt>
      <trkpt lat="45.40201" lon="4.96252">
        <ele>419.2</ele>
        <time>2023-06-11T08:39:17.000Z</time>
      </trkpt>
      <trkpt lat="45.40197" lon="4.96255">
        <ele>418.7</ele>
        <time>2023-06-11T08:39:18.000Z</time>
      </trkpt>
      <trkpt lat="45.40186" lon="4.96263">
        <ele>418.6</ele>
        <time>2023-06-11T08:39:21.000Z</time>
      </trkpt>
      <trkpt lat="45.40174" lon="4.96271">
        <ele>418.6</ele>
        <time>2023-06-11T08:39:24.000Z</time>
      </trkpt>
      <trkpt lat="45.40165" lon="4.96274">
        <ele>418.1</ele>
        <time>2023-06-11T08:39:26.000Z</time>
      </trkpt>
      <trkpt lat="45.40148" lon="4.96278">
        <ele>417.5</ele>
        <time>2023-06-11T08:39:29.000Z</time>
      </trkpt>
      <trkpt lat="45.40137" lon="4.96283">
        <ele>416.8</ele>
        <time>2023-06-11T08:39:31.000Z</time>
      </trkpt>
      <trkpt lat="45.40132" lon="4.96286">
        <ele>416.5</ele>
        <time>2023-06-11T08:39:32.000Z</time>
      </trkpt>
      <trkpt lat="45.40111" lon="4.96301">
        <ele>414.9</ele>
        <time>2023-06-11T08:39:36.000Z</time>
      </trkpt>
      <trkpt lat="45.40092" lon="4.96314">
        <ele>412.7</ele>
        <time>2023-06-11T08:39:39.000Z</time>
      </trkpt>
      <trkpt lat="45.40086" lon="4.96319">
        <ele>411</ele>
        <time>2023-06-11T08:39:40.000Z</time>
      </trkpt>
      <trkpt lat="45.40062" lon="4.96343">
        <ele>407.4</ele>
        <time>2023-06-11T08:39:44.000Z</time>
      </trkpt>
      <trkpt lat="45.40058" lon="4.9635">
        <ele>406.2</ele>
        <time>2023-06-11T08:39:45.000Z</time>
      </trkpt>
      <trkpt lat="45.40054" lon="4.96354">
        <ele>405.5</ele>
        <time>2023-06-11T08:39:46.000Z</time>
      </trkpt>
      <trkpt lat="45.40048" lon="4.96357">
        <ele>404.3</ele>
        <time>2023-06-11T08:39:47.000Z</time>
      </trkpt>
      <trkpt lat="45.40043" lon="4.96361">
        <ele>403.1</ele>
        <time>2023-06-11T08:39:48.000Z</time>
      </trkpt>
      <trkpt lat="45.40039" lon="4.96365">
        <ele>402.3</ele>
        <time>2023-06-11T08:39:49.000Z</time>
      </trkpt>
      <trkpt lat="45.40032" lon="4.96375">
        <ele>401</ele>
        <time>2023-06-11T08:39:51.000Z</time>
      </trkpt>
      <trkpt lat="45.40029" lon="4.9638">
        <ele>399.5</ele>
        <time>2023-06-11T08:39:52.000Z</time>
      </trkpt>
      <trkpt lat="45.40024" lon="4.96384">
        <ele>398.6</ele>
        <time>2023-06-11T08:39:53.000Z</time>
      </trkpt>
      <trkpt lat="45.40014" lon="4.96388">
        <ele>396.7</ele>
        <time>2023-06-11T08:39:55.000Z</time>
      </trkpt>
      <trkpt lat="45.39992" lon="4.96397">
        <ele>392.8</ele>
        <time>2023-06-11T08:39:58.000Z</time>
      </trkpt>
      <trkpt lat="45.39986" lon="4.96398">
        <ele>391.8</ele>
        <time>2023-06-11T08:39:59.000Z</time>
      </trkpt>
      <trkpt lat="45.3998" lon="4.96399">
        <ele>390.6</ele>
        <time>2023-06-11T08:40:00.000Z</time>
      </trkpt>
      <trkpt lat="45.39975" lon="4.964">
        <ele>389.8</ele>
        <time>2023-06-11T08:40:01.000Z</time>
      </trkpt>
      <trkpt lat="45.39964" lon="4.96407">
        <ele>387.6</ele>
        <time>2023-06-11T08:40:03.000Z</time>
      </trkpt>
      <trkpt lat="45.39953" lon="4.96416">
        <ele>385.5</ele>
        <time>2023-06-11T08:40:05.000Z</time>
      </trkpt>
      <trkpt lat="45.39945" lon="4.96421">
        <ele>384.2</ele>
        <time>2023-06-11T08:40:06.000Z</time>
      </trkpt>
      <trkpt lat="45.39938" lon="4.96423">
        <ele>382.2</ele>
        <time>2023-06-11T08:40:07.000Z</time>
      </trkpt>
      <trkpt lat="45.39927" lon="4.96423">
        <ele>380.4</ele>
        <time>2023-06-11T08:40:09.000Z</time>
      </trkpt>
      <trkpt lat="45.39921" lon="4.96422">
        <ele>379.1</ele>
        <time>2023-06-11T08:40:10.000Z</time>
      </trkpt>
      <trkpt lat="45.39916" lon="4.96421">
        <ele>377.9</ele>
        <time>2023-06-11T08:40:11.000Z</time>
      </trkpt>
      <trkpt lat="45.39913" lon="4.96418">
        <ele>377.2</ele>
        <time>2023-06-11T08:40:12.000Z</time>
      </trkpt>
      <trkpt lat="45.3991" lon="4.96415">
        <ele>376.5</ele>
        <time>2023-06-11T08:40:13.000Z</time>
      </trkpt>
      <trkpt lat="45.39907" lon="4.96414">
        <ele>375.8</ele>
        <time>2023-06-11T08:40:14.000Z</time>
      </trkpt>
      <trkpt lat="45.39904" lon="4.96413">
        <ele>376</ele>
        <time>2023-06-11T08:40:15.000Z</time>
      </trkpt>
      <trkpt lat="45.39902" lon="4.96415">
        <ele>376.1</ele>
        <time>2023-06-11T08:40:16.000Z</time>
      </trkpt>
      <trkpt lat="45.399" lon="4.96418">
        <ele>376.2</ele>
        <time>2023-06-11T08:40:17.000Z</time>
      </trkpt>
      <trkpt lat="45.39898" lon="4.96422">
        <ele>376.3</ele>
        <time>2023-06-11T08:40:18.000Z</time>
      </trkpt>
      <trkpt lat="45.39896" lon="4.96427">
        <ele>376.3</ele>
        <time>2023-06-11T08:40:19.000Z</time>
      </trkpt>
      <trkpt lat="45.3989" lon="4.9644">
        <ele>376.1</ele>
        <time>2023-06-11T08:40:21.000Z</time>
      </trkpt>
      <trkpt lat="45.39887" lon="4.96448">
        <ele>376</ele>
        <time>2023-06-11T08:40:22.000Z</time>
      </trkpt>
      <trkpt lat="45.39885" lon="4.96456">
        <ele>375.9</ele>
        <time>2023-06-11T08:40:23.000Z</time>
      </trkpt>
      <trkpt lat="45.39883" lon="4.96465">
        <ele>375.7</ele>
        <time>2023-06-11T08:40:24.000Z</time>
      </trkpt>
      <trkpt lat="45.3988" lon="4.96473">
        <ele>375.6</ele>
        <time>2023-06-11T08:40:25.000Z</time>
      </trkpt>
      <trkpt lat="45.39876" lon="4.96488">
        <ele>375.3</ele>
        <time>2023-06-11T08:40:27.000Z</time>
      </trkpt>
      <trkpt lat="45.39873" lon="4.96506">
        <ele>374.7</ele>
        <time>2023-06-11T08:40:30.000Z</time>
      </trkpt>
      <trkpt lat="45.39872" lon="4.96511">
        <ele>374.5</ele>
        <time>2023-06-11T08:40:31.000Z</time>
      </trkpt>
      <trkpt lat="45.39872" lon="4.96518">
        <ele>374.2</ele>
        <time>2023-06-11T08:40:32.000Z</time>
      </trkpt>
      <trkpt lat="45.39871" lon="4.96525">
        <ele>373.8</ele>
        <time>2023-06-11T08:40:33.000Z</time>
      </trkpt>
      <trkpt lat="45.3987" lon="4.9653">
        <ele>373.6</ele>
        <time>2023-06-11T08:40:34.000Z</time>
      </trkpt>
      <trkpt lat="45.3987" lon="4.96532">
        <ele>373.5</ele>
        <time>2023-06-11T08:40:35.000Z</time>
      </trkpt>
      <trkpt lat="45.3987" lon="4.96534">
        <ele>373.4</ele>
        <time>2023-06-11T08:40:36.000Z</time>
      </trkpt>
      <trkpt lat="45.39869" lon="4.96537">
        <ele>373.2</ele>
        <time>2023-06-11T08:40:37.000Z</time>
      </trkpt>
      <trkpt lat="45.39869" lon="4.96541">
        <ele>373</ele>
        <time>2023-06-11T08:40:39.000Z</time>
      </trkpt>
      <trkpt lat="45.39869" lon="4.96544">
        <ele>372.9</ele>
        <time>2023-06-11T08:40:41.000Z</time>
      </trkpt>
      <trkpt lat="45.3987" lon="4.96544">
        <ele>372.8</ele>
        <time>2023-06-11T08:40:42.000Z</time>
      </trkpt>
      <trkpt lat="45.39873" lon="4.96546">
        <ele>372.6</ele>
        <time>2023-06-11T08:40:44.000Z</time>
      </trkpt>
      <trkpt lat="45.39878" lon="4.96548">
        <ele>372.7</ele>
        <time>2023-06-11T08:40:47.000Z</time>
      </trkpt>
      <trkpt lat="45.39883" lon="4.9655">
        <ele>373</ele>
        <time>2023-06-11T08:40:50.000Z</time>
      </trkpt>
      <trkpt lat="45.39889" lon="4.96556">
        <ele>373.4</ele>
        <time>2023-06-11T08:40:53.000Z</time>
      </trkpt>
      <trkpt lat="45.39894" lon="4.96561">
        <ele>373.8</ele>
        <time>2023-06-11T08:40:56.000Z</time>
      </trkpt>
      <trkpt lat="45.39897" lon="4.96566">
        <ele>374.2</ele>
        <time>2023-06-11T08:40:58.000Z</time>
      </trkpt>
      <trkpt lat="45.39907" lon="4.96583">
        <ele>374.5</ele>
        <time>2023-06-11T08:41:03.000Z</time>
      </trkpt>
      <trkpt lat="45.39908" lon="4.96586">
        <ele>374.5</ele>
        <time>2023-06-11T08:41:04.000Z</time>
      </trkpt>
      <trkpt lat="45.39911" lon="4.9659">
        <ele>374.6</ele>
        <time>2023-06-11T08:41:05.000Z</time>
      </trkpt>
      <trkpt lat="45.39928" lon="4.96608">
        <ele>375.2</ele>
        <time>2023-06-11T08:41:10.000Z</time>
      </trkpt>
      <trkpt lat="45.39929" lon="4.9661">
        <ele>375.2</ele>
        <time>2023-06-11T08:41:11.000Z</time>
      </trkpt>
      <trkpt lat="45.39935" lon="4.96624">
        <ele>375.5</ele>
        <time>2023-06-11T08:41:15.000Z</time>
      </trkpt>
      <trkpt lat="45.39942" lon="4.96635">
        <ele>376</ele>
        <time>2023-06-11T08:41:19.000Z</time>
      </trkpt>
      <trkpt lat="45.39948" lon="4.96641">
        <ele>376.4</ele>
        <time>2023-06-11T08:41:21.000Z</time>
      </trkpt>
      <trkpt lat="45.39955" lon="4.96659">
        <ele>377.5</ele>
        <time>2023-06-11T08:41:27.000Z</time>
      </trkpt>
      <trkpt lat="45.39957" lon="4.96663">
        <ele>377.7</ele>
        <time>2023-06-11T08:41:28.000Z</time>
      </trkpt>
      <trkpt lat="45.39961" lon="4.96673">
        <ele>378.3</ele>
        <time>2023-06-11T08:41:31.000Z</time>
      </trkpt>
      <trkpt lat="45.39962" lon="4.96678">
        <ele>378.6</ele>
        <time>2023-06-11T08:41:33.000Z</time>
      </trkpt>
      <trkpt lat="45.39964" lon="4.96683">
        <ele>378.8</ele>
        <time>2023-06-11T08:41:35.000Z</time>
      </trkpt>
      <trkpt lat="45.39967" lon="4.96694">
        <ele>379.3</ele>
        <time>2023-06-11T08:41:39.000Z</time>
      </trkpt>
      <trkpt lat="45.39968" lon="4.96702">
        <ele>379.6</ele>
        <time>2023-06-11T08:41:41.000Z</time>
      </trkpt>
      <trkpt lat="45.39969" lon="4.96717">
        <ele>379.9</ele>
        <time>2023-06-11T08:41:45.000Z</time>
      </trkpt>
      <trkpt lat="45.3997" lon="4.96718">
        <ele>379.9</ele>
        <time>2023-06-11T08:41:46.000Z</time>
      </trkpt>
      <trkpt lat="45.39971" lon="4.96719">
        <ele>380</ele>
        <time>2023-06-11T08:41:47.000Z</time>
      </trkpt>
      <trkpt lat="45.39973" lon="4.96722">
        <ele>380</ele>
        <time>2023-06-11T08:41:48.000Z</time>
      </trkpt>
      <trkpt lat="45.39974" lon="4.96725">
        <ele>379.9</ele>
        <time>2023-06-11T08:41:49.000Z</time>
      </trkpt>
      <trkpt lat="45.39974" lon="4.96728">
        <ele>379.9</ele>
        <time>2023-06-11T08:41:50.000Z</time>
      </trkpt>
      <trkpt lat="45.39973" lon="4.96743">
        <ele>379.8</ele>
        <time>2023-06-11T08:41:54.000Z</time>
      </trkpt>
      <trkpt lat="45.39977" lon="4.96749">
        <ele>379.9</ele>
        <time>2023-06-11T08:41:56.000Z</time>
      </trkpt>
      <trkpt lat="45.39979" lon="4.96758">
        <ele>380.3</ele>
        <time>2023-06-11T08:41:59.000Z</time>
      </trkpt>
      <trkpt lat="45.39982" lon="4.96773">
        <ele>381.3</ele>
        <time>2023-06-11T08:42:03.000Z</time>
      </trkpt>
      <trkpt lat="45.39983" lon="4.96776">
        <ele>381.5</ele>
        <time>2023-06-11T08:42:04.000Z</time>
      </trkpt>
      <trkpt lat="45.39984" lon="4.96778">
        <ele>381.7</ele>
        <time>2023-06-11T08:42:05.000Z</time>
      </trkpt>
      <trkpt lat="45.39985" lon="4.9678">
        <ele>381.8</ele>
        <time>2023-06-11T08:42:08.000Z</time>
      </trkpt>
      <trkpt lat="45.39983" lon="4.9679">
        <ele>382.2</ele>
        <time>2023-06-11T08:42:13.000Z</time>
      </trkpt>
      <trkpt lat="45.39982" lon="4.96794">
        <ele>382.2</ele>
        <time>2023-06-11T08:42:14.000Z</time>
      </trkpt>
      <trkpt lat="45.39982" lon="4.96811">
        <ele>382</ele>
        <time>2023-06-11T08:42:16.000Z</time>
      </trkpt>
      <trkpt lat="45.39983" lon="4.9682">
        <ele>381.8</ele>
        <time>2023-06-11T08:42:17.000Z</time>
      </trkpt>
      <trkpt lat="45.39983" lon="4.96835">
        <ele>381.8</ele>
        <time>2023-06-11T08:42:19.000Z</time>
      </trkpt>
      <trkpt lat="45.39985" lon="4.9684">
        <ele>381.8</ele>
        <time>2023-06-11T08:42:20.000Z</time>
      </trkpt>
      <trkpt lat="45.39987" lon="4.96853">
        <ele>382</ele>
        <time>2023-06-11T08:42:23.000Z</time>
      </trkpt>
      <trkpt lat="45.39986" lon="4.96857">
        <ele>382.1</ele>
        <time>2023-06-11T08:42:24.000Z</time>
      </trkpt>
      <trkpt lat="45.39986" lon="4.96866">
        <ele>382.2</ele>
        <time>2023-06-11T08:42:26.000Z</time>
      </trkpt>
      <trkpt lat="45.39987" lon="4.9687">
        <ele>382.3</ele>
        <time>2023-06-11T08:42:27.000Z</time>
      </trkpt>
      <trkpt lat="45.39987" lon="4.96874">
        <ele>382.3</ele>
        <time>2023-06-11T08:42:28.000Z</time>
      </trkpt>
      <trkpt lat="45.39986" lon="4.96882">
        <ele>382.4</ele>
        <time>2023-06-11T08:42:30.000Z</time>
      </trkpt>
      <trkpt lat="45.39986" lon="4.96886">
        <ele>382.4</ele>
        <time>2023-06-11T08:42:31.000Z</time>
      </trkpt>
      <trkpt lat="45.39989" lon="4.969">
        <ele>382.6</ele>
        <time>2023-06-11T08:42:34.000Z</time>
      </trkpt>
      <trkpt lat="45.3999" lon="4.96905">
        <ele>382.8</ele>
        <time>2023-06-11T08:42:35.000Z</time>
      </trkpt>
      <trkpt lat="45.39991" lon="4.9691">
        <ele>382.9</ele>
        <time>2023-06-11T08:42:36.000Z</time>
      </trkpt>
      <trkpt lat="45.39994" lon="4.9692">
        <ele>383.5</ele>
        <time>2023-06-11T08:42:38.000Z</time>
      </trkpt>
      <trkpt lat="45.39997" lon="4.96929">
        <ele>384.1</ele>
        <time>2023-06-11T08:42:40.000Z</time>
      </trkpt>
      <trkpt lat="45.39998" lon="4.96935">
        <ele>384.6</ele>
        <time>2023-06-11T08:42:42.000Z</time>
      </trkpt>
      <trkpt lat="45.39998" lon="4.96937">
        <ele>384.7</ele>
        <time>2023-06-11T08:42:45.000Z</time>
      </trkpt>
      <trkpt lat="45.39995" lon="4.96943">
        <ele>384.9</ele>
        <time>2023-06-11T08:42:48.000Z</time>
      </trkpt>
      <trkpt lat="45.39994" lon="4.96946">
        <ele>385</ele>
        <time>2023-06-11T08:42:49.000Z</time>
      </trkpt>
      <trkpt lat="45.39992" lon="4.96954">
        <ele>384.9</ele>
        <time>2023-06-11T08:42:52.000Z</time>
      </trkpt>
      <trkpt lat="45.39989" lon="4.9696">
        <ele>384.8</ele>
        <time>2023-06-11T08:42:54.000Z</time>
      </trkpt>
      <trkpt lat="45.39986" lon="4.96968">
        <ele>384.5</ele>
        <time>2023-06-11T08:42:56.000Z</time>
      </trkpt>
      <trkpt lat="45.39986" lon="4.96969">
        <ele>384.5</ele>
        <time>2023-06-11T08:42:58.000Z</time>
      </trkpt>
      <trkpt lat="45.39986" lon="4.96969">
        <ele>384.5</ele>
        <time>2023-06-11T08:42:59.000Z</time>
      </trkpt>
      <trkpt lat="45.39983" lon="4.96985">
        <ele>384.2</ele>
        <time>2023-06-11T08:43:27.000Z</time>
      </trkpt>
      <trkpt lat="45.39982" lon="4.96989">
        <ele>384.2</ele>
        <time>2023-06-11T08:43:28.000Z</time>
      </trkpt>
      <trkpt lat="45.39981" lon="4.96992">
        <ele>384.3</ele>
        <time>2023-06-11T08:43:29.000Z</time>
      </trkpt>
      <trkpt lat="45.3998" lon="4.96995">
        <ele>384.4</ele>
        <time>2023-06-11T08:43:30.000Z</time>
      </trkpt>
      <trkpt lat="45.3998" lon="4.96999">
        <ele>384.5</ele>
        <time>2023-06-11T08:43:33.000Z</time>
      </trkpt>
      <trkpt lat="45.39977" lon="4.97007">
        <ele>384.9</ele>
        <time>2023-06-11T08:43:38.000Z</time>
      </trkpt>
      <trkpt lat="45.39976" lon="4.9701">
        <ele>385.1</ele>
        <time>2023-06-11T08:43:39.000Z</time>
      </trkpt>
      <trkpt lat="45.39977" lon="4.97025">
        <ele>385.9</ele>
        <time>2023-06-11T08:43:44.000Z</time>
      </trkpt>
      <trkpt lat="45.39976" lon="4.97029">
        <ele>386</ele>
        <time>2023-06-11T08:43:45.000Z</time>
      </trkpt>
      <trkpt lat="45.39974" lon="4.97037">
        <ele>386.5</ele>
        <time>2023-06-11T08:43:47.000Z</time>
      </trkpt>
      <trkpt lat="45.39973" lon="4.97041">
        <ele>386.8</ele>
        <time>2023-06-11T08:43:49.000Z</time>
      </trkpt>
      <trkpt lat="45.39973" lon="4.97045">
        <ele>387</ele>
        <time>2023-06-11T08:43:51.000Z</time>
      </trkpt>
      <trkpt lat="45.39972" lon="4.97051">
        <ele>387.5</ele>
        <time>2023-06-11T08:43:53.000Z</time>
      </trkpt>
      <trkpt lat="45.3997" lon="4.97057">
        <ele>387.9</ele>
        <time>2023-06-11T08:43:55.000Z</time>
      </trkpt>
      <trkpt lat="45.3997" lon="4.97057">
        <ele>387.9</ele>
        <time>2023-06-11T08:43:56.000Z</time>
      </trkpt>
      <trkpt lat="45.3997" lon="4.97062">
        <ele>388.2</ele>
        <time>2023-06-11T08:44:00.000Z</time>
      </trkpt>
      <trkpt lat="45.3997" lon="4.97062">
        <ele>388.2</ele>
        <time>2023-06-11T08:44:01.000Z</time>
      </trkpt>
      <trkpt lat="45.39967" lon="4.97066">
        <ele>388.5</ele>
        <time>2023-06-11T08:44:04.000Z</time>
      </trkpt>
      <trkpt lat="45.39966" lon="4.97067">
        <ele>389.9</ele>
        <time>2023-06-11T08:44:05.000Z</time>
      </trkpt>
      <trkpt lat="45.39965" lon="4.97068">
        <ele>390.1</ele>
        <time>2023-06-11T08:44:06.000Z</time>
      </trkpt>
      <trkpt lat="45.39958" lon="4.97072">
        <ele>391.8</ele>
        <time>2023-06-11T08:44:09.000Z</time>
      </trkpt>
      <trkpt lat="45.39955" lon="4.97076">
        <ele>392.9</ele>
        <time>2023-06-11T08:44:12.000Z</time>
      </trkpt>
      <trkpt lat="45.39954" lon="4.97078">
        <ele>393.3</ele>
        <time>2023-06-11T08:44:13.000Z</time>
      </trkpt>
      <trkpt lat="45.39953" lon="4.9708">
        <ele>393.9</ele>
        <time>2023-06-11T08:44:14.000Z</time>
      </trkpt>
      <trkpt lat="45.39949" lon="4.97086">
        <ele>395.4</ele>
        <time>2023-06-11T08:44:18.000Z</time>
      </trkpt>
      <trkpt lat="45.39949" lon="4.97089">
        <ele>395.8</ele>
        <time>2023-06-11T08:44:20.000Z</time>
      </trkpt>
      <trkpt lat="45.39945" lon="4.97093">
        <ele>396.7</ele>
        <time>2023-06-11T08:44:24.000Z</time>
      </trkpt>
      <trkpt lat="45.39945" lon="4.97094">
        <ele>396.9</ele>
        <time>2023-06-11T08:44:25.000Z</time>
      </trkpt>
      <trkpt lat="45.39943" lon="4.97096">
        <ele>397.2</ele>
        <time>2023-06-11T08:44:27.000Z</time>
      </trkpt>
      <trkpt lat="45.39939" lon="4.97097">
        <ele>397.7</ele>
        <time>2023-06-11T08:44:30.000Z</time>
      </trkpt>
      <trkpt lat="45.39935" lon="4.97097">
        <ele>398</ele>
        <time>2023-06-11T08:44:33.000Z</time>
      </trkpt>
      <trkpt lat="45.39934" lon="4.97097">
        <ele>398.2</ele>
        <time>2023-06-11T08:44:35.000Z</time>
      </trkpt>
      <trkpt lat="45.39932" lon="4.97098">
        <ele>398.3</ele>
        <time>2023-06-11T08:44:36.000Z</time>
      </trkpt>
      <trkpt lat="45.39927" lon="4.97101">
        <ele>398.7</ele>
        <time>2023-06-11T08:44:40.000Z</time>
      </trkpt>
      <trkpt lat="45.39922" lon="4.97104">
        <ele>399.2</ele>
        <time>2023-06-11T08:44:44.000Z</time>
      </trkpt>
      <trkpt lat="45.39916" lon="4.97106">
        <ele>399.7</ele>
        <time>2023-06-11T08:44:48.000Z</time>
      </trkpt>
      <trkpt lat="45.39915" lon="4.97107">
        <ele>399.8</ele>
        <time>2023-06-11T08:44:49.000Z</time>
      </trkpt>
      <trkpt lat="45.39912" lon="4.9711">
        <ele>400</ele>
        <time>2023-06-11T08:44:51.000Z</time>
      </trkpt>
      <trkpt lat="45.39903" lon="4.97116">
        <ele>400.6</ele>
        <time>2023-06-11T08:44:57.000Z</time>
      </trkpt>
      <trkpt lat="45.39901" lon="4.97118">
        <ele>400.8</ele>
        <time>2023-06-11T08:44:59.000Z</time>
      </trkpt>
      <trkpt lat="45.39886" lon="4.97124">
        <ele>401.8</ele>
        <time>2023-06-11T08:45:06.000Z</time>
      </trkpt>
      <trkpt lat="45.39884" lon="4.97124">
        <ele>402</ele>
        <time>2023-06-11T08:45:07.000Z</time>
      </trkpt>
      <trkpt lat="45.39865" lon="4.9713">
        <ele>403.3</ele>
        <time>2023-06-11T08:45:15.000Z</time>
      </trkpt>
      <trkpt lat="45.39847" lon="4.97133">
        <ele>404.6</ele>
        <time>2023-06-11T08:45:22.000Z</time>
      </trkpt>
      <trkpt lat="45.39845" lon="4.97134">
        <ele>404.7</ele>
        <time>2023-06-11T08:45:23.000Z</time>
      </trkpt>
      <trkpt lat="45.39843" lon="4.97136">
        <ele>404.8</ele>
        <time>2023-06-11T08:45:24.000Z</time>
      </trkpt>
      <trkpt lat="45.39831" lon="4.97139">
        <ele>405.6</ele>
        <time>2023-06-11T08:45:30.000Z</time>
      </trkpt>
      <trkpt lat="45.39816" lon="4.97141">
        <ele>406.4</ele>
        <time>2023-06-11T08:45:36.000Z</time>
      </trkpt>
      <trkpt lat="45.39799" lon="4.97147">
        <ele>407.6</ele>
        <time>2023-06-11T08:45:43.000Z</time>
      </trkpt>
      <trkpt lat="45.3979" lon="4.97154">
        <ele>408.4</ele>
        <time>2023-06-11T08:45:47.000Z</time>
      </trkpt>
      <trkpt lat="45.39788" lon="4.97156">
        <ele>408.6</ele>
        <time>2023-06-11T08:45:48.000Z</time>
      </trkpt>
      <trkpt lat="45.3977" lon="4.97172">
        <ele>410</ele>
        <time>2023-06-11T08:45:55.000Z</time>
      </trkpt>
      <trkpt lat="45.39754" lon="4.97178">
        <ele>410.8</ele>
        <time>2023-06-11T08:46:01.000Z</time>
      </trkpt>
      <trkpt lat="45.39748" lon="4.97178">
        <ele>411.1</ele>
        <time>2023-06-11T08:46:03.000Z</time>
      </trkpt>
      <trkpt lat="45.39726" lon="4.97181">
        <ele>412.7</ele>
        <time>2023-06-11T08:46:11.000Z</time>
      </trkpt>
      <trkpt lat="45.39724" lon="4.97182">
        <ele>413</ele>
        <time>2023-06-11T08:46:12.000Z</time>
      </trkpt>
      <trkpt lat="45.39711" lon="4.97192">
        <ele>414.3</ele>
        <time>2023-06-11T08:46:17.000Z</time>
      </trkpt>
      <trkpt lat="45.39709" lon="4.97194">
        <ele>414.5</ele>
        <time>2023-06-11T08:46:18.000Z</time>
      </trkpt>
      <trkpt lat="45.39696" lon="4.97207">
        <ele>415.8</ele>
        <time>2023-06-11T08:46:24.000Z</time>
      </trkpt>
      <trkpt lat="45.39685" lon="4.9722">
        <ele>416.9</ele>
        <time>2023-06-11T08:46:30.000Z</time>
      </trkpt>
      <trkpt lat="45.39678" lon="4.97226">
        <ele>417.4</ele>
        <time>2023-06-11T08:46:33.000Z</time>
      </trkpt>
      <trkpt lat="45.39667" lon="4.97235">
        <ele>418.5</ele>
        <time>2023-06-11T08:46:38.000Z</time>
      </trkpt>
      <trkpt lat="45.39663" lon="4.97239">
        <ele>419</ele>
        <time>2023-06-11T08:46:40.000Z</time>
      </trkpt>
      <trkpt lat="45.39657" lon="4.97245">
        <ele>419.8</ele>
        <time>2023-06-11T08:46:43.000Z</time>
      </trkpt>
      <trkpt lat="45.39648" lon="4.97258">
        <ele>421.3</ele>
        <time>2023-06-11T08:46:48.000Z</time>
      </trkpt>
      <trkpt lat="45.39646" lon="4.97263">
        <ele>421.8</ele>
        <time>2023-06-11T08:46:50.000Z</time>
      </trkpt>
      <trkpt lat="45.39643" lon="4.9727">
        <ele>422.4</ele>
        <time>2023-06-11T08:46:53.000Z</time>
      </trkpt>
      <trkpt lat="45.39641" lon="4.97276">
        <ele>422.9</ele>
        <time>2023-06-11T08:46:56.000Z</time>
      </trkpt>
      <trkpt lat="45.39641" lon="4.97278">
        <ele>423.1</ele>
        <time>2023-06-11T08:46:57.000Z</time>
      </trkpt>
      <trkpt lat="45.3964" lon="4.9728">
        <ele>423.3</ele>
        <time>2023-06-11T08:46:58.000Z</time>
      </trkpt>
      <trkpt lat="45.39638" lon="4.97288">
        <ele>423.9</ele>
        <time>2023-06-11T08:47:01.000Z</time>
      </trkpt>
      <trkpt lat="45.39637" lon="4.97292">
        <ele>424.2</ele>
        <time>2023-06-11T08:47:03.000Z</time>
      </trkpt>
      <trkpt lat="45.39634" lon="4.97298">
        <ele>424.7</ele>
        <time>2023-06-11T08:47:06.000Z</time>
      </trkpt>
      <trkpt lat="45.39633" lon="4.97304">
        <ele>425.2</ele>
        <time>2023-06-11T08:47:09.000Z</time>
      </trkpt>
      <trkpt lat="45.39632" lon="4.97306">
        <ele>425.3</ele>
        <time>2023-06-11T08:47:10.000Z</time>
      </trkpt>
      <trkpt lat="45.39631" lon="4.97309">
        <ele>425.6</ele>
        <time>2023-06-11T08:47:12.000Z</time>
      </trkpt>
      <trkpt lat="45.3963" lon="4.97312">
        <ele>425.9</ele>
        <time>2023-06-11T08:47:14.000Z</time>
      </trkpt>
      <trkpt lat="45.39625" lon="4.97319">
        <ele>426.5</ele>
        <time>2023-06-11T08:47:18.000Z</time>
      </trkpt>
      <trkpt lat="45.39623" lon="4.97322">
        <ele>426.7</ele>
        <time>2023-06-11T08:47:20.000Z</time>
      </trkpt>
      <trkpt lat="45.39621" lon="4.97328">
        <ele>427.1</ele>
        <time>2023-06-11T08:47:23.000Z</time>
      </trkpt>
      <trkpt lat="45.39617" lon="4.97336">
        <ele>427.7</ele>
        <time>2023-06-11T08:47:27.000Z</time>
      </trkpt>
      <trkpt lat="45.39615" lon="4.97338">
        <ele>427.8</ele>
        <time>2023-06-11T08:47:28.000Z</time>
      </trkpt>
      <trkpt lat="45.3961" lon="4.9735">
        <ele>428.5</ele>
        <time>2023-06-11T08:47:33.000Z</time>
      </trkpt>
      <trkpt lat="45.39605" lon="4.97357">
        <ele>429</ele>
        <time>2023-06-11T08:47:36.000Z</time>
      </trkpt>
      <trkpt lat="45.39602" lon="4.97364">
        <ele>429.4</ele>
        <time>2023-06-11T08:47:38.000Z</time>
      </trkpt>
      <trkpt lat="45.39594" lon="4.97383">
        <ele>430.5</ele>
        <time>2023-06-11T08:47:44.000Z</time>
      </trkpt>
      <trkpt lat="45.39593" lon="4.97385">
        <ele>430.7</ele>
        <time>2023-06-11T08:47:45.000Z</time>
      </trkpt>
      <trkpt lat="45.39593" lon="4.97388">
        <ele>430.8</ele>
        <time>2023-06-11T08:47:46.000Z</time>
      </trkpt>
      <trkpt lat="45.3959" lon="4.97397">
        <ele>431.2</ele>
        <time>2023-06-11T08:47:49.000Z</time>
      </trkpt>
      <trkpt lat="45.39586" lon="4.97415">
        <ele>432.2</ele>
        <time>2023-06-11T08:47:55.000Z</time>
      </trkpt>
      <trkpt lat="45.39586" lon="4.97417">
        <ele>432.3</ele>
        <time>2023-06-11T08:47:56.000Z</time>
      </trkpt>
      <trkpt lat="45.39586" lon="4.97427">
        <ele>432.8</ele>
        <time>2023-06-11T08:47:59.000Z</time>
      </trkpt>
      <trkpt lat="45.39585" lon="4.97431">
        <ele>433</ele>
        <time>2023-06-11T08:48:00.000Z</time>
      </trkpt>
      <trkpt lat="45.39587" lon="4.97443">
        <ele>433.7</ele>
        <time>2023-06-11T08:48:04.000Z</time>
      </trkpt>
      <trkpt lat="45.39588" lon="4.97445">
        <ele>433.8</ele>
        <time>2023-06-11T08:48:05.000Z</time>
      </trkpt>
      <trkpt lat="45.39587" lon="4.97464">
        <ele>434.5</ele>
        <time>2023-06-11T08:48:11.000Z</time>
      </trkpt>
      <trkpt lat="45.39587" lon="4.97471">
        <ele>434.8</ele>
        <time>2023-06-11T08:48:13.000Z</time>
      </trkpt>
      <trkpt lat="45.39585" lon="4.97477">
        <ele>434.9</ele>
        <time>2023-06-11T08:48:15.000Z</time>
      </trkpt>
      <trkpt lat="45.39576" lon="4.97492">
        <ele>435.1</ele>
        <time>2023-06-11T08:48:20.000Z</time>
      </trkpt>
      <trkpt lat="45.39573" lon="4.97499">
        <ele>435.2</ele>
        <time>2023-06-11T08:48:22.000Z</time>
      </trkpt>
      <trkpt lat="45.39569" lon="4.97516">
        <ele>435.4</ele>
        <time>2023-06-11T08:48:26.000Z</time>
      </trkpt>
      <trkpt lat="45.39568" lon="4.97528">
        <ele>435.6</ele>
        <time>2023-06-11T08:48:29.000Z</time>
      </trkpt>
      <trkpt lat="45.39563" lon="4.97544">
        <ele>435.8</ele>
        <time>2023-06-11T08:48:33.000Z</time>
      </trkpt>
      <trkpt lat="45.39545" lon="4.97559">
        <ele>436.2</ele>
        <time>2023-06-11T08:48:39.000Z</time>
      </trkpt>
      <trkpt lat="45.39542" lon="4.97561">
        <ele>436.3</ele>
        <time>2023-06-11T08:48:40.000Z</time>
      </trkpt>
      <trkpt lat="45.3953" lon="4.97569">
        <ele>436.6</ele>
        <time>2023-06-11T08:48:44.000Z</time>
      </trkpt>
      <trkpt lat="45.39525" lon="4.97576">
        <ele>436.7</ele>
        <time>2023-06-11T08:48:46.000Z</time>
      </trkpt>
      <trkpt lat="45.39523" lon="4.97587">
        <ele>436.9</ele>
        <time>2023-06-11T08:48:48.000Z</time>
      </trkpt>
      <trkpt lat="45.39523" lon="4.97593">
        <ele>437</ele>
        <time>2023-06-11T08:48:49.000Z</time>
      </trkpt>
      <trkpt lat="45.39527" lon="4.97607">
        <ele>437.3</ele>
        <time>2023-06-11T08:48:52.000Z</time>
      </trkpt>
      <trkpt lat="45.39527" lon="4.97627">
        <ele>437.7</ele>
        <time>2023-06-11T08:48:56.000Z</time>
      </trkpt>
      <trkpt lat="45.39525" lon="4.97632">
        <ele>437.9</ele>
        <time>2023-06-11T08:48:57.000Z</time>
      </trkpt>
      <trkpt lat="45.39513" lon="4.97655">
        <ele>438.5</ele>
        <time>2023-06-11T08:49:02.000Z</time>
      </trkpt>
      <trkpt lat="45.39499" lon="4.9767">
        <ele>438.8</ele>
        <time>2023-06-11T08:49:06.000Z</time>
      </trkpt>
      <trkpt lat="45.3949" lon="4.97682">
        <ele>438.9</ele>
        <time>2023-06-11T08:49:09.000Z</time>
      </trkpt>
      <trkpt lat="45.39483" lon="4.97698">
        <ele>439.3</ele>
        <time>2023-06-11T08:49:12.000Z</time>
      </trkpt>
      <trkpt lat="45.3948" lon="4.97708">
        <ele>439.4</ele>
        <time>2023-06-11T08:49:14.000Z</time>
      </trkpt>
      <trkpt lat="45.39473" lon="4.97733">
        <ele>439.5</ele>
        <time>2023-06-11T08:49:19.000Z</time>
      </trkpt>
      <trkpt lat="45.39466" lon="4.97756">
        <ele>439.6</ele>
        <time>2023-06-11T08:49:24.000Z</time>
      </trkpt>
      <trkpt lat="45.39464" lon="4.97761">
        <ele>439.6</ele>
        <time>2023-06-11T08:49:25.000Z</time>
      </trkpt>
      <trkpt lat="45.3946" lon="4.97784">
        <ele>439.5</ele>
        <time>2023-06-11T08:49:30.000Z</time>
      </trkpt>
      <trkpt lat="45.39454" lon="4.97798">
        <ele>439.4</ele>
        <time>2023-06-11T08:49:33.000Z</time>
      </trkpt>
      <trkpt lat="45.3945" lon="4.978">
        <ele>439.4</ele>
        <time>2023-06-11T08:49:34.000Z</time>
      </trkpt>
      <trkpt lat="45.39422" lon="4.97811">
        <ele>439</ele>
        <time>2023-06-11T08:49:42.000Z</time>
      </trkpt>
      <trkpt lat="45.394" lon="4.97814">
        <ele>438.6</ele>
        <time>2023-06-11T08:49:47.000Z</time>
      </trkpt>
      <trkpt lat="45.39391" lon="4.97811">
        <ele>438.4</ele>
        <time>2023-06-11T08:49:49.000Z</time>
      </trkpt>
      <trkpt lat="45.39381" lon="4.97806">
        <ele>438.1</ele>
        <time>2023-06-11T08:49:51.000Z</time>
      </trkpt>
      <trkpt lat="45.39368" lon="4.97803">
        <ele>437.6</ele>
        <time>2023-06-11T08:49:54.000Z</time>
      </trkpt>
      <trkpt lat="45.39366" lon="4.97805">
        <ele>437.4</ele>
        <time>2023-06-11T08:49:55.000Z</time>
      </trkpt>
      <trkpt lat="45.39356" lon="4.97813">
        <ele>437.1</ele>
        <time>2023-06-11T08:49:58.000Z</time>
      </trkpt>
      <trkpt lat="45.39334" lon="4.97833">
        <ele>436.3</ele>
        <time>2023-06-11T08:50:03.000Z</time>
      </trkpt>
      <trkpt lat="45.39314" lon="4.97853">
        <ele>435.4</ele>
        <time>2023-06-11T08:50:07.000Z</time>
      </trkpt>
      <trkpt lat="45.39302" lon="4.97861">
        <ele>434.9</ele>
        <time>2023-06-11T08:50:09.000Z</time>
      </trkpt>
      <trkpt lat="45.39296" lon="4.97864">
        <ele>434.6</ele>
        <time>2023-06-11T08:50:10.000Z</time>
      </trkpt>
      <trkpt lat="45.39268" lon="4.97876">
        <ele>433.2</ele>
        <time>2023-06-11T08:50:14.000Z</time>
      </trkpt>
      <trkpt lat="45.39261" lon="4.9788">
        <ele>432.8</ele>
        <time>2023-06-11T08:50:15.000Z</time>
      </trkpt>
      <trkpt lat="45.39247" lon="4.97887">
        <ele>431.9</ele>
        <time>2023-06-11T08:50:17.000Z</time>
      </trkpt>
      <trkpt lat="45.39236" lon="4.979">
        <ele>430.9</ele>
        <time>2023-06-11T08:50:19.000Z</time>
      </trkpt>
      <trkpt lat="45.3922" lon="4.97926">
        <ele>428.8</ele>
        <time>2023-06-11T08:50:22.000Z</time>
      </trkpt>
      <trkpt lat="45.39215" lon="4.97937">
        <ele>427.8</ele>
        <time>2023-06-11T08:50:23.000Z</time>
      </trkpt>
      <trkpt lat="45.39205" lon="4.97961">
        <ele>425.3</ele>
        <time>2023-06-11T08:50:25.000Z</time>
      </trkpt>
      <trkpt lat="45.39194" lon="4.97986">
        <ele>421.9</ele>
        <time>2023-06-11T08:50:27.000Z</time>
      </trkpt>
      <trkpt lat="45.39189" lon="4.97997">
        <ele>420.4</ele>
        <time>2023-06-11T08:50:28.000Z</time>
      </trkpt>
      <trkpt lat="45.3917" lon="4.98027">
        <ele>416.2</ele>
        <time>2023-06-11T08:50:31.000Z</time>
      </trkpt>
      <trkpt lat="45.39163" lon="4.98036">
        <ele>414.9</ele>
        <time>2023-06-11T08:50:32.000Z</time>
      </trkpt>
      <trkpt lat="45.39157" lon="4.98046">
        <ele>413.5</ele>
        <time>2023-06-11T08:50:33.000Z</time>
      </trkpt>
      <trkpt lat="45.39152" lon="4.98058">
        <ele>411.8</ele>
        <time>2023-06-11T08:50:34.000Z</time>
      </trkpt>
      <trkpt lat="45.39148" lon="4.98069">
        <ele>410.3</ele>
        <time>2023-06-11T08:50:35.000Z</time>
      </trkpt>
      <trkpt lat="45.39144" lon="4.98079">
        <ele>409</ele>
        <time>2023-06-11T08:50:36.000Z</time>
      </trkpt>
      <trkpt lat="45.39139" lon="4.98086">
        <ele>407.8</ele>
        <time>2023-06-11T08:50:37.000Z</time>
      </trkpt>
      <trkpt lat="45.39132" lon="4.98093">
        <ele>406.6</ele>
        <time>2023-06-11T08:50:38.000Z</time>
      </trkpt>
      <trkpt lat="45.39122" lon="4.98099">
        <ele>405.1</ele>
        <time>2023-06-11T08:50:39.000Z</time>
      </trkpt>
      <trkpt lat="45.39112" lon="4.98105">
        <ele>403.4</ele>
        <time>2023-06-11T08:50:40.000Z</time>
      </trkpt>
      <trkpt lat="45.39101" lon="4.9811">
        <ele>401.5</ele>
        <time>2023-06-11T08:50:41.000Z</time>
      </trkpt>
      <trkpt lat="45.39089" lon="4.98114">
        <ele>399.4</ele>
        <time>2023-06-11T08:50:42.000Z</time>
      </trkpt>
      <trkpt lat="45.39078" lon="4.9812">
        <ele>397.4</ele>
        <time>2023-06-11T08:50:43.000Z</time>
      </trkpt>
      <trkpt lat="45.39067" lon="4.98126">
        <ele>395.4</ele>
        <time>2023-06-11T08:50:44.000Z</time>
      </trkpt>
      <trkpt lat="45.39058" lon="4.98135">
        <ele>393.1</ele>
        <time>2023-06-11T08:50:45.000Z</time>
      </trkpt>
      <trkpt lat="45.39051" lon="4.98146">
        <ele>391.3</ele>
        <time>2023-06-11T08:50:46.000Z</time>
      </trkpt>
      <trkpt lat="45.39044" lon="4.98158">
        <ele>390</ele>
        <time>2023-06-11T08:50:47.000Z</time>
      </trkpt>
      <trkpt lat="45.39038" lon="4.9817">
        <ele>388.9</ele>
        <time>2023-06-11T08:50:48.000Z</time>
      </trkpt>
      <trkpt lat="45.39032" lon="4.98181">
        <ele>388</ele>
        <time>2023-06-11T08:50:49.000Z</time>
      </trkpt>
      <trkpt lat="45.39027" lon="4.98192">
        <ele>387.1</ele>
        <time>2023-06-11T08:50:50.000Z</time>
      </trkpt>
      <trkpt lat="45.39022" lon="4.98201">
        <ele>386.3</ele>
        <time>2023-06-11T08:50:51.000Z</time>
      </trkpt>
      <trkpt lat="45.39016" lon="4.98208">
        <ele>385.6</ele>
        <time>2023-06-11T08:50:52.000Z</time>
      </trkpt>
      <trkpt lat="45.39009" lon="4.98213">
        <ele>384.9</ele>
        <time>2023-06-11T08:50:53.000Z</time>
      </trkpt>
      <trkpt lat="45.39001" lon="4.98217">
        <ele>384.1</ele>
        <time>2023-06-11T08:50:54.000Z</time>
      </trkpt>
      <trkpt lat="45.38995" lon="4.98221">
        <ele>383.2</ele>
        <time>2023-06-11T08:50:55.000Z</time>
      </trkpt>
      <trkpt lat="45.3899" lon="4.98226">
        <ele>382.4</ele>
        <time>2023-06-11T08:50:56.000Z</time>
      </trkpt>
      <trkpt lat="45.38987" lon="4.98234">
        <ele>381</ele>
        <time>2023-06-11T08:50:57.000Z</time>
      </trkpt>
      <trkpt lat="45.38985" lon="4.98244">
        <ele>380.2</ele>
        <time>2023-06-11T08:50:58.000Z</time>
      </trkpt>
      <trkpt lat="45.38984" lon="4.98255">
        <ele>379.5</ele>
        <time>2023-06-11T08:50:59.000Z</time>
      </trkpt>
      <trkpt lat="45.38983" lon="4.98267">
        <ele>378.7</ele>
        <time>2023-06-11T08:51:00.000Z</time>
      </trkpt>
      <trkpt lat="45.3898" lon="4.98291">
        <ele>376.9</ele>
        <time>2023-06-11T08:51:02.000Z</time>
      </trkpt>
      <trkpt lat="45.38977" lon="4.98318">
        <ele>375.2</ele>
        <time>2023-06-11T08:51:04.000Z</time>
      </trkpt>
      <trkpt lat="45.38975" lon="4.98331">
        <ele>374.3</ele>
        <time>2023-06-11T08:51:05.000Z</time>
      </trkpt>
      <trkpt lat="45.38975" lon="4.98345">
        <ele>373.6</ele>
        <time>2023-06-11T08:51:06.000Z</time>
      </trkpt>
      <trkpt lat="45.38977" lon="4.98359">
        <ele>372.9</ele>
        <time>2023-06-11T08:51:07.000Z</time>
      </trkpt>
      <trkpt lat="45.38979" lon="4.98371">
        <ele>372.3</ele>
        <time>2023-06-11T08:51:08.000Z</time>
      </trkpt>
      <trkpt lat="45.38984" lon="4.98382">
        <ele>371.7</ele>
        <time>2023-06-11T08:51:09.000Z</time>
      </trkpt>
      <trkpt lat="45.38989" lon="4.98391">
        <ele>371.1</ele>
        <time>2023-06-11T08:51:10.000Z</time>
      </trkpt>
      <trkpt lat="45.38995" lon="4.984">
        <ele>370.6</ele>
        <time>2023-06-11T08:51:11.000Z</time>
      </trkpt>
      <trkpt lat="45.39001" lon="4.9841">
        <ele>370.3</ele>
        <time>2023-06-11T08:51:12.000Z</time>
      </trkpt>
      <trkpt lat="45.39011" lon="4.98432">
        <ele>370.1</ele>
        <time>2023-06-11T08:51:14.000Z</time>
      </trkpt>
      <trkpt lat="45.39013" lon="4.98442">
        <ele>370.3</ele>
        <time>2023-06-11T08:51:15.000Z</time>
      </trkpt>
      <trkpt lat="45.39014" lon="4.98452">
        <ele>370.7</ele>
        <time>2023-06-11T08:51:16.000Z</time>
      </trkpt>
      <trkpt lat="45.39014" lon="4.98461">
        <ele>371.2</ele>
        <time>2023-06-11T08:51:17.000Z</time>
      </trkpt>
      <trkpt lat="45.39014" lon="4.98476">
        <ele>372.1</ele>
        <time>2023-06-11T08:51:19.000Z</time>
      </trkpt>
      <trkpt lat="45.39014" lon="4.98489">
        <ele>373</ele>
        <time>2023-06-11T08:51:21.000Z</time>
      </trkpt>
      <trkpt lat="45.39013" lon="4.98505">
        <ele>374.2</ele>
        <time>2023-06-11T08:51:25.000Z</time>
      </trkpt>
      <trkpt lat="45.39013" lon="4.98508">
        <ele>374.5</ele>
        <time>2023-06-11T08:51:26.000Z</time>
      </trkpt>
      <trkpt lat="45.39012" lon="4.98521">
        <ele>375.6</ele>
        <time>2023-06-11T08:51:30.000Z</time>
      </trkpt>
      <trkpt lat="45.39012" lon="4.98527">
        <ele>376.1</ele>
        <time>2023-06-11T08:51:32.000Z</time>
      </trkpt>
      <trkpt lat="45.39012" lon="4.9853">
        <ele>376.4</ele>
        <time>2023-06-11T08:51:33.000Z</time>
      </trkpt>
      <trkpt lat="45.39012" lon="4.98535">
        <ele>376.9</ele>
        <time>2023-06-11T08:51:35.000Z</time>
      </trkpt>
      <trkpt lat="45.39013" lon="4.98543">
        <ele>377.6</ele>
        <time>2023-06-11T08:51:38.000Z</time>
      </trkpt>
      <trkpt lat="45.39013" lon="4.98545">
        <ele>377.9</ele>
        <time>2023-06-11T08:51:39.000Z</time>
      </trkpt>
      <trkpt lat="45.39014" lon="4.98557">
        <ele>379</ele>
        <time>2023-06-11T08:51:43.000Z</time>
      </trkpt>
      <trkpt lat="45.39015" lon="4.98559">
        <ele>379.2</ele>
        <time>2023-06-11T08:51:44.000Z</time>
      </trkpt>
      <trkpt lat="45.39016" lon="4.98564">
        <ele>379.8</ele>
        <time>2023-06-11T08:51:46.000Z</time>
      </trkpt>
      <trkpt lat="45.39018" lon="4.98574">
        <ele>380.8</ele>
        <time>2023-06-11T08:51:50.000Z</time>
      </trkpt>
      <trkpt lat="45.3902" lon="4.98584">
        <ele>381.7</ele>
        <time>2023-06-11T08:51:54.000Z</time>
      </trkpt>
      <trkpt lat="45.39021" lon="4.98586">
        <ele>381.9</ele>
        <time>2023-06-11T08:51:55.000Z</time>
      </trkpt>
      <trkpt lat="45.39024" lon="4.98597">
        <ele>382.9</ele>
        <time>2023-06-11T08:52:00.000Z</time>
      </trkpt>
      <trkpt lat="45.39024" lon="4.98602">
        <ele>383.3</ele>
        <time>2023-06-11T08:52:02.000Z</time>
      </trkpt>
      <trkpt lat="45.39025" lon="4.98615">
        <ele>384.7</ele>
        <time>2023-06-11T08:52:08.000Z</time>
      </trkpt>
      <trkpt lat="45.39025" lon="4.98619">
        <ele>385.1</ele>
        <time>2023-06-11T08:52:10.000Z</time>
      </trkpt>
      <trkpt lat="45.39025" lon="4.98621">
        <ele>385.3</ele>
        <time>2023-06-11T08:52:11.000Z</time>
      </trkpt>
      <trkpt lat="45.39025" lon="4.98623">
        <ele>385.6</ele>
        <time>2023-06-11T08:52:12.000Z</time>
      </trkpt>
      <trkpt lat="45.39023" lon="4.98633">
        <ele>386.7</ele>
        <time>2023-06-11T08:52:17.000Z</time>
      </trkpt>
      <trkpt lat="45.39022" lon="4.98637">
        <ele>387.1</ele>
        <time>2023-06-11T08:52:19.000Z</time>
      </trkpt>
      <trkpt lat="45.39018" lon="4.98646">
        <ele>388.2</ele>
        <time>2023-06-11T08:52:24.000Z</time>
      </trkpt>
      <trkpt lat="45.39017" lon="4.9865">
        <ele>388.6</ele>
        <time>2023-06-11T08:52:26.000Z</time>
      </trkpt>
      <trkpt lat="45.39014" lon="4.98655">
        <ele>389.2</ele>
        <time>2023-06-11T08:52:29.000Z</time>
      </trkpt>
      <trkpt lat="45.3901" lon="4.98661">
        <ele>390</ele>
        <time>2023-06-11T08:52:33.000Z</time>
      </trkpt>
      <trkpt lat="45.3901" lon="4.98663">
        <ele>390.2</ele>
        <time>2023-06-11T08:52:34.000Z</time>
      </trkpt>
      <trkpt lat="45.39008" lon="4.98666">
        <ele>390.5</ele>
        <time>2023-06-11T08:52:36.000Z</time>
      </trkpt>
      <trkpt lat="45.39007" lon="4.98668">
        <ele>390.9</ele>
        <time>2023-06-11T08:52:38.000Z</time>
      </trkpt>
      <trkpt lat="45.39004" lon="4.9867">
        <ele>391.2</ele>
        <time>2023-06-11T08:52:40.000Z</time>
      </trkpt>
      <trkpt lat="45.38998" lon="4.98676">
        <ele>391.9</ele>
        <time>2023-06-11T08:52:44.000Z</time>
      </trkpt>
      <trkpt lat="45.38987" lon="4.98684">
        <ele>393.1</ele>
        <time>2023-06-11T08:52:51.000Z</time>
      </trkpt>
      <trkpt lat="45.38973" lon="4.98693">
        <ele>394.5</ele>
        <time>2023-06-11T08:52:59.000Z</time>
      </trkpt>
      <trkpt lat="45.38967" lon="4.98696">
        <ele>395</ele>
        <time>2023-06-11T08:53:02.000Z</time>
      </trkpt>
      <trkpt lat="45.38957" lon="4.98702">
        <ele>396</ele>
        <time>2023-06-11T08:53:08.000Z</time>
      </trkpt>
      <trkpt lat="45.38948" lon="4.98708">
        <ele>396.8</ele>
        <time>2023-06-11T08:53:13.000Z</time>
      </trkpt>
      <trkpt lat="45.3894" lon="4.98712">
        <ele>397.6</ele>
        <time>2023-06-11T08:53:17.000Z</time>
      </trkpt>
      <trkpt lat="45.38935" lon="4.98716">
        <ele>398.2</ele>
        <time>2023-06-11T08:53:20.000Z</time>
      </trkpt>
      <trkpt lat="45.38931" lon="4.98718">
        <ele>398.7</ele>
        <time>2023-06-11T08:53:22.000Z</time>
      </trkpt>
      <trkpt lat="45.38928" lon="4.98721">
        <ele>399</ele>
        <time>2023-06-11T08:53:24.000Z</time>
      </trkpt>
      <trkpt lat="45.38928" lon="4.98723">
        <ele>399.2</ele>
        <time>2023-06-11T08:53:25.000Z</time>
      </trkpt>
      <trkpt lat="45.38927" lon="4.98726">
        <ele>400</ele>
        <time>2023-06-11T08:53:27.000Z</time>
      </trkpt>
      <trkpt lat="45.38928" lon="4.98731">
        <ele>400.1</ele>
        <time>2023-06-11T08:53:31.000Z</time>
      </trkpt>
      <trkpt lat="45.3893" lon="4.98733">
        <ele>400.2</ele>
        <time>2023-06-11T08:53:32.000Z</time>
      </trkpt>
      <trkpt lat="45.38931" lon="4.98734">
        <ele>400.3</ele>
        <time>2023-06-11T08:53:33.000Z</time>
      </trkpt>
      <trkpt lat="45.3894" lon="4.98737">
        <ele>400.8</ele>
        <time>2023-06-11T08:53:38.000Z</time>
      </trkpt>
      <trkpt lat="45.38942" lon="4.98738">
        <ele>400.9</ele>
        <time>2023-06-11T08:53:39.000Z</time>
      </trkpt>
      <trkpt lat="45.38959" lon="4.98747">
        <ele>402.1</ele>
        <time>2023-06-11T08:53:48.000Z</time>
      </trkpt>
      <trkpt lat="45.38974" lon="4.98746">
        <ele>402.7</ele>
        <time>2023-06-11T08:53:54.000Z</time>
      </trkpt>
      <trkpt lat="45.38978" lon="4.98744">
        <ele>402.8</ele>
        <time>2023-06-11T08:53:56.000Z</time>
      </trkpt>
      <trkpt lat="45.38994" lon="4.98743">
        <ele>403.4</ele>
        <time>2023-06-11T08:54:02.000Z</time>
      </trkpt>
      <trkpt lat="45.39012" lon="4.9874">
        <ele>404.1</ele>
        <time>2023-06-11T08:54:09.000Z</time>
      </trkpt>
      <trkpt lat="45.3902" lon="4.98738">
        <ele>404.4</ele>
        <time>2023-06-11T08:54:12.000Z</time>
      </trkpt>
      <trkpt lat="45.39031" lon="4.98736">
        <ele>404.9</ele>
        <time>2023-06-11T08:54:16.000Z</time>
      </trkpt>
      <trkpt lat="45.39036" lon="4.98735">
        <ele>405.1</ele>
        <time>2023-06-11T08:54:18.000Z</time>
      </trkpt>
      <trkpt lat="45.39054" lon="4.98733">
        <ele>406</ele>
        <time>2023-06-11T08:54:25.000Z</time>
      </trkpt>
      <trkpt lat="45.39057" lon="4.98733">
        <ele>406.1</ele>
        <time>2023-06-11T08:54:26.000Z</time>
      </trkpt>
      <trkpt lat="45.39071" lon="4.98732">
        <ele>406.8</ele>
        <time>2023-06-11T08:54:31.000Z</time>
      </trkpt>
      <trkpt lat="45.39082" lon="4.98731">
        <ele>407.2</ele>
        <time>2023-06-11T08:54:35.000Z</time>
      </trkpt>
      <trkpt lat="45.39099" lon="4.98727">
        <ele>407.9</ele>
        <time>2023-06-11T08:54:41.000Z</time>
      </trkpt>
      <trkpt lat="45.39114" lon="4.98718">
        <ele>408.5</ele>
        <time>2023-06-11T08:54:46.000Z</time>
      </trkpt>
      <trkpt lat="45.39121" lon="4.98711">
        <ele>407.9</ele>
        <time>2023-06-11T08:54:48.000Z</time>
      </trkpt>
      <trkpt lat="45.3913" lon="4.98704">
        <ele>407.2</ele>
        <time>2023-06-11T08:54:50.000Z</time>
      </trkpt>
      <trkpt lat="45.39144" lon="4.98692">
        <ele>406</ele>
        <time>2023-06-11T08:54:53.000Z</time>
      </trkpt>
      <trkpt lat="45.39178" lon="4.98664">
        <ele>402.9</ele>
        <time>2023-06-11T08:54:59.000Z</time>
      </trkpt>
      <trkpt lat="45.39213" lon="4.9864">
        <ele>400.2</ele>
        <time>2023-06-11T08:55:04.000Z</time>
      </trkpt>
      <trkpt lat="45.3922" lon="4.98634">
        <ele>399.8</ele>
        <time>2023-06-11T08:55:05.000Z</time>
      </trkpt>
      <trkpt lat="45.39227" lon="4.98628">
        <ele>399.4</ele>
        <time>2023-06-11T08:55:06.000Z</time>
      </trkpt>
      <trkpt lat="45.39233" lon="4.98621">
        <ele>399</ele>
        <time>2023-06-11T08:55:07.000Z</time>
      </trkpt>
      <trkpt lat="45.39244" lon="4.98607">
        <ele>398.1</ele>
        <time>2023-06-11T08:55:09.000Z</time>
      </trkpt>
      <trkpt lat="45.39255" lon="4.98597">
        <ele>397.2</ele>
        <time>2023-06-11T08:55:11.000Z</time>
      </trkpt>
      <trkpt lat="45.3926" lon="4.98593">
        <ele>396.8</ele>
        <time>2023-06-11T08:55:12.000Z</time>
      </trkpt>
      <trkpt lat="45.39265" lon="4.98589">
        <ele>396.5</ele>
        <time>2023-06-11T08:55:13.000Z</time>
      </trkpt>
      <trkpt lat="45.3927" lon="4.98585">
        <ele>396.1</ele>
        <time>2023-06-11T08:55:14.000Z</time>
      </trkpt>
      <trkpt lat="45.3928" lon="4.98575">
        <ele>395.5</ele>
        <time>2023-06-11T08:55:16.000Z</time>
      </trkpt>
      <trkpt lat="45.39289" lon="4.98566">
        <ele>395</ele>
        <time>2023-06-11T08:55:18.000Z</time>
      </trkpt>
      <trkpt lat="45.39305" lon="4.98549">
        <ele>394.1</ele>
        <time>2023-06-11T08:55:21.000Z</time>
      </trkpt>
      <trkpt lat="45.3931" lon="4.98544">
        <ele>393.8</ele>
        <time>2023-06-11T08:55:22.000Z</time>
      </trkpt>
      <trkpt lat="45.39337" lon="4.98518">
        <ele>392.9</ele>
        <time>2023-06-11T08:55:27.000Z</time>
      </trkpt>
      <trkpt lat="45.39343" lon="4.98514">
        <ele>392.9</ele>
        <time>2023-06-11T08:55:28.000Z</time>
      </trkpt>
      <trkpt lat="45.39354" lon="4.98512">
        <ele>392.9</ele>
        <time>2023-06-11T08:55:30.000Z</time>
      </trkpt>
      <trkpt lat="45.39365" lon="4.98511">
        <ele>393.2</ele>
        <time>2023-06-11T08:55:32.000Z</time>
      </trkpt>
      <trkpt lat="45.39375" lon="4.9851">
        <ele>393.7</ele>
        <time>2023-06-11T08:55:34.000Z</time>
      </trkpt>
      <trkpt lat="45.39388" lon="4.98506">
        <ele>394.4</ele>
        <time>2023-06-11T08:55:37.000Z</time>
      </trkpt>
      <trkpt lat="45.39402" lon="4.98493">
        <ele>395.5</ele>
        <time>2023-06-11T08:55:42.000Z</time>
      </trkpt>
      <trkpt lat="45.3941" lon="4.98479">
        <ele>396.7</ele>
        <time>2023-06-11T08:55:48.000Z</time>
      </trkpt>
      <trkpt lat="45.3942" lon="4.98462">
        <ele>398.4</ele>
        <time>2023-06-11T08:55:57.000Z</time>
      </trkpt>
      <trkpt lat="45.39421" lon="4.98461">
        <ele>398.6</ele>
        <time>2023-06-11T08:55:58.000Z</time>
      </trkpt>
      <trkpt lat="45.39427" lon="4.98451">
        <ele>399.8</ele>
        <time>2023-06-11T08:56:04.000Z</time>
      </trkpt>
      <trkpt lat="45.39428" lon="4.98449">
        <ele>400.1</ele>
        <time>2023-06-11T08:56:05.000Z</time>
      </trkpt>
      <trkpt lat="45.39433" lon="4.98441">
        <ele>401.1</ele>
        <time>2023-06-11T08:56:10.000Z</time>
      </trkpt>
      <trkpt lat="45.39434" lon="4.9844">
        <ele>401.3</ele>
        <time>2023-06-11T08:56:11.000Z</time>
      </trkpt>
      <trkpt lat="45.39435" lon="4.98436">
        <ele>401.9</ele>
        <time>2023-06-11T08:56:14.000Z</time>
      </trkpt>
      <trkpt lat="45.39437" lon="4.98433">
        <ele>402.3</ele>
        <time>2023-06-11T08:56:16.000Z</time>
      </trkpt>
      <trkpt lat="45.3944" lon="4.98429">
        <ele>403</ele>
        <time>2023-06-11T08:56:19.000Z</time>
      </trkpt>
      <trkpt lat="45.39442" lon="4.98425">
        <ele>403.7</ele>
        <time>2023-06-11T08:56:22.000Z</time>
      </trkpt>
      <trkpt lat="45.39443" lon="4.98423">
        <ele>403.9</ele>
        <time>2023-06-11T08:56:23.000Z</time>
      </trkpt>
      <trkpt lat="45.39447" lon="4.98416">
        <ele>405.1</ele>
        <time>2023-06-11T08:56:29.000Z</time>
      </trkpt>
      <trkpt lat="45.39448" lon="4.98415">
        <ele>405.3</ele>
        <time>2023-06-11T08:56:30.000Z</time>
      </trkpt>
      <trkpt lat="45.3945" lon="4.98413">
        <ele>405.7</ele>
        <time>2023-06-11T08:56:32.000Z</time>
      </trkpt>
      <trkpt lat="45.39451" lon="4.98412">
        <ele>405.9</ele>
        <time>2023-06-11T08:56:33.000Z</time>
      </trkpt>
      <trkpt lat="45.39453" lon="4.98408">
        <ele>406.5</ele>
        <time>2023-06-11T08:56:36.000Z</time>
      </trkpt>
      <trkpt lat="45.39456" lon="4.98404">
        <ele>407.2</ele>
        <time>2023-06-11T08:56:39.000Z</time>
      </trkpt>
      <trkpt lat="45.39459" lon="4.98399">
        <ele>407.8</ele>
        <time>2023-06-11T08:56:42.000Z</time>
      </trkpt>
      <trkpt lat="45.39464" lon="4.98392">
        <ele>408.9</ele>
        <time>2023-06-11T08:56:47.000Z</time>
      </trkpt>
      <trkpt lat="45.39465" lon="4.98391">
        <ele>409.1</ele>
        <time>2023-06-11T08:56:48.000Z</time>
      </trkpt>
      <trkpt lat="45.3947" lon="4.98385">
        <ele>410.1</ele>
        <time>2023-06-11T08:56:53.000Z</time>
      </trkpt>
      <trkpt lat="45.39471" lon="4.98383">
        <ele>410.4</ele>
        <time>2023-06-11T08:56:55.000Z</time>
      </trkpt>
      <trkpt lat="45.39474" lon="4.98377">
        <ele>411.3</ele>
        <time>2023-06-11T08:56:59.000Z</time>
      </trkpt>
      <trkpt lat="45.39479" lon="4.98371">
        <ele>412.4</ele>
        <time>2023-06-11T08:57:04.000Z</time>
      </trkpt>
      <trkpt lat="45.39484" lon="4.98363">
        <ele>413.5</ele>
        <time>2023-06-11T08:57:09.000Z</time>
      </trkpt>
      <trkpt lat="45.39487" lon="4.98359">
        <ele>414.1</ele>
        <time>2023-06-11T08:57:12.000Z</time>
      </trkpt>
      <trkpt lat="45.39488" lon="4.98358">
        <ele>414.2</ele>
        <time>2023-06-11T08:57:13.000Z</time>
      </trkpt>
      <trkpt lat="45.3949" lon="4.98357">
        <ele>414.5</ele>
        <time>2023-06-11T08:57:14.000Z</time>
      </trkpt>
      <trkpt lat="45.39493" lon="4.98352">
        <ele>415.1</ele>
        <time>2023-06-11T08:57:18.000Z</time>
      </trkpt>
      <trkpt lat="45.39496" lon="4.9835">
        <ele>415.4</ele>
        <time>2023-06-11T08:57:20.000Z</time>
      </trkpt>
      <trkpt lat="45.39499" lon="4.98346">
        <ele>416</ele>
        <time>2023-06-11T08:57:24.000Z</time>
      </trkpt>
      <trkpt lat="45.395" lon="4.98345">
        <ele>416.1</ele>
        <time>2023-06-11T08:57:25.000Z</time>
      </trkpt>
      <trkpt lat="45.39502" lon="4.98341">
        <ele>416.5</ele>
        <time>2023-06-11T08:57:27.000Z</time>
      </trkpt>
      <trkpt lat="45.39504" lon="4.98335">
        <ele>417.1</ele>
        <time>2023-06-11T08:57:31.000Z</time>
      </trkpt>
      <trkpt lat="45.39506" lon="4.98334">
        <ele>417.3</ele>
        <time>2023-06-11T08:57:32.000Z</time>
      </trkpt>
      <trkpt lat="45.39507" lon="4.98333">
        <ele>417.4</ele>
        <time>2023-06-11T08:57:33.000Z</time>
      </trkpt>
      <trkpt lat="45.39507" lon="4.98332">
        <ele>417.6</ele>
        <time>2023-06-11T08:57:34.000Z</time>
      </trkpt>
      <trkpt lat="45.3951" lon="4.98328">
        <ele>418</ele>
        <time>2023-06-11T08:57:37.000Z</time>
      </trkpt>
      <trkpt lat="45.39512" lon="4.98326">
        <ele>418.3</ele>
        <time>2023-06-11T08:57:39.000Z</time>
      </trkpt>
      <trkpt lat="45.39513" lon="4.98324">
        <ele>418.5</ele>
        <time>2023-06-11T08:57:40.000Z</time>
      </trkpt>
      <trkpt lat="45.39515" lon="4.98321">
        <ele>418.8</ele>
        <time>2023-06-11T08:57:42.000Z</time>
      </trkpt>
      <trkpt lat="45.3952" lon="4.98314">
        <ele>419.6</ele>
        <time>2023-06-11T08:57:46.000Z</time>
      </trkpt>
      <trkpt lat="45.39522" lon="4.98307">
        <ele>420.1</ele>
        <time>2023-06-11T08:57:50.000Z</time>
      </trkpt>
      <trkpt lat="45.39527" lon="4.98299">
        <ele>421</ele>
        <time>2023-06-11T08:57:55.000Z</time>
      </trkpt>
      <trkpt lat="45.3953" lon="4.98296">
        <ele>421.5</ele>
        <time>2023-06-11T08:57:58.000Z</time>
      </trkpt>
      <trkpt lat="45.3953" lon="4.98295">
        <ele>421.6</ele>
        <time>2023-06-11T08:57:59.000Z</time>
      </trkpt>
      <trkpt lat="45.39537" lon="4.9829">
        <ele>422.6</ele>
        <time>2023-06-11T08:58:05.000Z</time>
      </trkpt>
      <trkpt lat="45.39543" lon="4.98285">
        <ele>423.5</ele>
        <time>2023-06-11T08:58:11.000Z</time>
      </trkpt>
      <trkpt lat="45.39544" lon="4.98284">
        <ele>423.7</ele>
        <time>2023-06-11T08:58:12.000Z</time>
      </trkpt>
      <trkpt lat="45.39549" lon="4.98275">
        <ele>424.7</ele>
        <time>2023-06-11T08:58:17.000Z</time>
      </trkpt>
      <trkpt lat="45.3955" lon="4.98274">
        <ele>424.9</ele>
        <time>2023-06-11T08:58:18.000Z</time>
      </trkpt>
      <trkpt lat="45.39551" lon="4.98273">
        <ele>425.1</ele>
        <time>2023-06-11T08:58:19.000Z</time>
      </trkpt>
      <trkpt lat="45.39553" lon="4.98269">
        <ele>425.5</ele>
        <time>2023-06-11T08:58:22.000Z</time>
      </trkpt>
      <trkpt lat="45.39553" lon="4.98267">
        <ele>425.7</ele>
        <time>2023-06-11T08:58:24.000Z</time>
      </trkpt>
      <trkpt lat="45.39554" lon="4.98266">
        <ele>425.8</ele>
        <time>2023-06-11T08:58:25.000Z</time>
      </trkpt>
      <trkpt lat="45.39555" lon="4.98262">
        <ele>426.2</ele>
        <time>2023-06-11T08:58:27.000Z</time>
      </trkpt>
      <trkpt lat="45.39556" lon="4.98261">
        <ele>426.4</ele>
        <time>2023-06-11T08:58:28.000Z</time>
      </trkpt>
      <trkpt lat="45.39556" lon="4.98258">
        <ele>426.6</ele>
        <time>2023-06-11T08:58:30.000Z</time>
      </trkpt>
      <trkpt lat="45.39559" lon="4.98253">
        <ele>427.2</ele>
        <time>2023-06-11T08:58:34.000Z</time>
      </trkpt>
      <trkpt lat="45.39561" lon="4.98248">
        <ele>427.8</ele>
        <time>2023-06-11T08:58:38.000Z</time>
      </trkpt>
      <trkpt lat="45.39562" lon="4.98247">
        <ele>427.9</ele>
        <time>2023-06-11T08:58:39.000Z</time>
      </trkpt>
      <trkpt lat="45.39566" lon="4.98236">
        <ele>429</ele>
        <time>2023-06-11T08:58:45.000Z</time>
      </trkpt>
      <trkpt lat="45.39566" lon="4.98234">
        <ele>429.2</ele>
        <time>2023-06-11T08:58:46.000Z</time>
      </trkpt>
      <trkpt lat="45.39567" lon="4.98229">
        <ele>429.6</ele>
        <time>2023-06-11T08:58:48.000Z</time>
      </trkpt>
      <trkpt lat="45.39572" lon="4.98219">
        <ele>430.5</ele>
        <time>2023-06-11T08:58:52.000Z</time>
      </trkpt>
      <trkpt lat="45.39571" lon="4.98217">
        <ele>430.6</ele>
        <time>2023-06-11T08:58:53.000Z</time>
      </trkpt>
      <trkpt lat="45.39573" lon="4.98211">
        <ele>430.9</ele>
        <time>2023-06-11T08:58:55.000Z</time>
      </trkpt>
      <trkpt lat="45.39576" lon="4.98201">
        <ele>431.3</ele>
        <time>2023-06-11T08:58:59.000Z</time>
      </trkpt>
      <trkpt lat="45.39576" lon="4.98199">
        <ele>431.4</ele>
        <time>2023-06-11T08:59:00.000Z</time>
      </trkpt>
      <trkpt lat="45.39578" lon="4.98194">
        <ele>431.6</ele>
        <time>2023-06-11T08:59:02.000Z</time>
      </trkpt>
      <trkpt lat="45.39581" lon="4.98186">
        <ele>432</ele>
        <time>2023-06-11T08:59:04.000Z</time>
      </trkpt>
      <trkpt lat="45.39588" lon="4.98168">
        <ele>432.6</ele>
        <time>2023-06-11T08:59:11.000Z</time>
      </trkpt>
      <trkpt lat="45.39591" lon="4.98158">
        <ele>432.9</ele>
        <time>2023-06-11T08:59:14.000Z</time>
      </trkpt>
      <trkpt lat="45.39593" lon="4.98145">
        <ele>433.3</ele>
        <time>2023-06-11T08:59:18.000Z</time>
      </trkpt>
      <trkpt lat="45.396" lon="4.98128">
        <ele>433.9</ele>
        <time>2023-06-11T08:59:24.000Z</time>
      </trkpt>
      <trkpt lat="45.39601" lon="4.98125">
        <ele>434</ele>
        <time>2023-06-11T08:59:25.000Z</time>
      </trkpt>
      <trkpt lat="45.39612" lon="4.98097">
        <ele>434.8</ele>
        <time>2023-06-11T08:59:33.000Z</time>
      </trkpt>
      <trkpt lat="45.39611" lon="4.9809">
        <ele>435</ele>
        <time>2023-06-11T08:59:35.000Z</time>
      </trkpt>
      <trkpt lat="45.39607" lon="4.98084">
        <ele>435</ele>
        <time>2023-06-11T08:59:37.000Z</time>
      </trkpt>
      <trkpt lat="45.39602" lon="4.98077">
        <ele>434.9</ele>
        <time>2023-06-11T08:59:39.000Z</time>
      </trkpt>
      <trkpt lat="45.39593" lon="4.9806">
        <ele>434.6</ele>
        <time>2023-06-11T08:59:43.000Z</time>
      </trkpt>
      <trkpt lat="45.39587" lon="4.98042">
        <ele>434.5</ele>
        <time>2023-06-11T08:59:46.000Z</time>
      </trkpt>
      <trkpt lat="45.39581" lon="4.98032">
        <ele>434.4</ele>
        <time>2023-06-11T08:59:48.000Z</time>
      </trkpt>
      <trkpt lat="45.39579" lon="4.98026">
        <ele>434.4</ele>
        <time>2023-06-11T08:59:49.000Z</time>
      </trkpt>
      <trkpt lat="45.39578" lon="4.98016">
        <ele>434.4</ele>
        <time>2023-06-11T08:59:51.000Z</time>
      </trkpt>
      <trkpt lat="45.39586" lon="4.98008">
        <ele>434.4</ele>
        <time>2023-06-11T08:59:54.000Z</time>
      </trkpt>
      <trkpt lat="45.39602" lon="4.97996">
        <ele>434.5</ele>
        <time>2023-06-11T09:00:00.000Z</time>
      </trkpt>
      <trkpt lat="45.39605" lon="4.97994">
        <ele>434.6</ele>
        <time>2023-06-11T09:00:01.000Z</time>
      </trkpt>
      <trkpt lat="45.39628" lon="4.97985">
        <ele>435</ele>
        <time>2023-06-11T09:00:08.000Z</time>
      </trkpt>
      <trkpt lat="45.39646" lon="4.9798">
        <ele>435.5</ele>
        <time>2023-06-11T09:00:14.000Z</time>
      </trkpt>
      <trkpt lat="45.39667" lon="4.97972">
        <ele>436.1</ele>
        <time>2023-06-11T09:00:21.000Z</time>
      </trkpt>
      <trkpt lat="45.39671" lon="4.97971">
        <ele>436.1</ele>
        <time>2023-06-11T09:00:22.000Z</time>
      </trkpt>
      <trkpt lat="45.39696" lon="4.97966">
        <ele>436.2</ele>
        <time>2023-06-11T09:00:29.000Z</time>
      </trkpt>
      <trkpt lat="45.397" lon="4.97965">
        <ele>436.2</ele>
        <time>2023-06-11T09:00:30.000Z</time>
      </trkpt>
      <trkpt lat="45.39722" lon="4.97949">
        <ele>435.4</ele>
        <time>2023-06-11T09:00:36.000Z</time>
      </trkpt>
      <trkpt lat="45.39733" lon="4.97938">
        <ele>435</ele>
        <time>2023-06-11T09:00:39.000Z</time>
      </trkpt>
      <trkpt lat="45.39741" lon="4.9793">
        <ele>434.8</ele>
        <time>2023-06-11T09:00:41.000Z</time>
      </trkpt>
      <trkpt lat="45.39745" lon="4.97926">
        <ele>434.7</ele>
        <time>2023-06-11T09:00:42.000Z</time>
      </trkpt>
      <trkpt lat="45.39749" lon="4.97922">
        <ele>434.6</ele>
        <time>2023-06-11T09:00:43.000Z</time>
      </trkpt>
      <trkpt lat="45.39757" lon="4.97913">
        <ele>434.5</ele>
        <time>2023-06-11T09:00:45.000Z</time>
      </trkpt>
      <trkpt lat="45.3976" lon="4.97909">
        <ele>434.4</ele>
        <time>2023-06-11T09:00:46.000Z</time>
      </trkpt>
      <trkpt lat="45.39764" lon="4.97902">
        <ele>434.3</ele>
        <time>2023-06-11T09:00:47.000Z</time>
      </trkpt>
      <trkpt lat="45.39779" lon="4.97883">
        <ele>433.9</ele>
        <time>2023-06-11T09:00:51.000Z</time>
      </trkpt>
      <trkpt lat="45.3982" lon="4.9785">
        <ele>432.6</ele>
        <time>2023-06-11T09:00:59.000Z</time>
      </trkpt>
      <trkpt lat="45.39825" lon="4.97845">
        <ele>432.6</ele>
        <time>2023-06-11T09:01:00.000Z</time>
      </trkpt>
      <trkpt lat="45.3983" lon="4.9784">
        <ele>432.5</ele>
        <time>2023-06-11T09:01:01.000Z</time>
      </trkpt>
      <trkpt lat="45.39846" lon="4.9783">
        <ele>432.3</ele>
        <time>2023-06-11T09:01:04.000Z</time>
      </trkpt>
      <trkpt lat="45.39851" lon="4.97826">
        <ele>432.3</ele>
        <time>2023-06-11T09:01:05.000Z</time>
      </trkpt>
      <trkpt lat="45.39862" lon="4.97825">
        <ele>432.2</ele>
        <time>2023-06-11T09:01:07.000Z</time>
      </trkpt>
      <trkpt lat="45.39867" lon="4.97826">
        <ele>432.1</ele>
        <time>2023-06-11T09:01:08.000Z</time>
      </trkpt>
      <trkpt lat="45.39878" lon="4.97827">
        <ele>432</ele>
        <time>2023-06-11T09:01:10.000Z</time>
      </trkpt>
      <trkpt lat="45.39898" lon="4.97827">
        <ele>432</ele>
        <time>2023-06-11T09:01:14.000Z</time>
      </trkpt>
      <trkpt lat="45.39904" lon="4.97825">
        <ele>432.1</ele>
        <time>2023-06-11T09:01:15.000Z</time>
      </trkpt>
      <trkpt lat="45.39909" lon="4.97826">
        <ele>432.1</ele>
        <time>2023-06-11T09:01:16.000Z</time>
      </trkpt>
      <trkpt lat="45.3992" lon="4.9783">
        <ele>432.1</ele>
        <time>2023-06-11T09:01:18.000Z</time>
      </trkpt>
      <trkpt lat="45.39925" lon="4.97834">
        <ele>432.2</ele>
        <time>2023-06-11T09:01:19.000Z</time>
      </trkpt>
      <trkpt lat="45.39934" lon="4.97838">
        <ele>432.1</ele>
        <time>2023-06-11T09:01:21.000Z</time>
      </trkpt>
      <trkpt lat="45.39941" lon="4.97838">
        <ele>432.4</ele>
        <time>2023-06-11T09:01:23.000Z</time>
      </trkpt>
      <trkpt lat="45.39964" lon="4.97828">
        <ele>432.5</ele>
        <time>2023-06-11T09:01:29.000Z</time>
      </trkpt>
      <trkpt lat="45.39967" lon="4.97828">
        <ele>432.6</ele>
        <time>2023-06-11T09:01:30.000Z</time>
      </trkpt>
      <trkpt lat="45.39978" lon="4.97832">
        <ele>432.5</ele>
        <time>2023-06-11T09:01:33.000Z</time>
      </trkpt>
      <trkpt lat="45.39992" lon="4.97839">
        <ele>433.7</ele>
        <time>2023-06-11T09:01:38.000Z</time>
      </trkpt>
      <trkpt lat="45.39997" lon="4.97841">
        <ele>434.2</ele>
        <time>2023-06-11T09:01:40.000Z</time>
      </trkpt>
      <trkpt lat="45.39999" lon="4.97841">
        <ele>434.5</ele>
        <time>2023-06-11T09:01:41.000Z</time>
      </trkpt>
      <trkpt lat="45.40011" lon="4.97844">
        <ele>435.4</ele>
        <time>2023-06-11T09:01:45.000Z</time>
      </trkpt>
      <trkpt lat="45.40017" lon="4.97845">
        <ele>436.1</ele>
        <time>2023-06-11T09:01:47.000Z</time>
      </trkpt>
      <trkpt lat="45.40033" lon="4.97853">
        <ele>437</ele>
        <time>2023-06-11T09:01:52.000Z</time>
      </trkpt>
      <trkpt lat="45.40038" lon="4.97856">
        <ele>437.3</ele>
        <time>2023-06-11T09:01:54.000Z</time>
      </trkpt>
      <trkpt lat="45.40053" lon="4.97867">
        <ele>437.6</ele>
        <time>2023-06-11T09:01:59.000Z</time>
      </trkpt>
      <trkpt lat="45.40076" lon="4.97886">
        <ele>438.5</ele>
        <time>2023-06-11T09:02:07.000Z</time>
      </trkpt>
      <trkpt lat="45.40087" lon="4.9789">
        <ele>439</ele>
        <time>2023-06-11T09:02:11.000Z</time>
      </trkpt>
      <trkpt lat="45.4009" lon="4.9789">
        <ele>439.3</ele>
        <time>2023-06-11T09:02:12.000Z</time>
      </trkpt>
      <trkpt lat="45.40095" lon="4.97885">
        <ele>439.6</ele>
        <time>2023-06-11T09:02:14.000Z</time>
      </trkpt>
      <trkpt lat="45.40099" lon="4.97881">
        <ele>439.8</ele>
        <time>2023-06-11T09:02:16.000Z</time>
      </trkpt>
      <trkpt lat="45.40113" lon="4.97886">
        <ele>439.9</ele>
        <time>2023-06-11T09:02:20.000Z</time>
      </trkpt>
      <trkpt lat="45.4013" lon="4.97907">
        <ele>440</ele>
        <time>2023-06-11T09:02:25.000Z</time>
      </trkpt>
      <trkpt lat="45.40133" lon="4.97912">
        <ele>440.1</ele>
        <time>2023-06-11T09:02:26.000Z</time>
      </trkpt>
      <trkpt lat="45.40138" lon="4.97918">
        <ele>440</ele>
        <time>2023-06-11T09:02:28.000Z</time>
      </trkpt>
      <trkpt lat="45.4014" lon="4.97919">
        <ele>439.9</ele>
        <time>2023-06-11T09:02:29.000Z</time>
      </trkpt>
      <trkpt lat="45.4015" lon="4.97925">
        <ele>439.4</ele>
        <time>2023-06-11T09:02:34.000Z</time>
      </trkpt>
      <trkpt lat="45.40153" lon="4.97926">
        <ele>439.5</ele>
        <time>2023-06-11T09:02:35.000Z</time>
      </trkpt>
      <trkpt lat="45.40159" lon="4.97928">
        <ele>439.4</ele>
        <time>2023-06-11T09:02:37.000Z</time>
      </trkpt>
      <trkpt lat="45.40171" lon="4.97926">
        <ele>439.3</ele>
        <time>2023-06-11T09:02:40.000Z</time>
      </trkpt>
      <trkpt lat="45.40188" lon="4.97926">
        <ele>439.2</ele>
        <time>2023-06-11T09:02:43.000Z</time>
      </trkpt>
      <trkpt lat="45.40194" lon="4.97928">
        <ele>439.1</ele>
        <time>2023-06-11T09:02:44.000Z</time>
      </trkpt>
      <trkpt lat="45.40205" lon="4.97934">
        <ele>438.9</ele>
        <time>2023-06-11T09:02:46.000Z</time>
      </trkpt>
      <trkpt lat="45.40209" lon="4.97936">
        <ele>438.8</ele>
        <time>2023-06-11T09:02:47.000Z</time>
      </trkpt>
      <trkpt lat="45.40217" lon="4.97939">
        <ele>438.7</ele>
        <time>2023-06-11T09:02:49.000Z</time>
      </trkpt>
      <trkpt lat="45.40248" lon="4.97957">
        <ele>438</ele>
        <time>2023-06-11T09:02:55.000Z</time>
      </trkpt>
      <trkpt lat="45.40265" lon="4.97967">
        <ele>437.7</ele>
        <time>2023-06-11T09:02:58.000Z</time>
      </trkpt>
      <trkpt lat="45.40272" lon="4.97971">
        <ele>437.4</ele>
        <time>2023-06-11T09:02:59.000Z</time>
      </trkpt>
      <trkpt lat="45.40289" lon="4.97984">
        <ele>437.3</ele>
        <time>2023-06-11T09:03:02.000Z</time>
      </trkpt>
      <trkpt lat="45.40293" lon="4.97987">
        <ele>437.2</ele>
        <time>2023-06-11T09:03:03.000Z</time>
      </trkpt>
      <trkpt lat="45.40303" lon="4.97993">
        <ele>436.7</ele>
        <time>2023-06-11T09:03:05.000Z</time>
      </trkpt>
      <trkpt lat="45.40315" lon="4.97998">
        <ele>436.6</ele>
        <time>2023-06-11T09:03:07.000Z</time>
      </trkpt>
      <trkpt lat="45.40317" lon="4.98002">
        <ele>436.5</ele>
        <time>2023-06-11T09:03:08.000Z</time>
      </trkpt>
      <trkpt lat="45.40319" lon="4.98007">
        <ele>436.5</ele>
        <time>2023-06-11T09:03:09.000Z</time>
      </trkpt>
      <trkpt lat="45.40322" lon="4.98014">
        <ele>436.2</ele>
        <time>2023-06-11T09:03:11.000Z</time>
      </trkpt>
      <trkpt lat="45.4033" lon="4.98021">
        <ele>436.1</ele>
        <time>2023-06-11T09:03:14.000Z</time>
      </trkpt>
      <trkpt lat="45.40336" lon="4.9802">
        <ele>436</ele>
        <time>2023-06-11T09:03:16.000Z</time>
      </trkpt>
      <trkpt lat="45.40338" lon="4.98015">
        <ele>436.1</ele>
        <time>2023-06-11T09:03:17.000Z</time>
      </trkpt>
      <trkpt lat="45.40344" lon="4.98003">
        <ele>435.8</ele>
        <time>2023-06-11T09:03:20.000Z</time>
      </trkpt>
      <trkpt lat="45.40347" lon="4.97996">
        <ele>435.7</ele>
        <time>2023-06-11T09:03:22.000Z</time>
      </trkpt>
      <trkpt lat="45.40349" lon="4.9799">
        <ele>435.6</ele>
        <time>2023-06-11T09:03:24.000Z</time>
      </trkpt>
      <trkpt lat="45.40355" lon="4.97984">
        <ele>435.5</ele>
        <time>2023-06-11T09:03:27.000Z</time>
      </trkpt>
      <trkpt lat="45.40365" lon="4.97978">
        <ele>435.4</ele>
        <time>2023-06-11T09:03:31.000Z</time>
      </trkpt>
      <trkpt lat="45.40367" lon="4.97975">
        <ele>435.3</ele>
        <time>2023-06-11T09:03:32.000Z</time>
      </trkpt>
      <trkpt lat="45.40369" lon="4.97957">
        <ele>435.4</ele>
        <time>2023-06-11T09:03:36.000Z</time>
      </trkpt>
      <trkpt lat="45.40369" lon="4.97952">
        <ele>435.5</ele>
        <time>2023-06-11T09:03:37.000Z</time>
      </trkpt>
      <trkpt lat="45.40371" lon="4.97933">
        <ele>435.6</ele>
        <time>2023-06-11T09:03:42.000Z</time>
      </trkpt>
      <trkpt lat="45.40371" lon="4.97932">
        <ele>435.6</ele>
        <time>2023-06-11T09:03:45.000Z</time>
      </trkpt>
      <trkpt lat="45.40374" lon="4.97917">
        <ele>435.7</ele>
        <time>2023-06-11T09:03:56.000Z</time>
      </trkpt>
      <trkpt lat="45.40378" lon="4.97895">
        <ele>435.8</ele>
        <time>2023-06-11T09:04:02.000Z</time>
      </trkpt>
      <trkpt lat="45.40384" lon="4.97853">
        <ele>435.4</ele>
        <time>2023-06-11T09:04:11.000Z</time>
      </trkpt>
      <trkpt lat="45.40386" lon="4.97822">
        <ele>435</ele>
        <time>2023-06-11T09:04:16.000Z</time>
      </trkpt>
      <trkpt lat="45.40388" lon="4.97815">
        <ele>435</ele>
        <time>2023-06-11T09:04:17.000Z</time>
      </trkpt>
      <trkpt lat="45.4039" lon="4.97801">
        <ele>434.9</ele>
        <time>2023-06-11T09:04:19.000Z</time>
      </trkpt>
      <trkpt lat="45.40391" lon="4.97795">
        <ele>434.9</ele>
        <time>2023-06-11T09:04:20.000Z</time>
      </trkpt>
      <trkpt lat="45.40392" lon="4.97788">
        <ele>434.9</ele>
        <time>2023-06-11T09:04:21.000Z</time>
      </trkpt>
      <trkpt lat="45.40397" lon="4.97762">
        <ele>435</ele>
        <time>2023-06-11T09:04:25.000Z</time>
      </trkpt>
      <trkpt lat="45.40401" lon="4.97741">
        <ele>435.2</ele>
        <time>2023-06-11T09:04:28.000Z</time>
      </trkpt>
      <trkpt lat="45.40404" lon="4.97728">
        <ele>435.3</ele>
        <time>2023-06-11T09:04:30.000Z</time>
      </trkpt>
      <trkpt lat="45.40407" lon="4.97716">
        <ele>435.4</ele>
        <time>2023-06-11T09:04:32.000Z</time>
      </trkpt>
      <trkpt lat="45.40408" lon="4.9771">
        <ele>435.4</ele>
        <time>2023-06-11T09:04:33.000Z</time>
      </trkpt>
      <trkpt lat="45.40412" lon="4.97687">
        <ele>435.2</ele>
        <time>2023-06-11T09:04:37.000Z</time>
      </trkpt>
      <trkpt lat="45.40425" lon="4.9763">
        <ele>433.4</ele>
        <time>2023-06-11T09:04:45.000Z</time>
      </trkpt>
      <trkpt lat="45.4043" lon="4.97608">
        <ele>432.8</ele>
        <time>2023-06-11T09:04:48.000Z</time>
      </trkpt>
      <trkpt lat="45.40433" lon="4.9758">
        <ele>432.2</ele>
        <time>2023-06-11T09:04:51.000Z</time>
      </trkpt>
      <trkpt lat="45.40434" lon="4.97563">
        <ele>432</ele>
        <time>2023-06-11T09:04:53.000Z</time>
      </trkpt>
      <trkpt lat="45.4044" lon="4.97532">
        <ele>431.6</ele>
        <time>2023-06-11T09:04:57.000Z</time>
      </trkpt>
      <trkpt lat="45.40444" lon="4.97524">
        <ele>431.5</ele>
        <time>2023-06-11T09:04:58.000Z</time>
      </trkpt>
      <trkpt lat="45.40448" lon="4.97518">
        <ele>431.4</ele>
        <time>2023-06-11T09:04:59.000Z</time>
      </trkpt>
      <trkpt lat="45.40458" lon="4.97508">
        <ele>431.3</ele>
        <time>2023-06-11T09:05:02.000Z</time>
      </trkpt>
      <trkpt lat="45.40473" lon="4.97507">
        <ele>431.5</ele>
        <time>2023-06-11T09:05:07.000Z</time>
      </trkpt>
      <trkpt lat="45.40491" lon="4.97494">
        <ele>431.9</ele>
        <time>2023-06-11T09:05:13.000Z</time>
      </trkpt>
      <trkpt lat="45.40498" lon="4.97481">
        <ele>432.2</ele>
        <time>2023-06-11T09:05:17.000Z</time>
      </trkpt>
      <trkpt lat="45.40514" lon="4.97462">
        <ele>432.5</ele>
        <time>2023-06-11T09:05:22.000Z</time>
      </trkpt>
      <trkpt lat="45.40526" lon="4.97439">
        <ele>432.9</ele>
        <time>2023-06-11T09:05:27.000Z</time>
      </trkpt>
      <trkpt lat="45.4053" lon="4.97416">
        <ele>433.3</ele>
        <time>2023-06-11T09:05:31.000Z</time>
      </trkpt>
      <trkpt lat="45.40535" lon="4.97389">
        <ele>433.8</ele>
        <time>2023-06-11T09:05:36.000Z</time>
      </trkpt>
      <trkpt lat="45.40545" lon="4.97366">
        <ele>434.4</ele>
        <time>2023-06-11T09:05:41.000Z</time>
      </trkpt>
      <trkpt lat="45.40551" lon="4.97343">
        <ele>434.6</ele>
        <time>2023-06-11T09:05:45.000Z</time>
      </trkpt>
      <trkpt lat="45.40557" lon="4.97312">
        <ele>434.3</ele>
        <time>2023-06-11T09:05:50.000Z</time>
      </trkpt>
      <trkpt lat="45.40565" lon="4.97263">
        <ele>433</ele>
        <time>2023-06-11T09:05:57.000Z</time>
      </trkpt>
      <trkpt lat="45.40572" lon="4.97246">
        <ele>432.4</ele>
        <time>2023-06-11T09:05:59.000Z</time>
      </trkpt>
      <trkpt lat="45.40578" lon="4.97235">
        <ele>431.9</ele>
        <time>2023-06-11T09:06:01.000Z</time>
      </trkpt>
      <trkpt lat="45.40587" lon="4.97225">
        <ele>431.4</ele>
        <time>2023-06-11T09:06:03.000Z</time>
      </trkpt>
      <trkpt lat="45.40594" lon="4.97216">
        <ele>430.9</ele>
        <time>2023-06-11T09:06:05.000Z</time>
      </trkpt>
      <trkpt lat="45.40601" lon="4.97204">
        <ele>430.5</ele>
        <time>2023-06-11T09:06:07.000Z</time>
      </trkpt>
      <trkpt lat="45.40607" lon="4.97193">
        <ele>430.1</ele>
        <time>2023-06-11T09:06:09.000Z</time>
      </trkpt>
      <trkpt lat="45.4061" lon="4.97188">
        <ele>430</ele>
        <time>2023-06-11T09:06:10.000Z</time>
      </trkpt>
      <trkpt lat="45.40613" lon="4.97187">
        <ele>429.9</ele>
        <time>2023-06-11T09:06:11.000Z</time>
      </trkpt>
      <trkpt lat="45.40616" lon="4.97187">
        <ele>429.6</ele>
        <time>2023-06-11T09:06:12.000Z</time>
      </trkpt>
      <trkpt lat="45.40622" lon="4.97187">
        <ele>429.3</ele>
        <time>2023-06-11T09:06:14.000Z</time>
      </trkpt>
      <trkpt lat="45.40633" lon="4.97188">
        <ele>428.9</ele>
        <time>2023-06-11T09:06:16.000Z</time>
      </trkpt>
      <trkpt lat="45.40643" lon="4.97189">
        <ele>428.7</ele>
        <time>2023-06-11T09:06:18.000Z</time>
      </trkpt>
      <trkpt lat="45.4065" lon="4.97191">
        <ele>428.6</ele>
        <time>2023-06-11T09:06:20.000Z</time>
      </trkpt>
      <trkpt lat="45.40655" lon="4.97192">
        <ele>428.5</ele>
        <time>2023-06-11T09:06:21.000Z</time>
      </trkpt>
      <trkpt lat="45.40665" lon="4.97195">
        <ele>428.4</ele>
        <time>2023-06-11T09:06:23.000Z</time>
      </trkpt>
      <trkpt lat="45.40671" lon="4.97197">
        <ele>428.4</ele>
        <time>2023-06-11T09:06:24.000Z</time>
      </trkpt>
      <trkpt lat="45.40675" lon="4.97198">
        <ele>428.4</ele>
        <time>2023-06-11T09:06:25.000Z</time>
      </trkpt>
      <trkpt lat="45.40684" lon="4.97196">
        <ele>428.3</ele>
        <time>2023-06-11T09:06:27.000Z</time>
      </trkpt>
      <trkpt lat="45.40695" lon="4.97191">
        <ele>428</ele>
        <time>2023-06-11T09:06:29.000Z</time>
      </trkpt>
      <trkpt lat="45.40707" lon="4.9718">
        <ele>427.5</ele>
        <time>2023-06-11T09:06:31.000Z</time>
      </trkpt>
      <trkpt lat="45.40713" lon="4.97176">
        <ele>427.3</ele>
        <time>2023-06-11T09:06:32.000Z</time>
      </trkpt>
      <trkpt lat="45.40727" lon="4.97166">
        <ele>426.7</ele>
        <time>2023-06-11T09:06:34.000Z</time>
      </trkpt>
      <trkpt lat="45.40731" lon="4.97162">
        <ele>426.5</ele>
        <time>2023-06-11T09:06:35.000Z</time>
      </trkpt>
      <trkpt lat="45.40737" lon="4.97159">
        <ele>426.3</ele>
        <time>2023-06-11T09:06:36.000Z</time>
      </trkpt>
      <trkpt lat="45.40749" lon="4.97153">
        <ele>425.8</ele>
        <time>2023-06-11T09:06:38.000Z</time>
      </trkpt>
      <trkpt lat="45.40765" lon="4.97147">
        <ele>425.2</ele>
        <time>2023-06-11T09:06:40.000Z</time>
      </trkpt>
      <trkpt lat="45.4079" lon="4.97142">
        <ele>424</ele>
        <time>2023-06-11T09:06:44.000Z</time>
      </trkpt>
      <trkpt lat="45.40796" lon="4.97139">
        <ele>423.7</ele>
        <time>2023-06-11T09:06:45.000Z</time>
      </trkpt>
      <trkpt lat="45.40802" lon="4.97138">
        <ele>423.5</ele>
        <time>2023-06-11T09:06:46.000Z</time>
      </trkpt>
      <trkpt lat="45.40813" lon="4.97137">
        <ele>423</ele>
        <time>2023-06-11T09:06:48.000Z</time>
      </trkpt>
      <trkpt lat="45.4082" lon="4.97138">
        <ele>422.7</ele>
        <time>2023-06-11T09:06:49.000Z</time>
      </trkpt>
      <trkpt lat="45.40833" lon="4.97142">
        <ele>422.2</ele>
        <time>2023-06-11T09:06:51.000Z</time>
      </trkpt>
      <trkpt lat="45.40846" lon="4.97138">
        <ele>421.5</ele>
        <time>2023-06-11T09:06:53.000Z</time>
      </trkpt>
      <trkpt lat="45.40852" lon="4.97134">
        <ele>421</ele>
        <time>2023-06-11T09:06:54.000Z</time>
      </trkpt>
      <trkpt lat="45.40869" lon="4.97123">
        <ele>419.8</ele>
        <time>2023-06-11T09:06:57.000Z</time>
      </trkpt>
      <trkpt lat="45.40882" lon="4.97119">
        <ele>419.1</ele>
        <time>2023-06-11T09:06:59.000Z</time>
      </trkpt>
      <trkpt lat="45.4089" lon="4.97116">
        <ele>418.8</ele>
        <time>2023-06-11T09:07:00.000Z</time>
      </trkpt>
      <trkpt lat="45.40906" lon="4.97116">
        <ele>418.2</ele>
        <time>2023-06-11T09:07:02.000Z</time>
      </trkpt>
      <trkpt lat="45.40918" lon="4.97116">
        <ele>417.8</ele>
        <time>2023-06-11T09:07:04.000Z</time>
      </trkpt>
      <trkpt lat="45.40924" lon="4.97116">
        <ele>417.5</ele>
        <time>2023-06-11T09:07:05.000Z</time>
      </trkpt>
      <trkpt lat="45.40933" lon="4.97116">
        <ele>417.2</ele>
        <time>2023-06-11T09:07:06.000Z</time>
      </trkpt>
      <trkpt lat="45.40947" lon="4.97118">
        <ele>416.8</ele>
        <time>2023-06-11T09:07:08.000Z</time>
      </trkpt>
      <trkpt lat="45.40961" lon="4.97122">
        <ele>416.6</ele>
        <time>2023-06-11T09:07:10.000Z</time>
      </trkpt>
      <trkpt lat="45.40966" lon="4.97125">
        <ele>416.5</ele>
        <time>2023-06-11T09:07:11.000Z</time>
      </trkpt>
      <trkpt lat="45.4097" lon="4.97127">
        <ele>416.4</ele>
        <time>2023-06-11T09:07:12.000Z</time>
      </trkpt>
      <trkpt lat="45.40981" lon="4.97134">
        <ele>416.1</ele>
        <time>2023-06-11T09:07:14.000Z</time>
      </trkpt>
      <trkpt lat="45.40987" lon="4.97135">
        <ele>415.8</ele>
        <time>2023-06-11T09:07:15.000Z</time>
      </trkpt>
      <trkpt lat="45.41" lon="4.97139">
        <ele>415.1</ele>
        <time>2023-06-11T09:07:17.000Z</time>
      </trkpt>
      <trkpt lat="45.41007" lon="4.97139">
        <ele>414.7</ele>
        <time>2023-06-11T09:07:18.000Z</time>
      </trkpt>
      <trkpt lat="45.41021" lon="4.97134">
        <ele>413.9</ele>
        <time>2023-06-11T09:07:20.000Z</time>
      </trkpt>
      <trkpt lat="45.41028" lon="4.9713">
        <ele>413.5</ele>
        <time>2023-06-11T09:07:21.000Z</time>
      </trkpt>
      <trkpt lat="45.41041" lon="4.97122">
        <ele>412.8</ele>
        <time>2023-06-11T09:07:23.000Z</time>
      </trkpt>
      <trkpt lat="45.41057" lon="4.9712">
        <ele>412.1</ele>
        <time>2023-06-11T09:07:25.000Z</time>
      </trkpt>
      <trkpt lat="45.41065" lon="4.97121">
        <ele>411.7</ele>
        <time>2023-06-11T09:07:26.000Z</time>
      </trkpt>
      <trkpt lat="45.41081" lon="4.97121">
        <ele>410.9</ele>
        <time>2023-06-11T09:07:28.000Z</time>
      </trkpt>
      <trkpt lat="45.4109" lon="4.97118">
        <ele>410.4</ele>
        <time>2023-06-11T09:07:29.000Z</time>
      </trkpt>
      <trkpt lat="45.41105" lon="4.97112">
        <ele>409.4</ele>
        <time>2023-06-11T09:07:31.000Z</time>
      </trkpt>
      <trkpt lat="45.41128" lon="4.97107">
        <ele>407.8</ele>
        <time>2023-06-11T09:07:34.000Z</time>
      </trkpt>
      <trkpt lat="45.41137" lon="4.97104">
        <ele>407.2</ele>
        <time>2023-06-11T09:07:35.000Z</time>
      </trkpt>
      <trkpt lat="45.41154" lon="4.971">
        <ele>405.8</ele>
        <time>2023-06-11T09:07:37.000Z</time>
      </trkpt>
      <trkpt lat="45.41163" lon="4.97096">
        <ele>405</ele>
        <time>2023-06-11T09:07:38.000Z</time>
      </trkpt>
      <trkpt lat="45.41171" lon="4.97091">
        <ele>404</ele>
        <time>2023-06-11T09:07:39.000Z</time>
      </trkpt>
      <trkpt lat="45.41179" lon="4.97085">
        <ele>403</ele>
        <time>2023-06-11T09:07:40.000Z</time>
      </trkpt>
      <trkpt lat="45.41194" lon="4.97077">
        <ele>400.9</ele>
        <time>2023-06-11T09:07:42.000Z</time>
      </trkpt>
      <trkpt lat="45.41211" lon="4.97071">
        <ele>398.4</ele>
        <time>2023-06-11T09:07:44.000Z</time>
      </trkpt>
      <trkpt lat="45.41224" lon="4.97065">
        <ele>396.2</ele>
        <time>2023-06-11T09:07:46.000Z</time>
      </trkpt>
      <trkpt lat="45.4123" lon="4.97063">
        <ele>395.1</ele>
        <time>2023-06-11T09:07:47.000Z</time>
      </trkpt>
      <trkpt lat="45.41237" lon="4.97061">
        <ele>393.9</ele>
        <time>2023-06-11T09:07:48.000Z</time>
      </trkpt>
      <trkpt lat="45.41243" lon="4.9706">
        <ele>392.6</ele>
        <time>2023-06-11T09:07:49.000Z</time>
      </trkpt>
      <trkpt lat="45.41255" lon="4.97055">
        <ele>390.1</ele>
        <time>2023-06-11T09:07:51.000Z</time>
      </trkpt>
      <trkpt lat="45.41261" lon="4.97054">
        <ele>388.7</ele>
        <time>2023-06-11T09:07:52.000Z</time>
      </trkpt>
      <trkpt lat="45.41267" lon="4.97053">
        <ele>387.2</ele>
        <time>2023-06-11T09:07:53.000Z</time>
      </trkpt>
      <trkpt lat="45.41274" lon="4.97051">
        <ele>385.7</ele>
        <time>2023-06-11T09:07:54.000Z</time>
      </trkpt>
      <trkpt lat="45.4128" lon="4.97048">
        <ele>384.1</ele>
        <time>2023-06-11T09:07:55.000Z</time>
      </trkpt>
      <trkpt lat="45.41285" lon="4.97046">
        <ele>382.7</ele>
        <time>2023-06-11T09:07:56.000Z</time>
      </trkpt>
      <trkpt lat="45.41289" lon="4.97044">
        <ele>381.3</ele>
        <time>2023-06-11T09:07:57.000Z</time>
      </trkpt>
      <trkpt lat="45.41292" lon="4.97045">
        <ele>380.4</ele>
        <time>2023-06-11T09:07:58.000Z</time>
      </trkpt>
      <trkpt lat="45.41295" lon="4.97047">
        <ele>379.7</ele>
        <time>2023-06-11T09:07:59.000Z</time>
      </trkpt>
      <trkpt lat="45.41296" lon="4.97049">
        <ele>379</ele>
        <time>2023-06-11T09:08:00.000Z</time>
      </trkpt>
      <trkpt lat="45.41298" lon="4.97051">
        <ele>376.9</ele>
        <time>2023-06-11T09:08:01.000Z</time>
      </trkpt>
      <trkpt lat="45.41298" lon="4.97054">
        <ele>376.8</ele>
        <time>2023-06-11T09:08:02.000Z</time>
      </trkpt>
      <trkpt lat="45.41298" lon="4.97059">
        <ele>376.6</ele>
        <time>2023-06-11T09:08:03.000Z</time>
      </trkpt>
      <trkpt lat="45.41297" lon="4.97064">
        <ele>376.3</ele>
        <time>2023-06-11T09:08:04.000Z</time>
      </trkpt>
      <trkpt lat="45.41297" lon="4.97069">
        <ele>376.1</ele>
        <time>2023-06-11T09:08:05.000Z</time>
      </trkpt>
      <trkpt lat="45.41297" lon="4.97075">
        <ele>375.9</ele>
        <time>2023-06-11T09:08:06.000Z</time>
      </trkpt>
      <trkpt lat="45.41297" lon="4.97082">
        <ele>375.6</ele>
        <time>2023-06-11T09:08:07.000Z</time>
      </trkpt>
      <trkpt lat="45.41297" lon="4.97088">
        <ele>375.4</ele>
        <time>2023-06-11T09:08:08.000Z</time>
      </trkpt>
      <trkpt lat="45.41296" lon="4.97099">
        <ele>375</ele>
        <time>2023-06-11T09:08:10.000Z</time>
      </trkpt>
      <trkpt lat="45.41295" lon="4.97113">
        <ele>374.5</ele>
        <time>2023-06-11T09:08:12.000Z</time>
      </trkpt>
      <trkpt lat="45.41294" lon="4.97121">
        <ele>374.3</ele>
        <time>2023-06-11T09:08:13.000Z</time>
      </trkpt>
      <trkpt lat="45.41292" lon="4.97128">
        <ele>374.1</ele>
        <time>2023-06-11T09:08:14.000Z</time>
      </trkpt>
      <trkpt lat="45.41291" lon="4.97134">
        <ele>374</ele>
        <time>2023-06-11T09:08:15.000Z</time>
      </trkpt>
      <trkpt lat="45.4129" lon="4.97148">
        <ele>373.7</ele>
        <time>2023-06-11T09:08:17.000Z</time>
      </trkpt>
      <trkpt lat="45.41292" lon="4.97156">
        <ele>373.7</ele>
        <time>2023-06-11T09:08:18.000Z</time>
      </trkpt>
      <trkpt lat="45.41294" lon="4.97162">
        <ele>373.6</ele>
        <time>2023-06-11T09:08:19.000Z</time>
      </trkpt>
      <trkpt lat="45.41298" lon="4.97167">
        <ele>373.6</ele>
        <time>2023-06-11T09:08:20.000Z</time>
      </trkpt>
      <trkpt lat="45.41301" lon="4.97172">
        <ele>373.5</ele>
        <time>2023-06-11T09:08:21.000Z</time>
      </trkpt>
      <trkpt lat="45.41309" lon="4.9718">
        <ele>373.4</ele>
        <time>2023-06-11T09:08:23.000Z</time>
      </trkpt>
      <trkpt lat="45.41317" lon="4.97188">
        <ele>373.1</ele>
        <time>2023-06-11T09:08:25.000Z</time>
      </trkpt>
      <trkpt lat="45.41321" lon="4.97192">
        <ele>372.9</ele>
        <time>2023-06-11T09:08:26.000Z</time>
      </trkpt>
      <trkpt lat="45.41346" lon="4.97222">
        <ele>371.9</ele>
        <time>2023-06-11T09:08:33.000Z</time>
      </trkpt>
      <trkpt lat="45.41356" lon="4.97229">
        <ele>371.8</ele>
        <time>2023-06-11T09:08:37.000Z</time>
      </trkpt>
      <trkpt lat="45.41358" lon="4.9723">
        <ele>371.9</ele>
        <time>2023-06-11T09:08:38.000Z</time>
      </trkpt>
      <trkpt lat="45.41362" lon="4.97233">
        <ele>372.2</ele>
        <time>2023-06-11T09:08:41.000Z</time>
      </trkpt>
      <trkpt lat="45.41362" lon="4.97233">
        <ele>372.2</ele>
        <time>2023-06-11T09:08:42.000Z</time>
      </trkpt>
      <trkpt lat="45.41362" lon="4.97233">
        <ele>372.2</ele>
        <time>2023-06-11T09:08:44.000Z</time>
      </trkpt>
      <trkpt lat="45.41367" lon="4.97233">
        <ele>372.5</ele>
        <time>2023-06-11T09:11:12.000Z</time>
      </trkpt>
      <trkpt lat="45.41369" lon="4.97233">
        <ele>372.7</ele>
        <time>2023-06-11T09:11:13.000Z</time>
      </trkpt>
      <trkpt lat="45.41381" lon="4.97242">
        <ele>374.3</ele>
        <time>2023-06-11T09:11:19.000Z</time>
      </trkpt>
      <trkpt lat="45.41385" lon="4.97248">
        <ele>375.1</ele>
        <time>2023-06-11T09:11:22.000Z</time>
      </trkpt>
      <trkpt lat="45.41387" lon="4.97253">
        <ele>376</ele>
        <time>2023-06-11T09:11:25.000Z</time>
      </trkpt>
      <trkpt lat="45.41389" lon="4.97255">
        <ele>376.3</ele>
        <time>2023-06-11T09:11:26.000Z</time>
      </trkpt>
      <trkpt lat="45.41391" lon="4.9726">
        <ele>377.3</ele>
        <time>2023-06-11T09:11:29.000Z</time>
      </trkpt>
      <trkpt lat="45.41393" lon="4.97263">
        <ele>377.9</ele>
        <time>2023-06-11T09:11:31.000Z</time>
      </trkpt>
      <trkpt lat="45.41394" lon="4.97264">
        <ele>378.2</ele>
        <time>2023-06-11T09:11:32.000Z</time>
      </trkpt>
      <trkpt lat="45.41395" lon="4.97266">
        <ele>378.5</ele>
        <time>2023-06-11T09:11:33.000Z</time>
      </trkpt>
      <trkpt lat="45.41396" lon="4.9727">
        <ele>379.2</ele>
        <time>2023-06-11T09:11:35.000Z</time>
      </trkpt>
      <trkpt lat="45.41398" lon="4.97276">
        <ele>380.1</ele>
        <time>2023-06-11T09:11:38.000Z</time>
      </trkpt>
      <trkpt lat="45.41399" lon="4.97278">
        <ele>380.4</ele>
        <time>2023-06-11T09:11:39.000Z</time>
      </trkpt>
      <trkpt lat="45.414" lon="4.97279">
        <ele>380.8</ele>
        <time>2023-06-11T09:11:40.000Z</time>
      </trkpt>
      <trkpt lat="45.41403" lon="4.97283">
        <ele>381.6</ele>
        <time>2023-06-11T09:11:43.000Z</time>
      </trkpt>
      <trkpt lat="45.41406" lon="4.97288">
        <ele>382.5</ele>
        <time>2023-06-11T09:11:46.000Z</time>
      </trkpt>
      <trkpt lat="45.41409" lon="4.97293">
        <ele>383.4</ele>
        <time>2023-06-11T09:11:50.000Z</time>
      </trkpt>
      <trkpt lat="45.41413" lon="4.97299">
        <ele>384.5</ele>
        <time>2023-06-11T09:11:55.000Z</time>
      </trkpt>
      <trkpt lat="45.41417" lon="4.97306">
        <ele>385.6</ele>
        <time>2023-06-11T09:12:00.000Z</time>
      </trkpt>
      <trkpt lat="45.4142" lon="4.97309">
        <ele>386</ele>
        <time>2023-06-11T09:12:03.000Z</time>
      </trkpt>
      <trkpt lat="45.41422" lon="4.97313">
        <ele>386.4</ele>
        <time>2023-06-11T09:12:06.000Z</time>
      </trkpt>
      <trkpt lat="45.41427" lon="4.97319">
        <ele>387</ele>
        <time>2023-06-11T09:12:11.000Z</time>
      </trkpt>
      <trkpt lat="45.41429" lon="4.97322">
        <ele>387.2</ele>
        <time>2023-06-11T09:12:13.000Z</time>
      </trkpt>
      <trkpt lat="45.41438" lon="4.97331">
        <ele>388</ele>
        <time>2023-06-11T09:12:21.000Z</time>
      </trkpt>
      <trkpt lat="45.41439" lon="4.97333">
        <ele>388</ele>
        <time>2023-06-11T09:12:22.000Z</time>
      </trkpt>
      <trkpt lat="45.4145" lon="4.97348">
        <ele>388.8</ele>
        <time>2023-06-11T09:12:31.000Z</time>
      </trkpt>
      <trkpt lat="45.41453" lon="4.97351">
        <ele>389</ele>
        <time>2023-06-11T09:12:33.000Z</time>
      </trkpt>
      <trkpt lat="45.41454" lon="4.97353">
        <ele>389.1</ele>
        <time>2023-06-11T09:12:34.000Z</time>
      </trkpt>
      <trkpt lat="45.41461" lon="4.97361">
        <ele>389.6</ele>
        <time>2023-06-11T09:12:39.000Z</time>
      </trkpt>
      <trkpt lat="45.41463" lon="4.97363">
        <ele>389.7</ele>
        <time>2023-06-11T09:12:40.000Z</time>
      </trkpt>
      <trkpt lat="45.41467" lon="4.97368">
        <ele>390.1</ele>
        <time>2023-06-11T09:12:43.000Z</time>
      </trkpt>
      <trkpt lat="45.41472" lon="4.97372">
        <ele>390.4</ele>
        <time>2023-06-11T09:12:46.000Z</time>
      </trkpt>
      <trkpt lat="45.41476" lon="4.97377">
        <ele>390.8</ele>
        <time>2023-06-11T09:12:49.000Z</time>
      </trkpt>
      <trkpt lat="45.41483" lon="4.97384">
        <ele>391.3</ele>
        <time>2023-06-11T09:12:53.000Z</time>
      </trkpt>
      <trkpt lat="45.41484" lon="4.97386">
        <ele>391.5</ele>
        <time>2023-06-11T09:12:54.000Z</time>
      </trkpt>
      <trkpt lat="45.41489" lon="4.9739">
        <ele>392</ele>
        <time>2023-06-11T09:12:57.000Z</time>
      </trkpt>
      <trkpt lat="45.41496" lon="4.97398">
        <ele>392.8</ele>
        <time>2023-06-11T09:13:02.000Z</time>
      </trkpt>
      <trkpt lat="45.415" lon="4.97403">
        <ele>393.3</ele>
        <time>2023-06-11T09:13:05.000Z</time>
      </trkpt>
      <trkpt lat="45.4151" lon="4.97413">
        <ele>394.5</ele>
        <time>2023-06-11T09:13:12.000Z</time>
      </trkpt>
      <trkpt lat="45.41513" lon="4.97416">
        <ele>394.8</ele>
        <time>2023-06-11T09:13:14.000Z</time>
      </trkpt>
      <trkpt lat="45.41517" lon="4.97424">
        <ele>395.6</ele>
        <time>2023-06-11T09:13:18.000Z</time>
      </trkpt>
      <trkpt lat="45.41518" lon="4.97426">
        <ele>395.8</ele>
        <time>2023-06-11T09:13:19.000Z</time>
      </trkpt>
      <trkpt lat="45.41519" lon="4.97428">
        <ele>396</ele>
        <time>2023-06-11T09:13:20.000Z</time>
      </trkpt>
      <trkpt lat="45.41522" lon="4.97435">
        <ele>396.7</ele>
        <time>2023-06-11T09:13:24.000Z</time>
      </trkpt>
      <trkpt lat="45.41523" lon="4.97438">
        <ele>397</ele>
        <time>2023-06-11T09:13:26.000Z</time>
      </trkpt>
      <trkpt lat="45.41524" lon="4.97448">
        <ele>397.8</ele>
        <time>2023-06-11T09:13:31.000Z</time>
      </trkpt>
      <trkpt lat="45.41524" lon="4.97449">
        <ele>397.9</ele>
        <time>2023-06-11T09:13:32.000Z</time>
      </trkpt>
      <trkpt lat="45.41525" lon="4.97464">
        <ele>399.2</ele>
        <time>2023-06-11T09:13:39.000Z</time>
      </trkpt>
      <trkpt lat="45.41525" lon="4.97468">
        <ele>399.5</ele>
        <time>2023-06-11T09:13:41.000Z</time>
      </trkpt>
      <trkpt lat="45.41524" lon="4.97471">
        <ele>399.9</ele>
        <time>2023-06-11T09:13:43.000Z</time>
      </trkpt>
      <trkpt lat="45.41524" lon="4.97483">
        <ele>400.9</ele>
        <time>2023-06-11T09:13:49.000Z</time>
      </trkpt>
      <trkpt lat="45.41523" lon="4.97486">
        <ele>401.2</ele>
        <time>2023-06-11T09:13:51.000Z</time>
      </trkpt>
      <trkpt lat="45.41523" lon="4.97488">
        <ele>401.3</ele>
        <time>2023-06-11T09:13:52.000Z</time>
      </trkpt>
      <trkpt lat="45.41522" lon="4.97494">
        <ele>402</ele>
        <time>2023-06-11T09:13:56.000Z</time>
      </trkpt>
      <trkpt lat="45.41521" lon="4.97496">
        <ele>402.2</ele>
        <time>2023-06-11T09:13:57.000Z</time>
      </trkpt>
      <trkpt lat="45.41521" lon="4.97498">
        <ele>402.3</ele>
        <time>2023-06-11T09:13:58.000Z</time>
      </trkpt>
      <trkpt lat="45.41521" lon="4.975">
        <ele>402.5</ele>
        <time>2023-06-11T09:13:59.000Z</time>
      </trkpt>
      <trkpt lat="45.41521" lon="4.97502">
        <ele>402.7</ele>
        <time>2023-06-11T09:14:00.000Z</time>
      </trkpt>
      <trkpt lat="45.4152" lon="4.97509">
        <ele>403.4</ele>
        <time>2023-06-11T09:14:04.000Z</time>
      </trkpt>
      <trkpt lat="45.4152" lon="4.97511">
        <ele>403.5</ele>
        <time>2023-06-11T09:14:05.000Z</time>
      </trkpt>
      <trkpt lat="45.41519" lon="4.97518">
        <ele>404.1</ele>
        <time>2023-06-11T09:14:09.000Z</time>
      </trkpt>
      <trkpt lat="45.4152" lon="4.97525">
        <ele>404.8</ele>
        <time>2023-06-11T09:14:13.000Z</time>
      </trkpt>
      <trkpt lat="45.41521" lon="4.9753">
        <ele>405.2</ele>
        <time>2023-06-11T09:14:16.000Z</time>
      </trkpt>
      <trkpt lat="45.41521" lon="4.97533">
        <ele>405.5</ele>
        <time>2023-06-11T09:14:18.000Z</time>
      </trkpt>
      <trkpt lat="45.41523" lon="4.97537">
        <ele>405.8</ele>
        <time>2023-06-11T09:14:20.000Z</time>
      </trkpt>
      <trkpt lat="45.41524" lon="4.9754">
        <ele>406.1</ele>
        <time>2023-06-11T09:14:22.000Z</time>
      </trkpt>
      <trkpt lat="45.41526" lon="4.97545">
        <ele>406.4</ele>
        <time>2023-06-11T09:14:25.000Z</time>
      </trkpt>
      <trkpt lat="45.41529" lon="4.97553">
        <ele>407</ele>
        <time>2023-06-11T09:14:30.000Z</time>
      </trkpt>
      <trkpt lat="45.4153" lon="4.9756">
        <ele>407.4</ele>
        <time>2023-06-11T09:14:33.000Z</time>
      </trkpt>
      <trkpt lat="45.41534" lon="4.97568">
        <ele>407.9</ele>
        <time>2023-06-11T09:14:38.000Z</time>
      </trkpt>
      <trkpt lat="45.41535" lon="4.97571">
        <ele>408.1</ele>
        <time>2023-06-11T09:14:40.000Z</time>
      </trkpt>
      <trkpt lat="45.41538" lon="4.9758">
        <ele>408.7</ele>
        <time>2023-06-11T09:14:45.000Z</time>
      </trkpt>
      <trkpt lat="45.41539" lon="4.97582">
        <ele>408.8</ele>
        <time>2023-06-11T09:14:46.000Z</time>
      </trkpt>
      <trkpt lat="45.41542" lon="4.97595">
        <ele>409.6</ele>
        <time>2023-06-11T09:14:53.000Z</time>
      </trkpt>
      <trkpt lat="45.41543" lon="4.97597">
        <ele>409.7</ele>
        <time>2023-06-11T09:14:54.000Z</time>
      </trkpt>
      <trkpt lat="45.41547" lon="4.97611">
        <ele>410.5</ele>
        <time>2023-06-11T09:15:01.000Z</time>
      </trkpt>
      <trkpt lat="45.41548" lon="4.97616">
        <ele>410.8</ele>
        <time>2023-06-11T09:15:03.000Z</time>
      </trkpt>
      <trkpt lat="45.4155" lon="4.97627">
        <ele>411.6</ele>
        <time>2023-06-11T09:15:09.000Z</time>
      </trkpt>
      <trkpt lat="45.4155" lon="4.97632">
        <ele>411.8</ele>
        <time>2023-06-11T09:15:11.000Z</time>
      </trkpt>
      <trkpt lat="45.41551" lon="4.97647">
        <ele>412.5</ele>
        <time>2023-06-11T09:15:17.000Z</time>
      </trkpt>
      <trkpt lat="45.41552" lon="4.97654">
        <ele>412.9</ele>
        <time>2023-06-11T09:15:20.000Z</time>
      </trkpt>
      <trkpt lat="45.41555" lon="4.97664">
        <ele>413.4</ele>
        <time>2023-06-11T09:15:24.000Z</time>
      </trkpt>
      <trkpt lat="45.41558" lon="4.97673">
        <ele>413.9</ele>
        <time>2023-06-11T09:15:28.000Z</time>
      </trkpt>
      <trkpt lat="45.41562" lon="4.97689">
        <ele>414.7</ele>
        <time>2023-06-11T09:15:34.000Z</time>
      </trkpt>
      <trkpt lat="45.41562" lon="4.97692">
        <ele>414.8</ele>
        <time>2023-06-11T09:15:35.000Z</time>
      </trkpt>
      <trkpt lat="45.41564" lon="4.97706">
        <ele>415.5</ele>
        <time>2023-06-11T09:15:40.000Z</time>
      </trkpt>
      <trkpt lat="45.41565" lon="4.97718">
        <ele>416</ele>
        <time>2023-06-11T09:15:44.000Z</time>
      </trkpt>
      <trkpt lat="45.41566" lon="4.97727">
        <ele>416.4</ele>
        <time>2023-06-11T09:15:47.000Z</time>
      </trkpt>
      <trkpt lat="45.41569" lon="4.97752">
        <ele>417.4</ele>
        <time>2023-06-11T09:15:55.000Z</time>
      </trkpt>
      <trkpt lat="45.4157" lon="4.97755">
        <ele>417.5</ele>
        <time>2023-06-11T09:15:56.000Z</time>
      </trkpt>
      <trkpt lat="45.41567" lon="4.97766">
        <ele>418.1</ele>
        <time>2023-06-11T09:16:00.000Z</time>
      </trkpt>
      <trkpt lat="45.41558" lon="4.97781">
        <ele>418.7</ele>
        <time>2023-06-11T09:16:05.000Z</time>
      </trkpt>
      <trkpt lat="45.41553" lon="4.97785">
        <ele>419.1</ele>
        <time>2023-06-11T09:16:07.000Z</time>
      </trkpt>
      <trkpt lat="45.41538" lon="4.97802">
        <ele>419.6</ele>
        <time>2023-06-11T09:16:13.000Z</time>
      </trkpt>
      <trkpt lat="45.41534" lon="4.97807">
        <ele>419.8</ele>
        <time>2023-06-11T09:16:15.000Z</time>
      </trkpt>
      <trkpt lat="45.41513" lon="4.97827">
        <ele>420.2</ele>
        <time>2023-06-11T09:16:23.000Z</time>
      </trkpt>
      <trkpt lat="45.415" lon="4.9783">
        <ele>420.4</ele>
        <time>2023-06-11T09:16:26.000Z</time>
      </trkpt>
      <trkpt lat="45.41496" lon="4.97828">
        <ele>420.4</ele>
        <time>2023-06-11T09:16:27.000Z</time>
      </trkpt>
      <trkpt lat="45.41492" lon="4.97824">
        <ele>420.4</ele>
        <time>2023-06-11T09:16:28.000Z</time>
      </trkpt>
      <trkpt lat="45.41488" lon="4.9781">
        <ele>420.3</ele>
        <time>2023-06-11T09:16:30.000Z</time>
      </trkpt>
      <trkpt lat="45.41482" lon="4.97777">
        <ele>420.1</ele>
        <time>2023-06-11T09:16:35.000Z</time>
      </trkpt>
      <trkpt lat="45.41481" lon="4.97765">
        <ele>419.3</ele>
        <time>2023-06-11T09:16:37.000Z</time>
      </trkpt>
      <trkpt lat="45.4148" lon="4.97759">
        <ele>419.1</ele>
        <time>2023-06-11T09:16:38.000Z</time>
      </trkpt>
      <trkpt lat="45.41475" lon="4.9775">
        <ele>418.1</ele>
        <time>2023-06-11T09:16:40.000Z</time>
      </trkpt>
      <trkpt lat="45.41467" lon="4.97749">
        <ele>417.3</ele>
        <time>2023-06-11T09:16:42.000Z</time>
      </trkpt>
      <trkpt lat="45.41463" lon="4.9775">
        <ele>417</ele>
        <time>2023-06-11T09:16:43.000Z</time>
      </trkpt>
      <trkpt lat="45.41449" lon="4.97757">
        <ele>416.6</ele>
        <time>2023-06-11T09:16:46.000Z</time>
      </trkpt>
      <trkpt lat="45.41445" lon="4.9776">
        <ele>416.6</ele>
        <time>2023-06-11T09:16:47.000Z</time>
      </trkpt>
      <trkpt lat="45.41436" lon="4.97768">
        <ele>416.4</ele>
        <time>2023-06-11T09:16:49.000Z</time>
      </trkpt>
      <trkpt lat="45.41423" lon="4.97782">
        <ele>416.4</ele>
        <time>2023-06-11T09:16:52.000Z</time>
      </trkpt>
      <trkpt lat="45.41414" lon="4.97794">
        <ele>415.8</ele>
        <time>2023-06-11T09:16:54.000Z</time>
      </trkpt>
      <trkpt lat="45.41409" lon="4.97808">
        <ele>415.1</ele>
        <time>2023-06-11T09:16:56.000Z</time>
      </trkpt>
      <trkpt lat="45.41409" lon="4.97815">
        <ele>414.9</ele>
        <time>2023-06-11T09:16:57.000Z</time>
      </trkpt>
      <trkpt lat="45.41409" lon="4.97822">
        <ele>414.5</ele>
        <time>2023-06-11T09:16:58.000Z</time>
      </trkpt>
      <trkpt lat="45.4141" lon="4.9784">
        <ele>413.3</ele>
        <time>2023-06-11T09:17:01.000Z</time>
      </trkpt>
      <trkpt lat="45.4141" lon="4.97845">
        <ele>412.9</ele>
        <time>2023-06-11T09:17:02.000Z</time>
      </trkpt>
      <trkpt lat="45.41411" lon="4.9785">
        <ele>411.9</ele>
        <time>2023-06-11T09:17:03.000Z</time>
      </trkpt>
      <trkpt lat="45.41413" lon="4.97859">
        <ele>410.4</ele>
        <time>2023-06-11T09:17:05.000Z</time>
      </trkpt>
      <trkpt lat="45.41414" lon="4.9787">
        <ele>409.6</ele>
        <time>2023-06-11T09:17:07.000Z</time>
      </trkpt>
      <trkpt lat="45.41415" lon="4.97877">
        <ele>409.4</ele>
        <time>2023-06-11T09:17:08.000Z</time>
      </trkpt>
      <trkpt lat="45.41418" lon="4.97895">
        <ele>409</ele>
        <time>2023-06-11T09:17:10.000Z</time>
      </trkpt>
      <trkpt lat="45.41418" lon="4.97905">
        <ele>409</ele>
        <time>2023-06-11T09:17:11.000Z</time>
      </trkpt>
      <trkpt lat="45.41418" lon="4.97917">
        <ele>408.8</ele>
        <time>2023-06-11T09:17:12.000Z</time>
      </trkpt>
      <trkpt lat="45.41414" lon="4.97938">
        <ele>408.3</ele>
        <time>2023-06-11T09:17:14.000Z</time>
      </trkpt>
      <trkpt lat="45.41411" lon="4.97948">
        <ele>408.3</ele>
        <time>2023-06-11T09:17:15.000Z</time>
      </trkpt>
      <trkpt lat="45.41405" lon="4.97964">
        <ele>407.9</ele>
        <time>2023-06-11T09:17:17.000Z</time>
      </trkpt>
      <trkpt lat="45.41401" lon="4.9797">
        <ele>407.5</ele>
        <time>2023-06-11T09:17:18.000Z</time>
      </trkpt>
      <trkpt lat="45.41396" lon="4.97973">
        <ele>406.9</ele>
        <time>2023-06-11T09:17:19.000Z</time>
      </trkpt>
      <trkpt lat="45.41382" lon="4.97977">
        <ele>404.7</ele>
        <time>2023-06-11T09:17:21.000Z</time>
      </trkpt>
      <trkpt lat="45.41369" lon="4.97976">
        <ele>402.4</ele>
        <time>2023-06-11T09:17:23.000Z</time>
      </trkpt>
      <trkpt lat="45.41362" lon="4.97973">
        <ele>401.4</ele>
        <time>2023-06-11T09:17:24.000Z</time>
      </trkpt>
      <trkpt lat="45.41354" lon="4.9797">
        <ele>400.4</ele>
        <time>2023-06-11T09:17:25.000Z</time>
      </trkpt>
      <trkpt lat="45.41341" lon="4.97962">
        <ele>398.8</ele>
        <time>2023-06-11T09:17:27.000Z</time>
      </trkpt>
      <trkpt lat="45.41332" lon="4.97958">
        <ele>397</ele>
        <time>2023-06-11T09:17:29.000Z</time>
      </trkpt>
      <trkpt lat="45.41329" lon="4.97961">
        <ele>396</ele>
        <time>2023-06-11T09:17:30.000Z</time>
      </trkpt>
      <trkpt lat="45.41327" lon="4.97964">
        <ele>395.1</ele>
        <time>2023-06-11T09:17:31.000Z</time>
      </trkpt>
      <trkpt lat="45.41325" lon="4.97968">
        <ele>393.5</ele>
        <time>2023-06-11T09:17:32.000Z</time>
      </trkpt>
      <trkpt lat="45.41324" lon="4.97972">
        <ele>392.1</ele>
        <time>2023-06-11T09:17:33.000Z</time>
      </trkpt>
      <trkpt lat="45.41322" lon="4.97976">
        <ele>390.7</ele>
        <time>2023-06-11T09:17:34.000Z</time>
      </trkpt>
      <trkpt lat="45.41321" lon="4.97979">
        <ele>389.5</ele>
        <time>2023-06-11T09:17:35.000Z</time>
      </trkpt>
      <trkpt lat="45.41319" lon="4.97983">
        <ele>388.5</ele>
        <time>2023-06-11T09:17:36.000Z</time>
      </trkpt>
      <trkpt lat="45.41316" lon="4.97986">
        <ele>388</ele>
        <time>2023-06-11T09:17:37.000Z</time>
      </trkpt>
      <trkpt lat="45.41308" lon="4.98004">
        <ele>387</ele>
        <time>2023-06-11T09:17:41.000Z</time>
      </trkpt>
      <trkpt lat="45.41302" lon="4.98031">
        <ele>386.6</ele>
        <time>2023-06-11T09:17:46.000Z</time>
      </trkpt>
      <trkpt lat="45.41301" lon="4.98036">
        <ele>386.6</ele>
        <time>2023-06-11T09:17:47.000Z</time>
      </trkpt>
      <trkpt lat="45.41299" lon="4.98058">
        <ele>386.8</ele>
        <time>2023-06-11T09:17:52.000Z</time>
      </trkpt>
      <trkpt lat="45.41301" lon="4.9808">
        <ele>386.8</ele>
        <time>2023-06-11T09:17:57.000Z</time>
      </trkpt>
      <trkpt lat="45.41296" lon="4.98096">
        <ele>386.9</ele>
        <time>2023-06-11T09:18:01.000Z</time>
      </trkpt>
      <trkpt lat="45.41295" lon="4.98101">
        <ele>386.9</ele>
        <time>2023-06-11T09:18:02.000Z</time>
      </trkpt>
      <trkpt lat="45.41297" lon="4.98109">
        <ele>387.1</ele>
        <time>2023-06-11T09:18:04.000Z</time>
      </trkpt>
      <trkpt lat="45.41301" lon="4.98125">
        <ele>387.7</ele>
        <time>2023-06-11T09:18:08.000Z</time>
      </trkpt>
      <trkpt lat="45.413" lon="4.9813">
        <ele>387.7</ele>
        <time>2023-06-11T09:18:09.000Z</time>
      </trkpt>
      <trkpt lat="45.41302" lon="4.98138">
        <ele>387.9</ele>
        <time>2023-06-11T09:18:11.000Z</time>
      </trkpt>
      <trkpt lat="45.41305" lon="4.9815">
        <ele>388.2</ele>
        <time>2023-06-11T09:18:14.000Z</time>
      </trkpt>
      <trkpt lat="45.4131" lon="4.98167">
        <ele>388.8</ele>
        <time>2023-06-11T09:18:19.000Z</time>
      </trkpt>
      <trkpt lat="45.41311" lon="4.98177">
        <ele>388.8</ele>
        <time>2023-06-11T09:18:21.000Z</time>
      </trkpt>
      <trkpt lat="45.41312" lon="4.98185">
        <ele>389.2</ele>
        <time>2023-06-11T09:18:23.000Z</time>
      </trkpt>
      <trkpt lat="45.41311" lon="4.9819">
        <ele>389.4</ele>
        <time>2023-06-11T09:18:24.000Z</time>
      </trkpt>
      <trkpt lat="45.41311" lon="4.98208">
        <ele>389.8</ele>
        <time>2023-06-11T09:18:28.000Z</time>
      </trkpt>
      <trkpt lat="45.41312" lon="4.98212">
        <ele>389.7</ele>
        <time>2023-06-11T09:18:29.000Z</time>
      </trkpt>
      <trkpt lat="45.41313" lon="4.98215">
        <ele>389.7</ele>
        <time>2023-06-11T09:18:30.000Z</time>
      </trkpt>
      <trkpt lat="45.41314" lon="4.98229">
        <ele>389.9</ele>
        <time>2023-06-11T09:18:33.000Z</time>
      </trkpt>
      <trkpt lat="45.41312" lon="4.98249">
        <ele>390.5</ele>
        <time>2023-06-11T09:18:39.000Z</time>
      </trkpt>
      <trkpt lat="45.41309" lon="4.98256">
        <ele>390.7</ele>
        <time>2023-06-11T09:18:41.000Z</time>
      </trkpt>
      <trkpt lat="45.41305" lon="4.98262">
        <ele>390.9</ele>
        <time>2023-06-11T09:18:43.000Z</time>
      </trkpt>
      <trkpt lat="45.41291" lon="4.98271">
        <ele>391.2</ele>
        <time>2023-06-11T09:18:49.000Z</time>
      </trkpt>
      <trkpt lat="45.41287" lon="4.98279">
        <ele>391.4</ele>
        <time>2023-06-11T09:18:52.000Z</time>
      </trkpt>
      <trkpt lat="45.41284" lon="4.98281">
        <ele>391.4</ele>
        <time>2023-06-11T09:18:53.000Z</time>
      </trkpt>
      <trkpt lat="45.41279" lon="4.98281">
        <ele>391.4</ele>
        <time>2023-06-11T09:18:56.000Z</time>
      </trkpt>
      <trkpt lat="45.41276" lon="4.98282">
        <ele>391.4</ele>
        <time>2023-06-11T09:18:57.000Z</time>
      </trkpt>
      <trkpt lat="45.4127" lon="4.98291">
        <ele>391.6</ele>
        <time>2023-06-11T09:19:01.000Z</time>
      </trkpt>
      <trkpt lat="45.4127" lon="4.98295">
        <ele>391.5</ele>
        <time>2023-06-11T09:19:02.000Z</time>
      </trkpt>
      <trkpt lat="45.41272" lon="4.98309">
        <ele>391.7</ele>
        <time>2023-06-11T09:19:06.000Z</time>
      </trkpt>
      <trkpt lat="45.41273" lon="4.98318">
        <ele>391.9</ele>
        <time>2023-06-11T09:19:09.000Z</time>
      </trkpt>
      <trkpt lat="45.41276" lon="4.98325">
        <ele>392.1</ele>
        <time>2023-06-11T09:19:11.000Z</time>
      </trkpt>
      <trkpt lat="45.41276" lon="4.98328">
        <ele>392.3</ele>
        <time>2023-06-11T09:19:12.000Z</time>
      </trkpt>
      <trkpt lat="45.41273" lon="4.98341">
        <ele>392.7</ele>
        <time>2023-06-11T09:19:16.000Z</time>
      </trkpt>
      <trkpt lat="45.41272" lon="4.98345">
        <ele>392.6</ele>
        <time>2023-06-11T09:19:17.000Z</time>
      </trkpt>
      <trkpt lat="45.4127" lon="4.98351">
        <ele>393</ele>
        <time>2023-06-11T09:19:20.000Z</time>
      </trkpt>
      <trkpt lat="45.41268" lon="4.98357">
        <ele>393.4</ele>
        <time>2023-06-11T09:19:23.000Z</time>
      </trkpt>
      <trkpt lat="45.41265" lon="4.9836">
        <ele>393.4</ele>
        <time>2023-06-11T09:19:25.000Z</time>
      </trkpt>
      <trkpt lat="45.41264" lon="4.98364">
        <ele>393.6</ele>
        <time>2023-06-11T09:19:26.000Z</time>
      </trkpt>
      <trkpt lat="45.41266" lon="4.98366">
        <ele>393.8</ele>
        <time>2023-06-11T09:19:27.000Z</time>
      </trkpt>
      <trkpt lat="45.41266" lon="4.98367">
        <ele>393.9</ele>
        <time>2023-06-11T09:19:28.000Z</time>
      </trkpt>
      <trkpt lat="45.41267" lon="4.98369">
        <ele>394.1</ele>
        <time>2023-06-11T09:19:29.000Z</time>
      </trkpt>
      <trkpt lat="45.41267" lon="4.98372">
        <ele>394.5</ele>
        <time>2023-06-11T09:19:31.000Z</time>
      </trkpt>
      <trkpt lat="45.41271" lon="4.9838">
        <ele>395.3</ele>
        <time>2023-06-11T09:19:34.000Z</time>
      </trkpt>
      <trkpt lat="45.4127" lon="4.98384">
        <ele>395.7</ele>
        <time>2023-06-11T09:19:35.000Z</time>
      </trkpt>
      <trkpt lat="45.41268" lon="4.98388">
        <ele>396.3</ele>
        <time>2023-06-11T09:19:37.000Z</time>
      </trkpt>
      <trkpt lat="45.41267" lon="4.98388">
        <ele>396.6</ele>
        <time>2023-06-11T09:19:38.000Z</time>
      </trkpt>
      <trkpt lat="45.41263" lon="4.9839">
        <ele>397.6</ele>
        <time>2023-06-11T09:19:41.000Z</time>
      </trkpt>
      <trkpt lat="45.41258" lon="4.98397">
        <ele>398.8</ele>
        <time>2023-06-11T09:19:46.000Z</time>
      </trkpt>
      <trkpt lat="45.41257" lon="4.98401">
        <ele>399.2</ele>
        <time>2023-06-11T09:19:48.000Z</time>
      </trkpt>
      <trkpt lat="45.41258" lon="4.98408">
        <ele>399.6</ele>
        <time>2023-06-11T09:19:51.000Z</time>
      </trkpt>
      <trkpt lat="45.41257" lon="4.9841">
        <ele>399.8</ele>
        <time>2023-06-11T09:19:52.000Z</time>
      </trkpt>
      <trkpt lat="45.41254" lon="4.98419">
        <ele>400.1</ele>
        <time>2023-06-11T09:19:56.000Z</time>
      </trkpt>
      <trkpt lat="45.41253" lon="4.98421">
        <ele>400.3</ele>
        <time>2023-06-11T09:19:57.000Z</time>
      </trkpt>
      <trkpt lat="45.41248" lon="4.98428">
        <ele>400.7</ele>
        <time>2023-06-11T09:20:01.000Z</time>
      </trkpt>
      <trkpt lat="45.41248" lon="4.9843">
        <ele>400.9</ele>
        <time>2023-06-11T09:20:02.000Z</time>
      </trkpt>
      <trkpt lat="45.41243" lon="4.98441">
        <ele>401.5</ele>
        <time>2023-06-11T09:20:07.000Z</time>
      </trkpt>
      <trkpt lat="45.41241" lon="4.98442">
        <ele>401.5</ele>
        <time>2023-06-11T09:20:08.000Z</time>
      </trkpt>
      <trkpt lat="45.41238" lon="4.98445">
        <ele>401.8</ele>
        <time>2023-06-11T09:20:10.000Z</time>
      </trkpt>
      <trkpt lat="45.41237" lon="4.98447">
        <ele>402</ele>
        <time>2023-06-11T09:20:11.000Z</time>
      </trkpt>
      <trkpt lat="45.41235" lon="4.98448">
        <ele>402.2</ele>
        <time>2023-06-11T09:20:12.000Z</time>
      </trkpt>
      <trkpt lat="45.41234" lon="4.98453">
        <ele>402.4</ele>
        <time>2023-06-11T09:20:14.000Z</time>
      </trkpt>
      <trkpt lat="45.41235" lon="4.98459">
        <ele>402.8</ele>
        <time>2023-06-11T09:20:16.000Z</time>
      </trkpt>
      <trkpt lat="45.41236" lon="4.98463">
        <ele>403</ele>
        <time>2023-06-11T09:20:17.000Z</time>
      </trkpt>
      <trkpt lat="45.41232" lon="4.98472">
        <ele>401.6</ele>
        <time>2023-06-11T09:20:19.000Z</time>
      </trkpt>
      <trkpt lat="45.41228" lon="4.98487">
        <ele>400</ele>
        <time>2023-06-11T09:20:21.000Z</time>
      </trkpt>
      <trkpt lat="45.41234" lon="4.98506">
        <ele>399.8</ele>
        <time>2023-06-11T09:20:24.000Z</time>
      </trkpt>
      <trkpt lat="45.41235" lon="4.98512">
        <ele>400.2</ele>
        <time>2023-06-11T09:20:25.000Z</time>
      </trkpt>
      <trkpt lat="45.4124" lon="4.98526">
        <ele>401.5</ele>
        <time>2023-06-11T09:20:29.000Z</time>
      </trkpt>
      <trkpt lat="45.4124" lon="4.98528">
        <ele>401.6</ele>
        <time>2023-06-11T09:20:30.000Z</time>
      </trkpt>
      <trkpt lat="45.4124" lon="4.9853">
        <ele>401.9</ele>
        <time>2023-06-11T09:20:31.000Z</time>
      </trkpt>
      <trkpt lat="45.4124" lon="4.98532">
        <ele>402</ele>
        <time>2023-06-11T09:20:32.000Z</time>
      </trkpt>
      <trkpt lat="45.41237" lon="4.98533">
        <ele>402.4</ele>
        <time>2023-06-11T09:20:34.000Z</time>
      </trkpt>
      <trkpt lat="45.41235" lon="4.98535">
        <ele>402.6</ele>
        <time>2023-06-11T09:20:35.000Z</time>
      </trkpt>
      <trkpt lat="45.41234" lon="4.98544">
        <ele>402.8</ele>
        <time>2023-06-11T09:20:38.000Z</time>
      </trkpt>
      <trkpt lat="45.41234" lon="4.98547">
        <ele>402.9</ele>
        <time>2023-06-11T09:20:39.000Z</time>
      </trkpt>
      <trkpt lat="45.41236" lon="4.98556">
        <ele>402.5</ele>
        <time>2023-06-11T09:20:44.000Z</time>
      </trkpt>
      <trkpt lat="45.41235" lon="4.98558">
        <ele>402.4</ele>
        <time>2023-06-11T09:20:45.000Z</time>
      </trkpt>
      <trkpt lat="45.41234" lon="4.98565">
        <ele>402</ele>
        <time>2023-06-11T09:20:47.000Z</time>
      </trkpt>
      <trkpt lat="45.41233" lon="4.98569">
        <ele>401.8</ele>
        <time>2023-06-11T09:20:48.000Z</time>
      </trkpt>
      <trkpt lat="45.41234" lon="4.98578">
        <ele>401.2</ele>
        <time>2023-06-11T09:20:51.000Z</time>
      </trkpt>
      <trkpt lat="45.41235" lon="4.9858">
        <ele>401.1</ele>
        <time>2023-06-11T09:20:52.000Z</time>
      </trkpt>
      <trkpt lat="45.41236" lon="4.98585">
        <ele>400.9</ele>
        <time>2023-06-11T09:20:54.000Z</time>
      </trkpt>
      <trkpt lat="45.41239" lon="4.98594">
        <ele>400.7</ele>
        <time>2023-06-11T09:20:57.000Z</time>
      </trkpt>
      <trkpt lat="45.41239" lon="4.98597">
        <ele>400.6</ele>
        <time>2023-06-11T09:20:58.000Z</time>
      </trkpt>
      <trkpt lat="45.41241" lon="4.98605">
        <ele>400.6</ele>
        <time>2023-06-11T09:21:01.000Z</time>
      </trkpt>
      <trkpt lat="45.41245" lon="4.98613">
        <ele>400.7</ele>
        <time>2023-06-11T09:21:04.000Z</time>
      </trkpt>
      <trkpt lat="45.41245" lon="4.98617">
        <ele>400.8</ele>
        <time>2023-06-11T09:21:05.000Z</time>
      </trkpt>
      <trkpt lat="45.41242" lon="4.98628">
        <ele>401.1</ele>
        <time>2023-06-11T09:21:09.000Z</time>
      </trkpt>
      <trkpt lat="45.41239" lon="4.98635">
        <ele>401.2</ele>
        <time>2023-06-11T09:21:11.000Z</time>
      </trkpt>
      <trkpt lat="45.41236" lon="4.98638">
        <ele>401.2</ele>
        <time>2023-06-11T09:21:14.000Z</time>
      </trkpt>
      <trkpt lat="45.41236" lon="4.98643">
        <ele>401.3</ele>
        <time>2023-06-11T09:21:16.000Z</time>
      </trkpt>
      <trkpt lat="45.41238" lon="4.98646">
        <ele>401.3</ele>
        <time>2023-06-11T09:21:17.000Z</time>
      </trkpt>
      <trkpt lat="45.41241" lon="4.98653">
        <ele>401.2</ele>
        <time>2023-06-11T09:21:19.000Z</time>
      </trkpt>
      <trkpt lat="45.41244" lon="4.98665">
        <ele>401.2</ele>
        <time>2023-06-11T09:21:23.000Z</time>
      </trkpt>
      <trkpt lat="45.41247" lon="4.9867">
        <ele>401.2</ele>
        <time>2023-06-11T09:21:25.000Z</time>
      </trkpt>
      <trkpt lat="45.4125" lon="4.98683">
        <ele>401.3</ele>
        <time>2023-06-11T09:21:28.000Z</time>
      </trkpt>
      <trkpt lat="45.41256" lon="4.98704">
        <ele>401.7</ele>
        <time>2023-06-11T09:21:33.000Z</time>
      </trkpt>
      <trkpt lat="45.41266" lon="4.98724">
        <ele>402.4</ele>
        <time>2023-06-11T09:21:38.000Z</time>
      </trkpt>
      <trkpt lat="45.41278" lon="4.98737">
        <ele>403.7</ele>
        <time>2023-06-11T09:21:43.000Z</time>
      </trkpt>
      <trkpt lat="45.4128" lon="4.98739">
        <ele>403.9</ele>
        <time>2023-06-11T09:21:45.000Z</time>
      </trkpt>
      <trkpt lat="45.41281" lon="4.98742">
        <ele>404.1</ele>
        <time>2023-06-11T09:21:47.000Z</time>
      </trkpt>
      <trkpt lat="45.41282" lon="4.98746">
        <ele>404.4</ele>
        <time>2023-06-11T09:21:49.000Z</time>
      </trkpt>
      <trkpt lat="45.41284" lon="4.9875">
        <ele>404.7</ele>
        <time>2023-06-11T09:21:51.000Z</time>
      </trkpt>
      <trkpt lat="45.41285" lon="4.98752">
        <ele>404.9</ele>
        <time>2023-06-11T09:21:54.000Z</time>
      </trkpt>
      <trkpt lat="45.41286" lon="4.98759">
        <ele>405.3</ele>
        <time>2023-06-11T09:21:57.000Z</time>
      </trkpt>
      <trkpt lat="45.41286" lon="4.98761">
        <ele>405.4</ele>
        <time>2023-06-11T09:21:58.000Z</time>
      </trkpt>
      <trkpt lat="45.41287" lon="4.98762">
        <ele>405.6</ele>
        <time>2023-06-11T09:21:59.000Z</time>
      </trkpt>
      <trkpt lat="45.41291" lon="4.98769">
        <ele>406</ele>
        <time>2023-06-11T09:22:02.000Z</time>
      </trkpt>
      <trkpt lat="45.41293" lon="4.98771">
        <ele>406.2</ele>
        <time>2023-06-11T09:22:03.000Z</time>
      </trkpt>
      <trkpt lat="45.41297" lon="4.98776">
        <ele>406.5</ele>
        <time>2023-06-11T09:22:05.000Z</time>
      </trkpt>
      <trkpt lat="45.41302" lon="4.9878">
        <ele>406.6</ele>
        <time>2023-06-11T09:22:07.000Z</time>
      </trkpt>
      <trkpt lat="45.41304" lon="4.98783">
        <ele>406.7</ele>
        <time>2023-06-11T09:22:08.000Z</time>
      </trkpt>
      <trkpt lat="45.41311" lon="4.98802">
        <ele>407.1</ele>
        <time>2023-06-11T09:22:12.000Z</time>
      </trkpt>
      <trkpt lat="45.41318" lon="4.98816">
        <ele>407.6</ele>
        <time>2023-06-11T09:22:16.000Z</time>
      </trkpt>
      <trkpt lat="45.41319" lon="4.98819">
        <ele>407.7</ele>
        <time>2023-06-11T09:22:17.000Z</time>
      </trkpt>
      <trkpt lat="45.41316" lon="4.98825">
        <ele>408</ele>
        <time>2023-06-11T09:22:20.000Z</time>
      </trkpt>
      <trkpt lat="45.41317" lon="4.98827">
        <ele>408.1</ele>
        <time>2023-06-11T09:22:21.000Z</time>
      </trkpt>
      <trkpt lat="45.41318" lon="4.98828">
        <ele>408.2</ele>
        <time>2023-06-11T09:22:22.000Z</time>
      </trkpt>
      <trkpt lat="45.41325" lon="4.98844">
        <ele>408.5</ele>
        <time>2023-06-11T09:22:27.000Z</time>
      </trkpt>
      <trkpt lat="45.41329" lon="4.98846">
        <ele>408.4</ele>
        <time>2023-06-11T09:22:28.000Z</time>
      </trkpt>
      <trkpt lat="45.4134" lon="4.9885">
        <ele>408</ele>
        <time>2023-06-11T09:22:31.000Z</time>
      </trkpt>
      <trkpt lat="45.41344" lon="4.98855">
        <ele>407.8</ele>
        <time>2023-06-11T09:22:32.000Z</time>
      </trkpt>
      <trkpt lat="45.41353" lon="4.98882">
        <ele>407.4</ele>
        <time>2023-06-11T09:22:38.000Z</time>
      </trkpt>
      <trkpt lat="45.41359" lon="4.98896">
        <ele>407.8</ele>
        <time>2023-06-11T09:22:42.000Z</time>
      </trkpt>
      <trkpt lat="45.41358" lon="4.989">
        <ele>407.9</ele>
        <time>2023-06-11T09:22:43.000Z</time>
      </trkpt>
      <trkpt lat="45.41355" lon="4.98907">
        <ele>408.2</ele>
        <time>2023-06-11T09:22:45.000Z</time>
      </trkpt>
      <trkpt lat="45.41356" lon="4.98918">
        <ele>408.5</ele>
        <time>2023-06-11T09:22:48.000Z</time>
      </trkpt>
      <trkpt lat="45.41352" lon="4.98929">
        <ele>408.9</ele>
        <time>2023-06-11T09:22:51.000Z</time>
      </trkpt>
      <trkpt lat="45.41351" lon="4.98932">
        <ele>408.9</ele>
        <time>2023-06-11T09:22:52.000Z</time>
      </trkpt>
      <trkpt lat="45.41347" lon="4.98952">
        <ele>409.2</ele>
        <time>2023-06-11T09:22:58.000Z</time>
      </trkpt>
      <trkpt lat="45.41337" lon="4.98963">
        <ele>409.3</ele>
        <time>2023-06-11T09:23:02.000Z</time>
      </trkpt>
      <trkpt lat="45.41334" lon="4.98967">
        <ele>409.3</ele>
        <time>2023-06-11T09:23:03.000Z</time>
      </trkpt>
      <trkpt lat="45.41329" lon="4.9898">
        <ele>409.4</ele>
        <time>2023-06-11T09:23:06.000Z</time>
      </trkpt>
      <trkpt lat="45.41329" lon="4.98984">
        <ele>409.4</ele>
        <time>2023-06-11T09:23:07.000Z</time>
      </trkpt>
      <trkpt lat="45.41328" lon="4.98994">
        <ele>409.5</ele>
        <time>2023-06-11T09:23:09.000Z</time>
      </trkpt>
      <trkpt lat="45.41324" lon="4.98999">
        <ele>409.6</ele>
        <time>2023-06-11T09:23:11.000Z</time>
      </trkpt>
      <trkpt lat="45.41316" lon="4.99006">
        <ele>409.9</ele>
        <time>2023-06-11T09:23:15.000Z</time>
      </trkpt>
      <trkpt lat="45.41312" lon="4.99009">
        <ele>410.1</ele>
        <time>2023-06-11T09:23:17.000Z</time>
      </trkpt>
      <trkpt lat="45.4131" lon="4.99013">
        <ele>410.2</ele>
        <time>2023-06-11T09:23:19.000Z</time>
      </trkpt>
      <trkpt lat="45.41309" lon="4.99016">
        <ele>410.3</ele>
        <time>2023-06-11T09:23:20.000Z</time>
      </trkpt>
      <trkpt lat="45.41312" lon="4.99034">
        <ele>410.7</ele>
        <time>2023-06-11T09:23:24.000Z</time>
      </trkpt>
      <trkpt lat="45.41311" lon="4.99038">
        <ele>410.7</ele>
        <time>2023-06-11T09:23:25.000Z</time>
      </trkpt>
      <trkpt lat="45.4131" lon="4.99049">
        <ele>410.7</ele>
        <time>2023-06-11T09:23:27.000Z</time>
      </trkpt>
      <trkpt lat="45.41303" lon="4.99072">
        <ele>410.7</ele>
        <time>2023-06-11T09:23:31.000Z</time>
      </trkpt>
      <trkpt lat="45.41302" lon="4.99079">
        <ele>410.7</ele>
        <time>2023-06-11T09:23:33.000Z</time>
      </trkpt>
      <trkpt lat="45.41303" lon="4.99081">
        <ele>410.7</ele>
        <time>2023-06-11T09:23:34.000Z</time>
      </trkpt>
      <trkpt lat="45.41311" lon="4.9909">
        <ele>410.7</ele>
        <time>2023-06-11T09:23:37.000Z</time>
      </trkpt>
      <trkpt lat="45.41316" lon="4.991">
        <ele>410.6</ele>
        <time>2023-06-11T09:23:39.000Z</time>
      </trkpt>
      <trkpt lat="45.41317" lon="4.99104">
        <ele>410.6</ele>
        <time>2023-06-11T09:23:40.000Z</time>
      </trkpt>
      <trkpt lat="45.41317" lon="4.9912">
        <ele>410.7</ele>
        <time>2023-06-11T09:23:43.000Z</time>
      </trkpt>
      <trkpt lat="45.41319" lon="4.99127">
        <ele>410.8</ele>
        <time>2023-06-11T09:23:45.000Z</time>
      </trkpt>
      <trkpt lat="45.41328" lon="4.99142">
        <ele>410.9</ele>
        <time>2023-06-11T09:23:49.000Z</time>
      </trkpt>
      <trkpt lat="45.4133" lon="4.99143">
        <ele>410.9</ele>
        <time>2023-06-11T09:23:50.000Z</time>
      </trkpt>
      <trkpt lat="45.41343" lon="4.9916">
        <ele>411</ele>
        <time>2023-06-11T09:23:56.000Z</time>
      </trkpt>
      <trkpt lat="45.41344" lon="4.99167">
        <ele>411.1</ele>
        <time>2023-06-11T09:23:58.000Z</time>
      </trkpt>
      <trkpt lat="45.41343" lon="4.9917">
        <ele>411.2</ele>
        <time>2023-06-11T09:23:59.000Z</time>
      </trkpt>
      <trkpt lat="45.41343" lon="4.99174">
        <ele>411.2</ele>
        <time>2023-06-11T09:24:00.000Z</time>
      </trkpt>
      <trkpt lat="45.41345" lon="4.99179">
        <ele>411.3</ele>
        <time>2023-06-11T09:24:02.000Z</time>
      </trkpt>
      <trkpt lat="45.41346" lon="4.99181">
        <ele>411.3</ele>
        <time>2023-06-11T09:24:03.000Z</time>
      </trkpt>
      <trkpt lat="45.41346" lon="4.99186">
        <ele>411.4</ele>
        <time>2023-06-11T09:24:05.000Z</time>
      </trkpt>
      <trkpt lat="45.41346" lon="4.99189">
        <ele>411.5</ele>
        <time>2023-06-11T09:24:06.000Z</time>
      </trkpt>
      <trkpt lat="45.41347" lon="4.99191">
        <ele>411.5</ele>
        <time>2023-06-11T09:24:07.000Z</time>
      </trkpt>
      <trkpt lat="45.41348" lon="4.99198">
        <ele>411.6</ele>
        <time>2023-06-11T09:24:09.000Z</time>
      </trkpt>
      <trkpt lat="45.41348" lon="4.99202">
        <ele>411.7</ele>
        <time>2023-06-11T09:24:10.000Z</time>
      </trkpt>
      <trkpt lat="45.41346" lon="4.99218">
        <ele>411.9</ele>
        <time>2023-06-11T09:24:14.000Z</time>
      </trkpt>
      <trkpt lat="45.41346" lon="4.99223">
        <ele>412</ele>
        <time>2023-06-11T09:24:15.000Z</time>
      </trkpt>
      <trkpt lat="45.41345" lon="4.99227">
        <ele>412</ele>
        <time>2023-06-11T09:24:16.000Z</time>
      </trkpt>
      <trkpt lat="45.41343" lon="4.99241">
        <ele>412.2</ele>
        <time>2023-06-11T09:24:19.000Z</time>
      </trkpt>
      <trkpt lat="45.41342" lon="4.99246">
        <ele>412.3</ele>
        <time>2023-06-11T09:24:20.000Z</time>
      </trkpt>
      <trkpt lat="45.41335" lon="4.99268">
        <ele>412.7</ele>
        <time>2023-06-11T09:24:25.000Z</time>
      </trkpt>
      <trkpt lat="45.41334" lon="4.99273">
        <ele>412.8</ele>
        <time>2023-06-11T09:24:26.000Z</time>
      </trkpt>
      <trkpt lat="45.41334" lon="4.99278">
        <ele>412.9</ele>
        <time>2023-06-11T09:24:27.000Z</time>
      </trkpt>
      <trkpt lat="45.41333" lon="4.99287">
        <ele>413.1</ele>
        <time>2023-06-11T09:24:29.000Z</time>
      </trkpt>
      <trkpt lat="45.41333" lon="4.99293">
        <ele>413.2</ele>
        <time>2023-06-11T09:24:30.000Z</time>
      </trkpt>
      <trkpt lat="45.41331" lon="4.9931">
        <ele>413.7</ele>
        <time>2023-06-11T09:24:33.000Z</time>
      </trkpt>
      <trkpt lat="45.41327" lon="4.9933">
        <ele>414.2</ele>
        <time>2023-06-11T09:24:38.000Z</time>
      </trkpt>
      <trkpt lat="45.41324" lon="4.99337">
        <ele>414.3</ele>
        <time>2023-06-11T09:24:41.000Z</time>
      </trkpt>
      <trkpt lat="45.41323" lon="4.99345">
        <ele>414.5</ele>
        <time>2023-06-11T09:24:43.000Z</time>
      </trkpt>
      <trkpt lat="45.4132" lon="4.9935">
        <ele>414.5</ele>
        <time>2023-06-11T09:24:45.000Z</time>
      </trkpt>
      <trkpt lat="45.41314" lon="4.99352">
        <ele>414.6</ele>
        <time>2023-06-11T09:24:47.000Z</time>
      </trkpt>
      <trkpt lat="45.41296" lon="4.99366">
        <ele>415</ele>
        <time>2023-06-11T09:24:53.000Z</time>
      </trkpt>
      <trkpt lat="45.41283" lon="4.99384">
        <ele>415.6</ele>
        <time>2023-06-11T09:24:59.000Z</time>
      </trkpt>
      <trkpt lat="45.41268" lon="4.99396">
        <ele>416.1</ele>
        <time>2023-06-11T09:25:05.000Z</time>
      </trkpt>
      <trkpt lat="45.41252" lon="4.99403">
        <ele>416.6</ele>
        <time>2023-06-11T09:25:11.000Z</time>
      </trkpt>
      <trkpt lat="45.41246" lon="4.99413">
        <ele>416.8</ele>
        <time>2023-06-11T09:25:14.000Z</time>
      </trkpt>
      <trkpt lat="45.41241" lon="4.99423">
        <ele>417</ele>
        <time>2023-06-11T09:25:17.000Z</time>
      </trkpt>
      <trkpt lat="45.41235" lon="4.99445">
        <ele>417.3</ele>
        <time>2023-06-11T09:25:23.000Z</time>
      </trkpt>
      <trkpt lat="45.41226" lon="4.9946">
        <ele>417.5</ele>
        <time>2023-06-11T09:25:28.000Z</time>
      </trkpt>
      <trkpt lat="45.41221" lon="4.99477">
        <ele>417.8</ele>
        <time>2023-06-11T09:25:32.000Z</time>
      </trkpt>
      <trkpt lat="45.4122" lon="4.99486">
        <ele>418</ele>
        <time>2023-06-11T09:25:34.000Z</time>
      </trkpt>
      <trkpt lat="45.41216" lon="4.9951">
        <ele>418.9</ele>
        <time>2023-06-11T09:25:41.000Z</time>
      </trkpt>
      <trkpt lat="45.41214" lon="4.99518">
        <ele>419.3</ele>
        <time>2023-06-11T09:25:44.000Z</time>
      </trkpt>
      <trkpt lat="45.41213" lon="4.99522">
        <ele>419.5</ele>
        <time>2023-06-11T09:25:46.000Z</time>
      </trkpt>
      <trkpt lat="45.41211" lon="4.99532">
        <ele>420</ele>
        <time>2023-06-11T09:25:51.000Z</time>
      </trkpt>
      <trkpt lat="45.41211" lon="4.99534">
        <ele>420.1</ele>
        <time>2023-06-11T09:25:52.000Z</time>
      </trkpt>
      <trkpt lat="45.41212" lon="4.99541">
        <ele>420.2</ele>
        <time>2023-06-11T09:25:55.000Z</time>
      </trkpt>
      <trkpt lat="45.41216" lon="4.99551">
        <ele>420.2</ele>
        <time>2023-06-11T09:25:58.000Z</time>
      </trkpt>
      <trkpt lat="45.4122" lon="4.99557">
        <ele>420</ele>
        <time>2023-06-11T09:25:59.000Z</time>
      </trkpt>
      <trkpt lat="45.41227" lon="4.99569">
        <ele>419.6</ele>
        <time>2023-06-11T09:26:01.000Z</time>
      </trkpt>
      <trkpt lat="45.41233" lon="4.99599">
        <ele>419.6</ele>
        <time>2023-06-11T09:26:06.000Z</time>
      </trkpt>
      <trkpt lat="45.41235" lon="4.99619">
        <ele>419.8</ele>
        <time>2023-06-11T09:26:10.000Z</time>
      </trkpt>
      <trkpt lat="45.4124" lon="4.99647">
        <ele>420.3</ele>
        <time>2023-06-11T09:26:16.000Z</time>
      </trkpt>
      <trkpt lat="45.41248" lon="4.99675">
        <ele>421.1</ele>
        <time>2023-06-11T09:26:23.000Z</time>
      </trkpt>
      <trkpt lat="45.41251" lon="4.99707">
        <ele>422</ele>
        <time>2023-06-11T09:26:31.000Z</time>
      </trkpt>
      <trkpt lat="45.41252" lon="4.99714">
        <ele>422.2</ele>
        <time>2023-06-11T09:26:33.000Z</time>
      </trkpt>
      <trkpt lat="45.41252" lon="4.9973">
        <ele>422.5</ele>
        <time>2023-06-11T09:26:38.000Z</time>
      </trkpt>
      <trkpt lat="45.41251" lon="4.99733">
        <ele>422.5</ele>
        <time>2023-06-11T09:26:39.000Z</time>
      </trkpt>
      <trkpt lat="45.41251" lon="4.99753">
        <ele>422.7</ele>
        <time>2023-06-11T09:26:43.000Z</time>
      </trkpt>
      <trkpt lat="45.4125" lon="4.99767">
        <ele>422.7</ele>
        <time>2023-06-11T09:26:46.000Z</time>
      </trkpt>
      <trkpt lat="45.41247" lon="4.99782">
        <ele>422.7</ele>
        <time>2023-06-11T09:26:49.000Z</time>
      </trkpt>
      <trkpt lat="45.41241" lon="4.99808">
        <ele>423.1</ele>
        <time>2023-06-11T09:26:55.000Z</time>
      </trkpt>
      <trkpt lat="45.41234" lon="4.99828">
        <ele>423.7</ele>
        <time>2023-06-11T09:27:00.000Z</time>
      </trkpt>
      <trkpt lat="45.41226" lon="4.99841">
        <ele>424.1</ele>
        <time>2023-06-11T09:27:04.000Z</time>
      </trkpt>
      <trkpt lat="45.41221" lon="4.9985">
        <ele>424.5</ele>
        <time>2023-06-11T09:27:07.000Z</time>
      </trkpt>
      <trkpt lat="45.41208" lon="4.99865">
        <ele>424.9</ele>
        <time>2023-06-11T09:27:12.000Z</time>
      </trkpt>
      <trkpt lat="45.41195" lon="4.99879">
        <ele>425.1</ele>
        <time>2023-06-11T09:27:17.000Z</time>
      </trkpt>
      <trkpt lat="45.41185" lon="4.99903">
        <ele>425.4</ele>
        <time>2023-06-11T09:27:23.000Z</time>
      </trkpt>
      <trkpt lat="45.41182" lon="4.99926">
        <ele>425.7</ele>
        <time>2023-06-11T09:27:28.000Z</time>
      </trkpt>
      <trkpt lat="45.41184" lon="4.99949">
        <ele>426.1</ele>
        <time>2023-06-11T09:27:33.000Z</time>
      </trkpt>
      <trkpt lat="45.41186" lon="4.99969">
        <ele>426.6</ele>
        <time>2023-06-11T09:27:38.000Z</time>
      </trkpt>
      <trkpt lat="45.41186" lon="4.99972">
        <ele>426.7</ele>
        <time>2023-06-11T09:27:39.000Z</time>
      </trkpt>
      <trkpt lat="45.41187" lon="4.99978">
        <ele>426.8</ele>
        <time>2023-06-11T09:27:41.000Z</time>
      </trkpt>
      <trkpt lat="45.4119" lon="4.9999">
        <ele>427.1</ele>
        <time>2023-06-11T09:27:44.000Z</time>
      </trkpt>
      <trkpt lat="45.41195" lon="5.00014">
        <ele>427.5</ele>
        <time>2023-06-11T09:27:48.000Z</time>
      </trkpt>
      <trkpt lat="45.41202" lon="5.00035">
        <ele>427.7</ele>
        <time>2023-06-11T09:27:52.000Z</time>
      </trkpt>
      <trkpt lat="45.41203" lon="5.00038">
        <ele>427.7</ele>
        <time>2023-06-11T09:27:53.000Z</time>
      </trkpt>
      <trkpt lat="45.41209" lon="5.00061">
        <ele>428</ele>
        <time>2023-06-11T09:27:58.000Z</time>
      </trkpt>
      <trkpt lat="45.41213" lon="5.00095">
        <ele>428.5</ele>
        <time>2023-06-11T09:28:05.000Z</time>
      </trkpt>
      <trkpt lat="45.41215" lon="5.00116">
        <ele>428.7</ele>
        <time>2023-06-11T09:28:09.000Z</time>
      </trkpt>
      <trkpt lat="45.41216" lon="5.00124">
        <ele>428.9</ele>
        <time>2023-06-11T09:28:11.000Z</time>
      </trkpt>
      <trkpt lat="45.41216" lon="5.0013">
        <ele>429.1</ele>
        <time>2023-06-11T09:28:13.000Z</time>
      </trkpt>
      <trkpt lat="45.41218" lon="5.00135">
        <ele>429.2</ele>
        <time>2023-06-11T09:28:15.000Z</time>
      </trkpt>
      <trkpt lat="45.41227" lon="5.0015">
        <ele>429.7</ele>
        <time>2023-06-11T09:28:20.000Z</time>
      </trkpt>
      <trkpt lat="45.41228" lon="5.00154">
        <ele>429.8</ele>
        <time>2023-06-11T09:28:21.000Z</time>
      </trkpt>
      <trkpt lat="45.41231" lon="5.00163">
        <ele>430.1</ele>
        <time>2023-06-11T09:28:24.000Z</time>
      </trkpt>
      <trkpt lat="45.41233" lon="5.00177">
        <ele>430.3</ele>
        <time>2023-06-11T09:28:28.000Z</time>
      </trkpt>
      <trkpt lat="45.41234" lon="5.00179">
        <ele>430.4</ele>
        <time>2023-06-11T09:28:29.000Z</time>
      </trkpt>
      <trkpt lat="45.41235" lon="5.00182">
        <ele>430.4</ele>
        <time>2023-06-11T09:28:30.000Z</time>
      </trkpt>
      <trkpt lat="45.41239" lon="5.00196">
        <ele>430.7</ele>
        <time>2023-06-11T09:28:34.000Z</time>
      </trkpt>
      <trkpt lat="45.41236" lon="5.00212">
        <ele>431.1</ele>
        <time>2023-06-11T09:28:38.000Z</time>
      </trkpt>
      <trkpt lat="45.41237" lon="5.00216">
        <ele>431.2</ele>
        <time>2023-06-11T09:28:39.000Z</time>
      </trkpt>
      <trkpt lat="45.41239" lon="5.00221">
        <ele>431.3</ele>
        <time>2023-06-11T09:28:41.000Z</time>
      </trkpt>
      <trkpt lat="45.4124" lon="5.00229">
        <ele>431.5</ele>
        <time>2023-06-11T09:28:43.000Z</time>
      </trkpt>
      <trkpt lat="45.41236" lon="5.00238">
        <ele>431.7</ele>
        <time>2023-06-11T09:28:46.000Z</time>
      </trkpt>
      <trkpt lat="45.41237" lon="5.00245">
        <ele>431.9</ele>
        <time>2023-06-11T09:28:48.000Z</time>
      </trkpt>
      <trkpt lat="45.41238" lon="5.00256">
        <ele>432.1</ele>
        <time>2023-06-11T09:28:50.000Z</time>
      </trkpt>
      <trkpt lat="45.41235" lon="5.00264">
        <ele>432.3</ele>
        <time>2023-06-11T09:28:52.000Z</time>
      </trkpt>
      <trkpt lat="45.41225" lon="5.00285">
        <ele>432.8</ele>
        <time>2023-06-11T09:28:57.000Z</time>
      </trkpt>
      <trkpt lat="45.41225" lon="5.0029">
        <ele>432.9</ele>
        <time>2023-06-11T09:28:58.000Z</time>
      </trkpt>
      <trkpt lat="45.4123" lon="5.00298">
        <ele>433.1</ele>
        <time>2023-06-11T09:29:00.000Z</time>
      </trkpt>
      <trkpt lat="45.41236" lon="5.00313">
        <ele>433.3</ele>
        <time>2023-06-11T09:29:04.000Z</time>
      </trkpt>
      <trkpt lat="45.41234" lon="5.0032">
        <ele>433.4</ele>
        <time>2023-06-11T09:29:05.000Z</time>
      </trkpt>
      <trkpt lat="45.41231" lon="5.00336">
        <ele>433.8</ele>
        <time>2023-06-11T09:29:08.000Z</time>
      </trkpt>
      <trkpt lat="45.4123" lon="5.00343">
        <ele>434</ele>
        <time>2023-06-11T09:29:10.000Z</time>
      </trkpt>
      <trkpt lat="45.4123" lon="5.00347">
        <ele>434.1</ele>
        <time>2023-06-11T09:29:12.000Z</time>
      </trkpt>
      <trkpt lat="45.41231" lon="5.00349">
        <ele>434.1</ele>
        <time>2023-06-11T09:29:13.000Z</time>
      </trkpt>
      <trkpt lat="45.41233" lon="5.00353">
        <ele>434.2</ele>
        <time>2023-06-11T09:29:16.000Z</time>
      </trkpt>
      <trkpt lat="45.41234" lon="5.00356">
        <ele>434.2</ele>
        <time>2023-06-11T09:29:18.000Z</time>
      </trkpt>
      <trkpt lat="45.41235" lon="5.00357">
        <ele>434.2</ele>
        <time>2023-06-11T09:29:19.000Z</time>
      </trkpt>
      <trkpt lat="45.41236" lon="5.00357">
        <ele>434.2</ele>
        <time>2023-06-11T09:29:21.000Z</time>
      </trkpt>
      <trkpt lat="45.41238" lon="5.00355">
        <ele>434.3</ele>
        <time>2023-06-11T09:29:24.000Z</time>
      </trkpt>
      <trkpt lat="45.41242" lon="5.00358">
        <ele>434.3</ele>
        <time>2023-06-11T09:29:26.000Z</time>
      </trkpt>
      <trkpt lat="45.41245" lon="5.00362">
        <ele>434.3</ele>
        <time>2023-06-11T09:29:28.000Z</time>
      </trkpt>
      <trkpt lat="45.4125" lon="5.00363">
        <ele>434.3</ele>
        <time>2023-06-11T09:29:30.000Z</time>
      </trkpt>
      <trkpt lat="45.41254" lon="5.00363">
        <ele>434.4</ele>
        <time>2023-06-11T09:29:32.000Z</time>
      </trkpt>
      <trkpt lat="45.41258" lon="5.00367">
        <ele>434.4</ele>
        <time>2023-06-11T09:29:35.000Z</time>
      </trkpt>
      <trkpt lat="45.41261" lon="5.00377">
        <ele>434.5</ele>
        <time>2023-06-11T09:29:40.000Z</time>
      </trkpt>
      <trkpt lat="45.41266" lon="5.00393">
        <ele>434.5</ele>
        <time>2023-06-11T09:29:45.000Z</time>
      </trkpt>
      <trkpt lat="45.41268" lon="5.0041">
        <ele>434.7</ele>
        <time>2023-06-11T09:29:50.000Z</time>
      </trkpt>
      <trkpt lat="45.4127" lon="5.00434">
        <ele>435.2</ele>
        <time>2023-06-11T09:29:56.000Z</time>
      </trkpt>
      <trkpt lat="45.41269" lon="5.00445">
        <ele>435.5</ele>
        <time>2023-06-11T09:29:59.000Z</time>
      </trkpt>
      <trkpt lat="45.41269" lon="5.00448">
        <ele>435.6</ele>
        <time>2023-06-11T09:30:00.000Z</time>
      </trkpt>
      <trkpt lat="45.41269" lon="5.00451">
        <ele>435.7</ele>
        <time>2023-06-11T09:30:01.000Z</time>
      </trkpt>
      <trkpt lat="45.41267" lon="5.00461">
        <ele>436</ele>
        <time>2023-06-11T09:30:04.000Z</time>
      </trkpt>
      <trkpt lat="45.41264" lon="5.00474">
        <ele>436.6</ele>
        <time>2023-06-11T09:30:07.000Z</time>
      </trkpt>
      <trkpt lat="45.41264" lon="5.00485">
        <ele>437</ele>
        <time>2023-06-11T09:30:10.000Z</time>
      </trkpt>
      <trkpt lat="45.41262" lon="5.00512">
        <ele>438.4</ele>
        <time>2023-06-11T09:30:16.000Z</time>
      </trkpt>
      <trkpt lat="45.4126" lon="5.00519">
        <ele>438.8</ele>
        <time>2023-06-11T09:30:17.000Z</time>
      </trkpt>
      <trkpt lat="45.41261" lon="5.00529">
        <ele>439.2</ele>
        <time>2023-06-11T09:30:19.000Z</time>
      </trkpt>
      <trkpt lat="45.41263" lon="5.00532">
        <ele>439.5</ele>
        <time>2023-06-11T09:30:20.000Z</time>
      </trkpt>
      <trkpt lat="45.41274" lon="5.00541">
        <ele>439.9</ele>
        <time>2023-06-11T09:30:25.000Z</time>
      </trkpt>
      <trkpt lat="45.41277" lon="5.00543">
        <ele>440</ele>
        <time>2023-06-11T09:30:26.000Z</time>
      </trkpt>
      <trkpt lat="45.41286" lon="5.00548">
        <ele>440.3</ele>
        <time>2023-06-11T09:30:29.000Z</time>
      </trkpt>
      <trkpt lat="45.41298" lon="5.00554">
        <ele>440.9</ele>
        <time>2023-06-11T09:30:34.000Z</time>
      </trkpt>
      <trkpt lat="45.41305" lon="5.00558">
        <ele>441.2</ele>
        <time>2023-06-11T09:30:37.000Z</time>
      </trkpt>
      <trkpt lat="45.41306" lon="5.00564">
        <ele>441.4</ele>
        <time>2023-06-11T09:30:39.000Z</time>
      </trkpt>
      <trkpt lat="45.41308" lon="5.0057">
        <ele>441.6</ele>
        <time>2023-06-11T09:30:41.000Z</time>
      </trkpt>
      <trkpt lat="45.4131" lon="5.00573">
        <ele>441.7</ele>
        <time>2023-06-11T09:30:45.000Z</time>
      </trkpt>
      <trkpt lat="45.4131" lon="5.00573">
        <ele>441.7</ele>
        <time>2023-06-11T09:30:47.000Z</time>
      </trkpt>
      <trkpt lat="45.41312" lon="5.00565">
        <ele>442.1</ele>
        <time>2023-06-11T09:31:37.000Z</time>
      </trkpt>
      <trkpt lat="45.41313" lon="5.00562">
        <ele>442.3</ele>
        <time>2023-06-11T09:31:38.000Z</time>
      </trkpt>
      <trkpt lat="45.41314" lon="5.0056">
        <ele>442.4</ele>
        <time>2023-06-11T09:31:39.000Z</time>
      </trkpt>
      <trkpt lat="45.41315" lon="5.00558">
        <ele>442.6</ele>
        <time>2023-06-11T09:31:40.000Z</time>
      </trkpt>
      <trkpt lat="45.41321" lon="5.00558">
        <ele>443.1</ele>
        <time>2023-06-11T09:31:43.000Z</time>
      </trkpt>
      <trkpt lat="45.41327" lon="5.0056">
        <ele>443.6</ele>
        <time>2023-06-11T09:31:46.000Z</time>
      </trkpt>
      <trkpt lat="45.41333" lon="5.00561">
        <ele>444.2</ele>
        <time>2023-06-11T09:31:49.000Z</time>
      </trkpt>
      <trkpt lat="45.41344" lon="5.00568">
        <ele>445.2</ele>
        <time>2023-06-11T09:31:55.000Z</time>
      </trkpt>
      <trkpt lat="45.41349" lon="5.00572">
        <ele>445.8</ele>
        <time>2023-06-11T09:31:58.000Z</time>
      </trkpt>
      <trkpt lat="45.41353" lon="5.00577">
        <ele>446.3</ele>
        <time>2023-06-11T09:32:01.000Z</time>
      </trkpt>
      <trkpt lat="45.41356" lon="5.00581">
        <ele>446.6</ele>
        <time>2023-06-11T09:32:03.000Z</time>
      </trkpt>
      <trkpt lat="45.41358" lon="5.00585">
        <ele>447</ele>
        <time>2023-06-11T09:32:05.000Z</time>
      </trkpt>
      <trkpt lat="45.4136" lon="5.00589">
        <ele>447.2</ele>
        <time>2023-06-11T09:32:07.000Z</time>
      </trkpt>
      <trkpt lat="45.41367" lon="5.00602">
        <ele>448.1</ele>
        <time>2023-06-11T09:32:12.000Z</time>
      </trkpt>
      <trkpt lat="45.41369" lon="5.00609">
        <ele>448.5</ele>
        <time>2023-06-11T09:32:15.000Z</time>
      </trkpt>
      <trkpt lat="45.41372" lon="5.00614">
        <ele>448.8</ele>
        <time>2023-06-11T09:32:17.000Z</time>
      </trkpt>
      <trkpt lat="45.41375" lon="5.00621">
        <ele>449.1</ele>
        <time>2023-06-11T09:32:20.000Z</time>
      </trkpt>
      <trkpt lat="45.41382" lon="5.00634">
        <ele>449.7</ele>
        <time>2023-06-11T09:32:25.000Z</time>
      </trkpt>
      <trkpt lat="45.41395" lon="5.00654">
        <ele>450.5</ele>
        <time>2023-06-11T09:32:33.000Z</time>
      </trkpt>
      <trkpt lat="45.41406" lon="5.00671">
        <ele>450.9</ele>
        <time>2023-06-11T09:32:39.000Z</time>
      </trkpt>
      <trkpt lat="45.4141" lon="5.00677">
        <ele>451.1</ele>
        <time>2023-06-11T09:32:41.000Z</time>
      </trkpt>
      <trkpt lat="45.41432" lon="5.00704">
        <ele>451.3</ele>
        <time>2023-06-11T09:32:50.000Z</time>
      </trkpt>
      <trkpt lat="45.41452" lon="5.00725">
        <ele>451.4</ele>
        <time>2023-06-11T09:32:57.000Z</time>
      </trkpt>
      <trkpt lat="45.41457" lon="5.00732">
        <ele>451.5</ele>
        <time>2023-06-11T09:32:59.000Z</time>
      </trkpt>
      <trkpt lat="45.41473" lon="5.00747">
        <ele>451.8</ele>
        <time>2023-06-11T09:33:05.000Z</time>
      </trkpt>
      <trkpt lat="45.41487" lon="5.00764">
        <ele>451.4</ele>
        <time>2023-06-11T09:33:10.000Z</time>
      </trkpt>
      <trkpt lat="45.41504" lon="5.00782">
        <ele>451.1</ele>
        <time>2023-06-11T09:33:15.000Z</time>
      </trkpt>
      <trkpt lat="45.41508" lon="5.00784">
        <ele>451</ele>
        <time>2023-06-11T09:33:16.000Z</time>
      </trkpt>
      <trkpt lat="45.41521" lon="5.00787">
        <ele>450.9</ele>
        <time>2023-06-11T09:33:19.000Z</time>
      </trkpt>
      <trkpt lat="45.41526" lon="5.00787">
        <ele>450.9</ele>
        <time>2023-06-11T09:33:20.000Z</time>
      </trkpt>
      <trkpt lat="45.41539" lon="5.00786">
        <ele>450.8</ele>
        <time>2023-06-11T09:33:23.000Z</time>
      </trkpt>
      <trkpt lat="45.41543" lon="5.00787">
        <ele>450.7</ele>
        <time>2023-06-11T09:33:24.000Z</time>
      </trkpt>
      <trkpt lat="45.41562" lon="5.00793">
        <ele>450.5</ele>
        <time>2023-06-11T09:33:28.000Z</time>
      </trkpt>
      <trkpt lat="45.41577" lon="5.00796">
        <ele>450.3</ele>
        <time>2023-06-11T09:33:31.000Z</time>
      </trkpt>
      <trkpt lat="45.41612" lon="5.0081">
        <ele>449.9</ele>
        <time>2023-06-11T09:33:38.000Z</time>
      </trkpt>
      <trkpt lat="45.4164" lon="5.0083">
        <ele>449.5</ele>
        <time>2023-06-11T09:33:44.000Z</time>
      </trkpt>
      <trkpt lat="45.41654" lon="5.0084">
        <ele>449.4</ele>
        <time>2023-06-11T09:33:47.000Z</time>
      </trkpt>
      <trkpt lat="45.41659" lon="5.00842">
        <ele>449.4</ele>
        <time>2023-06-11T09:33:48.000Z</time>
      </trkpt>
      <trkpt lat="45.41669" lon="5.00845">
        <ele>449.4</ele>
        <time>2023-06-11T09:33:50.000Z</time>
      </trkpt>
      <trkpt lat="45.41678" lon="5.0085">
        <ele>449.5</ele>
        <time>2023-06-11T09:33:52.000Z</time>
      </trkpt>
      <trkpt lat="45.41682" lon="5.00854">
        <ele>449.5</ele>
        <time>2023-06-11T09:33:53.000Z</time>
      </trkpt>
      <trkpt lat="45.41705" lon="5.00867">
        <ele>449.2</ele>
        <time>2023-06-11T09:33:58.000Z</time>
      </trkpt>
      <trkpt lat="45.4171" lon="5.00868">
        <ele>449.2</ele>
        <time>2023-06-11T09:33:59.000Z</time>
      </trkpt>
      <trkpt lat="45.41735" lon="5.00874">
        <ele>448.9</ele>
        <time>2023-06-11T09:34:04.000Z</time>
      </trkpt>
      <trkpt lat="45.41746" lon="5.00875">
        <ele>448.7</ele>
        <time>2023-06-11T09:34:06.000Z</time>
      </trkpt>
      <trkpt lat="45.41757" lon="5.00876">
        <ele>448.6</ele>
        <time>2023-06-11T09:34:08.000Z</time>
      </trkpt>
      <trkpt lat="45.41764" lon="5.00876">
        <ele>448.5</ele>
        <time>2023-06-11T09:34:10.000Z</time>
      </trkpt>
      <trkpt lat="45.41773" lon="5.00877">
        <ele>448.4</ele>
        <time>2023-06-11T09:34:14.000Z</time>
      </trkpt>
      <trkpt lat="45.4178" lon="5.00879">
        <ele>448.5</ele>
        <time>2023-06-11T09:34:18.000Z</time>
      </trkpt>
      <trkpt lat="45.41784" lon="5.00881">
        <ele>448.5</ele>
        <time>2023-06-11T09:34:20.000Z</time>
      </trkpt>
      <trkpt lat="45.41796" lon="5.00885">
        <ele>448.5</ele>
        <time>2023-06-11T09:34:24.000Z</time>
      </trkpt>
      <trkpt lat="45.41811" lon="5.00889">
        <ele>448.6</ele>
        <time>2023-06-11T09:34:28.000Z</time>
      </trkpt>
      <trkpt lat="45.4182" lon="5.00894">
        <ele>448.8</ele>
        <time>2023-06-11T09:34:30.000Z</time>
      </trkpt>
      <trkpt lat="45.41841" lon="5.00904">
        <ele>449.2</ele>
        <time>2023-06-11T09:34:35.000Z</time>
      </trkpt>
      <trkpt lat="45.41845" lon="5.00906">
        <ele>449.3</ele>
        <time>2023-06-11T09:34:36.000Z</time>
      </trkpt>
      <trkpt lat="45.41861" lon="5.00912">
        <ele>449.5</ele>
        <time>2023-06-11T09:34:40.000Z</time>
      </trkpt>
      <trkpt lat="45.41872" lon="5.00918">
        <ele>449.8</ele>
        <time>2023-06-11T09:34:43.000Z</time>
      </trkpt>
      <trkpt lat="45.41883" lon="5.00925">
        <ele>450.1</ele>
        <time>2023-06-11T09:34:46.000Z</time>
      </trkpt>
      <trkpt lat="45.41894" lon="5.00932">
        <ele>450.4</ele>
        <time>2023-06-11T09:34:49.000Z</time>
      </trkpt>
      <trkpt lat="45.41917" lon="5.00945">
        <ele>450.8</ele>
        <time>2023-06-11T09:34:55.000Z</time>
      </trkpt>
      <trkpt lat="45.41927" lon="5.00937">
        <ele>450.6</ele>
        <time>2023-06-11T09:34:58.000Z</time>
      </trkpt>
      <trkpt lat="45.41946" lon="5.00918">
        <ele>450.5</ele>
        <time>2023-06-11T09:35:03.000Z</time>
      </trkpt>
      <trkpt lat="45.41951" lon="5.00916">
        <ele>450.6</ele>
        <time>2023-06-11T09:35:04.000Z</time>
      </trkpt>
      <trkpt lat="45.41973" lon="5.00907">
        <ele>450.8</ele>
        <time>2023-06-11T09:35:09.000Z</time>
      </trkpt>
      <trkpt lat="45.41988" lon="5.00899">
        <ele>451.1</ele>
        <time>2023-06-11T09:35:13.000Z</time>
      </trkpt>
      <trkpt lat="45.41995" lon="5.00895">
        <ele>451.2</ele>
        <time>2023-06-11T09:35:15.000Z</time>
      </trkpt>
      <trkpt lat="45.42035" lon="5.00875">
        <ele>450.6</ele>
        <time>2023-06-11T09:35:25.000Z</time>
      </trkpt>
      <trkpt lat="45.42039" lon="5.00872">
        <ele>450.5</ele>
        <time>2023-06-11T09:35:26.000Z</time>
      </trkpt>
      <trkpt lat="45.42078" lon="5.00852">
        <ele>447.7</ele>
        <time>2023-06-11T09:35:34.000Z</time>
      </trkpt>
      <trkpt lat="45.42116" lon="5.00831">
        <ele>444.6</ele>
        <time>2023-06-11T09:35:40.000Z</time>
      </trkpt>
      <trkpt lat="45.42149" lon="5.00808">
        <ele>441.5</ele>
        <time>2023-06-11T09:35:45.000Z</time>
      </trkpt>
      <trkpt lat="45.42176" lon="5.00782">
        <ele>439</ele>
        <time>2023-06-11T09:35:49.000Z</time>
      </trkpt>
      <trkpt lat="45.4219" lon="5.00772">
        <ele>438.1</ele>
        <time>2023-06-11T09:35:51.000Z</time>
      </trkpt>
      <trkpt lat="45.42204" lon="5.00763">
        <ele>437.2</ele>
        <time>2023-06-11T09:35:53.000Z</time>
      </trkpt>
      <trkpt lat="45.42219" lon="5.00757">
        <ele>436.3</ele>
        <time>2023-06-11T09:35:55.000Z</time>
      </trkpt>
      <trkpt lat="45.42225" lon="5.00754">
        <ele>435.8</ele>
        <time>2023-06-11T09:35:56.000Z</time>
      </trkpt>
      <trkpt lat="45.42239" lon="5.00748">
        <ele>434.9</ele>
        <time>2023-06-11T09:35:58.000Z</time>
      </trkpt>
      <trkpt lat="45.42259" lon="5.00739">
        <ele>433.4</ele>
        <time>2023-06-11T09:36:01.000Z</time>
      </trkpt>
      <trkpt lat="45.42273" lon="5.00733">
        <ele>432.3</ele>
        <time>2023-06-11T09:36:03.000Z</time>
      </trkpt>
      <trkpt lat="45.4228" lon="5.00728">
        <ele>431.6</ele>
        <time>2023-06-11T09:36:04.000Z</time>
      </trkpt>
      <trkpt lat="45.42287" lon="5.00723">
        <ele>430.7</ele>
        <time>2023-06-11T09:36:05.000Z</time>
      </trkpt>
      <trkpt lat="45.42299" lon="5.00709">
        <ele>428.9</ele>
        <time>2023-06-11T09:36:07.000Z</time>
      </trkpt>
      <trkpt lat="45.42319" lon="5.00687">
        <ele>425.9</ele>
        <time>2023-06-11T09:36:10.000Z</time>
      </trkpt>
      <trkpt lat="45.42334" lon="5.00673">
        <ele>423.7</ele>
        <time>2023-06-11T09:36:12.000Z</time>
      </trkpt>
      <trkpt lat="45.4235" lon="5.0066">
        <ele>421.8</ele>
        <time>2023-06-11T09:36:14.000Z</time>
      </trkpt>
      <trkpt lat="45.42357" lon="5.00653">
        <ele>421</ele>
        <time>2023-06-11T09:36:15.000Z</time>
      </trkpt>
      <trkpt lat="45.42369" lon="5.00638">
        <ele>419.6</ele>
        <time>2023-06-11T09:36:17.000Z</time>
      </trkpt>
      <trkpt lat="45.42378" lon="5.00619">
        <ele>418.2</ele>
        <time>2023-06-11T09:36:19.000Z</time>
      </trkpt>
      <trkpt lat="45.4238" lon="5.00609">
        <ele>417.5</ele>
        <time>2023-06-11T09:36:20.000Z</time>
      </trkpt>
      <trkpt lat="45.42379" lon="5.00599">
        <ele>416.9</ele>
        <time>2023-06-11T09:36:21.000Z</time>
      </trkpt>
      <trkpt lat="45.42378" lon="5.0059">
        <ele>416.2</ele>
        <time>2023-06-11T09:36:22.000Z</time>
      </trkpt>
      <trkpt lat="45.42376" lon="5.00581">
        <ele>415.6</ele>
        <time>2023-06-11T09:36:23.000Z</time>
      </trkpt>
      <trkpt lat="45.42372" lon="5.00566">
        <ele>414.6</ele>
        <time>2023-06-11T09:36:25.000Z</time>
      </trkpt>
      <trkpt lat="45.42373" lon="5.0056">
        <ele>414.2</ele>
        <time>2023-06-11T09:36:26.000Z</time>
      </trkpt>
      <trkpt lat="45.42375" lon="5.00554">
        <ele>413.8</ele>
        <time>2023-06-11T09:36:27.000Z</time>
      </trkpt>
      <trkpt lat="45.42384" lon="5.00544">
        <ele>412.9</ele>
        <time>2023-06-11T09:36:29.000Z</time>
      </trkpt>
      <trkpt lat="45.42403" lon="5.0053">
        <ele>411.4</ele>
        <time>2023-06-11T09:36:32.000Z</time>
      </trkpt>
      <trkpt lat="45.42409" lon="5.00526">
        <ele>410.8</ele>
        <time>2023-06-11T09:36:33.000Z</time>
      </trkpt>
      <trkpt lat="45.42415" lon="5.00522">
        <ele>410.2</ele>
        <time>2023-06-11T09:36:34.000Z</time>
      </trkpt>
      <trkpt lat="45.42421" lon="5.00518">
        <ele>409.4</ele>
        <time>2023-06-11T09:36:35.000Z</time>
      </trkpt>
      <trkpt lat="45.42435" lon="5.00508">
        <ele>407.8</ele>
        <time>2023-06-11T09:36:37.000Z</time>
      </trkpt>
      <trkpt lat="45.42454" lon="5.00495">
        <ele>405.5</ele>
        <time>2023-06-11T09:36:40.000Z</time>
      </trkpt>
      <trkpt lat="45.42479" lon="5.00484">
        <ele>402.3</ele>
        <time>2023-06-11T09:36:44.000Z</time>
      </trkpt>
      <trkpt lat="45.42488" lon="5.00482">
        <ele>401.4</ele>
        <time>2023-06-11T09:36:45.000Z</time>
      </trkpt>
      <trkpt lat="45.42496" lon="5.00482">
        <ele>400.4</ele>
        <time>2023-06-11T09:36:46.000Z</time>
      </trkpt>
      <trkpt lat="45.42513" lon="5.0048">
        <ele>398.3</ele>
        <time>2023-06-11T09:36:48.000Z</time>
      </trkpt>
      <trkpt lat="45.42533" lon="5.00478">
        <ele>396.3</ele>
        <time>2023-06-11T09:36:50.000Z</time>
      </trkpt>
      <trkpt lat="45.42563" lon="5.00474">
        <ele>393.7</ele>
        <time>2023-06-11T09:36:53.000Z</time>
      </trkpt>
      <trkpt lat="45.42581" lon="5.00471">
        <ele>392.5</ele>
        <time>2023-06-11T09:36:55.000Z</time>
      </trkpt>
      <trkpt lat="45.4259" lon="5.00473">
        <ele>392.2</ele>
        <time>2023-06-11T09:36:56.000Z</time>
      </trkpt>
      <trkpt lat="45.42597" lon="5.00477">
        <ele>392</ele>
        <time>2023-06-11T09:36:57.000Z</time>
      </trkpt>
      <trkpt lat="45.426" lon="5.00481">
        <ele>391.9</ele>
        <time>2023-06-11T09:36:58.000Z</time>
      </trkpt>
      <trkpt lat="45.42605" lon="5.00489">
        <ele>391.8</ele>
        <time>2023-06-11T09:36:59.000Z</time>
      </trkpt>
      <trkpt lat="45.42611" lon="5.00506">
        <ele>392</ele>
        <time>2023-06-11T09:37:01.000Z</time>
      </trkpt>
      <trkpt lat="45.42612" lon="5.00514">
        <ele>392.2</ele>
        <time>2023-06-11T09:37:02.000Z</time>
      </trkpt>
      <trkpt lat="45.42614" lon="5.00521">
        <ele>392.4</ele>
        <time>2023-06-11T09:37:03.000Z</time>
      </trkpt>
      <trkpt lat="45.42616" lon="5.00527">
        <ele>392.6</ele>
        <time>2023-06-11T09:37:04.000Z</time>
      </trkpt>
      <trkpt lat="45.42618" lon="5.00534">
        <ele>392.8</ele>
        <time>2023-06-11T09:37:05.000Z</time>
      </trkpt>
      <trkpt lat="45.42624" lon="5.00542">
        <ele>393.1</ele>
        <time>2023-06-11T09:37:07.000Z</time>
      </trkpt>
      <trkpt lat="45.42627" lon="5.00543">
        <ele>393.2</ele>
        <time>2023-06-11T09:37:08.000Z</time>
      </trkpt>
      <trkpt lat="45.42642" lon="5.00538">
        <ele>393.8</ele>
        <time>2023-06-11T09:37:12.000Z</time>
      </trkpt>
      <trkpt lat="45.42657" lon="5.00527">
        <ele>394.8</ele>
        <time>2023-06-11T09:37:17.000Z</time>
      </trkpt>
      <trkpt lat="45.42665" lon="5.00517">
        <ele>395.6</ele>
        <time>2023-06-11T09:37:21.000Z</time>
      </trkpt>
      <trkpt lat="45.42668" lon="5.00512">
        <ele>396.1</ele>
        <time>2023-06-11T09:37:23.000Z</time>
      </trkpt>
      <trkpt lat="45.42675" lon="5.00502">
        <ele>397</ele>
        <time>2023-06-11T09:37:28.000Z</time>
      </trkpt>
      <trkpt lat="45.42677" lon="5.00499">
        <ele>397.2</ele>
        <time>2023-06-11T09:37:29.000Z</time>
      </trkpt>
      <trkpt lat="45.42683" lon="5.00491">
        <ele>398</ele>
        <time>2023-06-11T09:37:33.000Z</time>
      </trkpt>
      <trkpt lat="45.42688" lon="5.00484">
        <ele>398.7</ele>
        <time>2023-06-11T09:37:36.000Z</time>
      </trkpt>
      <trkpt lat="45.42692" lon="5.00478">
        <ele>399.2</ele>
        <time>2023-06-11T09:37:39.000Z</time>
      </trkpt>
      <trkpt lat="45.42694" lon="5.00475">
        <ele>399.5</ele>
        <time>2023-06-11T09:37:40.000Z</time>
      </trkpt>
      <trkpt lat="45.42702" lon="5.00466">
        <ele>400.6</ele>
        <time>2023-06-11T09:37:45.000Z</time>
      </trkpt>
      <trkpt lat="45.42704" lon="5.00464">
        <ele>400.9</ele>
        <time>2023-06-11T09:37:46.000Z</time>
      </trkpt>
      <trkpt lat="45.42709" lon="5.00458">
        <ele>401.7</ele>
        <time>2023-06-11T09:37:50.000Z</time>
      </trkpt>
      <trkpt lat="45.4271" lon="5.00455">
        <ele>401.9</ele>
        <time>2023-06-11T09:37:51.000Z</time>
      </trkpt>
      <trkpt lat="45.42716" lon="5.0045">
        <ele>402.6</ele>
        <time>2023-06-11T09:37:55.000Z</time>
      </trkpt>
      <trkpt lat="45.42718" lon="5.00449">
        <ele>402.8</ele>
        <time>2023-06-11T09:37:56.000Z</time>
      </trkpt>
      <trkpt lat="45.42724" lon="5.00441">
        <ele>403.6</ele>
        <time>2023-06-11T09:38:01.000Z</time>
      </trkpt>
      <trkpt lat="45.42725" lon="5.0044">
        <ele>403.8</ele>
        <time>2023-06-11T09:38:02.000Z</time>
      </trkpt>
      <trkpt lat="45.42733" lon="5.00433">
        <ele>404.5</ele>
        <time>2023-06-11T09:38:07.000Z</time>
      </trkpt>
      <trkpt lat="45.42741" lon="5.00427">
        <ele>405.2</ele>
        <time>2023-06-11T09:38:11.000Z</time>
      </trkpt>
      <trkpt lat="45.42748" lon="5.00422">
        <ele>405.8</ele>
        <time>2023-06-11T09:38:15.000Z</time>
      </trkpt>
      <trkpt lat="45.42756" lon="5.00417">
        <ele>406.6</ele>
        <time>2023-06-11T09:38:19.000Z</time>
      </trkpt>
      <trkpt lat="45.42763" lon="5.00414">
        <ele>407.3</ele>
        <time>2023-06-11T09:38:22.000Z</time>
      </trkpt>
      <trkpt lat="45.42771" lon="5.00411">
        <ele>408.1</ele>
        <time>2023-06-11T09:38:27.000Z</time>
      </trkpt>
      <trkpt lat="45.42778" lon="5.00407">
        <ele>408.9</ele>
        <time>2023-06-11T09:38:32.000Z</time>
      </trkpt>
      <trkpt lat="45.42782" lon="5.00405">
        <ele>409.4</ele>
        <time>2023-06-11T09:38:35.000Z</time>
      </trkpt>
      <trkpt lat="45.42787" lon="5.00402">
        <ele>410</ele>
        <time>2023-06-11T09:38:39.000Z</time>
      </trkpt>
      <trkpt lat="45.4279" lon="5.004">
        <ele>410.3</ele>
        <time>2023-06-11T09:38:41.000Z</time>
      </trkpt>
      <trkpt lat="45.42796" lon="5.00399">
        <ele>410.9</ele>
        <time>2023-06-11T09:38:44.000Z</time>
      </trkpt>
      <trkpt lat="45.42805" lon="5.00395">
        <ele>412.1</ele>
        <time>2023-06-11T09:38:49.000Z</time>
      </trkpt>
      <trkpt lat="45.42809" lon="5.00393">
        <ele>412.5</ele>
        <time>2023-06-11T09:38:51.000Z</time>
      </trkpt>
      <trkpt lat="45.42816" lon="5.00393">
        <ele>413.1</ele>
        <time>2023-06-11T09:38:54.000Z</time>
      </trkpt>
      <trkpt lat="45.42828" lon="5.00392">
        <ele>414.5</ele>
        <time>2023-06-11T09:39:00.000Z</time>
      </trkpt>
      <trkpt lat="45.4283" lon="5.00392">
        <ele>414.7</ele>
        <time>2023-06-11T09:39:01.000Z</time>
      </trkpt>
      <trkpt lat="45.42844" lon="5.00394">
        <ele>416.1</ele>
        <time>2023-06-11T09:39:08.000Z</time>
      </trkpt>
      <trkpt lat="45.42847" lon="5.00394">
        <ele>416.5</ele>
        <time>2023-06-11T09:39:10.000Z</time>
      </trkpt>
      <trkpt lat="45.42859" lon="5.00394">
        <ele>417.8</ele>
        <time>2023-06-11T09:39:17.000Z</time>
      </trkpt>
      <trkpt lat="45.42863" lon="5.00395">
        <ele>418.2</ele>
        <time>2023-06-11T09:39:19.000Z</time>
      </trkpt>
      <trkpt lat="45.4287" lon="5.00394">
        <ele>419</ele>
        <time>2023-06-11T09:39:23.000Z</time>
      </trkpt>
      <trkpt lat="45.42874" lon="5.00394">
        <ele>419.4</ele>
        <time>2023-06-11T09:39:25.000Z</time>
      </trkpt>
      <trkpt lat="45.42884" lon="5.00394">
        <ele>420.4</ele>
        <time>2023-06-11T09:39:30.000Z</time>
      </trkpt>
      <trkpt lat="45.42887" lon="5.00394">
        <ele>420.6</ele>
        <time>2023-06-11T09:39:31.000Z</time>
      </trkpt>
      <trkpt lat="45.42899" lon="5.00395">
        <ele>421.7</ele>
        <time>2023-06-11T09:39:37.000Z</time>
      </trkpt>
      <trkpt lat="45.42903" lon="5.00396">
        <ele>422.1</ele>
        <time>2023-06-11T09:39:39.000Z</time>
      </trkpt>
      <trkpt lat="45.4292" lon="5.00397">
        <ele>423.7</ele>
        <time>2023-06-11T09:39:47.000Z</time>
      </trkpt>
      <trkpt lat="45.42935" lon="5.00401">
        <ele>424.9</ele>
        <time>2023-06-11T09:39:54.000Z</time>
      </trkpt>
      <trkpt lat="45.42937" lon="5.00402">
        <ele>425.1</ele>
        <time>2023-06-11T09:39:55.000Z</time>
      </trkpt>
      <trkpt lat="45.42944" lon="5.00414">
        <ele>426.2</ele>
        <time>2023-06-11T09:40:01.000Z</time>
      </trkpt>
      <trkpt lat="45.42944" lon="5.00418">
        <ele>426.5</ele>
        <time>2023-06-11T09:40:03.000Z</time>
      </trkpt>
      <trkpt lat="45.42946" lon="5.00431">
        <ele>427.4</ele>
        <time>2023-06-11T09:40:09.000Z</time>
      </trkpt>
      <trkpt lat="45.42946" lon="5.00433">
        <ele>427.6</ele>
        <time>2023-06-11T09:40:10.000Z</time>
      </trkpt>
      <trkpt lat="45.42948" lon="5.00444">
        <ele>428.4</ele>
        <time>2023-06-11T09:40:15.000Z</time>
      </trkpt>
      <trkpt lat="45.4295" lon="5.0045">
        <ele>428.8</ele>
        <time>2023-06-11T09:40:18.000Z</time>
      </trkpt>
      <trkpt lat="45.42953" lon="5.00456">
        <ele>429.4</ele>
        <time>2023-06-11T09:40:21.000Z</time>
      </trkpt>
      <trkpt lat="45.42965" lon="5.00463">
        <ele>430.1</ele>
        <time>2023-06-11T09:40:27.000Z</time>
      </trkpt>
      <trkpt lat="45.42967" lon="5.00463">
        <ele>430</ele>
        <time>2023-06-11T09:40:28.000Z</time>
      </trkpt>
      <trkpt lat="45.42984" lon="5.00457">
        <ele>429.6</ele>
        <time>2023-06-11T09:40:34.000Z</time>
      </trkpt>
      <trkpt lat="45.43012" lon="5.00446">
        <ele>428.9</ele>
        <time>2023-06-11T09:40:41.000Z</time>
      </trkpt>
      <trkpt lat="45.43051" lon="5.0043">
        <ele>428.2</ele>
        <time>2023-06-11T09:40:49.000Z</time>
      </trkpt>
      <trkpt lat="45.43083" lon="5.00417">
        <ele>427.6</ele>
        <time>2023-06-11T09:40:55.000Z</time>
      </trkpt>
      <trkpt lat="45.43098" lon="5.00411">
        <ele>427.3</ele>
        <time>2023-06-11T09:40:58.000Z</time>
      </trkpt>
      <trkpt lat="45.43104" lon="5.00409">
        <ele>427.2</ele>
        <time>2023-06-11T09:40:59.000Z</time>
      </trkpt>
      <trkpt lat="45.43131" lon="5.00398">
        <ele>426.1</ele>
        <time>2023-06-11T09:41:04.000Z</time>
      </trkpt>
      <trkpt lat="45.43156" lon="5.00389">
        <ele>425.5</ele>
        <time>2023-06-11T09:41:08.000Z</time>
      </trkpt>
      <trkpt lat="45.43169" lon="5.00384">
        <ele>425.3</ele>
        <time>2023-06-11T09:41:10.000Z</time>
      </trkpt>
      <trkpt lat="45.43191" lon="5.0037">
        <ele>425.2</ele>
        <time>2023-06-11T09:41:14.000Z</time>
      </trkpt>
      <trkpt lat="45.43197" lon="5.00366">
        <ele>425.2</ele>
        <time>2023-06-11T09:41:15.000Z</time>
      </trkpt>
      <trkpt lat="45.43212" lon="5.00352">
        <ele>425.2</ele>
        <time>2023-06-11T09:41:18.000Z</time>
      </trkpt>
      <trkpt lat="45.43228" lon="5.0034">
        <ele>425.2</ele>
        <time>2023-06-11T09:41:21.000Z</time>
      </trkpt>
      <trkpt lat="45.43255" lon="5.00322">
        <ele>425.6</ele>
        <time>2023-06-11T09:41:26.000Z</time>
      </trkpt>
      <trkpt lat="45.43275" lon="5.0031">
        <ele>426.2</ele>
        <time>2023-06-11T09:41:30.000Z</time>
      </trkpt>
      <trkpt lat="45.43299" lon="5.00297">
        <ele>426.8</ele>
        <time>2023-06-11T09:41:36.000Z</time>
      </trkpt>
      <trkpt lat="45.43336" lon="5.00279">
        <ele>427.4</ele>
        <time>2023-06-11T09:41:44.000Z</time>
      </trkpt>
      <trkpt lat="45.43345" lon="5.00275">
        <ele>427.7</ele>
        <time>2023-06-11T09:41:46.000Z</time>
      </trkpt>
      <trkpt lat="45.43371" lon="5.00261">
        <ele>428.6</ele>
        <time>2023-06-11T09:41:53.000Z</time>
      </trkpt>
      <trkpt lat="45.43399" lon="5.00238">
        <ele>428.4</ele>
        <time>2023-06-11T09:42:01.000Z</time>
      </trkpt>
      <trkpt lat="45.43402" lon="5.00234">
        <ele>428.3</ele>
        <time>2023-06-11T09:42:02.000Z</time>
      </trkpt>
      <trkpt lat="45.43422" lon="5.00208">
        <ele>426.4</ele>
        <time>2023-06-11T09:42:08.000Z</time>
      </trkpt>
      <trkpt lat="45.43443" lon="5.00174">
        <ele>423.9</ele>
        <time>2023-06-11T09:42:13.000Z</time>
      </trkpt>
      <trkpt lat="45.43472" lon="5.00132">
        <ele>421.3</ele>
        <time>2023-06-11T09:42:18.000Z</time>
      </trkpt>
      <trkpt lat="45.43497" lon="5.00097">
        <ele>420.4</ele>
        <time>2023-06-11T09:42:22.000Z</time>
      </trkpt>
      <trkpt lat="45.4351" lon="5.0008">
        <ele>420</ele>
        <time>2023-06-11T09:42:24.000Z</time>
      </trkpt>
      <trkpt lat="45.43522" lon="5.00064">
        <ele>419.7</ele>
        <time>2023-06-11T09:42:26.000Z</time>
      </trkpt>
      <trkpt lat="45.43534" lon="5.00049">
        <ele>419.5</ele>
        <time>2023-06-11T09:42:28.000Z</time>
      </trkpt>
      <trkpt lat="45.43551" lon="5.00027">
        <ele>419.1</ele>
        <time>2023-06-11T09:42:31.000Z</time>
      </trkpt>
      <trkpt lat="45.43561" lon="5.00013">
        <ele>418.8</ele>
        <time>2023-06-11T09:42:33.000Z</time>
      </trkpt>
      <trkpt lat="45.43566" lon="5.00005">
        <ele>418.6</ele>
        <time>2023-06-11T09:42:34.000Z</time>
      </trkpt>
      <trkpt lat="45.43594" lon="4.99962">
        <ele>417.8</ele>
        <time>2023-06-11T09:42:40.000Z</time>
      </trkpt>
      <trkpt lat="45.43599" lon="4.99955">
        <ele>417.6</ele>
        <time>2023-06-11T09:42:41.000Z</time>
      </trkpt>
      <trkpt lat="45.43637" lon="4.99916">
        <ele>415.8</ele>
        <time>2023-06-11T09:42:48.000Z</time>
      </trkpt>
      <trkpt lat="45.43663" lon="4.99903">
        <ele>414.1</ele>
        <time>2023-06-11T09:42:52.000Z</time>
      </trkpt>
      <trkpt lat="45.4367" lon="4.99904">
        <ele>413.4</ele>
        <time>2023-06-11T09:42:53.000Z</time>
      </trkpt>
      <trkpt lat="45.43677" lon="4.99908">
        <ele>412.8</ele>
        <time>2023-06-11T09:42:54.000Z</time>
      </trkpt>
      <trkpt lat="45.43682" lon="4.99916">
        <ele>412.1</ele>
        <time>2023-06-11T09:42:55.000Z</time>
      </trkpt>
      <trkpt lat="45.43686" lon="4.99924">
        <ele>411.3</ele>
        <time>2023-06-11T09:42:56.000Z</time>
      </trkpt>
      <trkpt lat="45.4369" lon="4.99935">
        <ele>410.5</ele>
        <time>2023-06-11T09:42:57.000Z</time>
      </trkpt>
      <trkpt lat="45.43692" lon="4.99945">
        <ele>409.6</ele>
        <time>2023-06-11T09:42:58.000Z</time>
      </trkpt>
      <trkpt lat="45.43696" lon="4.99955">
        <ele>408.8</ele>
        <time>2023-06-11T09:42:59.000Z</time>
      </trkpt>
      <trkpt lat="45.43706" lon="4.99967">
        <ele>407.5</ele>
        <time>2023-06-11T09:43:01.000Z</time>
      </trkpt>
      <trkpt lat="45.43712" lon="4.99969">
        <ele>406.8</ele>
        <time>2023-06-11T09:43:02.000Z</time>
      </trkpt>
      <trkpt lat="45.43727" lon="4.99971">
        <ele>405.3</ele>
        <time>2023-06-11T09:43:04.000Z</time>
      </trkpt>
      <trkpt lat="45.43735" lon="4.99973">
        <ele>404.4</ele>
        <time>2023-06-11T09:43:05.000Z</time>
      </trkpt>
      <trkpt lat="45.43759" lon="4.99983">
        <ele>401.4</ele>
        <time>2023-06-11T09:43:08.000Z</time>
      </trkpt>
      <trkpt lat="45.43768" lon="4.99988">
        <ele>400.5</ele>
        <time>2023-06-11T09:43:09.000Z</time>
      </trkpt>
      <trkpt lat="45.43777" lon="4.99991">
        <ele>399.6</ele>
        <time>2023-06-11T09:43:10.000Z</time>
      </trkpt>
      <trkpt lat="45.43793" lon="4.99991">
        <ele>398.1</ele>
        <time>2023-06-11T09:43:12.000Z</time>
      </trkpt>
      <trkpt lat="45.43809" lon="4.99981">
        <ele>396.3</ele>
        <time>2023-06-11T09:43:14.000Z</time>
      </trkpt>
      <trkpt lat="45.43815" lon="4.99978">
        <ele>395.6</ele>
        <time>2023-06-11T09:43:15.000Z</time>
      </trkpt>
      <trkpt lat="45.43824" lon="4.99975">
        <ele>394.6</ele>
        <time>2023-06-11T09:43:16.000Z</time>
      </trkpt>
      <trkpt lat="45.43843" lon="4.9997">
        <ele>393.7</ele>
        <time>2023-06-11T09:43:18.000Z</time>
      </trkpt>
      <trkpt lat="45.43853" lon="4.99969">
        <ele>393.1</ele>
        <time>2023-06-11T09:43:19.000Z</time>
      </trkpt>
      <trkpt lat="45.4386" lon="4.99968">
        <ele>392.6</ele>
        <time>2023-06-11T09:43:20.000Z</time>
      </trkpt>
      <trkpt lat="45.43869" lon="4.99967">
        <ele>392.1</ele>
        <time>2023-06-11T09:43:21.000Z</time>
      </trkpt>
      <trkpt lat="45.43878" lon="4.99963">
        <ele>391.5</ele>
        <time>2023-06-11T09:43:22.000Z</time>
      </trkpt>
      <trkpt lat="45.43883" lon="4.99959">
        <ele>391</ele>
        <time>2023-06-11T09:43:23.000Z</time>
      </trkpt>
      <trkpt lat="45.43886" lon="4.99954">
        <ele>390.6</ele>
        <time>2023-06-11T09:43:24.000Z</time>
      </trkpt>
      <trkpt lat="45.43887" lon="4.99949">
        <ele>390.4</ele>
        <time>2023-06-11T09:43:25.000Z</time>
      </trkpt>
      <trkpt lat="45.43886" lon="4.99943">
        <ele>390.2</ele>
        <time>2023-06-11T09:43:26.000Z</time>
      </trkpt>
      <trkpt lat="45.43883" lon="4.99937">
        <ele>390.1</ele>
        <time>2023-06-11T09:43:27.000Z</time>
      </trkpt>
      <trkpt lat="45.4388" lon="4.99932">
        <ele>390</ele>
        <time>2023-06-11T09:43:28.000Z</time>
      </trkpt>
      <trkpt lat="45.43877" lon="4.99927">
        <ele>389.9</ele>
        <time>2023-06-11T09:43:29.000Z</time>
      </trkpt>
      <trkpt lat="45.43875" lon="4.99923">
        <ele>389.9</ele>
        <time>2023-06-11T09:43:30.000Z</time>
      </trkpt>
      <trkpt lat="45.43869" lon="4.99912">
        <ele>389.9</ele>
        <time>2023-06-11T09:43:32.000Z</time>
      </trkpt>
      <trkpt lat="45.43859" lon="4.99894">
        <ele>389.7</ele>
        <time>2023-06-11T09:43:35.000Z</time>
      </trkpt>
      <trkpt lat="45.43857" lon="4.99888">
        <ele>389.7</ele>
        <time>2023-06-11T09:43:36.000Z</time>
      </trkpt>
      <trkpt lat="45.43848" lon="4.99866">
        <ele>389.6</ele>
        <time>2023-06-11T09:43:39.000Z</time>
      </trkpt>
      <trkpt lat="45.43841" lon="4.99842">
        <ele>389.3</ele>
        <time>2023-06-11T09:43:42.000Z</time>
      </trkpt>
      <trkpt lat="45.43831" lon="4.99807">
        <ele>388.3</ele>
        <time>2023-06-11T09:43:46.000Z</time>
      </trkpt>
      <trkpt lat="45.43823" lon="4.99781">
        <ele>387.3</ele>
        <time>2023-06-11T09:43:49.000Z</time>
      </trkpt>
      <trkpt lat="45.4382" lon="4.99772">
        <ele>387</ele>
        <time>2023-06-11T09:43:50.000Z</time>
      </trkpt>
      <trkpt lat="45.43822" lon="4.99753">
        <ele>385.9</ele>
        <time>2023-06-11T09:43:52.000Z</time>
      </trkpt>
      <trkpt lat="45.4383" lon="4.99732">
        <ele>384</ele>
        <time>2023-06-11T09:43:54.000Z</time>
      </trkpt>
      <trkpt lat="45.43834" lon="4.99721">
        <ele>383.1</ele>
        <time>2023-06-11T09:43:55.000Z</time>
      </trkpt>
      <trkpt lat="45.43837" lon="4.99708">
        <ele>382.1</ele>
        <time>2023-06-11T09:43:56.000Z</time>
      </trkpt>
      <trkpt lat="45.4384" lon="4.99682">
        <ele>380.4</ele>
        <time>2023-06-11T09:43:58.000Z</time>
      </trkpt>
      <trkpt lat="45.43842" lon="4.99669">
        <ele>379.4</ele>
        <time>2023-06-11T09:43:59.000Z</time>
      </trkpt>
      <trkpt lat="45.43844" lon="4.9964">
        <ele>377.3</ele>
        <time>2023-06-11T09:44:01.000Z</time>
      </trkpt>
      <trkpt lat="45.43845" lon="4.99611">
        <ele>375.2</ele>
        <time>2023-06-11T09:44:03.000Z</time>
      </trkpt>
      <trkpt lat="45.43846" lon="4.99598">
        <ele>374.1</ele>
        <time>2023-06-11T09:44:04.000Z</time>
      </trkpt>
      <trkpt lat="45.43846" lon="4.99586">
        <ele>373.3</ele>
        <time>2023-06-11T09:44:05.000Z</time>
      </trkpt>
      <trkpt lat="45.43852" lon="4.99568">
        <ele>371.7</ele>
        <time>2023-06-11T09:44:07.000Z</time>
      </trkpt>
      <trkpt lat="45.43857" lon="4.9956">
        <ele>370.7</ele>
        <time>2023-06-11T09:44:08.000Z</time>
      </trkpt>
      <trkpt lat="45.43865" lon="4.99555">
        <ele>369.7</ele>
        <time>2023-06-11T09:44:09.000Z</time>
      </trkpt>
      <trkpt lat="45.43881" lon="4.99545">
        <ele>368.2</ele>
        <time>2023-06-11T09:44:11.000Z</time>
      </trkpt>
      <trkpt lat="45.43889" lon="4.9954">
        <ele>367.7</ele>
        <time>2023-06-11T09:44:12.000Z</time>
      </trkpt>
      <trkpt lat="45.43897" lon="4.99535">
        <ele>367.2</ele>
        <time>2023-06-11T09:44:13.000Z</time>
      </trkpt>
      <trkpt lat="45.43912" lon="4.99527">
        <ele>366.5</ele>
        <time>2023-06-11T09:44:15.000Z</time>
      </trkpt>
      <trkpt lat="45.43918" lon="4.99525">
        <ele>366.1</ele>
        <time>2023-06-11T09:44:16.000Z</time>
      </trkpt>
      <trkpt lat="45.43923" lon="4.99523">
        <ele>365.5</ele>
        <time>2023-06-11T09:44:17.000Z</time>
      </trkpt>
      <trkpt lat="45.43931" lon="4.99513">
        <ele>364.1</ele>
        <time>2023-06-11T09:44:19.000Z</time>
      </trkpt>
      <trkpt lat="45.43936" lon="4.99498">
        <ele>362.2</ele>
        <time>2023-06-11T09:44:21.000Z</time>
      </trkpt>
      <trkpt lat="45.43938" lon="4.99489">
        <ele>361.3</ele>
        <time>2023-06-11T09:44:22.000Z</time>
      </trkpt>
      <trkpt lat="45.43939" lon="4.9948">
        <ele>360.4</ele>
        <time>2023-06-11T09:44:23.000Z</time>
      </trkpt>
      <trkpt lat="45.43943" lon="4.99455">
        <ele>357.7</ele>
        <time>2023-06-11T09:44:26.000Z</time>
      </trkpt>
      <trkpt lat="45.43949" lon="4.9944">
        <ele>355.2</ele>
        <time>2023-06-11T09:44:28.000Z</time>
      </trkpt>
      <trkpt lat="45.43958" lon="4.99424">
        <ele>352.3</ele>
        <time>2023-06-11T09:44:30.000Z</time>
      </trkpt>
      <trkpt lat="45.43964" lon="4.99416">
        <ele>350.8</ele>
        <time>2023-06-11T09:44:31.000Z</time>
      </trkpt>
      <trkpt lat="45.43969" lon="4.99408">
        <ele>349.5</ele>
        <time>2023-06-11T09:44:32.000Z</time>
      </trkpt>
      <trkpt lat="45.43975" lon="4.994">
        <ele>348.3</ele>
        <time>2023-06-11T09:44:33.000Z</time>
      </trkpt>
      <trkpt lat="45.43984" lon="4.99383">
        <ele>346.1</ele>
        <time>2023-06-11T09:44:35.000Z</time>
      </trkpt>
      <trkpt lat="45.43996" lon="4.99366">
        <ele>344.2</ele>
        <time>2023-06-11T09:44:37.000Z</time>
      </trkpt>
      <trkpt lat="45.44001" lon="4.99359">
        <ele>343.3</ele>
        <time>2023-06-11T09:44:38.000Z</time>
      </trkpt>
      <trkpt lat="45.44006" lon="4.99352">
        <ele>342.4</ele>
        <time>2023-06-11T09:44:39.000Z</time>
      </trkpt>
      <trkpt lat="45.44009" lon="4.99344">
        <ele>341.6</ele>
        <time>2023-06-11T09:44:40.000Z</time>
      </trkpt>
      <trkpt lat="45.44011" lon="4.99335">
        <ele>340.7</ele>
        <time>2023-06-11T09:44:41.000Z</time>
      </trkpt>
      <trkpt lat="45.44012" lon="4.99324">
        <ele>339.8</ele>
        <time>2023-06-11T09:44:42.000Z</time>
      </trkpt>
      <trkpt lat="45.44013" lon="4.99304">
        <ele>338.1</ele>
        <time>2023-06-11T09:44:44.000Z</time>
      </trkpt>
      <trkpt lat="45.44013" lon="4.99293">
        <ele>337.2</ele>
        <time>2023-06-11T09:44:45.000Z</time>
      </trkpt>
      <trkpt lat="45.44014" lon="4.99283">
        <ele>336</ele>
        <time>2023-06-11T09:44:46.000Z</time>
      </trkpt>
      <trkpt lat="45.44014" lon="4.99273">
        <ele>334.6</ele>
        <time>2023-06-11T09:44:47.000Z</time>
      </trkpt>
      <trkpt lat="45.44014" lon="4.99264">
        <ele>333.3</ele>
        <time>2023-06-11T09:44:48.000Z</time>
      </trkpt>
      <trkpt lat="45.44015" lon="4.99257">
        <ele>332.2</ele>
        <time>2023-06-11T09:44:49.000Z</time>
      </trkpt>
      <trkpt lat="45.44016" lon="4.99251">
        <ele>331.3</ele>
        <time>2023-06-11T09:44:50.000Z</time>
      </trkpt>
      <trkpt lat="45.44018" lon="4.99245">
        <ele>330.4</ele>
        <time>2023-06-11T09:44:51.000Z</time>
      </trkpt>
      <trkpt lat="45.44019" lon="4.99239">
        <ele>329.6</ele>
        <time>2023-06-11T09:44:52.000Z</time>
      </trkpt>
      <trkpt lat="45.44022" lon="4.99227">
        <ele>327.8</ele>
        <time>2023-06-11T09:44:54.000Z</time>
      </trkpt>
      <trkpt lat="45.44028" lon="4.99215">
        <ele>325.7</ele>
        <time>2023-06-11T09:44:56.000Z</time>
      </trkpt>
      <trkpt lat="45.4403" lon="4.99209">
        <ele>324.8</ele>
        <time>2023-06-11T09:44:57.000Z</time>
      </trkpt>
      <trkpt lat="45.44031" lon="4.99203">
        <ele>324.1</ele>
        <time>2023-06-11T09:44:58.000Z</time>
      </trkpt>
      <trkpt lat="45.44034" lon="4.99199">
        <ele>323.6</ele>
        <time>2023-06-11T09:44:59.000Z</time>
      </trkpt>
      <trkpt lat="45.44037" lon="4.99194">
        <ele>323.2</ele>
        <time>2023-06-11T09:45:00.000Z</time>
      </trkpt>
      <trkpt lat="45.4404" lon="4.99191">
        <ele>323.2</ele>
        <time>2023-06-11T09:45:01.000Z</time>
      </trkpt>
      <trkpt lat="45.44043" lon="4.99189">
        <ele>323.2</ele>
        <time>2023-06-11T09:45:02.000Z</time>
      </trkpt>
      <trkpt lat="45.4405" lon="4.99187">
        <ele>323.7</ele>
        <time>2023-06-11T09:45:04.000Z</time>
      </trkpt>
      <trkpt lat="45.44054" lon="4.99185">
        <ele>324.1</ele>
        <time>2023-06-11T09:45:06.000Z</time>
      </trkpt>
      <trkpt lat="45.44055" lon="4.99184">
        <ele>324.2</ele>
        <time>2023-06-11T09:45:07.000Z</time>
      </trkpt>
      <trkpt lat="45.44055" lon="4.99182">
        <ele>324.3</ele>
        <time>2023-06-11T09:45:08.000Z</time>
      </trkpt>
      <trkpt lat="45.44058" lon="4.9918">
        <ele>324.5</ele>
        <time>2023-06-11T09:45:10.000Z</time>
      </trkpt>
      <trkpt lat="45.44064" lon="4.99178">
        <ele>324.5</ele>
        <time>2023-06-11T09:45:12.000Z</time>
      </trkpt>
      <trkpt lat="45.44068" lon="4.99178">
        <ele>324.4</ele>
        <time>2023-06-11T09:45:14.000Z</time>
      </trkpt>
      <trkpt lat="45.44074" lon="4.99179">
        <ele>324</ele>
        <time>2023-06-11T09:45:17.000Z</time>
      </trkpt>
      <trkpt lat="45.4408" lon="4.99175">
        <ele>323.8</ele>
        <time>2023-06-11T09:45:20.000Z</time>
      </trkpt>
      <trkpt lat="45.44093" lon="4.99163">
        <ele>323.6</ele>
        <time>2023-06-11T09:45:25.000Z</time>
      </trkpt>
      <trkpt lat="45.44102" lon="4.99149">
        <ele>323.5</ele>
        <time>2023-06-11T09:45:29.000Z</time>
      </trkpt>
      <trkpt lat="45.44108" lon="4.99143">
        <ele>323.5</ele>
        <time>2023-06-11T09:45:31.000Z</time>
      </trkpt>
      <trkpt lat="45.44121" lon="4.99126">
        <ele>323.6</ele>
        <time>2023-06-11T09:45:36.000Z</time>
      </trkpt>
      <trkpt lat="45.44123" lon="4.99123">
        <ele>323.7</ele>
        <time>2023-06-11T09:45:37.000Z</time>
      </trkpt>
      <trkpt lat="45.4414" lon="4.99104">
        <ele>323.9</ele>
        <time>2023-06-11T09:45:43.000Z</time>
      </trkpt>
      <trkpt lat="45.44147" lon="4.99101">
        <ele>324.1</ele>
        <time>2023-06-11T09:45:45.000Z</time>
      </trkpt>
      <trkpt lat="45.44165" lon="4.99104">
        <ele>324.1</ele>
        <time>2023-06-11T09:45:50.000Z</time>
      </trkpt>
      <trkpt lat="45.44202" lon="4.99119">
        <ele>325.1</ele>
        <time>2023-06-11T09:46:01.000Z</time>
      </trkpt>
      <trkpt lat="45.44224" lon="4.99124">
        <ele>326.1</ele>
        <time>2023-06-11T09:46:08.000Z</time>
      </trkpt>
      <trkpt lat="45.44236" lon="4.99128">
        <ele>326.8</ele>
        <time>2023-06-11T09:46:12.000Z</time>
      </trkpt>
      <trkpt lat="45.44251" lon="4.99136">
        <ele>328</ele>
        <time>2023-06-11T09:46:17.000Z</time>
      </trkpt>
      <trkpt lat="45.44253" lon="4.99138">
        <ele>328.1</ele>
        <time>2023-06-11T09:46:18.000Z</time>
      </trkpt>
      <trkpt lat="45.44255" lon="4.99146">
        <ele>328.2</ele>
        <time>2023-06-11T09:46:20.000Z</time>
      </trkpt>
      <trkpt lat="45.44257" lon="4.99168">
        <ele>328.5</ele>
        <time>2023-06-11T09:46:25.000Z</time>
      </trkpt>
      <trkpt lat="45.44258" lon="4.99173">
        <ele>328.6</ele>
        <time>2023-06-11T09:46:26.000Z</time>
      </trkpt>
      <trkpt lat="45.4426" lon="4.99191">
        <ele>329</ele>
        <time>2023-06-11T09:46:30.000Z</time>
      </trkpt>
      <trkpt lat="45.44262" lon="4.992">
        <ele>329.2</ele>
        <time>2023-06-11T09:46:32.000Z</time>
      </trkpt>
      <trkpt lat="45.44267" lon="4.9924">
        <ele>330.1</ele>
        <time>2023-06-11T09:46:41.000Z</time>
      </trkpt>
      <trkpt lat="45.44268" lon="4.99249">
        <ele>330.3</ele>
        <time>2023-06-11T09:46:43.000Z</time>
      </trkpt>
      <trkpt lat="45.44272" lon="4.99275">
        <ele>330.8</ele>
        <time>2023-06-11T09:46:49.000Z</time>
      </trkpt>
      <trkpt lat="45.44277" lon="4.99305">
        <ele>331.2</ele>
        <time>2023-06-11T09:46:55.000Z</time>
      </trkpt>
      <trkpt lat="45.4428" lon="4.99315">
        <ele>331.2</ele>
        <time>2023-06-11T09:46:57.000Z</time>
      </trkpt>
      <trkpt lat="45.44287" lon="4.99344">
        <ele>331.4</ele>
        <time>2023-06-11T09:47:03.000Z</time>
      </trkpt>
      <trkpt lat="45.4429" lon="4.99353">
        <ele>331.5</ele>
        <time>2023-06-11T09:47:05.000Z</time>
      </trkpt>
      <trkpt lat="45.44296" lon="4.99358">
        <ele>331.7</ele>
        <time>2023-06-11T09:47:07.000Z</time>
      </trkpt>
      <trkpt lat="45.44313" lon="4.99358">
        <ele>332.4</ele>
        <time>2023-06-11T09:47:12.000Z</time>
      </trkpt>
      <trkpt lat="45.44317" lon="4.99358">
        <ele>332.6</ele>
        <time>2023-06-11T09:47:13.000Z</time>
      </trkpt>
      <trkpt lat="45.44346" lon="4.99349">
        <ele>334.1</ele>
        <time>2023-06-11T09:47:22.000Z</time>
      </trkpt>
      <trkpt lat="45.44357" lon="4.99337">
        <ele>334.5</ele>
        <time>2023-06-11T09:47:26.000Z</time>
      </trkpt>
      <trkpt lat="45.44361" lon="4.99331">
        <ele>334.7</ele>
        <time>2023-06-11T09:47:28.000Z</time>
      </trkpt>
      <trkpt lat="45.44367" lon="4.99322">
        <ele>334.9</ele>
        <time>2023-06-11T09:47:31.000Z</time>
      </trkpt>
      <trkpt lat="45.44376" lon="4.99316">
        <ele>335.3</ele>
        <time>2023-06-11T09:47:34.000Z</time>
      </trkpt>
      <trkpt lat="45.44388" lon="4.99307">
        <ele>336</ele>
        <time>2023-06-11T09:47:38.000Z</time>
      </trkpt>
      <trkpt lat="45.44398" lon="4.99298">
        <ele>337</ele>
        <time>2023-06-11T09:47:42.000Z</time>
      </trkpt>
      <trkpt lat="45.44406" lon="4.99287">
        <ele>338</ele>
        <time>2023-06-11T09:47:46.000Z</time>
      </trkpt>
      <trkpt lat="45.44408" lon="4.99285">
        <ele>338.2</ele>
        <time>2023-06-11T09:47:47.000Z</time>
      </trkpt>
      <trkpt lat="45.44411" lon="4.99271">
        <ele>339.1</ele>
        <time>2023-06-11T09:47:52.000Z</time>
      </trkpt>
      <trkpt lat="45.44412" lon="4.99265">
        <ele>339.4</ele>
        <time>2023-06-11T09:47:54.000Z</time>
      </trkpt>
      <trkpt lat="45.44413" lon="4.99259">
        <ele>339.8</ele>
        <time>2023-06-11T09:47:56.000Z</time>
      </trkpt>
      <trkpt lat="45.44415" lon="4.99243">
        <ele>340.9</ele>
        <time>2023-06-11T09:48:02.000Z</time>
      </trkpt>
      <trkpt lat="45.44415" lon="4.99241">
        <ele>341.1</ele>
        <time>2023-06-11T09:48:03.000Z</time>
      </trkpt>
      <trkpt lat="45.44416" lon="4.99224">
        <ele>342.6</ele>
        <time>2023-06-11T09:48:10.000Z</time>
      </trkpt>
      <trkpt lat="45.44416" lon="4.9922">
        <ele>343.1</ele>
        <time>2023-06-11T09:48:12.000Z</time>
      </trkpt>
      <trkpt lat="45.44416" lon="4.99213">
        <ele>343.8</ele>
        <time>2023-06-11T09:48:15.000Z</time>
      </trkpt>
      <trkpt lat="45.44416" lon="4.99202">
        <ele>344.9</ele>
        <time>2023-06-11T09:48:20.000Z</time>
      </trkpt>
      <trkpt lat="45.44416" lon="4.992">
        <ele>345.1</ele>
        <time>2023-06-11T09:48:21.000Z</time>
      </trkpt>
      <trkpt lat="45.44417" lon="4.99191">
        <ele>346</ele>
        <time>2023-06-11T09:48:25.000Z</time>
      </trkpt>
      <trkpt lat="45.44417" lon="4.9918">
        <ele>347</ele>
        <time>2023-06-11T09:48:30.000Z</time>
      </trkpt>
      <trkpt lat="45.44417" lon="4.99171">
        <ele>347.7</ele>
        <time>2023-06-11T09:48:34.000Z</time>
      </trkpt>
      <trkpt lat="45.44418" lon="4.99156">
        <ele>348.7</ele>
        <time>2023-06-11T09:48:40.000Z</time>
      </trkpt>
      <trkpt lat="45.44419" lon="4.99145">
        <ele>349.4</ele>
        <time>2023-06-11T09:48:45.000Z</time>
      </trkpt>
      <trkpt lat="45.4442" lon="4.9914">
        <ele>349.8</ele>
        <time>2023-06-11T09:48:47.000Z</time>
      </trkpt>
      <trkpt lat="45.44422" lon="4.99131">
        <ele>350.4</ele>
        <time>2023-06-11T09:48:51.000Z</time>
      </trkpt>
      <trkpt lat="45.44428" lon="4.9912">
        <ele>351.5</ele>
        <time>2023-06-11T09:48:57.000Z</time>
      </trkpt>
      <trkpt lat="45.44429" lon="4.99118">
        <ele>351.6</ele>
        <time>2023-06-11T09:48:58.000Z</time>
      </trkpt>
      <trkpt lat="45.44441" lon="4.99105">
        <ele>353.1</ele>
        <time>2023-06-11T09:49:07.000Z</time>
      </trkpt>
      <trkpt lat="45.44451" lon="4.99096">
        <ele>354.2</ele>
        <time>2023-06-11T09:49:14.000Z</time>
      </trkpt>
      <trkpt lat="45.44453" lon="4.99094">
        <ele>354.3</ele>
        <time>2023-06-11T09:49:15.000Z</time>
      </trkpt>
      <trkpt lat="45.44457" lon="4.99091">
        <ele>354.8</ele>
        <time>2023-06-11T09:49:18.000Z</time>
      </trkpt>
      <trkpt lat="45.44462" lon="4.99088">
        <ele>355.1</ele>
        <time>2023-06-11T09:49:21.000Z</time>
      </trkpt>
      <trkpt lat="45.44463" lon="4.99087">
        <ele>355.3</ele>
        <time>2023-06-11T09:49:22.000Z</time>
      </trkpt>
      <trkpt lat="45.44472" lon="4.99085">
        <ele>355.9</ele>
        <time>2023-06-11T09:49:27.000Z</time>
      </trkpt>
      <trkpt lat="45.44483" lon="4.99084">
        <ele>356.6</ele>
        <time>2023-06-11T09:49:32.000Z</time>
      </trkpt>
      <trkpt lat="45.44492" lon="4.99084">
        <ele>357.2</ele>
        <time>2023-06-11T09:49:36.000Z</time>
      </trkpt>
      <trkpt lat="45.44506" lon="4.99083">
        <ele>358.3</ele>
        <time>2023-06-11T09:49:42.000Z</time>
      </trkpt>
      <trkpt lat="45.44513" lon="4.99083">
        <ele>358.9</ele>
        <time>2023-06-11T09:49:45.000Z</time>
      </trkpt>
      <trkpt lat="45.44526" lon="4.99079">
        <ele>360.3</ele>
        <time>2023-06-11T09:49:51.000Z</time>
      </trkpt>
      <trkpt lat="45.44534" lon="4.99068">
        <ele>361.4</ele>
        <time>2023-06-11T09:49:57.000Z</time>
      </trkpt>
      <trkpt lat="45.44534" lon="4.99066">
        <ele>361.5</ele>
        <time>2023-06-11T09:49:58.000Z</time>
      </trkpt>
      <trkpt lat="45.44538" lon="4.99055">
        <ele>362.3</ele>
        <time>2023-06-11T09:50:03.000Z</time>
      </trkpt>
      <trkpt lat="45.44539" lon="4.99052">
        <ele>362.6</ele>
        <time>2023-06-11T09:50:05.000Z</time>
      </trkpt>
      <trkpt lat="45.44542" lon="4.99042">
        <ele>363.2</ele>
        <time>2023-06-11T09:50:10.000Z</time>
      </trkpt>
      <trkpt lat="45.44547" lon="4.99033">
        <ele>363.9</ele>
        <time>2023-06-11T09:50:15.000Z</time>
      </trkpt>
      <trkpt lat="45.44549" lon="4.99032">
        <ele>364</ele>
        <time>2023-06-11T09:50:16.000Z</time>
      </trkpt>
      <trkpt lat="45.44556" lon="4.99025">
        <ele>364.7</ele>
        <time>2023-06-11T09:50:21.000Z</time>
      </trkpt>
      <trkpt lat="45.44562" lon="4.9902">
        <ele>365.3</ele>
        <time>2023-06-11T09:50:25.000Z</time>
      </trkpt>
      <trkpt lat="45.44565" lon="4.99017">
        <ele>365.6</ele>
        <time>2023-06-11T09:50:27.000Z</time>
      </trkpt>
      <trkpt lat="45.44576" lon="4.99008">
        <ele>367</ele>
        <time>2023-06-11T09:50:35.000Z</time>
      </trkpt>
      <trkpt lat="45.44577" lon="4.99006">
        <ele>367.3</ele>
        <time>2023-06-11T09:50:36.000Z</time>
      </trkpt>
      <trkpt lat="45.44588" lon="4.98999">
        <ele>368.9</ele>
        <time>2023-06-11T09:50:44.000Z</time>
      </trkpt>
      <trkpt lat="45.44589" lon="4.98998">
        <ele>369.1</ele>
        <time>2023-06-11T09:50:45.000Z</time>
      </trkpt>
      <trkpt lat="45.44594" lon="4.98994">
        <ele>370</ele>
        <time>2023-06-11T09:50:49.000Z</time>
      </trkpt>
      <trkpt lat="45.446" lon="4.98988">
        <ele>371.1</ele>
        <time>2023-06-11T09:50:54.000Z</time>
      </trkpt>
      <trkpt lat="45.44605" lon="4.98984">
        <ele>372</ele>
        <time>2023-06-11T09:50:58.000Z</time>
      </trkpt>
      <trkpt lat="45.44611" lon="4.98979">
        <ele>373.1</ele>
        <time>2023-06-11T09:51:03.000Z</time>
      </trkpt>
      <trkpt lat="45.44616" lon="4.98974">
        <ele>374.1</ele>
        <time>2023-06-11T09:51:08.000Z</time>
      </trkpt>
      <trkpt lat="45.4462" lon="4.98972">
        <ele>374.7</ele>
        <time>2023-06-11T09:51:11.000Z</time>
      </trkpt>
      <trkpt lat="45.44624" lon="4.98969">
        <ele>375.4</ele>
        <time>2023-06-11T09:51:14.000Z</time>
      </trkpt>
      <trkpt lat="45.44631" lon="4.98962">
        <ele>376.8</ele>
        <time>2023-06-11T09:51:20.000Z</time>
      </trkpt>
      <trkpt lat="45.44637" lon="4.98958">
        <ele>377.9</ele>
        <time>2023-06-11T09:51:25.000Z</time>
      </trkpt>
      <trkpt lat="45.44643" lon="4.98955">
        <ele>378.8</ele>
        <time>2023-06-11T09:51:30.000Z</time>
      </trkpt>
      <trkpt lat="45.44654" lon="4.98951">
        <ele>380.3</ele>
        <time>2023-06-11T09:51:38.000Z</time>
      </trkpt>
      <trkpt lat="45.44655" lon="4.9895">
        <ele>380.5</ele>
        <time>2023-06-11T09:51:39.000Z</time>
      </trkpt>
      <trkpt lat="45.44662" lon="4.98949">
        <ele>381.5</ele>
        <time>2023-06-11T09:51:44.000Z</time>
      </trkpt>
      <trkpt lat="45.44666" lon="4.98946">
        <ele>381.9</ele>
        <time>2023-06-11T09:51:48.000Z</time>
      </trkpt>
      <trkpt lat="45.44667" lon="4.98945">
        <ele>382.1</ele>
        <time>2023-06-11T09:51:49.000Z</time>
      </trkpt>
      <trkpt lat="45.4467" lon="4.98944">
        <ele>382.5</ele>
        <time>2023-06-11T09:51:51.000Z</time>
      </trkpt>
      <trkpt lat="45.44674" lon="4.98942">
        <ele>383.1</ele>
        <time>2023-06-11T09:51:54.000Z</time>
      </trkpt>
      <trkpt lat="45.44676" lon="4.9894">
        <ele>383.4</ele>
        <time>2023-06-11T09:51:56.000Z</time>
      </trkpt>
      <trkpt lat="45.44677" lon="4.98936">
        <ele>384</ele>
        <time>2023-06-11T09:52:00.000Z</time>
      </trkpt>
      <trkpt lat="45.44678" lon="4.98933">
        <ele>384.3</ele>
        <time>2023-06-11T09:52:02.000Z</time>
      </trkpt>
      <trkpt lat="45.44678" lon="4.98932">
        <ele>384.5</ele>
        <time>2023-06-11T09:52:03.000Z</time>
      </trkpt>
      <trkpt lat="45.4468" lon="4.98927">
        <ele>385</ele>
        <time>2023-06-11T09:52:06.000Z</time>
      </trkpt>
      <trkpt lat="45.44681" lon="4.98924">
        <ele>385.4</ele>
        <time>2023-06-11T09:52:08.000Z</time>
      </trkpt>
      <trkpt lat="45.44682" lon="4.98923">
        <ele>385.6</ele>
        <time>2023-06-11T09:52:09.000Z</time>
      </trkpt>
      <trkpt lat="45.44686" lon="4.98919">
        <ele>386.1</ele>
        <time>2023-06-11T09:52:12.000Z</time>
      </trkpt>
      <trkpt lat="45.44688" lon="4.98918">
        <ele>386.3</ele>
        <time>2023-06-11T09:52:14.000Z</time>
      </trkpt>
      <trkpt lat="45.44695" lon="4.98912">
        <ele>387</ele>
        <time>2023-06-11T09:52:19.000Z</time>
      </trkpt>
      <trkpt lat="45.44703" lon="4.98905">
        <ele>387.8</ele>
        <time>2023-06-11T09:52:24.000Z</time>
      </trkpt>
      <trkpt lat="45.44712" lon="4.98898">
        <ele>388.7</ele>
        <time>2023-06-11T09:52:29.000Z</time>
      </trkpt>
      <trkpt lat="45.44714" lon="4.98896">
        <ele>388.9</ele>
        <time>2023-06-11T09:52:30.000Z</time>
      </trkpt>
      <trkpt lat="45.44718" lon="4.98892">
        <ele>389.3</ele>
        <time>2023-06-11T09:52:33.000Z</time>
      </trkpt>
      <trkpt lat="45.44721" lon="4.98889">
        <ele>389.6</ele>
        <time>2023-06-11T09:52:35.000Z</time>
      </trkpt>
      <trkpt lat="45.44723" lon="4.98886">
        <ele>389.8</ele>
        <time>2023-06-11T09:52:36.000Z</time>
      </trkpt>
      <trkpt lat="45.44723" lon="4.98886">
        <ele>389.8</ele>
        <time>2023-06-11T09:52:37.000Z</time>
      </trkpt>
      <trkpt lat="45.44728" lon="4.98881">
        <ele>390.2</ele>
        <time>2023-06-11T09:52:40.000Z</time>
      </trkpt>
      <trkpt lat="45.4473" lon="4.9888">
        <ele>390.4</ele>
        <time>2023-06-11T09:52:41.000Z</time>
      </trkpt>
      <trkpt lat="45.44733" lon="4.98876">
        <ele>390.7</ele>
        <time>2023-06-11T09:52:44.000Z</time>
      </trkpt>
      <trkpt lat="45.44739" lon="4.98874">
        <ele>391.1</ele>
        <time>2023-06-11T09:52:48.000Z</time>
      </trkpt>
      <trkpt lat="45.44741" lon="4.98874">
        <ele>391.2</ele>
        <time>2023-06-11T09:52:49.000Z</time>
      </trkpt>
      <trkpt lat="45.44745" lon="4.98873">
        <ele>391.5</ele>
        <time>2023-06-11T09:52:51.000Z</time>
      </trkpt>
      <trkpt lat="45.44757" lon="4.98871">
        <ele>392</ele>
        <time>2023-06-11T09:52:56.000Z</time>
      </trkpt>
      <trkpt lat="45.44759" lon="4.98871">
        <ele>392.1</ele>
        <time>2023-06-11T09:52:57.000Z</time>
      </trkpt>
      <trkpt lat="45.44773" lon="4.98869">
        <ele>392.5</ele>
        <time>2023-06-11T09:53:02.000Z</time>
      </trkpt>
      <trkpt lat="45.44793" lon="4.98866">
        <ele>392.9</ele>
        <time>2023-06-11T09:53:09.000Z</time>
      </trkpt>
      <trkpt lat="45.44799" lon="4.9887">
        <ele>392.9</ele>
        <time>2023-06-11T09:53:11.000Z</time>
      </trkpt>
      <trkpt lat="45.44815" lon="4.9888">
        <ele>393.4</ele>
        <time>2023-06-11T09:53:16.000Z</time>
      </trkpt>
      <trkpt lat="45.44817" lon="4.98882">
        <ele>393.5</ele>
        <time>2023-06-11T09:53:17.000Z</time>
      </trkpt>
      <trkpt lat="45.44831" lon="4.98887">
        <ele>394.3</ele>
        <time>2023-06-11T09:53:22.000Z</time>
      </trkpt>
      <trkpt lat="45.44837" lon="4.98888">
        <ele>394.6</ele>
        <time>2023-06-11T09:53:24.000Z</time>
      </trkpt>
      <trkpt lat="45.4485" lon="4.98891">
        <ele>395.3</ele>
        <time>2023-06-11T09:53:29.000Z</time>
      </trkpt>
      <trkpt lat="45.44869" lon="4.98894">
        <ele>396.8</ele>
        <time>2023-06-11T09:53:36.000Z</time>
      </trkpt>
      <trkpt lat="45.44873" lon="4.98894">
        <ele>397.1</ele>
        <time>2023-06-11T09:53:38.000Z</time>
      </trkpt>
      <trkpt lat="45.44878" lon="4.98892">
        <ele>397.6</ele>
        <time>2023-06-11T09:53:40.000Z</time>
      </trkpt>
      <trkpt lat="45.44881" lon="4.98889">
        <ele>398</ele>
        <time>2023-06-11T09:53:42.000Z</time>
      </trkpt>
      <trkpt lat="45.44883" lon="4.98887">
        <ele>398.1</ele>
        <time>2023-06-11T09:53:43.000Z</time>
      </trkpt>
      <trkpt lat="45.44893" lon="4.98881">
        <ele>398.9</ele>
        <time>2023-06-11T09:53:49.000Z</time>
      </trkpt>
      <trkpt lat="45.44895" lon="4.9888">
        <ele>399.1</ele>
        <time>2023-06-11T09:53:50.000Z</time>
      </trkpt>
      <trkpt lat="45.44897" lon="4.9888">
        <ele>399.2</ele>
        <time>2023-06-11T09:53:51.000Z</time>
      </trkpt>
      <trkpt lat="45.44903" lon="4.98879">
        <ele>399.7</ele>
        <time>2023-06-11T09:53:54.000Z</time>
      </trkpt>
      <trkpt lat="45.44905" lon="4.98878">
        <ele>399.8</ele>
        <time>2023-06-11T09:53:55.000Z</time>
      </trkpt>
      <trkpt lat="45.44907" lon="4.98877">
        <ele>400</ele>
        <time>2023-06-11T09:53:56.000Z</time>
      </trkpt>
      <trkpt lat="45.44912" lon="4.98875">
        <ele>400.5</ele>
        <time>2023-06-11T09:53:58.000Z</time>
      </trkpt>
      <trkpt lat="45.44915" lon="4.98876">
        <ele>400.7</ele>
        <time>2023-06-11T09:53:59.000Z</time>
      </trkpt>
      <trkpt lat="45.44923" lon="4.98877">
        <ele>401.5</ele>
        <time>2023-06-11T09:54:02.000Z</time>
      </trkpt>
      <trkpt lat="45.44932" lon="4.98875">
        <ele>402.4</ele>
        <time>2023-06-11T09:54:07.000Z</time>
      </trkpt>
      <trkpt lat="45.44936" lon="4.98877">
        <ele>402.8</ele>
        <time>2023-06-11T09:54:09.000Z</time>
      </trkpt>
      <trkpt lat="45.44944" lon="4.98876">
        <ele>403.7</ele>
        <time>2023-06-11T09:54:14.000Z</time>
      </trkpt>
      <trkpt lat="45.44948" lon="4.98877">
        <ele>404.2</ele>
        <time>2023-06-11T09:54:17.000Z</time>
      </trkpt>
      <trkpt lat="45.44952" lon="4.98878">
        <ele>404.7</ele>
        <time>2023-06-11T09:54:20.000Z</time>
      </trkpt>
      <trkpt lat="45.44955" lon="4.98878">
        <ele>405.1</ele>
        <time>2023-06-11T09:54:22.000Z</time>
      </trkpt>
      <trkpt lat="45.44957" lon="4.98879">
        <ele>405.3</ele>
        <time>2023-06-11T09:54:23.000Z</time>
      </trkpt>
      <trkpt lat="45.44958" lon="4.9888">
        <ele>405.4</ele>
        <time>2023-06-11T09:54:24.000Z</time>
      </trkpt>
      <trkpt lat="45.44959" lon="4.9888">
        <ele>405.6</ele>
        <time>2023-06-11T09:54:25.000Z</time>
      </trkpt>
      <trkpt lat="45.44964" lon="4.9888">
        <ele>406</ele>
        <time>2023-06-11T09:54:28.000Z</time>
      </trkpt>
      <trkpt lat="45.4497" lon="4.98883">
        <ele>406.6</ele>
        <time>2023-06-11T09:54:32.000Z</time>
      </trkpt>
      <trkpt lat="45.44975" lon="4.98884">
        <ele>406.9</ele>
        <time>2023-06-11T09:54:35.000Z</time>
      </trkpt>
      <trkpt lat="45.4498" lon="4.98885">
        <ele>407.3</ele>
        <time>2023-06-11T09:54:38.000Z</time>
      </trkpt>
      <trkpt lat="45.44984" lon="4.98886">
        <ele>407.5</ele>
        <time>2023-06-11T09:54:40.000Z</time>
      </trkpt>
      <trkpt lat="45.44986" lon="4.98886">
        <ele>407.7</ele>
        <time>2023-06-11T09:54:42.000Z</time>
      </trkpt>
      <trkpt lat="45.44987" lon="4.98887">
        <ele>407.8</ele>
        <time>2023-06-11T09:54:43.000Z</time>
      </trkpt>
      <trkpt lat="45.44994" lon="4.9889">
        <ele>408.3</ele>
        <time>2023-06-11T09:54:47.000Z</time>
      </trkpt>
      <trkpt lat="45.44998" lon="4.98891">
        <ele>408.5</ele>
        <time>2023-06-11T09:54:49.000Z</time>
      </trkpt>
      <trkpt lat="45.45007" lon="4.98892">
        <ele>409.1</ele>
        <time>2023-06-11T09:54:54.000Z</time>
      </trkpt>
      <trkpt lat="45.45008" lon="4.98892">
        <ele>409.2</ele>
        <time>2023-06-11T09:54:55.000Z</time>
      </trkpt>
      <trkpt lat="45.4502" lon="4.98895">
        <ele>409.9</ele>
        <time>2023-06-11T09:55:01.000Z</time>
      </trkpt>
      <trkpt lat="45.45022" lon="4.98896">
        <ele>410.1</ele>
        <time>2023-06-11T09:55:02.000Z</time>
      </trkpt>
      <trkpt lat="45.4504" lon="4.98902">
        <ele>410.9</ele>
        <time>2023-06-11T09:55:09.000Z</time>
      </trkpt>
      <trkpt lat="45.45043" lon="4.98902">
        <ele>410.9</ele>
        <time>2023-06-11T09:55:10.000Z</time>
      </trkpt>
      <trkpt lat="45.45062" lon="4.98904">
        <ele>411.6</ele>
        <time>2023-06-11T09:55:16.000Z</time>
      </trkpt>
      <trkpt lat="45.45064" lon="4.98903">
        <ele>411.6</ele>
        <time>2023-06-11T09:55:17.000Z</time>
      </trkpt>
      <trkpt lat="45.4507" lon="4.98905">
        <ele>411.9</ele>
        <time>2023-06-11T09:55:19.000Z</time>
      </trkpt>
      <trkpt lat="45.45072" lon="4.98906">
        <ele>411.9</ele>
        <time>2023-06-11T09:55:20.000Z</time>
      </trkpt>
      <trkpt lat="45.45079" lon="4.98909">
        <ele>412.2</ele>
        <time>2023-06-11T09:55:22.000Z</time>
      </trkpt>
      <trkpt lat="45.45093" lon="4.98913">
        <ele>412.7</ele>
        <time>2023-06-11T09:55:26.000Z</time>
      </trkpt>
      <trkpt lat="45.45107" lon="4.98914">
        <ele>413.2</ele>
        <time>2023-06-11T09:55:31.000Z</time>
      </trkpt>
      <trkpt lat="45.45112" lon="4.98915">
        <ele>413.4</ele>
        <time>2023-06-11T09:55:33.000Z</time>
      </trkpt>
      <trkpt lat="45.45121" lon="4.9892">
        <ele>413.9</ele>
        <time>2023-06-11T09:55:36.000Z</time>
      </trkpt>
      <trkpt lat="45.45128" lon="4.98924">
        <ele>414.4</ele>
        <time>2023-06-11T09:55:38.000Z</time>
      </trkpt>
      <trkpt lat="45.45144" lon="4.9893">
        <ele>415.4</ele>
        <time>2023-06-11T09:55:44.000Z</time>
      </trkpt>
      <trkpt lat="45.45159" lon="4.98933">
        <ele>416</ele>
        <time>2023-06-11T09:55:49.000Z</time>
      </trkpt>
      <trkpt lat="45.45169" lon="4.98939">
        <ele>416.4</ele>
        <time>2023-06-11T09:55:52.000Z</time>
      </trkpt>
      <trkpt lat="45.45186" lon="4.98948">
        <ele>417.3</ele>
        <time>2023-06-11T09:55:59.000Z</time>
      </trkpt>
      <trkpt lat="45.45189" lon="4.98949">
        <ele>417.4</ele>
        <time>2023-06-11T09:56:00.000Z</time>
      </trkpt>
      <trkpt lat="45.45204" lon="4.9896">
        <ele>418.4</ele>
        <time>2023-06-11T09:56:06.000Z</time>
      </trkpt>
      <trkpt lat="45.45207" lon="4.98962">
        <ele>418.6</ele>
        <time>2023-06-11T09:56:07.000Z</time>
      </trkpt>
      <trkpt lat="45.45213" lon="4.98966">
        <ele>419</ele>
        <time>2023-06-11T09:56:10.000Z</time>
      </trkpt>
      <trkpt lat="45.45222" lon="4.98969">
        <ele>419.6</ele>
        <time>2023-06-11T09:56:13.000Z</time>
      </trkpt>
      <trkpt lat="45.4524" lon="4.98976">
        <ele>420.6</ele>
        <time>2023-06-11T09:56:20.000Z</time>
      </trkpt>
      <trkpt lat="45.45246" lon="4.98978">
        <ele>421</ele>
        <time>2023-06-11T09:56:22.000Z</time>
      </trkpt>
      <trkpt lat="45.45255" lon="4.98983">
        <ele>421.7</ele>
        <time>2023-06-11T09:56:27.000Z</time>
      </trkpt>
      <trkpt lat="45.45258" lon="4.98983">
        <ele>421.9</ele>
        <time>2023-06-11T09:56:28.000Z</time>
      </trkpt>
      <trkpt lat="45.45276" lon="4.98992">
        <ele>423.2</ele>
        <time>2023-06-11T09:56:35.000Z</time>
      </trkpt>
      <trkpt lat="45.45278" lon="4.98993">
        <ele>423.4</ele>
        <time>2023-06-11T09:56:36.000Z</time>
      </trkpt>
      <trkpt lat="45.45292" lon="4.99001">
        <ele>424.3</ele>
        <time>2023-06-11T09:56:43.000Z</time>
      </trkpt>
      <trkpt lat="45.45295" lon="4.99001">
        <ele>424.5</ele>
        <time>2023-06-11T09:56:44.000Z</time>
      </trkpt>
      <trkpt lat="45.453" lon="4.99002">
        <ele>424.8</ele>
        <time>2023-06-11T09:56:47.000Z</time>
      </trkpt>
      <trkpt lat="45.45313" lon="4.99004">
        <ele>425.6</ele>
        <time>2023-06-11T09:56:53.000Z</time>
      </trkpt>
      <trkpt lat="45.45327" lon="4.99003">
        <ele>426.4</ele>
        <time>2023-06-11T09:56:59.000Z</time>
      </trkpt>
      <trkpt lat="45.45349" lon="4.98998">
        <ele>427.1</ele>
        <time>2023-06-11T09:57:07.000Z</time>
      </trkpt>
      <trkpt lat="45.45363" lon="4.99001">
        <ele>427.4</ele>
        <time>2023-06-11T09:57:11.000Z</time>
      </trkpt>
      <trkpt lat="45.45367" lon="4.99002">
        <ele>427.4</ele>
        <time>2023-06-11T09:57:12.000Z</time>
      </trkpt>
      <trkpt lat="45.45374" lon="4.99006">
        <ele>427.6</ele>
        <time>2023-06-11T09:57:15.000Z</time>
      </trkpt>
      <trkpt lat="45.45379" lon="4.99009">
        <ele>427.8</ele>
        <time>2023-06-11T09:57:17.000Z</time>
      </trkpt>
      <trkpt lat="45.45395" lon="4.99021">
        <ele>428.3</ele>
        <time>2023-06-11T09:57:22.000Z</time>
      </trkpt>
      <trkpt lat="45.45415" lon="4.99031">
        <ele>429.4</ele>
        <time>2023-06-11T09:57:29.000Z</time>
      </trkpt>
      <trkpt lat="45.45428" lon="4.99033">
        <ele>430.2</ele>
        <time>2023-06-11T09:57:35.000Z</time>
      </trkpt>
      <trkpt lat="45.45437" lon="4.99038">
        <ele>430.6</ele>
        <time>2023-06-11T09:57:40.000Z</time>
      </trkpt>
      <trkpt lat="45.45442" lon="4.99043">
        <ele>430.8</ele>
        <time>2023-06-11T09:57:43.000Z</time>
      </trkpt>
      <trkpt lat="45.45448" lon="4.99052">
        <ele>431.1</ele>
        <time>2023-06-11T09:57:47.000Z</time>
      </trkpt>
      <trkpt lat="45.45451" lon="4.99056">
        <ele>431.1</ele>
        <time>2023-06-11T09:57:49.000Z</time>
      </trkpt>
      <trkpt lat="45.45453" lon="4.9906">
        <ele>431.1</ele>
        <time>2023-06-11T09:57:50.000Z</time>
      </trkpt>
      <trkpt lat="45.45454" lon="4.99062">
        <ele>431.1</ele>
        <time>2023-06-11T09:57:51.000Z</time>
      </trkpt>
      <trkpt lat="45.45459" lon="4.99075">
        <ele>430.8</ele>
        <time>2023-06-11T09:57:54.000Z</time>
      </trkpt>
      <trkpt lat="45.45463" lon="4.99084">
        <ele>430.6</ele>
        <time>2023-06-11T09:57:56.000Z</time>
      </trkpt>
      <trkpt lat="45.45471" lon="4.99107">
        <ele>430.2</ele>
        <time>2023-06-11T09:58:00.000Z</time>
      </trkpt>
      <trkpt lat="45.45478" lon="4.99127">
        <ele>430.1</ele>
        <time>2023-06-11T09:58:03.000Z</time>
      </trkpt>
      <trkpt lat="45.45481" lon="4.99132">
        <ele>430</ele>
        <time>2023-06-11T09:58:04.000Z</time>
      </trkpt>
      <trkpt lat="45.45501" lon="4.99159">
        <ele>429.7</ele>
        <time>2023-06-11T09:58:10.000Z</time>
      </trkpt>
      <trkpt lat="45.45508" lon="4.99166">
        <ele>429.7</ele>
        <time>2023-06-11T09:58:12.000Z</time>
      </trkpt>
      <trkpt lat="45.4552" lon="4.99175">
        <ele>429.6</ele>
        <time>2023-06-11T09:58:15.000Z</time>
      </trkpt>
      <trkpt lat="45.45528" lon="4.99179">
        <ele>429.5</ele>
        <time>2023-06-11T09:58:17.000Z</time>
      </trkpt>
      <trkpt lat="45.45537" lon="4.99185">
        <ele>429.4</ele>
        <time>2023-06-11T09:58:19.000Z</time>
      </trkpt>
      <trkpt lat="45.4555" lon="4.99195">
        <ele>429.3</ele>
        <time>2023-06-11T09:58:22.000Z</time>
      </trkpt>
      <trkpt lat="45.45569" lon="4.99208">
        <ele>429.2</ele>
        <time>2023-06-11T09:58:27.000Z</time>
      </trkpt>
      <trkpt lat="45.4559" lon="4.99218">
        <ele>429.2</ele>
        <time>2023-06-11T09:58:33.000Z</time>
      </trkpt>
      <trkpt lat="45.45612" lon="4.99228">
        <ele>429.5</ele>
        <time>2023-06-11T09:58:40.000Z</time>
      </trkpt>
      <trkpt lat="45.45633" lon="4.99245">
        <ele>429.8</ele>
        <time>2023-06-11T09:58:45.000Z</time>
      </trkpt>
      <trkpt lat="45.45665" lon="4.99279">
        <ele>430.6</ele>
        <time>2023-06-11T09:58:53.000Z</time>
      </trkpt>
      <trkpt lat="45.45685" lon="4.99306">
        <ele>432</ele>
        <time>2023-06-11T09:58:59.000Z</time>
      </trkpt>
      <trkpt lat="45.45692" lon="4.99312">
        <ele>432.3</ele>
        <time>2023-06-11T09:59:02.000Z</time>
      </trkpt>
      <trkpt lat="45.45694" lon="4.99311">
        <ele>432.4</ele>
        <time>2023-06-11T09:59:03.000Z</time>
      </trkpt>
      <trkpt lat="45.45709" lon="4.99306">
        <ele>437.4</ele>
        <time>2023-06-11T09:59:07.000Z</time>
      </trkpt>
      <trkpt lat="45.45729" lon="4.99305">
        <ele>435.1</ele>
        <time>2023-06-11T09:59:13.000Z</time>
      </trkpt>
      <trkpt lat="45.45738" lon="4.99303">
        <ele>434.1</ele>
        <time>2023-06-11T09:59:16.000Z</time>
      </trkpt>
      <trkpt lat="45.45748" lon="4.99298">
        <ele>434.1</ele>
        <time>2023-06-11T09:59:19.000Z</time>
      </trkpt>
      <trkpt lat="45.45759" lon="4.99286">
        <ele>434.5</ele>
        <time>2023-06-11T09:59:23.000Z</time>
      </trkpt>
      <trkpt lat="45.45771" lon="4.99273">
        <ele>434.7</ele>
        <time>2023-06-11T09:59:27.000Z</time>
      </trkpt>
      <trkpt lat="45.45783" lon="4.99246">
        <ele>435</ele>
        <time>2023-06-11T09:59:34.000Z</time>
      </trkpt>
      <trkpt lat="45.45786" lon="4.99229">
        <ele>435</ele>
        <time>2023-06-11T09:59:38.000Z</time>
      </trkpt>
      <trkpt lat="45.45794" lon="4.99207">
        <ele>434.9</ele>
        <time>2023-06-11T09:59:43.000Z</time>
      </trkpt>
      <trkpt lat="45.45812" lon="4.99185">
        <ele>434.9</ele>
        <time>2023-06-11T09:59:49.000Z</time>
      </trkpt>
      <trkpt lat="45.45832" lon="4.99172">
        <ele>434.9</ele>
        <time>2023-06-11T09:59:54.000Z</time>
      </trkpt>
      <trkpt lat="45.45848" lon="4.99161">
        <ele>434.9</ele>
        <time>2023-06-11T09:59:58.000Z</time>
      </trkpt>
      <trkpt lat="45.45868" lon="4.99155">
        <ele>435</ele>
        <time>2023-06-11T10:00:03.000Z</time>
      </trkpt>
      <trkpt lat="45.4589" lon="4.99159">
        <ele>435.1</ele>
        <time>2023-06-11T10:00:08.000Z</time>
      </trkpt>
      <trkpt lat="45.45915" lon="4.99166">
        <ele>435.2</ele>
        <time>2023-06-11T10:00:15.000Z</time>
      </trkpt>
      <trkpt lat="45.45944" lon="4.99165">
        <ele>435.2</ele>
        <time>2023-06-11T10:00:21.000Z</time>
      </trkpt>
      <trkpt lat="45.45969" lon="4.99155">
        <ele>434.5</ele>
        <time>2023-06-11T10:00:27.000Z</time>
      </trkpt>
      <trkpt lat="45.45992" lon="4.99145">
        <ele>433</ele>
        <time>2023-06-11T10:00:31.000Z</time>
      </trkpt>
      <trkpt lat="45.45999" lon="4.99143">
        <ele>432.5</ele>
        <time>2023-06-11T10:00:32.000Z</time>
      </trkpt>
      <trkpt lat="45.46025" lon="4.99143">
        <ele>430.6</ele>
        <time>2023-06-11T10:00:35.000Z</time>
      </trkpt>
      <trkpt lat="45.46041" lon="4.99146">
        <ele>429.6</ele>
        <time>2023-06-11T10:00:37.000Z</time>
      </trkpt>
      <trkpt lat="45.46059" lon="4.99153">
        <ele>428.6</ele>
        <time>2023-06-11T10:00:39.000Z</time>
      </trkpt>
      <trkpt lat="45.46068" lon="4.99155">
        <ele>428.2</ele>
        <time>2023-06-11T10:00:40.000Z</time>
      </trkpt>
      <trkpt lat="45.46075" lon="4.99155">
        <ele>427.9</ele>
        <time>2023-06-11T10:00:41.000Z</time>
      </trkpt>
      <trkpt lat="45.46093" lon="4.99152">
        <ele>427.3</ele>
        <time>2023-06-11T10:00:43.000Z</time>
      </trkpt>
      <trkpt lat="45.46099" lon="4.9915">
        <ele>427</ele>
        <time>2023-06-11T10:00:44.000Z</time>
      </trkpt>
      <trkpt lat="45.46108" lon="4.99145">
        <ele>426.4</ele>
        <time>2023-06-11T10:00:45.000Z</time>
      </trkpt>
      <trkpt lat="45.46117" lon="4.99142">
        <ele>425.9</ele>
        <time>2023-06-11T10:00:46.000Z</time>
      </trkpt>
      <trkpt lat="45.46125" lon="4.9914">
        <ele>425.3</ele>
        <time>2023-06-11T10:00:47.000Z</time>
      </trkpt>
      <trkpt lat="45.4614" lon="4.99138">
        <ele>424.4</ele>
        <time>2023-06-11T10:00:49.000Z</time>
      </trkpt>
      <trkpt lat="45.46148" lon="4.99138">
        <ele>423.9</ele>
        <time>2023-06-11T10:00:50.000Z</time>
      </trkpt>
      <trkpt lat="45.46162" lon="4.99137">
        <ele>422.9</ele>
        <time>2023-06-11T10:00:52.000Z</time>
      </trkpt>
      <trkpt lat="45.46168" lon="4.99134">
        <ele>422.3</ele>
        <time>2023-06-11T10:00:53.000Z</time>
      </trkpt>
      <trkpt lat="45.46174" lon="4.9913">
        <ele>421.6</ele>
        <time>2023-06-11T10:00:54.000Z</time>
      </trkpt>
      <trkpt lat="45.46182" lon="4.99126">
        <ele>420.7</ele>
        <time>2023-06-11T10:00:55.000Z</time>
      </trkpt>
      <trkpt lat="45.46197" lon="4.99119">
        <ele>418.9</ele>
        <time>2023-06-11T10:00:57.000Z</time>
      </trkpt>
      <trkpt lat="45.46216" lon="4.99113">
        <ele>416.5</ele>
        <time>2023-06-11T10:01:00.000Z</time>
      </trkpt>
      <trkpt lat="45.46223" lon="4.99112">
        <ele>415.6</ele>
        <time>2023-06-11T10:01:01.000Z</time>
      </trkpt>
      <trkpt lat="45.46238" lon="4.99108">
        <ele>413.2</ele>
        <time>2023-06-11T10:01:03.000Z</time>
      </trkpt>
      <trkpt lat="45.46252" lon="4.99103">
        <ele>410.8</ele>
        <time>2023-06-11T10:01:05.000Z</time>
      </trkpt>
      <trkpt lat="45.46259" lon="4.99099">
        <ele>409.8</ele>
        <time>2023-06-11T10:01:06.000Z</time>
      </trkpt>
      <trkpt lat="45.46266" lon="4.99095">
        <ele>408.9</ele>
        <time>2023-06-11T10:01:07.000Z</time>
      </trkpt>
      <trkpt lat="45.46276" lon="4.99088">
        <ele>407.4</ele>
        <time>2023-06-11T10:01:09.000Z</time>
      </trkpt>
      <trkpt lat="45.46281" lon="4.99085">
        <ele>406.7</ele>
        <time>2023-06-11T10:01:10.000Z</time>
      </trkpt>
      <trkpt lat="45.46291" lon="4.9908">
        <ele>405.4</ele>
        <time>2023-06-11T10:01:12.000Z</time>
      </trkpt>
      <trkpt lat="45.46302" lon="4.99079">
        <ele>403.7</ele>
        <time>2023-06-11T10:01:14.000Z</time>
      </trkpt>
      <trkpt lat="45.46308" lon="4.99078">
        <ele>402.8</ele>
        <time>2023-06-11T10:01:15.000Z</time>
      </trkpt>
      <trkpt lat="45.46315" lon="4.99076">
        <ele>401.9</ele>
        <time>2023-06-11T10:01:16.000Z</time>
      </trkpt>
      <trkpt lat="45.46329" lon="4.99071">
        <ele>399.8</ele>
        <time>2023-06-11T10:01:18.000Z</time>
      </trkpt>
      <trkpt lat="45.46336" lon="4.99066">
        <ele>398.8</ele>
        <time>2023-06-11T10:01:19.000Z</time>
      </trkpt>
      <trkpt lat="45.46344" lon="4.99062">
        <ele>397.8</ele>
        <time>2023-06-11T10:01:20.000Z</time>
      </trkpt>
      <trkpt lat="45.46351" lon="4.99058">
        <ele>396.9</ele>
        <time>2023-06-11T10:01:21.000Z</time>
      </trkpt>
      <trkpt lat="45.46359" lon="4.99057">
        <ele>396</ele>
        <time>2023-06-11T10:01:22.000Z</time>
      </trkpt>
      <trkpt lat="45.46373" lon="4.99054">
        <ele>394.6</ele>
        <time>2023-06-11T10:01:24.000Z</time>
      </trkpt>
      <trkpt lat="45.4638" lon="4.99053">
        <ele>393.9</ele>
        <time>2023-06-11T10:01:25.000Z</time>
      </trkpt>
      <trkpt lat="45.46387" lon="4.99053">
        <ele>393.3</ele>
        <time>2023-06-11T10:01:26.000Z</time>
      </trkpt>
      <trkpt lat="45.46402" lon="4.99051">
        <ele>392</ele>
        <time>2023-06-11T10:01:28.000Z</time>
      </trkpt>
      <trkpt lat="45.46419" lon="4.99048">
        <ele>390.7</ele>
        <time>2023-06-11T10:01:30.000Z</time>
      </trkpt>
      <trkpt lat="45.46428" lon="4.99047">
        <ele>390</ele>
        <time>2023-06-11T10:01:31.000Z</time>
      </trkpt>
      <trkpt lat="45.46437" lon="4.99045">
        <ele>389.2</ele>
        <time>2023-06-11T10:01:32.000Z</time>
      </trkpt>
      <trkpt lat="45.46455" lon="4.99045">
        <ele>387.5</ele>
        <time>2023-06-11T10:01:34.000Z</time>
      </trkpt>
      <trkpt lat="45.46463" lon="4.99047">
        <ele>386.8</ele>
        <time>2023-06-11T10:01:35.000Z</time>
      </trkpt>
      <trkpt lat="45.46471" lon="4.99049">
        <ele>386.2</ele>
        <time>2023-06-11T10:01:36.000Z</time>
      </trkpt>
      <trkpt lat="45.46479" lon="4.99051">
        <ele>385.6</ele>
        <time>2023-06-11T10:01:37.000Z</time>
      </trkpt>
      <trkpt lat="45.46495" lon="4.99058">
        <ele>384.6</ele>
        <time>2023-06-11T10:01:39.000Z</time>
      </trkpt>
      <trkpt lat="45.46503" lon="4.99063">
        <ele>384.1</ele>
        <time>2023-06-11T10:01:40.000Z</time>
      </trkpt>
      <trkpt lat="45.46512" lon="4.99068">
        <ele>383.6</ele>
        <time>2023-06-11T10:01:41.000Z</time>
      </trkpt>
      <trkpt lat="45.46529" lon="4.99076">
        <ele>382.4</ele>
        <time>2023-06-11T10:01:43.000Z</time>
      </trkpt>
      <trkpt lat="45.46535" lon="4.9908">
        <ele>381.8</ele>
        <time>2023-06-11T10:01:44.000Z</time>
      </trkpt>
      <trkpt lat="45.46541" lon="4.99083">
        <ele>381.1</ele>
        <time>2023-06-11T10:01:45.000Z</time>
      </trkpt>
      <trkpt lat="45.46552" lon="4.99079">
        <ele>379.7</ele>
        <time>2023-06-11T10:01:47.000Z</time>
      </trkpt>
      <trkpt lat="45.46564" lon="4.99069">
        <ele>377.6</ele>
        <time>2023-06-11T10:01:49.000Z</time>
      </trkpt>
      <trkpt lat="45.4657" lon="4.99069">
        <ele>376.7</ele>
        <time>2023-06-11T10:01:50.000Z</time>
      </trkpt>
      <trkpt lat="45.46578" lon="4.99071">
        <ele>375.5</ele>
        <time>2023-06-11T10:01:51.000Z</time>
      </trkpt>
      <trkpt lat="45.4659" lon="4.99083">
        <ele>374</ele>
        <time>2023-06-11T10:01:53.000Z</time>
      </trkpt>
      <trkpt lat="45.46595" lon="4.99088">
        <ele>373.4</ele>
        <time>2023-06-11T10:01:54.000Z</time>
      </trkpt>
      <trkpt lat="45.46607" lon="4.99096">
        <ele>372.5</ele>
        <time>2023-06-11T10:01:56.000Z</time>
      </trkpt>
      <trkpt lat="45.46618" lon="4.99096">
        <ele>371.6</ele>
        <time>2023-06-11T10:01:58.000Z</time>
      </trkpt>
      <trkpt lat="45.46627" lon="4.99089">
        <ele>370.7</ele>
        <time>2023-06-11T10:02:00.000Z</time>
      </trkpt>
      <trkpt lat="45.46633" lon="4.99083">
        <ele>370</ele>
        <time>2023-06-11T10:02:01.000Z</time>
      </trkpt>
      <trkpt lat="45.46639" lon="4.99079">
        <ele>369.5</ele>
        <time>2023-06-11T10:02:02.000Z</time>
      </trkpt>
      <trkpt lat="45.46645" lon="4.99076">
        <ele>369.1</ele>
        <time>2023-06-11T10:02:03.000Z</time>
      </trkpt>
      <trkpt lat="45.46649" lon="4.99076">
        <ele>368.8</ele>
        <time>2023-06-11T10:02:04.000Z</time>
      </trkpt>
      <trkpt lat="45.46655" lon="4.99078">
        <ele>368.5</ele>
        <time>2023-06-11T10:02:05.000Z</time>
      </trkpt>
      <trkpt lat="45.4666" lon="4.99083">
        <ele>368.2</ele>
        <time>2023-06-11T10:02:06.000Z</time>
      </trkpt>
      <trkpt lat="45.46667" lon="4.99096">
        <ele>367.5</ele>
        <time>2023-06-11T10:02:08.000Z</time>
      </trkpt>
      <trkpt lat="45.46673" lon="4.99114">
        <ele>366.6</ele>
        <time>2023-06-11T10:02:10.000Z</time>
      </trkpt>
      <trkpt lat="45.46677" lon="4.99135">
        <ele>365.5</ele>
        <time>2023-06-11T10:02:12.000Z</time>
      </trkpt>
      <trkpt lat="45.46678" lon="4.99144">
        <ele>365</ele>
        <time>2023-06-11T10:02:13.000Z</time>
      </trkpt>
      <trkpt lat="45.46686" lon="4.99179">
        <ele>362.5</ele>
        <time>2023-06-11T10:02:16.000Z</time>
      </trkpt>
      <trkpt lat="45.4669" lon="4.9919">
        <ele>361.4</ele>
        <time>2023-06-11T10:02:17.000Z</time>
      </trkpt>
      <trkpt lat="45.46694" lon="4.99198">
        <ele>360.5</ele>
        <time>2023-06-11T10:02:18.000Z</time>
      </trkpt>
      <trkpt lat="45.46701" lon="4.99208">
        <ele>359.2</ele>
        <time>2023-06-11T10:02:19.000Z</time>
      </trkpt>
      <trkpt lat="45.46708" lon="4.99214">
        <ele>358.4</ele>
        <time>2023-06-11T10:02:20.000Z</time>
      </trkpt>
      <trkpt lat="45.46715" lon="4.99217">
        <ele>357.7</ele>
        <time>2023-06-11T10:02:21.000Z</time>
      </trkpt>
      <trkpt lat="45.46727" lon="4.9922">
        <ele>356.7</ele>
        <time>2023-06-11T10:02:23.000Z</time>
      </trkpt>
      <trkpt lat="45.46738" lon="4.99215">
        <ele>356.9</ele>
        <time>2023-06-11T10:02:25.000Z</time>
      </trkpt>
      <trkpt lat="45.46742" lon="4.99206">
        <ele>356.8</ele>
        <time>2023-06-11T10:02:27.000Z</time>
      </trkpt>
      <trkpt lat="45.46745" lon="4.99199">
        <ele>356.7</ele>
        <time>2023-06-11T10:02:28.000Z</time>
      </trkpt>
      <trkpt lat="45.46754" lon="4.9918">
        <ele>356.1</ele>
        <time>2023-06-11T10:02:31.000Z</time>
      </trkpt>
      <trkpt lat="45.46758" lon="4.99172">
        <ele>355.7</ele>
        <time>2023-06-11T10:02:32.000Z</time>
      </trkpt>
      <trkpt lat="45.46764" lon="4.99163">
        <ele>355.3</ele>
        <time>2023-06-11T10:02:33.000Z</time>
      </trkpt>
      <trkpt lat="45.46772" lon="4.99147">
        <ele>354.6</ele>
        <time>2023-06-11T10:02:35.000Z</time>
      </trkpt>
      <trkpt lat="45.46778" lon="4.99141">
        <ele>354.4</ele>
        <time>2023-06-11T10:02:36.000Z</time>
      </trkpt>
      <trkpt lat="45.46783" lon="4.99138">
        <ele>354.2</ele>
        <time>2023-06-11T10:02:37.000Z</time>
      </trkpt>
      <trkpt lat="45.46797" lon="4.99139">
        <ele>354.1</ele>
        <time>2023-06-11T10:02:39.000Z</time>
      </trkpt>
      <trkpt lat="45.46807" lon="4.99148">
        <ele>354.6</ele>
        <time>2023-06-11T10:02:41.000Z</time>
      </trkpt>
      <trkpt lat="45.46809" lon="4.99152">
        <ele>354.8</ele>
        <time>2023-06-11T10:02:42.000Z</time>
      </trkpt>
      <trkpt lat="45.46816" lon="4.99163">
        <ele>355.5</ele>
        <time>2023-06-11T10:02:44.000Z</time>
      </trkpt>
      <trkpt lat="45.46827" lon="4.99186">
        <ele>356.8</ele>
        <time>2023-06-11T10:02:49.000Z</time>
      </trkpt>
      <trkpt lat="45.46837" lon="4.99203">
        <ele>357.8</ele>
        <time>2023-06-11T10:02:55.000Z</time>
      </trkpt>
      <trkpt lat="45.46848" lon="4.99206">
        <ele>358.5</ele>
        <time>2023-06-11T10:02:59.000Z</time>
      </trkpt>
      <trkpt lat="45.46861" lon="4.99198">
        <ele>359.5</ele>
        <time>2023-06-11T10:03:05.000Z</time>
      </trkpt>
      <trkpt lat="45.46863" lon="4.99197">
        <ele>359.6</ele>
        <time>2023-06-11T10:03:06.000Z</time>
      </trkpt>
      <trkpt lat="45.46873" lon="4.99194">
        <ele>360.2</ele>
        <time>2023-06-11T10:03:11.000Z</time>
      </trkpt>
      <trkpt lat="45.46878" lon="4.99193">
        <ele>360.5</ele>
        <time>2023-06-11T10:03:13.000Z</time>
      </trkpt>
      <trkpt lat="45.46889" lon="4.99194">
        <ele>360.8</ele>
        <time>2023-06-11T10:03:17.000Z</time>
      </trkpt>
      <trkpt lat="45.46899" lon="4.99195">
        <ele>361</ele>
        <time>2023-06-11T10:03:20.000Z</time>
      </trkpt>
      <trkpt lat="45.46902" lon="4.99197">
        <ele>361.1</ele>
        <time>2023-06-11T10:03:21.000Z</time>
      </trkpt>
      <trkpt lat="45.46922" lon="4.99205">
        <ele>361.4</ele>
        <time>2023-06-11T10:03:27.000Z</time>
      </trkpt>
      <trkpt lat="45.46925" lon="4.99206">
        <ele>361.4</ele>
        <time>2023-06-11T10:03:28.000Z</time>
      </trkpt>
      <trkpt lat="45.46929" lon="4.99208">
        <ele>361.4</ele>
        <time>2023-06-11T10:03:29.000Z</time>
      </trkpt>
      <trkpt lat="45.46953" lon="4.99221">
        <ele>360.9</ele>
        <time>2023-06-11T10:03:36.000Z</time>
      </trkpt>
      <trkpt lat="45.46976" lon="4.99232">
        <ele>359.4</ele>
        <time>2023-06-11T10:03:41.000Z</time>
      </trkpt>
      <trkpt lat="45.47005" lon="4.99242">
        <ele>356.8</ele>
        <time>2023-06-11T10:03:46.000Z</time>
      </trkpt>
      <trkpt lat="45.47054" lon="4.99257">
        <ele>353.3</ele>
        <time>2023-06-11T10:03:53.000Z</time>
      </trkpt>
      <trkpt lat="45.47062" lon="4.99259">
        <ele>352.8</ele>
        <time>2023-06-11T10:03:54.000Z</time>
      </trkpt>
      <trkpt lat="45.47077" lon="4.99263">
        <ele>352</ele>
        <time>2023-06-11T10:03:56.000Z</time>
      </trkpt>
      <trkpt lat="45.47093" lon="4.99264">
        <ele>351.5</ele>
        <time>2023-06-11T10:03:58.000Z</time>
      </trkpt>
      <trkpt lat="45.471" lon="4.99264">
        <ele>351.4</ele>
        <time>2023-06-11T10:03:59.000Z</time>
      </trkpt>
      <trkpt lat="45.47114" lon="4.99262">
        <ele>351.1</ele>
        <time>2023-06-11T10:04:01.000Z</time>
      </trkpt>
      <trkpt lat="45.47121" lon="4.99259">
        <ele>350.9</ele>
        <time>2023-06-11T10:04:02.000Z</time>
      </trkpt>
      <trkpt lat="45.47128" lon="4.99256">
        <ele>350.7</ele>
        <time>2023-06-11T10:04:03.000Z</time>
      </trkpt>
      <trkpt lat="45.47145" lon="4.99246">
        <ele>350.2</ele>
        <time>2023-06-11T10:04:06.000Z</time>
      </trkpt>
      <trkpt lat="45.47161" lon="4.9924">
        <ele>349.8</ele>
        <time>2023-06-11T10:04:09.000Z</time>
      </trkpt>
      <trkpt lat="45.47174" lon="4.99235">
        <ele>349.3</ele>
        <time>2023-06-11T10:04:12.000Z</time>
      </trkpt>
      <trkpt lat="45.47183" lon="4.99232">
        <ele>348.8</ele>
        <time>2023-06-11T10:04:14.000Z</time>
      </trkpt>
      <trkpt lat="45.47191" lon="4.99224">
        <ele>348.3</ele>
        <time>2023-06-11T10:04:16.000Z</time>
      </trkpt>
      <trkpt lat="45.47203" lon="4.99208">
        <ele>347.2</ele>
        <time>2023-06-11T10:04:19.000Z</time>
      </trkpt>
      <trkpt lat="45.4722" lon="4.99183">
        <ele>344.7</ele>
        <time>2023-06-11T10:04:23.000Z</time>
      </trkpt>
      <trkpt lat="45.47225" lon="4.99177">
        <ele>343.8</ele>
        <time>2023-06-11T10:04:24.000Z</time>
      </trkpt>
      <trkpt lat="45.47231" lon="4.99171">
        <ele>342.8</ele>
        <time>2023-06-11T10:04:25.000Z</time>
      </trkpt>
      <trkpt lat="45.47238" lon="4.99164">
        <ele>341.9</ele>
        <time>2023-06-11T10:04:26.000Z</time>
      </trkpt>
      <trkpt lat="45.47248" lon="4.99151">
        <ele>340.2</ele>
        <time>2023-06-11T10:04:28.000Z</time>
      </trkpt>
      <trkpt lat="45.47252" lon="4.99143">
        <ele>339.5</ele>
        <time>2023-06-11T10:04:29.000Z</time>
      </trkpt>
      <trkpt lat="45.47258" lon="4.99125">
        <ele>338.3</ele>
        <time>2023-06-11T10:04:31.000Z</time>
      </trkpt>
      <trkpt lat="45.47266" lon="4.99108">
        <ele>337.3</ele>
        <time>2023-06-11T10:04:33.000Z</time>
      </trkpt>
      <trkpt lat="45.47271" lon="4.99101">
        <ele>336.8</ele>
        <time>2023-06-11T10:04:34.000Z</time>
      </trkpt>
      <trkpt lat="45.47276" lon="4.99094">
        <ele>336.4</ele>
        <time>2023-06-11T10:04:35.000Z</time>
      </trkpt>
      <trkpt lat="45.47287" lon="4.99082">
        <ele>335.5</ele>
        <time>2023-06-11T10:04:37.000Z</time>
      </trkpt>
      <trkpt lat="45.47298" lon="4.99068">
        <ele>334.4</ele>
        <time>2023-06-11T10:04:39.000Z</time>
      </trkpt>
      <trkpt lat="45.47304" lon="4.99062">
        <ele>333.8</ele>
        <time>2023-06-11T10:04:40.000Z</time>
      </trkpt>
      <trkpt lat="45.47315" lon="4.99049">
        <ele>332.6</ele>
        <time>2023-06-11T10:04:42.000Z</time>
      </trkpt>
      <trkpt lat="45.47325" lon="4.99039">
        <ele>331.5</ele>
        <time>2023-06-11T10:04:44.000Z</time>
      </trkpt>
      <trkpt lat="45.47329" lon="4.99036">
        <ele>331.1</ele>
        <time>2023-06-11T10:04:45.000Z</time>
      </trkpt>
      <trkpt lat="45.47334" lon="4.99036">
        <ele>330.9</ele>
        <time>2023-06-11T10:04:46.000Z</time>
      </trkpt>
      <trkpt lat="45.47344" lon="4.99037">
        <ele>330.3</ele>
        <time>2023-06-11T10:04:48.000Z</time>
      </trkpt>
      <trkpt lat="45.47356" lon="4.99034">
        <ele>329.7</ele>
        <time>2023-06-11T10:04:50.000Z</time>
      </trkpt>
      <trkpt lat="45.47362" lon="4.99032">
        <ele>329.3</ele>
        <time>2023-06-11T10:04:51.000Z</time>
      </trkpt>
      <trkpt lat="45.47368" lon="4.99029">
        <ele>328.8</ele>
        <time>2023-06-11T10:04:52.000Z</time>
      </trkpt>
      <trkpt lat="45.47389" lon="4.99017">
        <ele>327.1</ele>
        <time>2023-06-11T10:04:55.000Z</time>
      </trkpt>
      <trkpt lat="45.47397" lon="4.99013">
        <ele>326.4</ele>
        <time>2023-06-11T10:04:56.000Z</time>
      </trkpt>
      <trkpt lat="45.47421" lon="4.99004">
        <ele>324.4</ele>
        <time>2023-06-11T10:04:59.000Z</time>
      </trkpt>
      <trkpt lat="45.4743" lon="4.99002">
        <ele>323.5</ele>
        <time>2023-06-11T10:05:00.000Z</time>
      </trkpt>
      <trkpt lat="45.47449" lon="4.99">
        <ele>321.8</ele>
        <time>2023-06-11T10:05:02.000Z</time>
      </trkpt>
      <trkpt lat="45.47459" lon="4.99">
        <ele>321</ele>
        <time>2023-06-11T10:05:03.000Z</time>
      </trkpt>
      <trkpt lat="45.47469" lon="4.99001">
        <ele>320.4</ele>
        <time>2023-06-11T10:05:04.000Z</time>
      </trkpt>
      <trkpt lat="45.47486" lon="4.99002">
        <ele>319.4</ele>
        <time>2023-06-11T10:05:06.000Z</time>
      </trkpt>
      <trkpt lat="45.47493" lon="4.99003">
        <ele>319</ele>
        <time>2023-06-11T10:05:07.000Z</time>
      </trkpt>
      <trkpt lat="45.47503" lon="4.99008">
        <ele>318.5</ele>
        <time>2023-06-11T10:05:09.000Z</time>
      </trkpt>
      <trkpt lat="45.47505" lon="4.99011">
        <ele>318.7</ele>
        <time>2023-06-11T10:05:10.000Z</time>
      </trkpt>
      <trkpt lat="45.47506" lon="4.99016">
        <ele>318.9</ele>
        <time>2023-06-11T10:05:11.000Z</time>
      </trkpt>
      <trkpt lat="45.47507" lon="4.9902">
        <ele>319</ele>
        <time>2023-06-11T10:05:12.000Z</time>
      </trkpt>
      <trkpt lat="45.47507" lon="4.99025">
        <ele>319.2</ele>
        <time>2023-06-11T10:05:13.000Z</time>
      </trkpt>
      <trkpt lat="45.47507" lon="4.99031">
        <ele>319.3</ele>
        <time>2023-06-11T10:05:14.000Z</time>
      </trkpt>
      <trkpt lat="45.47509" lon="4.99061">
        <ele>320.2</ele>
        <time>2023-06-11T10:05:19.000Z</time>
      </trkpt>
      <trkpt lat="45.47514" lon="4.99084">
        <ele>320.8</ele>
        <time>2023-06-11T10:05:23.000Z</time>
      </trkpt>
      <trkpt lat="45.47517" lon="4.99099">
        <ele>320.7</ele>
        <time>2023-06-11T10:05:26.000Z</time>
      </trkpt>
      <trkpt lat="45.47521" lon="4.99115">
        <ele>319.9</ele>
        <time>2023-06-11T10:05:29.000Z</time>
      </trkpt>
      <trkpt lat="45.47525" lon="4.99127">
        <ele>318.6</ele>
        <time>2023-06-11T10:05:31.000Z</time>
      </trkpt>
      <trkpt lat="45.47528" lon="4.99133">
        <ele>317.7</ele>
        <time>2023-06-11T10:05:32.000Z</time>
      </trkpt>
      <trkpt lat="45.4753" lon="4.99141">
        <ele>316.7</ele>
        <time>2023-06-11T10:05:33.000Z</time>
      </trkpt>
      <trkpt lat="45.47535" lon="4.99157">
        <ele>314.4</ele>
        <time>2023-06-11T10:05:36.000Z</time>
      </trkpt>
      <trkpt lat="45.47538" lon="4.99175">
        <ele>311.9</ele>
        <time>2023-06-11T10:05:40.000Z</time>
      </trkpt>
      <trkpt lat="45.47536" lon="4.99194">
        <ele>309.6</ele>
        <time>2023-06-11T10:05:43.000Z</time>
      </trkpt>
      <trkpt lat="45.47535" lon="4.99208">
        <ele>308.6</ele>
        <time>2023-06-11T10:05:45.000Z</time>
      </trkpt>
      <trkpt lat="45.47532" lon="4.99215">
        <ele>308</ele>
        <time>2023-06-11T10:05:46.000Z</time>
      </trkpt>
      <trkpt lat="45.4753" lon="4.99222">
        <ele>307.4</ele>
        <time>2023-06-11T10:05:47.000Z</time>
      </trkpt>
      <trkpt lat="45.47527" lon="4.99231">
        <ele>306.6</ele>
        <time>2023-06-11T10:05:48.000Z</time>
      </trkpt>
      <trkpt lat="45.47527" lon="4.9924">
        <ele>305.9</ele>
        <time>2023-06-11T10:05:49.000Z</time>
      </trkpt>
      <trkpt lat="45.47526" lon="4.99249">
        <ele>305.2</ele>
        <time>2023-06-11T10:05:50.000Z</time>
      </trkpt>
      <trkpt lat="45.47526" lon="4.99258">
        <ele>304.7</ele>
        <time>2023-06-11T10:05:51.000Z</time>
      </trkpt>
      <trkpt lat="45.47528" lon="4.99265">
        <ele>304</ele>
        <time>2023-06-11T10:05:52.000Z</time>
      </trkpt>
      <trkpt lat="45.4753" lon="4.99272">
        <ele>303.2</ele>
        <time>2023-06-11T10:05:53.000Z</time>
      </trkpt>
      <trkpt lat="45.47532" lon="4.9928">
        <ele>302.1</ele>
        <time>2023-06-11T10:05:54.000Z</time>
      </trkpt>
      <trkpt lat="45.47539" lon="4.99301">
        <ele>298.8</ele>
        <time>2023-06-11T10:05:56.000Z</time>
      </trkpt>
      <trkpt lat="45.47543" lon="4.9931">
        <ele>297.2</ele>
        <time>2023-06-11T10:05:57.000Z</time>
      </trkpt>
      <trkpt lat="45.47546" lon="4.9932">
        <ele>295.4</ele>
        <time>2023-06-11T10:05:58.000Z</time>
      </trkpt>
      <trkpt lat="45.47549" lon="4.9934">
        <ele>292.4</ele>
        <time>2023-06-11T10:06:00.000Z</time>
      </trkpt>
      <trkpt lat="45.47546" lon="4.99365">
        <ele>288.8</ele>
        <time>2023-06-11T10:06:02.000Z</time>
      </trkpt>
      <trkpt lat="45.47541" lon="4.99378">
        <ele>286.8</ele>
        <time>2023-06-11T10:06:03.000Z</time>
      </trkpt>
      <trkpt lat="45.47534" lon="4.99391">
        <ele>285</ele>
        <time>2023-06-11T10:06:04.000Z</time>
      </trkpt>
      <trkpt lat="45.47529" lon="4.99403">
        <ele>283.6</ele>
        <time>2023-06-11T10:06:05.000Z</time>
      </trkpt>
      <trkpt lat="45.47523" lon="4.99414">
        <ele>282.5</ele>
        <time>2023-06-11T10:06:06.000Z</time>
      </trkpt>
      <trkpt lat="45.47517" lon="4.99423">
        <ele>281.6</ele>
        <time>2023-06-11T10:06:07.000Z</time>
      </trkpt>
      <trkpt lat="45.47512" lon="4.99433">
        <ele>280.8</ele>
        <time>2023-06-11T10:06:08.000Z</time>
      </trkpt>
      <trkpt lat="45.47508" lon="4.99442">
        <ele>280.1</ele>
        <time>2023-06-11T10:06:09.000Z</time>
      </trkpt>
      <trkpt lat="45.47504" lon="4.9945">
        <ele>279.5</ele>
        <time>2023-06-11T10:06:10.000Z</time>
      </trkpt>
      <trkpt lat="45.475" lon="4.99458">
        <ele>278.9</ele>
        <time>2023-06-11T10:06:11.000Z</time>
      </trkpt>
      <trkpt lat="45.47496" lon="4.99464">
        <ele>278.4</ele>
        <time>2023-06-11T10:06:12.000Z</time>
      </trkpt>
      <trkpt lat="45.47494" lon="4.99469">
        <ele>278.1</ele>
        <time>2023-06-11T10:06:13.000Z</time>
      </trkpt>
      <trkpt lat="45.47492" lon="4.99474">
        <ele>277.7</ele>
        <time>2023-06-11T10:06:14.000Z</time>
      </trkpt>
      <trkpt lat="45.4749" lon="4.99478">
        <ele>277.4</ele>
        <time>2023-06-11T10:06:15.000Z</time>
      </trkpt>
      <trkpt lat="45.47489" lon="4.9948">
        <ele>277.2</ele>
        <time>2023-06-11T10:06:16.000Z</time>
      </trkpt>
      <trkpt lat="45.47489" lon="4.99481">
        <ele>277</ele>
        <time>2023-06-11T10:06:17.000Z</time>
      </trkpt>
      <trkpt lat="45.47488" lon="4.99482">
        <ele>276.9</ele>
        <time>2023-06-11T10:06:18.000Z</time>
      </trkpt>
      <trkpt lat="45.47487" lon="4.99483">
        <ele>276.8</ele>
        <time>2023-06-11T10:06:19.000Z</time>
      </trkpt>
      <trkpt lat="45.47485" lon="4.99484">
        <ele>276.5</ele>
        <time>2023-06-11T10:06:21.000Z</time>
      </trkpt>
      <trkpt lat="45.47484" lon="4.99485">
        <ele>276.2</ele>
        <time>2023-06-11T10:06:22.000Z</time>
      </trkpt>
      <trkpt lat="45.47483" lon="4.99488">
        <ele>275.9</ele>
        <time>2023-06-11T10:06:23.000Z</time>
      </trkpt>
      <trkpt lat="45.47482" lon="4.99491">
        <ele>275.5</ele>
        <time>2023-06-11T10:06:24.000Z</time>
      </trkpt>
      <trkpt lat="45.47477" lon="4.9951">
        <ele>273.7</ele>
        <time>2023-06-11T10:06:27.000Z</time>
      </trkpt>
      <trkpt lat="45.47475" lon="4.99518">
        <ele>273.1</ele>
        <time>2023-06-11T10:06:28.000Z</time>
      </trkpt>
      <trkpt lat="45.47472" lon="4.99527">
        <ele>272.5</ele>
        <time>2023-06-11T10:06:29.000Z</time>
      </trkpt>
      <trkpt lat="45.47466" lon="4.99542">
        <ele>271.7</ele>
        <time>2023-06-11T10:06:31.000Z</time>
      </trkpt>
      <trkpt lat="45.47459" lon="4.99566">
        <ele>271.4</ele>
        <time>2023-06-11T10:06:34.000Z</time>
      </trkpt>
      <trkpt lat="45.47455" lon="4.99574">
        <ele>271.3</ele>
        <time>2023-06-11T10:06:35.000Z</time>
      </trkpt>
      <trkpt lat="45.47448" lon="4.99587">
        <ele>271</ele>
        <time>2023-06-11T10:06:37.000Z</time>
      </trkpt>
      <trkpt lat="45.47443" lon="4.99591">
        <ele>271.3</ele>
        <time>2023-06-11T10:06:38.000Z</time>
      </trkpt>
      <trkpt lat="45.47438" lon="4.99592">
        <ele>272.1</ele>
        <time>2023-06-11T10:06:39.000Z</time>
      </trkpt>
      <trkpt lat="45.47435" lon="4.99591">
        <ele>272.7</ele>
        <time>2023-06-11T10:06:40.000Z</time>
      </trkpt>
      <trkpt lat="45.47428" lon="4.99589">
        <ele>273.8</ele>
        <time>2023-06-11T10:06:42.000Z</time>
      </trkpt>
      <trkpt lat="45.47426" lon="4.99588">
        <ele>274.2</ele>
        <time>2023-06-11T10:06:43.000Z</time>
      </trkpt>
      <trkpt lat="45.47415" lon="4.99585">
        <ele>276.2</ele>
        <time>2023-06-11T10:06:48.000Z</time>
      </trkpt>
      <trkpt lat="45.4741" lon="4.99584">
        <ele>277</ele>
        <time>2023-06-11T10:06:50.000Z</time>
      </trkpt>
      <trkpt lat="45.47404" lon="4.99582">
        <ele>277.9</ele>
        <time>2023-06-11T10:06:53.000Z</time>
      </trkpt>
      <trkpt lat="45.47397" lon="4.99581">
        <ele>278.7</ele>
        <time>2023-06-11T10:06:56.000Z</time>
      </trkpt>
      <trkpt lat="45.47387" lon="4.99578">
        <ele>279.4</ele>
        <time>2023-06-11T10:07:00.000Z</time>
      </trkpt>
      <trkpt lat="45.4738" lon="4.9958">
        <ele>279.6</ele>
        <time>2023-06-11T10:07:03.000Z</time>
      </trkpt>
      <trkpt lat="45.47377" lon="4.99583">
        <ele>279.4</ele>
        <time>2023-06-11T10:07:04.000Z</time>
      </trkpt>
      <trkpt lat="45.47374" lon="4.99586">
        <ele>279.2</ele>
        <time>2023-06-11T10:07:05.000Z</time>
      </trkpt>
      <trkpt lat="45.4736" lon="4.99596">
        <ele>278.4</ele>
        <time>2023-06-11T10:07:08.000Z</time>
      </trkpt>
      <trkpt lat="45.47331" lon="4.99616">
        <ele>277.2</ele>
        <time>2023-06-11T10:07:13.000Z</time>
      </trkpt>
      <trkpt lat="45.47327" lon="4.99626">
        <ele>276.2</ele>
        <time>2023-06-11T10:07:15.000Z</time>
      </trkpt>
      <trkpt lat="45.47327" lon="4.99631">
        <ele>275.7</ele>
        <time>2023-06-11T10:07:16.000Z</time>
      </trkpt>
      <trkpt lat="45.47327" lon="4.99662">
        <ele>273.1</ele>
        <time>2023-06-11T10:07:20.000Z</time>
      </trkpt>
      <trkpt lat="45.47326" lon="4.99667">
        <ele>272.8</ele>
        <time>2023-06-11T10:07:21.000Z</time>
      </trkpt>
      <trkpt lat="45.47325" lon="4.9967">
        <ele>272.6</ele>
        <time>2023-06-11T10:07:22.000Z</time>
      </trkpt>
      <trkpt lat="45.47323" lon="4.99672">
        <ele>272.7</ele>
        <time>2023-06-11T10:07:23.000Z</time>
      </trkpt>
      <trkpt lat="45.47314" lon="4.9967">
        <ele>272.9</ele>
        <time>2023-06-11T10:07:26.000Z</time>
      </trkpt>
      <trkpt lat="45.47308" lon="4.99669">
        <ele>273.1</ele>
        <time>2023-06-11T10:07:28.000Z</time>
      </trkpt>
      <trkpt lat="45.47305" lon="4.99668">
        <ele>273.2</ele>
        <time>2023-06-11T10:07:29.000Z</time>
      </trkpt>
      <trkpt lat="45.47301" lon="4.99667">
        <ele>273.3</ele>
        <time>2023-06-11T10:07:30.000Z</time>
      </trkpt>
      <trkpt lat="45.47289" lon="4.99666">
        <ele>274</ele>
        <time>2023-06-11T10:07:34.000Z</time>
      </trkpt>
      <trkpt lat="45.47287" lon="4.99668">
        <ele>274</ele>
        <time>2023-06-11T10:07:35.000Z</time>
      </trkpt>
      <trkpt lat="45.47285" lon="4.99681">
        <ele>274</ele>
        <time>2023-06-11T10:07:39.000Z</time>
      </trkpt>
      <trkpt lat="45.47285" lon="4.99685">
        <ele>274</ele>
        <time>2023-06-11T10:07:40.000Z</time>
      </trkpt>
    </trkseg>
  </trk>
</gpx>